<?xml version='1.0' encoding='UTF-8'?><gpx version="1.1" creator="JPX - https://github.com/jenetics/jpx" xmlns="http://www.topografix.com/GPX/1/1"><trk><trkseg><trkpt lat="45.4684355" lon="11.1781057"><ele>167.0</ele><time>2026-04-12T06:48:00.55Z</time></trkpt><trkpt lat="45.4685097" lon="11.1781046"><ele>167.0</ele><time>2026-04-12T06:48:04.55Z</time></trkpt><trkpt lat="45.4685887" lon="11.1781043"><ele>167.0</ele><time>2026-04-12T06:48:07.553Z</time></trkpt><trkpt lat="45.468655" lon="11.1781126"><ele>167.0</ele><time>2026-04-12T06:48:09.557Z</time></trkpt><trkpt lat="45.4687216" lon="11.1781038"><ele>167.0</ele><time>2026-04-12T06:48:11.602Z</time></trkpt><trkpt lat="45.468816" lon="11.1781013"><ele>167.0</ele><time>2026-04-12T06:48:14.553Z</time></trkpt><trkpt lat="45.4689072" lon="11.178098"><ele>167.42857142857142</ele><time>2026-04-12T06:48:17.555Z</time></trkpt><trkpt lat="45.4689939" lon="11.1781061"><ele>167.85714285714286</ele><time>2026-04-12T06:48:20.552Z</time></trkpt><trkpt lat="45.4690612" lon="11.1781109"><ele>168.28571428571428</ele><time>2026-04-12T06:48:22.569Z</time></trkpt><trkpt lat="45.4691261" lon="11.1781129"><ele>168.71428571428572</ele><time>2026-04-12T06:48:24.554Z</time></trkpt><trkpt lat="45.4691894" lon="11.1781136"><ele>169.14285714285714</ele><time>2026-04-12T06:48:26.55Z</time></trkpt><trkpt lat="45.4692795" lon="11.1781163"><ele>169.57142857142858</ele><time>2026-04-12T06:48:29.551Z</time></trkpt><trkpt lat="45.4693417" lon="11.1781311"><ele>170.0</ele><time>2026-04-12T06:48:31.543Z</time></trkpt><trkpt lat="45.4694171" lon="11.1781554"><ele>170.0</ele><time>2026-04-12T06:48:34.542Z</time></trkpt><trkpt lat="45.4694789" lon="11.1781749"><ele>170.0</ele><time>2026-04-12T06:48:36.548Z</time></trkpt><trkpt lat="45.4695459" lon="11.1781954"><ele>170.0</ele><time>2026-04-12T06:48:38.554Z</time></trkpt><trkpt lat="45.4696094" lon="11.1782148"><ele>170.0</ele><time>2026-04-12T06:48:40.543Z</time></trkpt><trkpt lat="45.4697003" lon="11.178238"><ele>170.0</ele><time>2026-04-12T06:48:43.547Z</time></trkpt><trkpt lat="45.4697837" lon="11.1782607"><ele>170.0</ele><time>2026-04-12T06:48:46.548Z</time></trkpt><trkpt lat="45.4698668" lon="11.1782772"><ele>170.2857142857143</ele><time>2026-04-12T06:48:49.602Z</time></trkpt><trkpt lat="45.4699576" lon="11.1782972"><ele>170.57142857142856</ele><time>2026-04-12T06:48:52.613Z</time></trkpt><trkpt lat="45.4700197" lon="11.1783172"><ele>170.85714285714286</ele><time>2026-04-12T06:48:54.551Z</time></trkpt><trkpt lat="45.4700813" lon="11.1783406"><ele>171.14285714285717</ele><time>2026-04-12T06:48:56.59Z</time></trkpt><trkpt lat="45.4701482" lon="11.178359"><ele>171.42857142857144</ele><time>2026-04-12T06:48:58.611Z</time></trkpt><trkpt lat="45.4702163" lon="11.1783745"><ele>171.71428571428572</ele><time>2026-04-12T06:49:00.558Z</time></trkpt><trkpt lat="45.4702814" lon="11.1783955"><ele>172.0</ele><time>2026-04-12T06:49:02.592Z</time></trkpt><trkpt lat="45.4703452" lon="11.1784089"><ele>172.0</ele><time>2026-04-12T06:49:04.6Z</time></trkpt><trkpt lat="45.470425" lon="11.1784368"><ele>172.0</ele><time>2026-04-12T06:49:07.596Z</time></trkpt><trkpt lat="45.4704899" lon="11.1784509"><ele>172.0</ele><time>2026-04-12T06:49:09.599Z</time></trkpt><trkpt lat="45.4705636" lon="11.1784586"><ele>172.0</ele><time>2026-04-12T06:49:11.566Z</time></trkpt><trkpt lat="45.4706356" lon="11.178472"><ele>172.0</ele><time>2026-04-12T06:49:13.594Z</time></trkpt><trkpt lat="45.4707379" lon="11.1784966"><ele>172.0</ele><time>2026-04-12T06:49:16.562Z</time></trkpt><trkpt lat="45.4708023" lon="11.1785165"><ele>172.5</ele><time>2026-04-12T06:49:18.61Z</time></trkpt><trkpt lat="45.4708665" lon="11.1785304"><ele>173.0</ele><time>2026-04-12T06:49:20.621Z</time></trkpt><trkpt lat="45.470926" lon="11.1786002"><ele>173.5</ele><time>2026-04-12T06:49:23.601Z</time></trkpt><trkpt lat="45.4709302" lon="11.178727"><ele>174.0</ele><time>2026-04-12T06:49:26.563Z</time></trkpt><trkpt lat="45.4709265" lon="11.1788335"><ele>174.5</ele><time>2026-04-12T06:49:28.551Z</time></trkpt><trkpt lat="45.4709213" lon="11.1789412"><ele>175.0</ele><time>2026-04-12T06:49:30.556Z</time></trkpt><trkpt lat="45.4709231" lon="11.1790514"><ele>175.16666666666669</ele><time>2026-04-12T06:49:32.55Z</time></trkpt><trkpt lat="45.4709162" lon="11.1791597"><ele>175.33333333333334</ele><time>2026-04-12T06:49:34.569Z</time></trkpt><trkpt lat="45.470906" lon="11.1792724"><ele>175.5</ele><time>2026-04-12T06:49:36.566Z</time></trkpt><trkpt lat="45.4709126" lon="11.1793887"><ele>175.66666666666666</ele><time>2026-04-12T06:49:38.567Z</time></trkpt><trkpt lat="45.4709617" lon="11.1794856"><ele>175.83333333333331</ele><time>2026-04-12T06:49:40.564Z</time></trkpt><trkpt lat="45.471043" lon="11.179517"><ele>176.0</ele><time>2026-04-12T06:49:42.556Z</time></trkpt><trkpt lat="45.4711266" lon="11.1795297"><ele>176.0</ele><time>2026-04-12T06:49:44.58Z</time></trkpt><trkpt lat="45.471208" lon="11.1795416"><ele>176.0</ele><time>2026-04-12T06:49:46.586Z</time></trkpt><trkpt lat="45.4712866" lon="11.1795513"><ele>176.0</ele><time>2026-04-12T06:49:48.564Z</time></trkpt><trkpt lat="45.4713618" lon="11.1795563"><ele>176.0</ele><time>2026-04-12T06:49:50.602Z</time></trkpt><trkpt lat="45.4714403" lon="11.1795541"><ele>176.0</ele><time>2026-04-12T06:49:52.55Z</time></trkpt><trkpt lat="45.4715186" lon="11.1795616"><ele>176.0</ele><time>2026-04-12T06:49:54.563Z</time></trkpt><trkpt lat="45.4715925" lon="11.179569"><ele>176.16666666666666</ele><time>2026-04-12T06:49:56.605Z</time></trkpt><trkpt lat="45.4716575" lon="11.17965"><ele>176.33333333333331</ele><time>2026-04-12T06:49:59.596Z</time></trkpt><trkpt lat="45.47166" lon="11.1797432"><ele>176.5</ele><time>2026-04-12T06:50:01.591Z</time></trkpt><trkpt lat="45.4716545" lon="11.179849"><ele>176.66666666666666</ele><time>2026-04-12T06:50:03.56Z</time></trkpt><trkpt lat="45.4716549" lon="11.1799645"><ele>176.83333333333334</ele><time>2026-04-12T06:50:05.6Z</time></trkpt><trkpt lat="45.4716528" lon="11.1800835"><ele>177.0</ele><time>2026-04-12T06:50:07.598Z</time></trkpt><trkpt lat="45.4716483" lon="11.1802043"><ele>177.16666666666666</ele><time>2026-04-12T06:50:09.56Z</time></trkpt><trkpt lat="45.4716478" lon="11.180321"><ele>177.33333333333334</ele><time>2026-04-12T06:50:11.598Z</time></trkpt><trkpt lat="45.4716544" lon="11.1804318"><ele>177.5</ele><time>2026-04-12T06:50:13.565Z</time></trkpt><trkpt lat="45.4716605" lon="11.1805318"><ele>177.66666666666669</ele><time>2026-04-12T06:50:15.556Z</time></trkpt><trkpt lat="45.4717146" lon="11.1805924"><ele>177.83333333333334</ele><time>2026-04-12T06:50:17.621Z</time></trkpt><trkpt lat="45.4717847" lon="11.1806501"><ele>178.0</ele><time>2026-04-12T06:50:19.547Z</time></trkpt><trkpt lat="45.471861" lon="11.1806874"><ele>178.0</ele><time>2026-04-12T06:50:21.613Z</time></trkpt><trkpt lat="45.471914" lon="11.1807641"><ele>178.0</ele><time>2026-04-12T06:50:24.563Z</time></trkpt><trkpt lat="45.4719809" lon="11.1808408"><ele>178.0</ele><time>2026-04-12T06:50:30.573Z</time></trkpt><trkpt lat="45.472055" lon="11.1808483"><ele>178.0</ele><time>2026-04-12T06:50:32.604Z</time></trkpt><trkpt lat="45.4721297" lon="11.1808405"><ele>178.0</ele><time>2026-04-12T06:50:34.55Z</time></trkpt><trkpt lat="45.4722061" lon="11.1808465"><ele>178.0</ele><time>2026-04-12T06:50:36.557Z</time></trkpt><trkpt lat="45.4722822" lon="11.1808553"><ele>178.33333333333334</ele><time>2026-04-12T06:50:38.554Z</time></trkpt><trkpt lat="45.4723587" lon="11.1808694"><ele>178.66666666666669</ele><time>2026-04-12T06:50:40.595Z</time></trkpt><trkpt lat="45.4724363" lon="11.1808864"><ele>179.0</ele><time>2026-04-12T06:50:42.623Z</time></trkpt><trkpt lat="45.4725136" lon="11.1809091"><ele>179.33333333333334</ele><time>2026-04-12T06:50:44.548Z</time></trkpt><trkpt lat="45.4725942" lon="11.1809458"><ele>179.66666666666666</ele><time>2026-04-12T06:50:46.566Z</time></trkpt><trkpt lat="45.4726691" lon="11.1809963"><ele>180.0</ele><time>2026-04-12T06:50:48.546Z</time></trkpt><trkpt lat="45.4727391" lon="11.1810388"><ele>180.0</ele><time>2026-04-12T06:50:50.563Z</time></trkpt><trkpt lat="45.4728128" lon="11.1811233"><ele>180.0</ele><time>2026-04-12T06:50:53.59Z</time></trkpt><trkpt lat="45.4728392" lon="11.181217"><ele>180.0</ele><time>2026-04-12T06:50:55.572Z</time></trkpt><trkpt lat="45.4728637" lon="11.1813119"><ele>180.0</ele><time>2026-04-12T06:50:57.562Z</time></trkpt><trkpt lat="45.4728967" lon="11.1814022"><ele>180.0</ele><time>2026-04-12T06:50:59.561Z</time></trkpt><trkpt lat="45.4729364" lon="11.1814871"><ele>180.0</ele><time>2026-04-12T06:51:01.594Z</time></trkpt><trkpt lat="45.472982" lon="11.1815691"><ele>180.28571428571428</ele><time>2026-04-12T06:51:03.554Z</time></trkpt><trkpt lat="45.4730337" lon="11.1816459"><ele>180.57142857142858</ele><time>2026-04-12T06:51:05.589Z</time></trkpt><trkpt lat="45.4730867" lon="11.1817129"><ele>180.85714285714286</ele><time>2026-04-12T06:51:07.603Z</time></trkpt><trkpt lat="45.4731449" lon="11.1817688"><ele>181.14285714285714</ele><time>2026-04-12T06:51:09.562Z</time></trkpt><trkpt lat="45.4732027" lon="11.1818306"><ele>181.42857142857144</ele><time>2026-04-12T06:51:11.555Z</time></trkpt><trkpt lat="45.4732649" lon="11.1818908"><ele>181.71428571428572</ele><time>2026-04-12T06:51:13.57Z</time></trkpt><trkpt lat="45.4733305" lon="11.1819423"><ele>182.0</ele><time>2026-04-12T06:51:15.577Z</time></trkpt><trkpt lat="45.473394" lon="11.1820003"><ele>182.0</ele><time>2026-04-12T06:51:17.563Z</time></trkpt><trkpt lat="45.4734561" lon="11.182053"><ele>182.0</ele><time>2026-04-12T06:51:19.555Z</time></trkpt><trkpt lat="45.4735211" lon="11.182115"><ele>182.0</ele><time>2026-04-12T06:51:21.555Z</time></trkpt><trkpt lat="45.4735868" lon="11.1821808"><ele>182.0</ele><time>2026-04-12T06:51:23.553Z</time></trkpt><trkpt lat="45.4736524" lon="11.1822433"><ele>182.0</ele><time>2026-04-12T06:51:25.564Z</time></trkpt><trkpt lat="45.4737179" lon="11.1823039"><ele>182.0</ele><time>2026-04-12T06:51:27.544Z</time></trkpt><trkpt lat="45.4737796" lon="11.1823671"><ele>182.14285714285714</ele><time>2026-04-12T06:51:29.624Z</time></trkpt><trkpt lat="45.4738432" lon="11.1824233"><ele>182.28571428571428</ele><time>2026-04-12T06:51:31.565Z</time></trkpt><trkpt lat="45.4739104" lon="11.1824743"><ele>182.42857142857144</ele><time>2026-04-12T06:51:33.555Z</time></trkpt><trkpt lat="45.473969" lon="11.182539"><ele>182.57142857142856</ele><time>2026-04-12T06:51:35.554Z</time></trkpt><trkpt lat="45.4740288" lon="11.1826009"><ele>182.71428571428572</ele><time>2026-04-12T06:51:37.554Z</time></trkpt><trkpt lat="45.4740893" lon="11.1826598"><ele>182.85714285714286</ele><time>2026-04-12T06:51:39.603Z</time></trkpt><trkpt lat="45.4741533" lon="11.1827188"><ele>183.0</ele><time>2026-04-12T06:51:41.566Z</time></trkpt><trkpt lat="45.4742161" lon="11.1827764"><ele>183.0</ele><time>2026-04-12T06:51:43.557Z</time></trkpt><trkpt lat="45.4742756" lon="11.1828386"><ele>183.0</ele><time>2026-04-12T06:51:45.55Z</time></trkpt><trkpt lat="45.474336" lon="11.1829027"><ele>183.0</ele><time>2026-04-12T06:51:47.553Z</time></trkpt><trkpt lat="45.4743946" lon="11.1829659"><ele>183.0</ele><time>2026-04-12T06:51:49.554Z</time></trkpt><trkpt lat="45.4744505" lon="11.1830317"><ele>183.0</ele><time>2026-04-12T06:51:51.564Z</time></trkpt><trkpt lat="45.4745047" lon="11.1830991"><ele>183.0</ele><time>2026-04-12T06:51:53.562Z</time></trkpt><trkpt lat="45.4745593" lon="11.1831627"><ele>183.0</ele><time>2026-04-12T06:51:55.564Z</time></trkpt><trkpt lat="45.4746108" lon="11.1832275"><ele>183.28571428571428</ele><time>2026-04-12T06:51:57.554Z</time></trkpt><trkpt lat="45.4746606" lon="11.1832912"><ele>183.57142857142858</ele><time>2026-04-12T06:51:59.573Z</time></trkpt><trkpt lat="45.4747132" lon="11.183354"><ele>183.85714285714283</ele><time>2026-04-12T06:52:01.591Z</time></trkpt><trkpt lat="45.4747701" lon="11.1834212"><ele>184.14285714285714</ele><time>2026-04-12T06:52:03.561Z</time></trkpt><trkpt lat="45.4748236" lon="11.1834868"><ele>184.42857142857142</ele><time>2026-04-12T06:52:05.558Z</time></trkpt><trkpt lat="45.4748817" lon="11.1835444"><ele>184.7142857142857</ele><time>2026-04-12T06:52:07.558Z</time></trkpt><trkpt lat="45.474942" lon="11.1836038"><ele>185.0</ele><time>2026-04-12T06:52:09.588Z</time></trkpt><trkpt lat="45.4750071" lon="11.1836514"><ele>184.99999999999997</ele><time>2026-04-12T06:52:11.55Z</time></trkpt><trkpt lat="45.4750761" lon="11.1836934"><ele>185.0</ele><time>2026-04-12T06:52:13.569Z</time></trkpt><trkpt lat="45.4751442" lon="11.1837196"><ele>185.0</ele><time>2026-04-12T06:52:15.565Z</time></trkpt><trkpt lat="45.4752113" lon="11.1837473"><ele>185.0</ele><time>2026-04-12T06:52:17.566Z</time></trkpt><trkpt lat="45.4752818" lon="11.1837736"><ele>185.0</ele><time>2026-04-12T06:52:19.554Z</time></trkpt><trkpt lat="45.4753515" lon="11.1838003"><ele>184.99999999999997</ele><time>2026-04-12T06:52:21.55Z</time></trkpt><trkpt lat="45.4754244" lon="11.1838317"><ele>185.0</ele><time>2026-04-12T06:52:23.549Z</time></trkpt><trkpt lat="45.4754963" lon="11.1838534"><ele>185.16666666666666</ele><time>2026-04-12T06:52:25.546Z</time></trkpt><trkpt lat="45.4755661" lon="11.1838708"><ele>185.33333333333331</ele><time>2026-04-12T06:52:27.606Z</time></trkpt><trkpt lat="45.4756362" lon="11.1838895"><ele>185.5</ele><time>2026-04-12T06:52:29.557Z</time></trkpt><trkpt lat="45.4757086" lon="11.183917"><ele>185.66666666666666</ele><time>2026-04-12T06:52:31.563Z</time></trkpt><trkpt lat="45.4757858" lon="11.1839441"><ele>185.83333333333334</ele><time>2026-04-12T06:52:33.552Z</time></trkpt><trkpt lat="45.4758613" lon="11.1839848"><ele>186.0</ele><time>2026-04-12T06:52:35.631Z</time></trkpt><trkpt lat="45.4759388" lon="11.1840229"><ele>186.0</ele><time>2026-04-12T06:52:37.555Z</time></trkpt><trkpt lat="45.4760179" lon="11.1840546"><ele>186.0</ele><time>2026-04-12T06:52:39.633Z</time></trkpt><trkpt lat="45.4760933" lon="11.1840999"><ele>186.0</ele><time>2026-04-12T06:52:41.598Z</time></trkpt><trkpt lat="45.4761725" lon="11.1841345"><ele>186.0</ele><time>2026-04-12T06:52:43.564Z</time></trkpt><trkpt lat="45.4762521" lon="11.1841637"><ele>186.0</ele><time>2026-04-12T06:52:45.561Z</time></trkpt><trkpt lat="45.4763303" lon="11.1841971"><ele>186.0</ele><time>2026-04-12T06:52:47.561Z</time></trkpt><trkpt lat="45.4764084" lon="11.1842308"><ele>186.5</ele><time>2026-04-12T06:52:49.598Z</time></trkpt><trkpt lat="45.4764851" lon="11.1842602"><ele>187.0</ele><time>2026-04-12T06:52:51.563Z</time></trkpt><trkpt lat="45.4765573" lon="11.1842977"><ele>187.5</ele><time>2026-04-12T06:52:53.553Z</time></trkpt><trkpt lat="45.4766287" lon="11.1843416"><ele>188.0</ele><time>2026-04-12T06:52:55.556Z</time></trkpt><trkpt lat="45.4766961" lon="11.1843874"><ele>188.5</ele><time>2026-04-12T06:52:57.602Z</time></trkpt><trkpt lat="45.47676" lon="11.1844494"><ele>189.0</ele><time>2026-04-12T06:52:59.548Z</time></trkpt><trkpt lat="45.4768195" lon="11.1845246"><ele>189.0</ele><time>2026-04-12T06:53:01.557Z</time></trkpt><trkpt lat="45.476878" lon="11.1846022"><ele>189.0</ele><time>2026-04-12T06:53:03.556Z</time></trkpt><trkpt lat="45.476934" lon="11.1846782"><ele>189.0</ele><time>2026-04-12T06:53:05.573Z</time></trkpt><trkpt lat="45.4770039" lon="11.1847255"><ele>189.0</ele><time>2026-04-12T06:53:07.559Z</time></trkpt><trkpt lat="45.4770906" lon="11.1847078"><ele>189.0</ele><time>2026-04-12T06:53:09.548Z</time></trkpt><trkpt lat="45.4771659" lon="11.1846662"><ele>189.0</ele><time>2026-04-12T06:53:11.556Z</time></trkpt><trkpt lat="45.4772319" lon="11.1846175"><ele>189.16666666666666</ele><time>2026-04-12T06:53:13.547Z</time></trkpt><trkpt lat="45.4772927" lon="11.1845785"><ele>189.33333333333334</ele><time>2026-04-12T06:53:15.559Z</time></trkpt><trkpt lat="45.4773757" lon="11.1845314"><ele>189.5</ele><time>2026-04-12T06:53:18.566Z</time></trkpt><trkpt lat="45.477464" lon="11.1845235"><ele>189.66666666666669</ele><time>2026-04-12T06:53:21.566Z</time></trkpt><trkpt lat="45.4775347" lon="11.1844758"><ele>189.83333333333334</ele><time>2026-04-12T06:53:24.562Z</time></trkpt><trkpt lat="45.4776061" lon="11.1844363"><ele>190.0</ele><time>2026-04-12T06:53:28.566Z</time></trkpt><trkpt lat="45.4776656" lon="11.18437"><ele>190.0</ele><time>2026-04-12T06:53:32.585Z</time></trkpt><trkpt lat="45.4777338" lon="11.1843011"><ele>190.0</ele><time>2026-04-12T06:53:36.585Z</time></trkpt><trkpt lat="45.477805" lon="11.1842465"><ele>190.0</ele><time>2026-04-12T06:53:39.562Z</time></trkpt><trkpt lat="45.4778803" lon="11.1841998"><ele>190.0</ele><time>2026-04-12T06:53:42.597Z</time></trkpt><trkpt lat="45.4779546" lon="11.1841517"><ele>190.0</ele><time>2026-04-12T06:53:45.565Z</time></trkpt><trkpt lat="45.4780309" lon="11.1840965"><ele>190.0</ele><time>2026-04-12T06:53:48.622Z</time></trkpt><trkpt lat="45.4780901" lon="11.1840403"><ele>191.0</ele><time>2026-04-12T06:53:50.545Z</time></trkpt><trkpt lat="45.4781349" lon="11.1839755"><ele>192.0</ele><time>2026-04-12T06:53:52.617Z</time></trkpt><trkpt lat="45.4781653" lon="11.1838731"><ele>193.0</ele><time>2026-04-12T06:53:55.562Z</time></trkpt><trkpt lat="45.4781515" lon="11.1837836"><ele>194.0</ele><time>2026-04-12T06:53:57.601Z</time></trkpt><trkpt lat="45.478131" lon="11.1836974"><ele>194.99999999999997</ele><time>2026-04-12T06:53:59.598Z</time></trkpt><trkpt lat="45.4781039" lon="11.1835708"><ele>196.0</ele><time>2026-04-12T06:54:02.601Z</time></trkpt><trkpt lat="45.4780879" lon="11.1834363"><ele>195.99999999999997</ele><time>2026-04-12T06:54:05.564Z</time></trkpt><trkpt lat="45.4780744" lon="11.1833144"><ele>196.0</ele><time>2026-04-12T06:54:08.586Z</time></trkpt><trkpt lat="45.478105" lon="11.1831994"><ele>196.0</ele><time>2026-04-12T06:54:11.546Z</time></trkpt><trkpt lat="45.4781662" lon="11.1831248"><ele>196.0</ele><time>2026-04-12T06:54:14.549Z</time></trkpt><trkpt lat="45.4782461" lon="11.1830892"><ele>195.99999999999997</ele><time>2026-04-12T06:54:17.551Z</time></trkpt><trkpt lat="45.4783315" lon="11.1830548"><ele>196.0</ele><time>2026-04-12T06:54:20.563Z</time></trkpt><trkpt lat="45.4784106" lon="11.1830276"><ele>196.33333333333331</ele><time>2026-04-12T06:54:23.559Z</time></trkpt><trkpt lat="45.4784931" lon="11.1829942"><ele>196.66666666666666</ele><time>2026-04-12T06:54:26.559Z</time></trkpt><trkpt lat="45.4785566" lon="11.182975"><ele>197.0</ele><time>2026-04-12T06:54:28.601Z</time></trkpt><trkpt lat="45.4786349" lon="11.182943"><ele>197.33333333333331</ele><time>2026-04-12T06:54:31.572Z</time></trkpt><trkpt lat="45.4787097" lon="11.1829014"><ele>197.66666666666666</ele><time>2026-04-12T06:54:34.622Z</time></trkpt><trkpt lat="45.4787724" lon="11.182867"><ele>198.0</ele><time>2026-04-12T06:54:37.558Z</time></trkpt><trkpt lat="45.4788489" lon="11.182815"><ele>198.16666666666666</ele><time>2026-04-12T06:54:40.6Z</time></trkpt><trkpt lat="45.4789267" lon="11.1827718"><ele>198.33333333333331</ele><time>2026-04-12T06:54:42.56Z</time></trkpt><trkpt lat="45.479" lon="11.1827304"><ele>198.5</ele><time>2026-04-12T06:54:44.597Z</time></trkpt><trkpt lat="45.4790648" lon="11.1826827"><ele>198.66666666666666</ele><time>2026-04-12T06:54:46.614Z</time></trkpt><trkpt lat="45.4791435" lon="11.1826466"><ele>198.83333333333331</ele><time>2026-04-12T06:54:48.562Z</time></trkpt><trkpt lat="45.4792481" lon="11.182587"><ele>199.0</ele><time>2026-04-12T06:54:51.581Z</time></trkpt><trkpt lat="45.4793143" lon="11.182545"><ele>198.99999999999997</ele><time>2026-04-12T06:54:53.557Z</time></trkpt><trkpt lat="45.4793742" lon="11.182502"><ele>199.0</ele><time>2026-04-12T06:54:55.595Z</time></trkpt><trkpt lat="45.4794423" lon="11.1824548"><ele>199.0</ele><time>2026-04-12T06:54:57.566Z</time></trkpt><trkpt lat="45.47951" lon="11.1824285"><ele>199.0</ele><time>2026-04-12T06:54:59.565Z</time></trkpt><trkpt lat="45.4795766" lon="11.1824318"><ele>199.0</ele><time>2026-04-12T06:55:01.568Z</time></trkpt><trkpt lat="45.4796411" lon="11.1824464"><ele>198.99999999999997</ele><time>2026-04-12T06:55:03.559Z</time></trkpt><trkpt lat="45.4797238" lon="11.1824683"><ele>199.0</ele><time>2026-04-12T06:55:05.575Z</time></trkpt><trkpt lat="45.4797999" lon="11.1824629"><ele>199.16666666666666</ele><time>2026-04-12T06:55:07.576Z</time></trkpt><trkpt lat="45.4798701" lon="11.1824561"><ele>199.33333333333331</ele><time>2026-04-12T06:55:09.549Z</time></trkpt><trkpt lat="45.4799628" lon="11.1824339"><ele>199.5</ele><time>2026-04-12T06:55:12.583Z</time></trkpt><trkpt lat="45.4800552" lon="11.1824036"><ele>199.66666666666669</ele><time>2026-04-12T06:55:15.548Z</time></trkpt><trkpt lat="45.4801156" lon="11.1823699"><ele>199.83333333333334</ele><time>2026-04-12T06:55:17.601Z</time></trkpt><trkpt lat="45.4801861" lon="11.1823335"><ele>200.0</ele><time>2026-04-12T06:55:19.559Z</time></trkpt><trkpt lat="45.4802515" lon="11.1822923"><ele>200.00000000000003</ele><time>2026-04-12T06:55:21.564Z</time></trkpt><trkpt lat="45.480313" lon="11.1822459"><ele>200.0</ele><time>2026-04-12T06:55:23.616Z</time></trkpt><trkpt lat="45.4803806" lon="11.182204"><ele>200.0</ele><time>2026-04-12T06:55:25.555Z</time></trkpt><trkpt lat="45.4804459" lon="11.1821734"><ele>200.0</ele><time>2026-04-12T06:55:27.567Z</time></trkpt><trkpt lat="45.4805112" lon="11.1821401"><ele>200.0</ele><time>2026-04-12T06:55:29.563Z</time></trkpt><trkpt lat="45.4805855" lon="11.1821039"><ele>200.00000000000003</ele><time>2026-04-12T06:55:31.572Z</time></trkpt><trkpt lat="45.4806609" lon="11.1820642"><ele>200.0</ele><time>2026-04-12T06:55:33.619Z</time></trkpt><trkpt lat="45.4807362" lon="11.1820347"><ele>200.2857142857143</ele><time>2026-04-12T06:55:35.566Z</time></trkpt><trkpt lat="45.4808053" lon="11.1819996"><ele>200.57142857142858</ele><time>2026-04-12T06:55:37.564Z</time></trkpt><trkpt lat="45.4808734" lon="11.1819623"><ele>200.85714285714286</ele><time>2026-04-12T06:55:39.547Z</time></trkpt><trkpt lat="45.4809486" lon="11.1819187"><ele>201.14285714285717</ele><time>2026-04-12T06:55:41.56Z</time></trkpt><trkpt lat="45.4810151" lon="11.1818844"><ele>201.42857142857142</ele><time>2026-04-12T06:55:43.556Z</time></trkpt><trkpt lat="45.4810753" lon="11.1818372"><ele>201.71428571428572</ele><time>2026-04-12T06:55:45.557Z</time></trkpt><trkpt lat="45.4811484" lon="11.1817921"><ele>202.0</ele><time>2026-04-12T06:55:47.566Z</time></trkpt><trkpt lat="45.481223" lon="11.1817509"><ele>202.85714285714286</ele><time>2026-04-12T06:55:49.624Z</time></trkpt><trkpt lat="45.4812993" lon="11.1817124"><ele>203.71428571428572</ele><time>2026-04-12T06:55:51.546Z</time></trkpt><trkpt lat="45.4813683" lon="11.1816815"><ele>204.57142857142856</ele><time>2026-04-12T06:55:53.563Z</time></trkpt><trkpt lat="45.4814324" lon="11.1816461"><ele>205.42857142857144</ele><time>2026-04-12T06:55:55.563Z</time></trkpt><trkpt lat="45.4814965" lon="11.1816182"><ele>206.2857142857143</ele><time>2026-04-12T06:55:57.561Z</time></trkpt><trkpt lat="45.4815603" lon="11.1815816"><ele>207.14285714285714</ele><time>2026-04-12T06:55:59.66Z</time></trkpt><trkpt lat="45.4816331" lon="11.1815516"><ele>208.0</ele><time>2026-04-12T06:56:01.548Z</time></trkpt><trkpt lat="45.481703" lon="11.1815297"><ele>207.99999999999997</ele><time>2026-04-12T06:56:03.626Z</time></trkpt><trkpt lat="45.4817768" lon="11.1814967"><ele>208.0</ele><time>2026-04-12T06:56:05.574Z</time></trkpt><trkpt lat="45.48185" lon="11.1814655"><ele>208.0</ele><time>2026-04-12T06:56:07.666Z</time></trkpt><trkpt lat="45.4819383" lon="11.1814368"><ele>208.0</ele><time>2026-04-12T06:56:10.696Z</time></trkpt><trkpt lat="45.4820075" lon="11.1814097"><ele>207.99999999999997</ele><time>2026-04-12T06:56:12.564Z</time></trkpt><trkpt lat="45.4820812" lon="11.1813917"><ele>208.0</ele><time>2026-04-12T06:56:14.551Z</time></trkpt><trkpt lat="45.482148" lon="11.1813528"><ele>208.49999999999997</ele><time>2026-04-12T06:56:16.56Z</time></trkpt><trkpt lat="45.4822048" lon="11.1813086"><ele>209.0</ele><time>2026-04-12T06:56:18.57Z</time></trkpt><trkpt lat="45.4822632" lon="11.1812633"><ele>209.5</ele><time>2026-04-12T06:56:20.579Z</time></trkpt><trkpt lat="45.4823275" lon="11.1812393"><ele>210.0</ele><time>2026-04-12T06:56:22.54Z</time></trkpt><trkpt lat="45.4824003" lon="11.181264"><ele>210.49999999999997</ele><time>2026-04-12T06:56:26.567Z</time></trkpt><trkpt lat="45.4825355" lon="11.1812245"><ele>211.0</ele><time>2026-04-12T06:57:51.084Z</time></trkpt><trkpt lat="45.4824472" lon="11.181251"><ele>210.99999999999997</ele><time>2026-04-12T07:08:45.559Z</time></trkpt><trkpt lat="45.4824746" lon="11.1811656"><ele>211.0</ele><time>2026-04-12T07:09:28.561Z</time></trkpt><trkpt lat="45.482544" lon="11.1811349"><ele>211.0</ele><time>2026-04-12T07:09:33.555Z</time></trkpt><trkpt lat="45.4826144" lon="11.1811272"><ele>211.0</ele><time>2026-04-12T07:09:36.561Z</time></trkpt><trkpt lat="45.4826906" lon="11.1810468"><ele>210.99999999999997</ele><time>2026-04-12T07:09:40.561Z</time></trkpt><trkpt lat="45.4827355" lon="11.180955"><ele>211.0</ele><time>2026-04-12T07:09:42.595Z</time></trkpt><trkpt lat="45.4827784" lon="11.1808802"><ele>210.99999999999997</ele><time>2026-04-12T07:09:44.554Z</time></trkpt><trkpt lat="45.4828216" lon="11.1808121"><ele>211.0</ele><time>2026-04-12T07:09:46.547Z</time></trkpt><trkpt lat="45.4828644" lon="11.1807341"><ele>211.0</ele><time>2026-04-12T07:09:48.588Z</time></trkpt><trkpt lat="45.482904" lon="11.1806607"><ele>211.0</ele><time>2026-04-12T07:09:50.565Z</time></trkpt><trkpt lat="45.482976" lon="11.1805887"><ele>210.99999999999997</ele><time>2026-04-12T07:09:53.559Z</time></trkpt><trkpt lat="45.4830447" lon="11.1805155"><ele>211.0</ele><time>2026-04-12T07:09:56.555Z</time></trkpt><trkpt lat="45.4831028" lon="11.180439"><ele>211.66666666666666</ele><time>2026-04-12T07:09:59.588Z</time></trkpt><trkpt lat="45.4831704" lon="11.1803473"><ele>212.33333333333331</ele><time>2026-04-12T07:10:02.568Z</time></trkpt><trkpt lat="45.4832263" lon="11.1802803"><ele>213.0</ele><time>2026-04-12T07:10:04.56Z</time></trkpt><trkpt lat="45.483281" lon="11.1802203"><ele>213.66666666666669</ele><time>2026-04-12T07:10:06.562Z</time></trkpt><trkpt lat="45.4833668" lon="11.1801466"><ele>214.33333333333334</ele><time>2026-04-12T07:10:09.549Z</time></trkpt><trkpt lat="45.4834451" lon="11.1800734"><ele>215.0</ele><time>2026-04-12T07:10:12.567Z</time></trkpt><trkpt lat="45.4835314" lon="11.1800028"><ele>215.0</ele><time>2026-04-12T07:10:15.567Z</time></trkpt><trkpt lat="45.4836126" lon="11.1799441"><ele>215.0</ele><time>2026-04-12T07:10:18.559Z</time></trkpt><trkpt lat="45.4836835" lon="11.1798666"><ele>215.0</ele><time>2026-04-12T07:10:21.552Z</time></trkpt><trkpt lat="45.4837317" lon="11.1798086"><ele>215.0</ele><time>2026-04-12T07:10:23.603Z</time></trkpt><trkpt lat="45.4837827" lon="11.1797508"><ele>215.0</ele><time>2026-04-12T07:10:25.599Z</time></trkpt><trkpt lat="45.4838344" lon="11.1796992"><ele>215.0</ele><time>2026-04-12T07:10:27.554Z</time></trkpt><trkpt lat="45.4838881" lon="11.1796411"><ele>215.0</ele><time>2026-04-12T07:10:29.56Z</time></trkpt><trkpt lat="45.4839733" lon="11.1795124"><ele>215.28571428571428</ele><time>2026-04-12T07:10:33.553Z</time></trkpt><trkpt lat="45.4840169" lon="11.1794454"><ele>215.57142857142858</ele><time>2026-04-12T07:10:35.554Z</time></trkpt><trkpt lat="45.4840697" lon="11.1793786"><ele>215.85714285714286</ele><time>2026-04-12T07:10:37.564Z</time></trkpt><trkpt lat="45.4841203" lon="11.1792671"><ele>216.14285714285714</ele><time>2026-04-12T07:10:40.563Z</time></trkpt><trkpt lat="45.484172" lon="11.179189"><ele>216.42857142857144</ele><time>2026-04-12T07:10:42.565Z</time></trkpt><trkpt lat="45.4842408" lon="11.1791322"><ele>216.71428571428572</ele><time>2026-04-12T07:10:44.552Z</time></trkpt><trkpt lat="45.4842964" lon="11.1790871"><ele>217.0</ele><time>2026-04-12T07:10:46.557Z</time></trkpt><trkpt lat="45.4843589" lon="11.1790422"><ele>217.14285714285714</ele><time>2026-04-12T07:10:48.569Z</time></trkpt><trkpt lat="45.4844189" lon="11.1789932"><ele>217.28571428571428</ele><time>2026-04-12T07:10:50.564Z</time></trkpt><trkpt lat="45.4844788" lon="11.1789531"><ele>217.42857142857144</ele><time>2026-04-12T07:10:52.544Z</time></trkpt><trkpt lat="45.4845433" lon="11.1789215"><ele>217.57142857142856</ele><time>2026-04-12T07:10:54.565Z</time></trkpt><trkpt lat="45.4846297" lon="11.1788702"><ele>217.71428571428572</ele><time>2026-04-12T07:10:57.563Z</time></trkpt><trkpt lat="45.4846855" lon="11.178822"><ele>217.85714285714286</ele><time>2026-04-12T07:10:59.596Z</time></trkpt><trkpt lat="45.4847371" lon="11.1787647"><ele>218.0</ele><time>2026-04-12T07:11:01.551Z</time></trkpt><trkpt lat="45.4847997" lon="11.1786643"><ele>218.33333333333334</ele><time>2026-04-12T07:11:04.554Z</time></trkpt><trkpt lat="45.4848768" lon="11.1785447"><ele>218.66666666666669</ele><time>2026-04-12T07:11:07.549Z</time></trkpt><trkpt lat="45.4849271" lon="11.1784748"><ele>219.0</ele><time>2026-04-12T07:11:09.598Z</time></trkpt><trkpt lat="45.4849875" lon="11.1783837"><ele>219.33333333333331</ele><time>2026-04-12T07:11:12.561Z</time></trkpt><trkpt lat="45.4850721" lon="11.1783169"><ele>219.66666666666666</ele><time>2026-04-12T07:11:15.552Z</time></trkpt><trkpt lat="45.4851399" lon="11.1782982"><ele>220.0</ele><time>2026-04-12T07:11:17.545Z</time></trkpt><trkpt lat="45.4852143" lon="11.178286"><ele>219.99999999999997</ele><time>2026-04-12T07:11:19.553Z</time></trkpt><trkpt lat="45.4852871" lon="11.178253"><ele>220.0</ele><time>2026-04-12T07:11:22.56Z</time></trkpt><trkpt lat="45.4853525" lon="11.178238"><ele>220.0</ele><time>2026-04-12T07:11:24.568Z</time></trkpt><trkpt lat="45.4854221" lon="11.1782221"><ele>220.0</ele><time>2026-04-12T07:11:26.558Z</time></trkpt><trkpt lat="45.4855014" lon="11.178197"><ele>219.99999999999997</ele><time>2026-04-12T07:11:28.555Z</time></trkpt><trkpt lat="45.4855835" lon="11.1781772"><ele>220.0</ele><time>2026-04-12T07:11:30.55Z</time></trkpt><trkpt lat="45.4856636" lon="11.1781605"><ele>220.33333333333331</ele><time>2026-04-12T07:11:32.559Z</time></trkpt><trkpt lat="45.4857307" lon="11.1781424"><ele>220.66666666666666</ele><time>2026-04-12T07:11:34.594Z</time></trkpt><trkpt lat="45.48582" lon="11.178111"><ele>221.0</ele><time>2026-04-12T07:11:37.566Z</time></trkpt><trkpt lat="45.485897" lon="11.1780475"><ele>221.33333333333331</ele><time>2026-04-12T07:11:40.55Z</time></trkpt><trkpt lat="45.485904" lon="11.1779376"><ele>221.66666666666666</ele><time>2026-04-12T07:11:42.554Z</time></trkpt><trkpt lat="45.4858933" lon="11.1778272"><ele>222.0</ele><time>2026-04-12T07:11:44.554Z</time></trkpt><trkpt lat="45.4858841" lon="11.177719"><ele>222.0</ele><time>2026-04-12T07:11:46.649Z</time></trkpt><trkpt lat="45.4858695" lon="11.1776079"><ele>222.0</ele><time>2026-04-12T07:11:48.563Z</time></trkpt><trkpt lat="45.485869" lon="11.1774994"><ele>222.0</ele><time>2026-04-12T07:11:50.563Z</time></trkpt><trkpt lat="45.4858691" lon="11.1774016"><ele>222.0</ele><time>2026-04-12T07:11:52.559Z</time></trkpt><trkpt lat="45.4858587" lon="11.1772697"><ele>222.0</ele><time>2026-04-12T07:11:55.551Z</time></trkpt><trkpt lat="45.4858661" lon="11.1771364"><ele>222.0</ele><time>2026-04-12T07:11:58.592Z</time></trkpt><trkpt lat="45.485917" lon="11.177039"><ele>221.83333333333334</ele><time>2026-04-12T07:12:01.567Z</time></trkpt><trkpt lat="45.485982" lon="11.1770165"><ele>221.66666666666669</ele><time>2026-04-12T07:12:03.561Z</time></trkpt><trkpt lat="45.4860532" lon="11.1769934"><ele>221.5</ele><time>2026-04-12T07:12:05.55Z</time></trkpt><trkpt lat="45.4861174" lon="11.1769833"><ele>221.33333333333334</ele><time>2026-04-12T07:12:07.553Z</time></trkpt><trkpt lat="45.4862102" lon="11.1769714"><ele>221.16666666666669</ele><time>2026-04-12T07:12:10.565Z</time></trkpt><trkpt lat="45.4862999" lon="11.1769579"><ele>221.0</ele><time>2026-04-12T07:12:13.561Z</time></trkpt><trkpt lat="45.4863825" lon="11.1769561"><ele>221.42857142857144</ele><time>2026-04-12T07:12:16.567Z</time></trkpt><trkpt lat="45.4864486" lon="11.1769482"><ele>221.85714285714286</ele><time>2026-04-12T07:12:18.568Z</time></trkpt><trkpt lat="45.4865214" lon="11.1769309"><ele>222.28571428571428</ele><time>2026-04-12T07:12:20.555Z</time></trkpt><trkpt lat="45.4865918" lon="11.1769032"><ele>222.71428571428572</ele><time>2026-04-12T07:12:22.625Z</time></trkpt><trkpt lat="45.4866598" lon="11.1768862"><ele>223.14285714285714</ele><time>2026-04-12T07:12:24.563Z</time></trkpt><trkpt lat="45.4867283" lon="11.1768553"><ele>223.57142857142858</ele><time>2026-04-12T07:12:26.561Z</time></trkpt><trkpt lat="45.4867996" lon="11.1768248"><ele>224.0</ele><time>2026-04-12T07:12:28.555Z</time></trkpt><trkpt lat="45.4868684" lon="11.1767911"><ele>224.0</ele><time>2026-04-12T07:12:30.564Z</time></trkpt><trkpt lat="45.4869394" lon="11.176758"><ele>224.0</ele><time>2026-04-12T07:12:32.597Z</time></trkpt><trkpt lat="45.4870099" lon="11.1767267"><ele>224.0</ele><time>2026-04-12T07:12:34.576Z</time></trkpt><trkpt lat="45.4870819" lon="11.1766979"><ele>224.0</ele><time>2026-04-12T07:12:36.561Z</time></trkpt><trkpt lat="45.4871476" lon="11.1766705"><ele>224.0</ele><time>2026-04-12T07:12:38.567Z</time></trkpt><trkpt lat="45.4872223" lon="11.1766412"><ele>224.0</ele><time>2026-04-12T07:12:40.557Z</time></trkpt><trkpt lat="45.4872983" lon="11.1766108"><ele>224.0</ele><time>2026-04-12T07:12:42.55Z</time></trkpt><trkpt lat="45.4873731" lon="11.1765732"><ele>224.42857142857144</ele><time>2026-04-12T07:12:44.659Z</time></trkpt><trkpt lat="45.4874417" lon="11.1765502"><ele>224.85714285714286</ele><time>2026-04-12T07:12:46.558Z</time></trkpt><trkpt lat="45.4875034" lon="11.1765214"><ele>225.28571428571428</ele><time>2026-04-12T07:12:48.563Z</time></trkpt><trkpt lat="45.4875718" lon="11.1764949"><ele>225.71428571428572</ele><time>2026-04-12T07:12:50.561Z</time></trkpt><trkpt lat="45.4876376" lon="11.1765349"><ele>226.14285714285717</ele><time>2026-04-12T07:12:52.571Z</time></trkpt><trkpt lat="45.4876807" lon="11.1766147"><ele>226.57142857142858</ele><time>2026-04-12T07:12:54.568Z</time></trkpt><trkpt lat="45.4877128" lon="11.1767088"><ele>227.0</ele><time>2026-04-12T07:12:56.561Z</time></trkpt><trkpt lat="45.4877625" lon="11.1767756"><ele>227.0</ele><time>2026-04-12T07:12:58.562Z</time></trkpt><trkpt lat="45.4878252" lon="11.1768276"><ele>227.00000000000003</ele><time>2026-04-12T07:13:00.558Z</time></trkpt><trkpt lat="45.4878915" lon="11.1768683"><ele>227.0</ele><time>2026-04-12T07:13:02.561Z</time></trkpt><trkpt lat="45.4879575" lon="11.1769035"><ele>227.0</ele><time>2026-04-12T07:13:04.591Z</time></trkpt><trkpt lat="45.488019" lon="11.1769408"><ele>227.00000000000003</ele><time>2026-04-12T07:13:06.568Z</time></trkpt><trkpt lat="45.4880832" lon="11.1769717"><ele>227.0</ele><time>2026-04-12T07:13:08.562Z</time></trkpt><trkpt lat="45.4881487" lon="11.1770034"><ele>227.0</ele><time>2026-04-12T07:13:10.561Z</time></trkpt><trkpt lat="45.4882208" lon="11.1770254"><ele>227.50000000000003</ele><time>2026-04-12T07:13:12.571Z</time></trkpt><trkpt lat="45.4883009" lon="11.1770473"><ele>228.0</ele><time>2026-04-12T07:13:14.564Z</time></trkpt><trkpt lat="45.4883793" lon="11.1770756"><ele>228.5</ele><time>2026-04-12T07:13:16.57Z</time></trkpt><trkpt lat="45.4884544" lon="11.1770927"><ele>229.0</ele><time>2026-04-12T07:13:18.559Z</time></trkpt><trkpt lat="45.488529" lon="11.1771184"><ele>229.50000000000003</ele><time>2026-04-12T07:13:20.662Z</time></trkpt><trkpt lat="45.4886054" lon="11.1771431"><ele>230.0</ele><time>2026-04-12T07:13:22.552Z</time></trkpt><trkpt lat="45.4886802" lon="11.1771721"><ele>230.00000000000003</ele><time>2026-04-12T07:13:24.55Z</time></trkpt><trkpt lat="45.4887553" lon="11.1771954"><ele>230.0</ele><time>2026-04-12T07:13:26.569Z</time></trkpt><trkpt lat="45.4888271" lon="11.1772314"><ele>230.0</ele><time>2026-04-12T07:13:28.568Z</time></trkpt><trkpt lat="45.4888999" lon="11.1772684"><ele>230.0</ele><time>2026-04-12T07:13:30.557Z</time></trkpt><trkpt lat="45.4889708" lon="11.1773192"><ele>230.00000000000003</ele><time>2026-04-12T07:13:32.564Z</time></trkpt><trkpt lat="45.4890398" lon="11.1773675"><ele>230.0</ele><time>2026-04-12T07:13:34.572Z</time></trkpt><trkpt lat="45.4891143" lon="11.1774115"><ele>230.00000000000003</ele><time>2026-04-12T07:13:36.566Z</time></trkpt><trkpt lat="45.4891912" lon="11.1774601"><ele>230.0</ele><time>2026-04-12T07:13:38.575Z</time></trkpt><trkpt lat="45.4892732" lon="11.1774987"><ele>230.0</ele><time>2026-04-12T07:13:40.57Z</time></trkpt><trkpt lat="45.4893573" lon="11.177526"><ele>230.0</ele><time>2026-04-12T07:13:42.562Z</time></trkpt><trkpt lat="45.4894466" lon="11.1775272"><ele>230.00000000000003</ele><time>2026-04-12T07:13:44.558Z</time></trkpt><trkpt lat="45.4895328" lon="11.1775126"><ele>230.0</ele><time>2026-04-12T07:13:46.561Z</time></trkpt><trkpt lat="45.4896138" lon="11.1774802"><ele>230.33333333333334</ele><time>2026-04-12T07:13:48.628Z</time></trkpt><trkpt lat="45.4896972" lon="11.177431"><ele>230.66666666666669</ele><time>2026-04-12T07:13:50.561Z</time></trkpt><trkpt lat="45.4897791" lon="11.1774003"><ele>231.0</ele><time>2026-04-12T07:13:52.557Z</time></trkpt><trkpt lat="45.4898564" lon="11.1773625"><ele>231.33333333333331</ele><time>2026-04-12T07:13:54.661Z</time></trkpt><trkpt lat="45.4899283" lon="11.1773313"><ele>231.66666666666666</ele><time>2026-04-12T07:13:56.559Z</time></trkpt><trkpt lat="45.4899989" lon="11.1773006"><ele>232.0</ele><time>2026-04-12T07:13:58.565Z</time></trkpt><trkpt lat="45.490063" lon="11.1772725"><ele>232.28571428571433</ele><time>2026-04-12T07:14:00.575Z</time></trkpt><trkpt lat="45.4901261" lon="11.1772428"><ele>232.57142857142858</ele><time>2026-04-12T07:14:02.561Z</time></trkpt><trkpt lat="45.4901903" lon="11.177213"><ele>232.8571428571429</ele><time>2026-04-12T07:14:04.56Z</time></trkpt><trkpt lat="45.4902625" lon="11.1771766"><ele>233.14285714285717</ele><time>2026-04-12T07:14:06.602Z</time></trkpt><trkpt lat="45.4903285" lon="11.1771298"><ele>233.42857142857144</ele><time>2026-04-12T07:14:08.557Z</time></trkpt><trkpt lat="45.4903949" lon="11.1770871"><ele>233.71428571428572</ele><time>2026-04-12T07:14:10.673Z</time></trkpt><trkpt lat="45.4904588" lon="11.1770447"><ele>234.0</ele><time>2026-04-12T07:14:12.563Z</time></trkpt><trkpt lat="45.4905159" lon="11.1770055"><ele>234.14285714285717</ele><time>2026-04-12T07:14:14.57Z</time></trkpt><trkpt lat="45.4905744" lon="11.1769504"><ele>234.2857142857143</ele><time>2026-04-12T07:14:16.565Z</time></trkpt><trkpt lat="45.4906364" lon="11.1768976"><ele>234.42857142857144</ele><time>2026-04-12T07:14:18.561Z</time></trkpt><trkpt lat="45.4906969" lon="11.1768468"><ele>234.57142857142856</ele><time>2026-04-12T07:14:20.555Z</time></trkpt><trkpt lat="45.4907572" lon="11.1767947"><ele>234.7142857142857</ele><time>2026-04-12T07:14:22.643Z</time></trkpt><trkpt lat="45.4908139" lon="11.1767442"><ele>234.85714285714283</ele><time>2026-04-12T07:14:24.568Z</time></trkpt><trkpt lat="45.4908649" lon="11.1766766"><ele>235.0</ele><time>2026-04-12T07:14:26.566Z</time></trkpt><trkpt lat="45.4909103" lon="11.1766107"><ele>235.0</ele><time>2026-04-12T07:14:28.556Z</time></trkpt><trkpt lat="45.4909507" lon="11.1765333"><ele>234.99999999999997</ele><time>2026-04-12T07:14:30.559Z</time></trkpt><trkpt lat="45.4909919" lon="11.1764515"><ele>235.0</ele><time>2026-04-12T07:14:32.569Z</time></trkpt><trkpt lat="45.4910396" lon="11.1763693"><ele>235.0</ele><time>2026-04-12T07:14:34.566Z</time></trkpt><trkpt lat="45.4910878" lon="11.1762903"><ele>234.99999999999997</ele><time>2026-04-12T07:14:36.57Z</time></trkpt><trkpt lat="45.4911361" lon="11.1762106"><ele>235.0</ele><time>2026-04-12T07:14:38.605Z</time></trkpt><trkpt lat="45.4911813" lon="11.1761377"><ele>235.0</ele><time>2026-04-12T07:14:40.572Z</time></trkpt><trkpt lat="45.4912289" lon="11.1760634"><ele>235.66666666666666</ele><time>2026-04-12T07:14:42.603Z</time></trkpt><trkpt lat="45.4912793" lon="11.1759895"><ele>236.33333333333331</ele><time>2026-04-12T07:14:44.605Z</time></trkpt><trkpt lat="45.4913374" lon="11.1759209"><ele>237.0</ele><time>2026-04-12T07:14:46.566Z</time></trkpt><trkpt lat="45.4914003" lon="11.1758657"><ele>237.66666666666669</ele><time>2026-04-12T07:14:48.56Z</time></trkpt><trkpt lat="45.4915223" lon="11.175758"><ele>238.33333333333334</ele><time>2026-04-12T07:14:52.571Z</time></trkpt><trkpt lat="45.4915847" lon="11.1757232"><ele>239.0</ele><time>2026-04-12T07:14:54.606Z</time></trkpt><trkpt lat="45.4916468" lon="11.1756856"><ele>239.16666666666669</ele><time>2026-04-12T07:14:56.578Z</time></trkpt><trkpt lat="45.4917167" lon="11.175655"><ele>239.33333333333334</ele><time>2026-04-12T07:14:58.559Z</time></trkpt><trkpt lat="45.4918158" lon="11.1756296"><ele>239.5</ele><time>2026-04-12T07:15:01.563Z</time></trkpt><trkpt lat="45.4919087" lon="11.1756147"><ele>239.66666666666669</ele><time>2026-04-12T07:15:04.581Z</time></trkpt><trkpt lat="45.491972" lon="11.1755959"><ele>239.83333333333334</ele><time>2026-04-12T07:15:06.566Z</time></trkpt><trkpt lat="45.4920366" lon="11.1755899"><ele>240.0</ele><time>2026-04-12T07:15:08.569Z</time></trkpt><trkpt lat="45.492101" lon="11.1755836"><ele>240.42857142857144</ele><time>2026-04-12T07:15:10.571Z</time></trkpt><trkpt lat="45.4921686" lon="11.1755722"><ele>240.85714285714283</ele><time>2026-04-12T07:15:12.566Z</time></trkpt><trkpt lat="45.4922405" lon="11.175555"><ele>241.28571428571428</ele><time>2026-04-12T07:15:14.551Z</time></trkpt><trkpt lat="45.4923063" lon="11.1755358"><ele>241.71428571428572</ele><time>2026-04-12T07:15:16.568Z</time></trkpt><trkpt lat="45.4923936" lon="11.1755116"><ele>242.14285714285717</ele><time>2026-04-12T07:15:19.557Z</time></trkpt><trkpt lat="45.4924582" lon="11.1755048"><ele>242.57142857142856</ele><time>2026-04-12T07:15:21.592Z</time></trkpt><trkpt lat="45.4925216" lon="11.1754928"><ele>243.0</ele><time>2026-04-12T07:15:23.561Z</time></trkpt><trkpt lat="45.4926117" lon="11.1754752"><ele>243.0</ele><time>2026-04-12T07:15:26.573Z</time></trkpt><trkpt lat="45.4926938" lon="11.1754509"><ele>243.0</ele><time>2026-04-12T07:15:29.573Z</time></trkpt><trkpt lat="45.4927575" lon="11.1754412"><ele>243.0</ele><time>2026-04-12T07:15:31.577Z</time></trkpt><trkpt lat="45.4928512" lon="11.1754337"><ele>243.0</ele><time>2026-04-12T07:15:34.562Z</time></trkpt><trkpt lat="45.4929431" lon="11.1754006"><ele>243.0</ele><time>2026-04-12T07:15:37.571Z</time></trkpt><trkpt lat="45.4930058" lon="11.1753879"><ele>243.0</ele><time>2026-04-12T07:15:39.556Z</time></trkpt><trkpt lat="45.4930687" lon="11.1753714"><ele>243.16666666666666</ele><time>2026-04-12T07:15:41.576Z</time></trkpt><trkpt lat="45.4931514" lon="11.1753441"><ele>243.33333333333331</ele><time>2026-04-12T07:15:44.568Z</time></trkpt><trkpt lat="45.493245" lon="11.1753239"><ele>243.5</ele><time>2026-04-12T07:15:47.57Z</time></trkpt><trkpt lat="45.4933304" lon="11.1753713"><ele>243.66666666666666</ele><time>2026-04-12T07:15:50.567Z</time></trkpt><trkpt lat="45.493418" lon="11.1754221"><ele>243.83333333333331</ele><time>2026-04-12T07:15:53.572Z</time></trkpt><trkpt lat="45.4934806" lon="11.1754537"><ele>244.0</ele><time>2026-04-12T07:15:55.568Z</time></trkpt><trkpt lat="45.4935418" lon="11.1754859"><ele>243.99999999999997</ele><time>2026-04-12T07:15:57.572Z</time></trkpt><trkpt lat="45.493605" lon="11.1755243"><ele>244.0</ele><time>2026-04-12T07:15:59.565Z</time></trkpt><trkpt lat="45.4936738" lon="11.1755609"><ele>243.99999999999997</ele><time>2026-04-12T07:16:01.59Z</time></trkpt><trkpt lat="45.4937418" lon="11.1755878"><ele>243.99999999999997</ele><time>2026-04-12T07:16:03.638Z</time></trkpt><trkpt lat="45.4938171" lon="11.1756221"><ele>244.0</ele><time>2026-04-12T07:16:05.572Z</time></trkpt><trkpt lat="45.493894" lon="11.1756497"><ele>243.99999999999997</ele><time>2026-04-12T07:16:07.578Z</time></trkpt><trkpt lat="45.4939683" lon="11.1756784"><ele>243.99999999999997</ele><time>2026-04-12T07:16:09.567Z</time></trkpt><trkpt lat="45.4940429" lon="11.1756939"><ele>244.16666666666666</ele><time>2026-04-12T07:16:11.625Z</time></trkpt><trkpt lat="45.4941172" lon="11.175714"><ele>244.33333333333331</ele><time>2026-04-12T07:16:13.573Z</time></trkpt><trkpt lat="45.4941944" lon="11.1757368"><ele>244.5</ele><time>2026-04-12T07:16:15.584Z</time></trkpt><trkpt lat="45.4942752" lon="11.1757497"><ele>244.66666666666669</ele><time>2026-04-12T07:16:17.564Z</time></trkpt><trkpt lat="45.4943543" lon="11.1757607"><ele>244.83333333333334</ele><time>2026-04-12T07:16:19.582Z</time></trkpt><trkpt lat="45.4944308" lon="11.1757713"><ele>245.0</ele><time>2026-04-12T07:16:21.561Z</time></trkpt><trkpt lat="45.4945006" lon="11.1757908"><ele>245.0</ele><time>2026-04-12T07:16:23.566Z</time></trkpt><trkpt lat="45.4945727" lon="11.1758003"><ele>245.0</ele><time>2026-04-12T07:16:25.573Z</time></trkpt><trkpt lat="45.4946429" lon="11.1758118"><ele>245.0</ele><time>2026-04-12T07:16:27.561Z</time></trkpt><trkpt lat="45.4947117" lon="11.1758242"><ele>245.0</ele><time>2026-04-12T07:16:29.605Z</time></trkpt><trkpt lat="45.4947849" lon="11.1758341"><ele>245.0</ele><time>2026-04-12T07:16:31.564Z</time></trkpt><trkpt lat="45.4948516" lon="11.1758493"><ele>245.0</ele><time>2026-04-12T07:16:33.605Z</time></trkpt><trkpt lat="45.494924" lon="11.1758678"><ele>245.0</ele><time>2026-04-12T07:16:35.568Z</time></trkpt><trkpt lat="45.4949994" lon="11.1758919"><ele>245.14285714285714</ele><time>2026-04-12T07:16:37.565Z</time></trkpt><trkpt lat="45.495072" lon="11.1759192"><ele>245.28571428571428</ele><time>2026-04-12T07:16:39.568Z</time></trkpt><trkpt lat="45.4951393" lon="11.17595"><ele>245.42857142857144</ele><time>2026-04-12T07:16:41.576Z</time></trkpt><trkpt lat="45.495212" lon="11.1759779"><ele>245.57142857142858</ele><time>2026-04-12T07:16:43.596Z</time></trkpt><trkpt lat="45.4952828" lon="11.1760017"><ele>245.71428571428572</ele><time>2026-04-12T07:16:45.563Z</time></trkpt><trkpt lat="45.495355" lon="11.1760257"><ele>245.8571428571429</ele><time>2026-04-12T07:16:47.563Z</time></trkpt><trkpt lat="45.4954309" lon="11.176041"><ele>246.00000000000003</ele><time>2026-04-12T07:16:49.554Z</time></trkpt><trkpt lat="45.4955008" lon="11.176053"><ele>246.42857142857144</ele><time>2026-04-12T07:16:51.566Z</time></trkpt><trkpt lat="45.4955799" lon="11.1760564"><ele>246.85714285714286</ele><time>2026-04-12T07:16:53.563Z</time></trkpt><trkpt lat="45.4956569" lon="11.1760599"><ele>247.28571428571428</ele><time>2026-04-12T07:16:55.563Z</time></trkpt><trkpt lat="45.4957297" lon="11.1760675"><ele>247.71428571428572</ele><time>2026-04-12T07:16:57.562Z</time></trkpt><trkpt lat="45.4958084" lon="11.1760683"><ele>248.1428571428571</ele><time>2026-04-12T07:16:59.567Z</time></trkpt><trkpt lat="45.4958774" lon="11.1760773"><ele>248.57142857142856</ele><time>2026-04-12T07:17:01.569Z</time></trkpt><trkpt lat="45.4959444" lon="11.1760858"><ele>249.0</ele><time>2026-04-12T07:17:03.553Z</time></trkpt><trkpt lat="45.4960199" lon="11.1760917"><ele>249.0</ele><time>2026-04-12T07:17:05.633Z</time></trkpt><trkpt lat="45.4961031" lon="11.1761157"><ele>249.0</ele><time>2026-04-12T07:17:07.569Z</time></trkpt><trkpt lat="45.4961889" lon="11.1761385"><ele>249.0</ele><time>2026-04-12T07:17:09.604Z</time></trkpt><trkpt lat="45.4962734" lon="11.1761694"><ele>249.0</ele><time>2026-04-12T07:17:11.565Z</time></trkpt><trkpt lat="45.4963561" lon="11.1761952"><ele>249.0</ele><time>2026-04-12T07:17:13.566Z</time></trkpt><trkpt lat="45.4964388" lon="11.1762235"><ele>249.0</ele><time>2026-04-12T07:17:15.569Z</time></trkpt><trkpt lat="45.4965235" lon="11.1762443"><ele>249.66666666666666</ele><time>2026-04-12T07:17:17.574Z</time></trkpt><trkpt lat="45.4966027" lon="11.1762624"><ele>250.33333333333331</ele><time>2026-04-12T07:17:19.567Z</time></trkpt><trkpt lat="45.4966806" lon="11.1762779"><ele>251.0</ele><time>2026-04-12T07:17:21.57Z</time></trkpt><trkpt lat="45.4967567" lon="11.1762877"><ele>251.66666666666666</ele><time>2026-04-12T07:17:23.573Z</time></trkpt><trkpt lat="45.4968349" lon="11.1762994"><ele>252.33333333333331</ele><time>2026-04-12T07:17:25.602Z</time></trkpt><trkpt lat="45.4969205" lon="11.1763214"><ele>253.0</ele><time>2026-04-12T07:17:27.564Z</time></trkpt><trkpt lat="45.4970012" lon="11.1763565"><ele>253.00000000000003</ele><time>2026-04-12T07:17:29.551Z</time></trkpt><trkpt lat="45.4970729" lon="11.1763944"><ele>253.0</ele><time>2026-04-12T07:17:31.581Z</time></trkpt><trkpt lat="45.4971468" lon="11.1764135"><ele>253.00000000000003</ele><time>2026-04-12T07:17:33.572Z</time></trkpt><trkpt lat="45.4972192" lon="11.1764266"><ele>253.00000000000003</ele><time>2026-04-12T07:17:35.562Z</time></trkpt><trkpt lat="45.4972881" lon="11.1764349"><ele>253.0</ele><time>2026-04-12T07:17:37.566Z</time></trkpt><trkpt lat="45.4973593" lon="11.1764452"><ele>253.00000000000003</ele><time>2026-04-12T07:17:39.568Z</time></trkpt><trkpt lat="45.4974364" lon="11.1764577"><ele>253.00000000000003</ele><time>2026-04-12T07:17:41.572Z</time></trkpt><trkpt lat="45.4975112" lon="11.1764689"><ele>252.99999999999997</ele><time>2026-04-12T07:17:43.561Z</time></trkpt><trkpt lat="45.4975843" lon="11.1764828"><ele>253.0</ele><time>2026-04-12T07:17:45.569Z</time></trkpt><trkpt lat="45.4976588" lon="11.1764941"><ele>253.0</ele><time>2026-04-12T07:17:47.564Z</time></trkpt><trkpt lat="45.4977337" lon="11.1765093"><ele>253.0</ele><time>2026-04-12T07:17:49.565Z</time></trkpt><trkpt lat="45.4978122" lon="11.1765232"><ele>252.99999999999997</ele><time>2026-04-12T07:17:51.596Z</time></trkpt><trkpt lat="45.4978906" lon="11.1765308"><ele>253.0</ele><time>2026-04-12T07:17:53.566Z</time></trkpt><trkpt lat="45.4979672" lon="11.1765414"><ele>253.42857142857144</ele><time>2026-04-12T07:17:55.562Z</time></trkpt><trkpt lat="45.4980382" lon="11.176546"><ele>253.85714285714286</ele><time>2026-04-12T07:17:57.568Z</time></trkpt><trkpt lat="45.4981103" lon="11.1765392"><ele>254.28571428571428</ele><time>2026-04-12T07:17:59.553Z</time></trkpt><trkpt lat="45.4981834" lon="11.1765373"><ele>254.71428571428572</ele><time>2026-04-12T07:18:01.556Z</time></trkpt><trkpt lat="45.4982583" lon="11.1765284"><ele>255.1428571428571</ele><time>2026-04-12T07:18:03.556Z</time></trkpt><trkpt lat="45.4983321" lon="11.1765341"><ele>255.57142857142856</ele><time>2026-04-12T07:18:05.563Z</time></trkpt><trkpt lat="45.4984063" lon="11.176536"><ele>256.0</ele><time>2026-04-12T07:18:07.564Z</time></trkpt><trkpt lat="45.4984824" lon="11.1765423"><ele>256.0</ele><time>2026-04-12T07:18:09.544Z</time></trkpt><trkpt lat="45.49856" lon="11.1765483"><ele>255.99999999999997</ele><time>2026-04-12T07:18:11.562Z</time></trkpt><trkpt lat="45.498637" lon="11.1765574"><ele>256.0</ele><time>2026-04-12T07:18:13.566Z</time></trkpt><trkpt lat="45.4987102" lon="11.1765787"><ele>256.0</ele><time>2026-04-12T07:18:15.566Z</time></trkpt><trkpt lat="45.498784" lon="11.1766023"><ele>255.99999999999997</ele><time>2026-04-12T07:18:17.571Z</time></trkpt><trkpt lat="45.498854" lon="11.1766204"><ele>256.0</ele><time>2026-04-12T07:18:19.572Z</time></trkpt><trkpt lat="45.498921" lon="11.1766334"><ele>256.0</ele><time>2026-04-12T07:18:21.571Z</time></trkpt><trkpt lat="45.4989906" lon="11.1766488"><ele>256.0</ele><time>2026-04-12T07:18:23.562Z</time></trkpt><trkpt lat="45.4990607" lon="11.1766458"><ele>255.99999999999997</ele><time>2026-04-12T07:18:25.569Z</time></trkpt><trkpt lat="45.4991273" lon="11.1766283"><ele>256.0</ele><time>2026-04-12T07:18:27.545Z</time></trkpt><trkpt lat="45.4991901" lon="11.1766004"><ele>256.0</ele><time>2026-04-12T07:18:29.568Z</time></trkpt><trkpt lat="45.4992519" lon="11.1765619"><ele>255.99999999999997</ele><time>2026-04-12T07:18:31.562Z</time></trkpt><trkpt lat="45.4993102" lon="11.1765185"><ele>256.0</ele><time>2026-04-12T07:18:33.564Z</time></trkpt><trkpt lat="45.4993665" lon="11.176468"><ele>256.0</ele><time>2026-04-12T07:18:35.558Z</time></trkpt><trkpt lat="45.4994186" lon="11.1764117"><ele>256.3333333333333</ele><time>2026-04-12T07:18:37.563Z</time></trkpt><trkpt lat="45.4994837" lon="11.1763283"><ele>256.66666666666663</ele><time>2026-04-12T07:18:40.567Z</time></trkpt><trkpt lat="45.4995431" lon="11.1762409"><ele>257.0</ele><time>2026-04-12T07:18:43.563Z</time></trkpt><trkpt lat="45.4995979" lon="11.1761398"><ele>257.3333333333333</ele><time>2026-04-12T07:18:46.566Z</time></trkpt><trkpt lat="45.49965" lon="11.1760319"><ele>257.6666666666667</ele><time>2026-04-12T07:18:49.565Z</time></trkpt><trkpt lat="45.4997012" lon="11.1759201"><ele>258.0</ele><time>2026-04-12T07:18:52.567Z</time></trkpt><trkpt lat="45.4997516" lon="11.1758093"><ele>258.5</ele><time>2026-04-12T07:18:55.568Z</time></trkpt><trkpt lat="45.499801" lon="11.1757022"><ele>259.0</ele><time>2026-04-12T07:18:58.568Z</time></trkpt><trkpt lat="45.499845" lon="11.1756358"><ele>259.5</ele><time>2026-04-12T07:19:00.569Z</time></trkpt><trkpt lat="45.499896" lon="11.1755743"><ele>260.0</ele><time>2026-04-12T07:19:02.571Z</time></trkpt><trkpt lat="45.4999437" lon="11.1755094"><ele>260.5</ele><time>2026-04-12T07:19:04.618Z</time></trkpt><trkpt lat="45.5000528" lon="11.1753578"><ele>261.0</ele><time>2026-04-12T07:19:09.564Z</time></trkpt><trkpt lat="45.5001235" lon="11.1752745"><ele>261.14285714285717</ele><time>2026-04-12T07:19:12.567Z</time></trkpt><trkpt lat="45.5001967" lon="11.1751834"><ele>261.2857142857143</ele><time>2026-04-12T07:19:15.611Z</time></trkpt><trkpt lat="45.5002511" lon="11.1751191"><ele>261.42857142857144</ele><time>2026-04-12T07:19:17.566Z</time></trkpt><trkpt lat="45.5003119" lon="11.1750543"><ele>261.57142857142856</ele><time>2026-04-12T07:19:19.564Z</time></trkpt><trkpt lat="45.500362" lon="11.1749828"><ele>261.7142857142857</ele><time>2026-04-12T07:19:21.64Z</time></trkpt><trkpt lat="45.5004123" lon="11.1749227"><ele>261.8571428571429</ele><time>2026-04-12T07:19:23.589Z</time></trkpt><trkpt lat="45.5004569" lon="11.1748564"><ele>262.0</ele><time>2026-04-12T07:19:25.634Z</time></trkpt><trkpt lat="45.5004996" lon="11.1747867"><ele>262.66666666666663</ele><time>2026-04-12T07:19:27.558Z</time></trkpt><trkpt lat="45.5005626" lon="11.1746992"><ele>263.3333333333333</ele><time>2026-04-12T07:19:30.569Z</time></trkpt><trkpt lat="45.5006458" lon="11.174621"><ele>264.0</ele><time>2026-04-12T07:19:33.562Z</time></trkpt><trkpt lat="45.5007097" lon="11.1745786"><ele>264.6666666666667</ele><time>2026-04-12T07:19:35.562Z</time></trkpt><trkpt lat="45.5007735" lon="11.1745589"><ele>265.33333333333337</ele><time>2026-04-12T07:19:37.623Z</time></trkpt><trkpt lat="45.5008608" lon="11.1745117"><ele>266.0</ele><time>2026-04-12T07:19:40.568Z</time></trkpt><trkpt lat="45.5009195" lon="11.1744752"><ele>266.0</ele><time>2026-04-12T07:19:42.594Z</time></trkpt><trkpt lat="45.5010003" lon="11.1744186"><ele>266.0</ele><time>2026-04-12T07:19:45.569Z</time></trkpt><trkpt lat="45.501091" lon="11.1743751"><ele>266.0</ele><time>2026-04-12T07:19:48.564Z</time></trkpt><trkpt lat="45.5011543" lon="11.1743309"><ele>266.0</ele><time>2026-04-12T07:19:50.575Z</time></trkpt><trkpt lat="45.5012119" lon="11.1742895"><ele>266.0</ele><time>2026-04-12T07:19:52.569Z</time></trkpt><trkpt lat="45.5012944" lon="11.1742336"><ele>266.0</ele><time>2026-04-12T07:19:55.563Z</time></trkpt><trkpt lat="45.5013543" lon="11.1741985"><ele>266.5</ele><time>2026-04-12T07:19:57.562Z</time></trkpt><trkpt lat="45.5014138" lon="11.1741609"><ele>267.0</ele><time>2026-04-12T07:19:59.557Z</time></trkpt><trkpt lat="45.5014753" lon="11.174131"><ele>267.5</ele><time>2026-04-12T07:20:01.59Z</time></trkpt><trkpt lat="45.5015894" lon="11.1740708"><ele>268.0</ele><time>2026-04-12T07:20:05.564Z</time></trkpt><trkpt lat="45.5016771" lon="11.1740356"><ele>268.5</ele><time>2026-04-12T07:20:08.569Z</time></trkpt><trkpt lat="45.5017626" lon="11.1739911"><ele>269.0</ele><time>2026-04-12T07:20:11.598Z</time></trkpt><trkpt lat="45.5018486" lon="11.1739322"><ele>269.0</ele><time>2026-04-12T07:20:14.593Z</time></trkpt><trkpt lat="45.5019358" lon="11.1738744"><ele>269.0</ele><time>2026-04-12T07:20:17.556Z</time></trkpt><trkpt lat="45.5019945" lon="11.173838"><ele>269.0</ele><time>2026-04-12T07:20:19.615Z</time></trkpt><trkpt lat="45.5020541" lon="11.1737992"><ele>269.0</ele><time>2026-04-12T07:20:21.568Z</time></trkpt><trkpt lat="45.5021375" lon="11.1737514"><ele>269.0</ele><time>2026-04-12T07:20:24.563Z</time></trkpt><trkpt lat="45.5022095" lon="11.1737174"><ele>269.0</ele><time>2026-04-12T07:20:26.568Z</time></trkpt><trkpt lat="45.5022831" lon="11.1736922"><ele>269.6666666666667</ele><time>2026-04-12T07:20:28.564Z</time></trkpt><trkpt lat="45.5023524" lon="11.173666"><ele>270.33333333333337</ele><time>2026-04-12T07:20:30.677Z</time></trkpt><trkpt lat="45.5024211" lon="11.1736356"><ele>271.0</ele><time>2026-04-12T07:20:32.575Z</time></trkpt><trkpt lat="45.5024853" lon="11.1736052"><ele>271.6666666666667</ele><time>2026-04-12T07:20:34.564Z</time></trkpt><trkpt lat="45.5025597" lon="11.1735647"><ele>272.3333333333333</ele><time>2026-04-12T07:20:37.561Z</time></trkpt><trkpt lat="45.5026401" lon="11.1735388"><ele>273.0</ele><time>2026-04-12T07:20:40.559Z</time></trkpt><trkpt lat="45.5027248" lon="11.1734908"><ele>273.0</ele><time>2026-04-12T07:20:43.569Z</time></trkpt><trkpt lat="45.5028072" lon="11.1734487"><ele>273.0</ele><time>2026-04-12T07:20:46.551Z</time></trkpt><trkpt lat="45.5028945" lon="11.1733869"><ele>273.0</ele><time>2026-04-12T07:20:49.567Z</time></trkpt><trkpt lat="45.5029613" lon="11.1733535"><ele>273.0</ele><time>2026-04-12T07:20:51.568Z</time></trkpt><trkpt lat="45.5030316" lon="11.173319"><ele>273.0</ele><time>2026-04-12T07:20:53.564Z</time></trkpt><trkpt lat="45.5030934" lon="11.1732947"><ele>273.0</ele><time>2026-04-12T07:20:55.609Z</time></trkpt><trkpt lat="45.5031604" lon="11.1732585"><ele>273.1666666666667</ele><time>2026-04-12T07:20:57.562Z</time></trkpt><trkpt lat="45.5032474" lon="11.1732194"><ele>273.3333333333333</ele><time>2026-04-12T07:21:00.563Z</time></trkpt><trkpt lat="45.5033416" lon="11.1731813"><ele>273.5</ele><time>2026-04-12T07:21:03.568Z</time></trkpt><trkpt lat="45.5034161" lon="11.1731674"><ele>273.66666666666663</ele><time>2026-04-12T07:21:05.564Z</time></trkpt><trkpt lat="45.5034834" lon="11.1731452"><ele>273.8333333333333</ele><time>2026-04-12T07:21:07.565Z</time></trkpt><trkpt lat="45.5035475" lon="11.1731236"><ele>274.0</ele><time>2026-04-12T07:21:09.626Z</time></trkpt><trkpt lat="45.5036063" lon="11.1730911"><ele>274.00000000000006</ele><time>2026-04-12T07:21:11.566Z</time></trkpt><trkpt lat="45.5036716" lon="11.1730602"><ele>274.0</ele><time>2026-04-12T07:21:13.561Z</time></trkpt><trkpt lat="45.5037354" lon="11.1730234"><ele>274.0</ele><time>2026-04-12T07:21:15.56Z</time></trkpt><trkpt lat="45.5038043" lon="11.1729996"><ele>274.0</ele><time>2026-04-12T07:21:17.566Z</time></trkpt><trkpt lat="45.5038753" lon="11.1729684"><ele>274.0</ele><time>2026-04-12T07:21:19.566Z</time></trkpt><trkpt lat="45.5039391" lon="11.1729442"><ele>274.00000000000006</ele><time>2026-04-12T07:21:21.565Z</time></trkpt><trkpt lat="45.5040026" lon="11.1729229"><ele>274.0</ele><time>2026-04-12T07:21:23.562Z</time></trkpt><trkpt lat="45.5040662" lon="11.1728899"><ele>274.3333333333333</ele><time>2026-04-12T07:21:25.566Z</time></trkpt><trkpt lat="45.5041261" lon="11.1728615"><ele>274.66666666666663</ele><time>2026-04-12T07:21:27.561Z</time></trkpt><trkpt lat="45.5042064" lon="11.1728247"><ele>275.0</ele><time>2026-04-12T07:21:30.575Z</time></trkpt><trkpt lat="45.5042889" lon="11.1727955"><ele>275.3333333333333</ele><time>2026-04-12T07:21:33.569Z</time></trkpt><trkpt lat="45.5043751" lon="11.1727683"><ele>275.6666666666667</ele><time>2026-04-12T07:21:36.556Z</time></trkpt><trkpt lat="45.5044613" lon="11.1727342"><ele>276.0</ele><time>2026-04-12T07:21:39.651Z</time></trkpt><trkpt lat="45.5045487" lon="11.1726991"><ele>276.6666666666667</ele><time>2026-04-12T07:21:42.55Z</time></trkpt><trkpt lat="45.5046375" lon="11.1726721"><ele>277.3333333333333</ele><time>2026-04-12T07:21:45.57Z</time></trkpt><trkpt lat="45.5046995" lon="11.1726509"><ele>278.0</ele><time>2026-04-12T07:21:47.554Z</time></trkpt><trkpt lat="45.5047884" lon="11.1726372"><ele>278.66666666666663</ele><time>2026-04-12T07:21:50.568Z</time></trkpt><trkpt lat="45.5048698" lon="11.1726039"><ele>279.3333333333333</ele><time>2026-04-12T07:21:53.571Z</time></trkpt><trkpt lat="45.5049308" lon="11.1725789"><ele>280.0</ele><time>2026-04-12T07:21:55.593Z</time></trkpt><trkpt lat="45.504992" lon="11.1725562"><ele>280.0</ele><time>2026-04-12T07:21:57.566Z</time></trkpt><trkpt lat="45.5050545" lon="11.1725403"><ele>280.0</ele><time>2026-04-12T07:21:59.568Z</time></trkpt><trkpt lat="45.5051746" lon="11.1725179"><ele>280.0</ele><time>2026-04-12T07:22:03.564Z</time></trkpt><trkpt lat="45.5052436" lon="11.1725017"><ele>280.0</ele><time>2026-04-12T07:22:05.565Z</time></trkpt><trkpt lat="45.5053086" lon="11.1724859"><ele>280.0</ele><time>2026-04-12T07:22:07.567Z</time></trkpt><trkpt lat="45.5053731" lon="11.1724726"><ele>280.0</ele><time>2026-04-12T07:22:09.623Z</time></trkpt><trkpt lat="45.5054381" lon="11.1724582"><ele>280.5</ele><time>2026-04-12T07:22:11.565Z</time></trkpt><trkpt lat="45.5055023" lon="11.172454"><ele>281.0</ele><time>2026-04-12T07:22:13.563Z</time></trkpt><trkpt lat="45.5055685" lon="11.1724495"><ele>281.5</ele><time>2026-04-12T07:22:15.57Z</time></trkpt><trkpt lat="45.5056619" lon="11.1724511"><ele>282.0</ele><time>2026-04-12T07:22:18.566Z</time></trkpt><trkpt lat="45.5057284" lon="11.1724499"><ele>282.5</ele><time>2026-04-12T07:22:20.564Z</time></trkpt><trkpt lat="45.5057977" lon="11.172453"><ele>283.0</ele><time>2026-04-12T07:22:22.624Z</time></trkpt><trkpt lat="45.505889" lon="11.1724432"><ele>283.0</ele><time>2026-04-12T07:22:25.567Z</time></trkpt><trkpt lat="45.5059732" lon="11.1724445"><ele>283.0</ele><time>2026-04-12T07:22:28.565Z</time></trkpt><trkpt lat="45.5060363" lon="11.1724439"><ele>283.0</ele><time>2026-04-12T07:22:30.565Z</time></trkpt><trkpt lat="45.5061056" lon="11.1724428"><ele>283.0</ele><time>2026-04-12T07:22:32.576Z</time></trkpt><trkpt lat="45.5061734" lon="11.1724388"><ele>283.0</ele><time>2026-04-12T07:22:34.579Z</time></trkpt><trkpt lat="45.506244" lon="11.1724383"><ele>283.0</ele><time>2026-04-12T07:22:36.572Z</time></trkpt><trkpt lat="45.5063123" lon="11.1724336"><ele>283.0</ele><time>2026-04-12T07:22:38.566Z</time></trkpt><trkpt lat="45.5063777" lon="11.1724247"><ele>283.3333333333333</ele><time>2026-04-12T07:22:40.572Z</time></trkpt><trkpt lat="45.5064404" lon="11.1724158"><ele>283.66666666666663</ele><time>2026-04-12T07:22:42.567Z</time></trkpt><trkpt lat="45.5065279" lon="11.1724027"><ele>284.0</ele><time>2026-04-12T07:22:45.568Z</time></trkpt><trkpt lat="45.5066152" lon="11.1723933"><ele>284.3333333333333</ele><time>2026-04-12T07:22:48.573Z</time></trkpt><trkpt lat="45.5067016" lon="11.1723812"><ele>284.6666666666667</ele><time>2026-04-12T07:22:51.581Z</time></trkpt><trkpt lat="45.5067862" lon="11.1723529"><ele>285.0</ele><time>2026-04-12T07:22:54.563Z</time></trkpt><trkpt lat="45.5068665" lon="11.1723283"><ele>285.0</ele><time>2026-04-12T07:22:57.554Z</time></trkpt><trkpt lat="45.5069497" lon="11.1723102"><ele>285.0</ele><time>2026-04-12T07:23:00.571Z</time></trkpt><trkpt lat="45.5070349" lon="11.172303"><ele>285.0</ele><time>2026-04-12T07:23:03.573Z</time></trkpt><trkpt lat="45.5071236" lon="11.1722821"><ele>285.0</ele><time>2026-04-12T07:23:06.569Z</time></trkpt><trkpt lat="45.5072137" lon="11.1722476"><ele>285.0</ele><time>2026-04-12T07:23:09.563Z</time></trkpt><trkpt lat="45.5073014" lon="11.1722028"><ele>285.0</ele><time>2026-04-12T07:23:12.568Z</time></trkpt><trkpt lat="45.5073846" lon="11.1721545"><ele>285.8333333333333</ele><time>2026-04-12T07:23:15.56Z</time></trkpt><trkpt lat="45.5074705" lon="11.172113"><ele>286.6666666666667</ele><time>2026-04-12T07:23:18.561Z</time></trkpt><trkpt lat="45.5075285" lon="11.1720748"><ele>287.5</ele><time>2026-04-12T07:23:20.571Z</time></trkpt><trkpt lat="45.5076164" lon="11.1720299"><ele>288.33333333333337</ele><time>2026-04-12T07:23:23.573Z</time></trkpt><trkpt lat="45.5076898" lon="11.171977"><ele>289.1666666666667</ele><time>2026-04-12T07:23:26.565Z</time></trkpt><trkpt lat="45.5077571" lon="11.1719216"><ele>290.0</ele><time>2026-04-12T07:23:29.564Z</time></trkpt><trkpt lat="45.5078188" lon="11.1718467"><ele>290.0</ele><time>2026-04-12T07:23:32.551Z</time></trkpt><trkpt lat="45.5078766" lon="11.17178"><ele>290.0</ele><time>2026-04-12T07:23:35.568Z</time></trkpt><trkpt lat="45.5079314" lon="11.1717112"><ele>290.0</ele><time>2026-04-12T07:23:38.611Z</time></trkpt><trkpt lat="45.5080225" lon="11.1715812"><ele>290.0</ele><time>2026-04-12T07:23:42.565Z</time></trkpt><trkpt lat="45.5080876" lon="11.1714981"><ele>290.0</ele><time>2026-04-12T07:23:45.635Z</time></trkpt><trkpt lat="45.508136" lon="11.1714335"><ele>290.0</ele><time>2026-04-12T07:23:47.569Z</time></trkpt><trkpt lat="45.5081886" lon="11.1713772"><ele>290.33333333333337</ele><time>2026-04-12T07:23:49.571Z</time></trkpt><trkpt lat="45.5082433" lon="11.1713222"><ele>290.6666666666667</ele><time>2026-04-12T07:23:51.565Z</time></trkpt><trkpt lat="45.5083167" lon="11.1712529"><ele>291.0</ele><time>2026-04-12T07:23:54.57Z</time></trkpt><trkpt lat="45.5083973" lon="11.1711766"><ele>291.3333333333333</ele><time>2026-04-12T07:23:57.554Z</time></trkpt><trkpt lat="45.508477" lon="11.1711143"><ele>291.66666666666663</ele><time>2026-04-12T07:24:00.562Z</time></trkpt><trkpt lat="45.5085638" lon="11.1710633"><ele>292.0</ele><time>2026-04-12T07:24:03.565Z</time></trkpt><trkpt lat="45.5086249" lon="11.1710266"><ele>292.0</ele><time>2026-04-12T07:24:05.565Z</time></trkpt><trkpt lat="45.5086818" lon="11.1709832"><ele>292.0</ele><time>2026-04-12T07:24:07.568Z</time></trkpt><trkpt lat="45.5087587" lon="11.1709264"><ele>292.0</ele><time>2026-04-12T07:24:10.57Z</time></trkpt><trkpt lat="45.5088342" lon="11.1708596"><ele>292.0</ele><time>2026-04-12T07:24:13.571Z</time></trkpt><trkpt lat="45.5089102" lon="11.1707929"><ele>292.0</ele><time>2026-04-12T07:24:16.572Z</time></trkpt><trkpt lat="45.5089814" lon="11.1707141"><ele>292.0</ele><time>2026-04-12T07:24:19.558Z</time></trkpt><trkpt lat="45.5090377" lon="11.1706652"><ele>292.7142857142857</ele><time>2026-04-12T07:24:21.579Z</time></trkpt><trkpt lat="45.5090945" lon="11.1706154"><ele>293.42857142857144</ele><time>2026-04-12T07:24:23.574Z</time></trkpt><trkpt lat="45.5091463" lon="11.170561"><ele>294.14285714285717</ele><time>2026-04-12T07:24:25.567Z</time></trkpt><trkpt lat="45.5091975" lon="11.1705056"><ele>294.8571428571429</ele><time>2026-04-12T07:24:27.568Z</time></trkpt><trkpt lat="45.5092491" lon="11.1704425"><ele>295.5714285714286</ele><time>2026-04-12T07:24:29.57Z</time></trkpt><trkpt lat="45.5093065" lon="11.1703841"><ele>296.2857142857143</ele><time>2026-04-12T07:24:31.592Z</time></trkpt><trkpt lat="45.5093758" lon="11.170329"><ele>297.0</ele><time>2026-04-12T07:24:33.567Z</time></trkpt><trkpt lat="45.5094344" lon="11.1702612"><ele>297.0</ele><time>2026-04-12T07:24:35.562Z</time></trkpt><trkpt lat="45.5094865" lon="11.1701853"><ele>297.0</ele><time>2026-04-12T07:24:37.569Z</time></trkpt><trkpt lat="45.5095406" lon="11.1701176"><ele>297.0</ele><time>2026-04-12T07:24:39.568Z</time></trkpt><trkpt lat="45.5095949" lon="11.1700559"><ele>297.0</ele><time>2026-04-12T07:24:41.564Z</time></trkpt><trkpt lat="45.5096841" lon="11.1699764"><ele>297.0</ele><time>2026-04-12T07:24:44.57Z</time></trkpt><trkpt lat="45.5097453" lon="11.169921"><ele>297.0</ele><time>2026-04-12T07:24:46.569Z</time></trkpt><trkpt lat="45.5098113" lon="11.1698758"><ele>297.14285714285717</ele><time>2026-04-12T07:24:48.572Z</time></trkpt><trkpt lat="45.5098764" lon="11.1698315"><ele>297.28571428571433</ele><time>2026-04-12T07:24:50.566Z</time></trkpt><trkpt lat="45.5099401" lon="11.1697827"><ele>297.42857142857144</ele><time>2026-04-12T07:24:52.566Z</time></trkpt><trkpt lat="45.5100014" lon="11.1697312"><ele>297.57142857142856</ele><time>2026-04-12T07:24:54.61Z</time></trkpt><trkpt lat="45.5100569" lon="11.169683"><ele>297.71428571428567</ele><time>2026-04-12T07:24:56.557Z</time></trkpt><trkpt lat="45.5101197" lon="11.1696367"><ele>297.85714285714283</ele><time>2026-04-12T07:24:58.567Z</time></trkpt><trkpt lat="45.5101878" lon="11.1695977"><ele>298.0</ele><time>2026-04-12T07:25:00.579Z</time></trkpt><trkpt lat="45.5102529" lon="11.169552"><ele>298.0</ele><time>2026-04-12T07:25:02.569Z</time></trkpt><trkpt lat="45.5103178" lon="11.1695072"><ele>298.0</ele><time>2026-04-12T07:25:04.56Z</time></trkpt><trkpt lat="45.5103823" lon="11.1694756"><ele>298.0</ele><time>2026-04-12T07:25:06.559Z</time></trkpt><trkpt lat="45.5104752" lon="11.1694307"><ele>298.0</ele><time>2026-04-12T07:25:09.568Z</time></trkpt><trkpt lat="45.5105569" lon="11.1693683"><ele>298.0</ele><time>2026-04-12T07:25:12.561Z</time></trkpt><trkpt lat="45.5106384" lon="11.1693089"><ele>298.0</ele><time>2026-04-12T07:25:15.559Z</time></trkpt><trkpt lat="45.5106972" lon="11.1692584"><ele>298.5</ele><time>2026-04-12T07:25:17.559Z</time></trkpt><trkpt lat="45.5107586" lon="11.1692123"><ele>299.0</ele><time>2026-04-12T07:25:19.569Z</time></trkpt><trkpt lat="45.5108346" lon="11.1691371"><ele>299.5</ele><time>2026-04-12T07:25:22.553Z</time></trkpt><trkpt lat="45.5109053" lon="11.1690612"><ele>300.0</ele><time>2026-04-12T07:25:25.579Z</time></trkpt><trkpt lat="45.5109731" lon="11.1689918"><ele>300.5</ele><time>2026-04-12T07:25:28.574Z</time></trkpt><trkpt lat="45.5110386" lon="11.1689356"><ele>301.0</ele><time>2026-04-12T07:25:31.581Z</time></trkpt><trkpt lat="45.5111123" lon="11.1688747"><ele>301.5</ele><time>2026-04-12T07:25:34.566Z</time></trkpt><trkpt lat="45.5111867" lon="11.168819"><ele>302.0</ele><time>2026-04-12T07:25:37.573Z</time></trkpt><trkpt lat="45.5112703" lon="11.1687654"><ele>302.5</ele><time>2026-04-12T07:25:40.575Z</time></trkpt><trkpt lat="45.5113538" lon="11.1687097"><ele>303.0</ele><time>2026-04-12T07:25:43.559Z</time></trkpt><trkpt lat="45.5114133" lon="11.1686714"><ele>303.5</ele><time>2026-04-12T07:25:45.61Z</time></trkpt><trkpt lat="45.511475" lon="11.168642"><ele>304.0</ele><time>2026-04-12T07:25:47.568Z</time></trkpt><trkpt lat="45.5115425" lon="11.1686129"><ele>304.1428571428571</ele><time>2026-04-12T07:25:49.582Z</time></trkpt><trkpt lat="45.5116081" lon="11.1685799"><ele>304.28571428571433</ele><time>2026-04-12T07:25:51.575Z</time></trkpt><trkpt lat="45.511679" lon="11.1685402"><ele>304.42857142857144</ele><time>2026-04-12T07:25:53.569Z</time></trkpt><trkpt lat="45.5117461" lon="11.168498"><ele>304.57142857142856</ele><time>2026-04-12T07:25:55.564Z</time></trkpt><trkpt lat="45.5118159" lon="11.1684568"><ele>304.71428571428567</ele><time>2026-04-12T07:25:57.575Z</time></trkpt><trkpt lat="45.5118791" lon="11.1684195"><ele>304.8571428571429</ele><time>2026-04-12T07:25:59.569Z</time></trkpt><trkpt lat="45.5119406" lon="11.1683827"><ele>305.0</ele><time>2026-04-12T07:26:01.568Z</time></trkpt><trkpt lat="45.5120086" lon="11.1683392"><ele>305.42857142857144</ele><time>2026-04-12T07:26:03.543Z</time></trkpt><trkpt lat="45.5120735" lon="11.1682967"><ele>305.85714285714283</ele><time>2026-04-12T07:26:05.613Z</time></trkpt><trkpt lat="45.5121355" lon="11.1682512"><ele>306.2857142857143</ele><time>2026-04-12T07:26:07.575Z</time></trkpt><trkpt lat="45.5121995" lon="11.1682105"><ele>306.7142857142857</ele><time>2026-04-12T07:26:09.567Z</time></trkpt><trkpt lat="45.512263" lon="11.1681509"><ele>307.1428571428571</ele><time>2026-04-12T07:26:11.569Z</time></trkpt><trkpt lat="45.5123219" lon="11.1680994"><ele>307.57142857142856</ele><time>2026-04-12T07:26:13.579Z</time></trkpt><trkpt lat="45.5123829" lon="11.1680662"><ele>308.0</ele><time>2026-04-12T07:26:15.564Z</time></trkpt><trkpt lat="45.5124482" lon="11.1680509"><ele>308.14285714285717</ele><time>2026-04-12T07:26:17.573Z</time></trkpt><trkpt lat="45.5125164" lon="11.1680425"><ele>308.2857142857143</ele><time>2026-04-12T07:26:19.563Z</time></trkpt><trkpt lat="45.5125865" lon="11.1680203"><ele>308.42857142857144</ele><time>2026-04-12T07:26:21.564Z</time></trkpt><trkpt lat="45.5126581" lon="11.1679973"><ele>308.57142857142856</ele><time>2026-04-12T07:26:23.572Z</time></trkpt><trkpt lat="45.5127281" lon="11.167963"><ele>308.7142857142857</ele><time>2026-04-12T07:26:25.562Z</time></trkpt><trkpt lat="45.5127948" lon="11.1679269"><ele>308.8571428571429</ele><time>2026-04-12T07:26:27.686Z</time></trkpt><trkpt lat="45.5128686" lon="11.1678911"><ele>309.0</ele><time>2026-04-12T07:26:29.57Z</time></trkpt><trkpt lat="45.5129376" lon="11.1678302"><ele>309.5</ele><time>2026-04-12T07:26:31.569Z</time></trkpt><trkpt lat="45.5130054" lon="11.1677661"><ele>310.0</ele><time>2026-04-12T07:26:33.567Z</time></trkpt><trkpt lat="45.5130751" lon="11.1677033"><ele>310.5</ele><time>2026-04-12T07:26:35.571Z</time></trkpt><trkpt lat="45.5131403" lon="11.1676396"><ele>311.0</ele><time>2026-04-12T07:26:37.571Z</time></trkpt><trkpt lat="45.5132035" lon="11.1675835"><ele>311.5</ele><time>2026-04-12T07:26:39.579Z</time></trkpt><trkpt lat="45.5132761" lon="11.1675266"><ele>312.0</ele><time>2026-04-12T07:26:41.572Z</time></trkpt><trkpt lat="45.5133536" lon="11.1674475"><ele>312.0</ele><time>2026-04-12T07:26:44.566Z</time></trkpt><trkpt lat="45.5134255" lon="11.1674028"><ele>312.0</ele><time>2026-04-12T07:26:46.574Z</time></trkpt><trkpt lat="45.5134982" lon="11.1673796"><ele>312.0</ele><time>2026-04-12T07:26:48.575Z</time></trkpt><trkpt lat="45.5136293" lon="11.1673247"><ele>312.0</ele><time>2026-04-12T07:26:51.575Z</time></trkpt><trkpt lat="45.5137149" lon="11.1672922"><ele>312.0</ele><time>2026-04-12T07:26:53.614Z</time></trkpt><trkpt lat="45.5137899" lon="11.1672244"><ele>312.3333333333333</ele><time>2026-04-12T07:26:55.572Z</time></trkpt><trkpt lat="45.5138578" lon="11.1671498"><ele>312.6666666666667</ele><time>2026-04-12T07:26:57.554Z</time></trkpt><trkpt lat="45.5139277" lon="11.1670811"><ele>313.0</ele><time>2026-04-12T07:26:59.622Z</time></trkpt><trkpt lat="45.513997" lon="11.1670141"><ele>313.33333333333337</ele><time>2026-04-12T07:27:01.569Z</time></trkpt><trkpt lat="45.5140696" lon="11.1669554"><ele>313.6666666666667</ele><time>2026-04-12T07:27:03.571Z</time></trkpt><trkpt lat="45.5141411" lon="11.1668942"><ele>314.0</ele><time>2026-04-12T07:27:05.569Z</time></trkpt><trkpt lat="45.514207" lon="11.1668134"><ele>314.0</ele><time>2026-04-12T07:27:07.573Z</time></trkpt><trkpt lat="45.5142716" lon="11.1667368"><ele>314.0</ele><time>2026-04-12T07:27:09.573Z</time></trkpt><trkpt lat="45.5143362" lon="11.1666622"><ele>314.0</ele><time>2026-04-12T07:27:11.57Z</time></trkpt><trkpt lat="45.5143999" lon="11.1665932"><ele>314.0</ele><time>2026-04-12T07:27:13.572Z</time></trkpt><trkpt lat="45.5144584" lon="11.1665226"><ele>314.0</ele><time>2026-04-12T07:27:15.566Z</time></trkpt><trkpt lat="45.5145067" lon="11.1664485"><ele>314.0</ele><time>2026-04-12T07:27:17.571Z</time></trkpt><trkpt lat="45.5145553" lon="11.1663677"><ele>314.4285714285714</ele><time>2026-04-12T07:27:19.572Z</time></trkpt><trkpt lat="45.5146129" lon="11.1662947"><ele>314.85714285714283</ele><time>2026-04-12T07:27:21.57Z</time></trkpt><trkpt lat="45.5146675" lon="11.1662229"><ele>315.2857142857143</ele><time>2026-04-12T07:27:23.564Z</time></trkpt><trkpt lat="45.5147259" lon="11.166154"><ele>315.71428571428567</ele><time>2026-04-12T07:27:25.608Z</time></trkpt><trkpt lat="45.5147711" lon="11.1660798"><ele>316.1428571428571</ele><time>2026-04-12T07:27:27.563Z</time></trkpt><trkpt lat="45.5148159" lon="11.1660051"><ele>316.57142857142856</ele><time>2026-04-12T07:27:29.578Z</time></trkpt><trkpt lat="45.5148737" lon="11.1659496"><ele>317.0</ele><time>2026-04-12T07:27:31.578Z</time></trkpt><trkpt lat="45.5149458" lon="11.1659215"><ele>317.0</ele><time>2026-04-12T07:27:33.567Z</time></trkpt><trkpt lat="45.5150184" lon="11.1659173"><ele>317.0</ele><time>2026-04-12T07:27:35.577Z</time></trkpt><trkpt lat="45.5150901" lon="11.1659148"><ele>317.0</ele><time>2026-04-12T07:27:37.577Z</time></trkpt><trkpt lat="45.5151579" lon="11.1659013"><ele>317.0</ele><time>2026-04-12T07:27:39.602Z</time></trkpt><trkpt lat="45.5152277" lon="11.1658887"><ele>317.0</ele><time>2026-04-12T07:27:41.587Z</time></trkpt><trkpt lat="45.5153001" lon="11.1658771"><ele>317.0</ele><time>2026-04-12T07:27:43.57Z</time></trkpt><trkpt lat="45.5153689" lon="11.1658613"><ele>317.0</ele><time>2026-04-12T07:27:45.588Z</time></trkpt><trkpt lat="45.5154608" lon="11.1658511"><ele>317.6666666666667</ele><time>2026-04-12T07:27:48.573Z</time></trkpt><trkpt lat="45.5155385" lon="11.1658219"><ele>318.33333333333337</ele><time>2026-04-12T07:27:51.567Z</time></trkpt><trkpt lat="45.5156184" lon="11.1657592"><ele>319.0</ele><time>2026-04-12T07:27:53.567Z</time></trkpt><trkpt lat="45.5157051" lon="11.165742"><ele>319.6666666666667</ele><time>2026-04-12T07:27:56.62Z</time></trkpt><trkpt lat="45.515768" lon="11.1657845"><ele>320.3333333333333</ele><time>2026-04-12T07:27:57.596Z</time></trkpt><trkpt lat="45.5158491" lon="11.1658132"><ele>321.0</ele><time>2026-04-12T07:27:59.579Z</time></trkpt><trkpt lat="45.5159271" lon="11.1658212"><ele>320.99999999999994</ele><time>2026-04-12T07:28:01.562Z</time></trkpt><trkpt lat="45.5160035" lon="11.1658171"><ele>321.0</ele><time>2026-04-12T07:28:03.572Z</time></trkpt><trkpt lat="45.5160764" lon="11.1658066"><ele>321.0</ele><time>2026-04-12T07:28:05.555Z</time></trkpt><trkpt lat="45.5161548" lon="11.165791"><ele>321.0</ele><time>2026-04-12T07:28:07.567Z</time></trkpt><trkpt lat="45.5162323" lon="11.1657689"><ele>321.0</ele><time>2026-04-12T07:28:09.561Z</time></trkpt><trkpt lat="45.5163037" lon="11.1657487"><ele>320.99999999999994</ele><time>2026-04-12T07:28:11.563Z</time></trkpt><trkpt lat="45.5163677" lon="11.1657216"><ele>321.0</ele><time>2026-04-12T07:28:13.568Z</time></trkpt><trkpt lat="45.5164462" lon="11.1657048"><ele>321.0</ele><time>2026-04-12T07:28:15.596Z</time></trkpt><trkpt lat="45.5165284" lon="11.1657072"><ele>321.0</ele><time>2026-04-12T07:28:17.572Z</time></trkpt><trkpt lat="45.5166046" lon="11.1657017"><ele>321.0</ele><time>2026-04-12T07:28:19.572Z</time></trkpt><trkpt lat="45.5166792" lon="11.1656988"><ele>321.0</ele><time>2026-04-12T07:28:21.57Z</time></trkpt><trkpt lat="45.5167521" lon="11.165696"><ele>321.0</ele><time>2026-04-12T07:28:23.568Z</time></trkpt><trkpt lat="45.5168263" lon="11.1656949"><ele>321.0</ele><time>2026-04-12T07:28:25.572Z</time></trkpt><trkpt lat="45.5169009" lon="11.1657005"><ele>320.99999999999994</ele><time>2026-04-12T07:28:27.567Z</time></trkpt><trkpt lat="45.5169717" lon="11.1657059"><ele>321.0</ele><time>2026-04-12T07:28:29.582Z</time></trkpt><trkpt lat="45.5170393" lon="11.1657023"><ele>321.0</ele><time>2026-04-12T07:28:31.557Z</time></trkpt><trkpt lat="45.5171033" lon="11.1657018"><ele>321.0</ele><time>2026-04-12T07:28:33.734Z</time></trkpt><trkpt lat="45.5171729" lon="11.1656892"><ele>321.0</ele><time>2026-04-12T07:28:35.569Z</time></trkpt><trkpt lat="45.5172349" lon="11.1656666"><ele>320.99999999999994</ele><time>2026-04-12T07:28:37.573Z</time></trkpt><trkpt lat="45.5173034" lon="11.1656456"><ele>321.0</ele><time>2026-04-12T07:28:39.607Z</time></trkpt><trkpt lat="45.5173649" lon="11.1656077"><ele>321.3333333333333</ele><time>2026-04-12T07:28:41.571Z</time></trkpt><trkpt lat="45.5174313" lon="11.1655735"><ele>321.6666666666667</ele><time>2026-04-12T07:28:43.617Z</time></trkpt><trkpt lat="45.5175001" lon="11.1655321"><ele>322.0</ele><time>2026-04-12T07:28:45.571Z</time></trkpt><trkpt lat="45.5175605" lon="11.1655026"><ele>322.33333333333337</ele><time>2026-04-12T07:28:47.562Z</time></trkpt><trkpt lat="45.5176521" lon="11.1654655"><ele>322.6666666666667</ele><time>2026-04-12T07:28:50.573Z</time></trkpt><trkpt lat="45.5177297" lon="11.1654253"><ele>323.0</ele><time>2026-04-12T07:28:52.571Z</time></trkpt><trkpt lat="45.5177979" lon="11.1653805"><ele>323.00000000000006</ele><time>2026-04-12T07:28:54.571Z</time></trkpt><trkpt lat="45.5178603" lon="11.16534"><ele>323.0</ele><time>2026-04-12T07:28:56.576Z</time></trkpt><trkpt lat="45.5179343" lon="11.165309"><ele>323.0</ele><time>2026-04-12T07:28:58.574Z</time></trkpt><trkpt lat="45.518017" lon="11.1652799"><ele>323.0</ele><time>2026-04-12T07:29:00.589Z</time></trkpt><trkpt lat="45.5180871" lon="11.1652471"><ele>323.0</ele><time>2026-04-12T07:29:02.568Z</time></trkpt><trkpt lat="45.5181543" lon="11.1652312"><ele>323.00000000000006</ele><time>2026-04-12T07:29:04.57Z</time></trkpt><trkpt lat="45.5182252" lon="11.1652104"><ele>323.0</ele><time>2026-04-12T07:29:06.572Z</time></trkpt><trkpt lat="45.5182944" lon="11.1651786"><ele>323.42857142857144</ele><time>2026-04-12T07:29:08.557Z</time></trkpt><trkpt lat="45.5183586" lon="11.1651498"><ele>323.8571428571429</ele><time>2026-04-12T07:29:10.563Z</time></trkpt><trkpt lat="45.5184353" lon="11.1651208"><ele>324.28571428571433</ele><time>2026-04-12T07:29:12.564Z</time></trkpt><trkpt lat="45.5185102" lon="11.1651006"><ele>324.7142857142857</ele><time>2026-04-12T07:29:14.578Z</time></trkpt><trkpt lat="45.5185766" lon="11.165081"><ele>325.1428571428571</ele><time>2026-04-12T07:29:16.569Z</time></trkpt><trkpt lat="45.5186413" lon="11.1650578"><ele>325.5714285714286</ele><time>2026-04-12T07:29:18.563Z</time></trkpt><trkpt lat="45.5187054" lon="11.1650472"><ele>326.0</ele><time>2026-04-12T07:29:20.572Z</time></trkpt><trkpt lat="45.5187756" lon="11.1650254"><ele>326.5</ele><time>2026-04-12T07:29:22.566Z</time></trkpt><trkpt lat="45.5188507" lon="11.165001"><ele>327.0</ele><time>2026-04-12T07:29:24.568Z</time></trkpt><trkpt lat="45.5189311" lon="11.1649766"><ele>327.5</ele><time>2026-04-12T07:29:26.567Z</time></trkpt><trkpt lat="45.5189978" lon="11.1649567"><ele>328.0</ele><time>2026-04-12T07:29:28.567Z</time></trkpt><trkpt lat="45.5190774" lon="11.1649441"><ele>328.5</ele><time>2026-04-12T07:29:30.565Z</time></trkpt><trkpt lat="45.5191615" lon="11.1649191"><ele>329.0</ele><time>2026-04-12T07:29:33.569Z</time></trkpt><trkpt lat="45.5192371" lon="11.1648963"><ele>329.0</ele><time>2026-04-12T07:29:36.567Z</time></trkpt><trkpt lat="45.5193152" lon="11.1648434"><ele>329.0</ele><time>2026-04-12T07:29:39.564Z</time></trkpt><trkpt lat="45.5194015" lon="11.1648147"><ele>329.0</ele><time>2026-04-12T07:29:42.559Z</time></trkpt><trkpt lat="45.5194646" lon="11.1647896"><ele>329.0</ele><time>2026-04-12T07:29:44.558Z</time></trkpt><trkpt lat="45.5195293" lon="11.1647705"><ele>329.0</ele><time>2026-04-12T07:29:46.565Z</time></trkpt><trkpt lat="45.519615" lon="11.1647403"><ele>329.0</ele><time>2026-04-12T07:29:49.586Z</time></trkpt><trkpt lat="45.5197026" lon="11.1646834"><ele>329.2857142857143</ele><time>2026-04-12T07:29:52.564Z</time></trkpt><trkpt lat="45.5197642" lon="11.1646457"><ele>329.57142857142856</ele><time>2026-04-12T07:29:54.56Z</time></trkpt><trkpt lat="45.5198242" lon="11.164611"><ele>329.8571428571429</ele><time>2026-04-12T07:29:56.564Z</time></trkpt><trkpt lat="45.5198875" lon="11.164575"><ele>330.1428571428571</ele><time>2026-04-12T07:29:58.562Z</time></trkpt><trkpt lat="45.5199517" lon="11.1645308"><ele>330.42857142857144</ele><time>2026-04-12T07:30:00.566Z</time></trkpt><trkpt lat="45.5200127" lon="11.1644955"><ele>330.7142857142857</ele><time>2026-04-12T07:30:02.557Z</time></trkpt><trkpt lat="45.5200729" lon="11.164453"><ele>331.0</ele><time>2026-04-12T07:30:04.566Z</time></trkpt><trkpt lat="45.5201407" lon="11.1644065"><ele>331.0</ele><time>2026-04-12T07:30:07.565Z</time></trkpt><trkpt lat="45.5202381" lon="11.164337"><ele>331.0</ele><time>2026-04-12T07:30:10.565Z</time></trkpt><trkpt lat="45.5202744" lon="11.1642561"><ele>331.0</ele><time>2026-04-12T07:30:12.567Z</time></trkpt><trkpt lat="45.5203241" lon="11.1641622"><ele>331.0</ele><time>2026-04-12T07:30:15.572Z</time></trkpt><trkpt lat="45.5203684" lon="11.1640961"><ele>331.0</ele><time>2026-04-12T07:30:17.557Z</time></trkpt><trkpt lat="45.5204229" lon="11.1640299"><ele>331.0</ele><time>2026-04-12T07:30:19.557Z</time></trkpt><trkpt lat="45.5204764" lon="11.1639661"><ele>331.2857142857143</ele><time>2026-04-12T07:30:21.559Z</time></trkpt><trkpt lat="45.5205325" lon="11.1639071"><ele>331.57142857142856</ele><time>2026-04-12T07:30:23.575Z</time></trkpt><trkpt lat="45.52059" lon="11.1638479"><ele>331.8571428571429</ele><time>2026-04-12T07:30:25.574Z</time></trkpt><trkpt lat="45.5206573" lon="11.1637966"><ele>332.1428571428571</ele><time>2026-04-12T07:30:27.556Z</time></trkpt><trkpt lat="45.5207175" lon="11.1637565"><ele>332.4285714285714</ele><time>2026-04-12T07:30:29.567Z</time></trkpt><trkpt lat="45.5207914" lon="11.1637247"><ele>332.7142857142857</ele><time>2026-04-12T07:30:31.558Z</time></trkpt><trkpt lat="45.5208621" lon="11.1636907"><ele>333.0</ele><time>2026-04-12T07:30:33.56Z</time></trkpt><trkpt lat="45.5209265" lon="11.1636462"><ele>333.0</ele><time>2026-04-12T07:30:35.567Z</time></trkpt><trkpt lat="45.520994" lon="11.163601"><ele>333.0</ele><time>2026-04-12T07:30:37.563Z</time></trkpt><trkpt lat="45.5210653" lon="11.1635858"><ele>333.0</ele><time>2026-04-12T07:30:39.564Z</time></trkpt><trkpt lat="45.5211402" lon="11.1635594"><ele>333.0</ele><time>2026-04-12T07:30:41.559Z</time></trkpt><trkpt lat="45.521253" lon="11.1635268"><ele>333.0</ele><time>2026-04-12T07:30:44.558Z</time></trkpt><trkpt lat="45.5213288" lon="11.1635036"><ele>333.0</ele><time>2026-04-12T07:30:46.561Z</time></trkpt><trkpt lat="45.5214013" lon="11.1634687"><ele>333.5</ele><time>2026-04-12T07:30:48.567Z</time></trkpt><trkpt lat="45.5214726" lon="11.1634209"><ele>334.0</ele><time>2026-04-12T07:30:50.635Z</time></trkpt><trkpt lat="45.5215434" lon="11.1633974"><ele>334.5</ele><time>2026-04-12T07:30:52.568Z</time></trkpt><trkpt lat="45.5216089" lon="11.1633811"><ele>335.0</ele><time>2026-04-12T07:30:54.562Z</time></trkpt><trkpt lat="45.5216799" lon="11.1633647"><ele>335.5</ele><time>2026-04-12T07:30:56.559Z</time></trkpt><trkpt lat="45.5217547" lon="11.1633411"><ele>336.0</ele><time>2026-04-12T07:30:58.556Z</time></trkpt><trkpt lat="45.521781" lon="11.1632173"><ele>335.6666666666667</ele><time>2026-04-12T07:31:01.57Z</time></trkpt><trkpt lat="45.5217598" lon="11.1631181"><ele>335.3333333333333</ele><time>2026-04-12T07:31:03.569Z</time></trkpt><trkpt lat="45.5217512" lon="11.1630202"><ele>335.0</ele><time>2026-04-12T07:31:05.551Z</time></trkpt><trkpt lat="45.5217069" lon="11.1629064"><ele>334.66666666666663</ele><time>2026-04-12T07:31:07.629Z</time></trkpt><trkpt lat="45.5216553" lon="11.1628064"><ele>334.3333333333333</ele><time>2026-04-12T07:31:09.569Z</time></trkpt><trkpt lat="45.521632" lon="11.1626975"><ele>334.0</ele><time>2026-04-12T07:31:11.627Z</time></trkpt><trkpt lat="45.5216544" lon="11.1625875"><ele>334.0</ele><time>2026-04-12T07:31:13.561Z</time></trkpt><trkpt lat="45.5216867" lon="11.1624999"><ele>334.0</ele><time>2026-04-12T07:31:15.569Z</time></trkpt><trkpt lat="45.5217171" lon="11.1624184"><ele>334.0</ele><time>2026-04-12T07:31:17.575Z</time></trkpt><trkpt lat="45.5217443" lon="11.1623263"><ele>334.0</ele><time>2026-04-12T07:31:19.575Z</time></trkpt><trkpt lat="45.5217629" lon="11.1622148"><ele>334.0</ele><time>2026-04-12T07:31:21.569Z</time></trkpt><trkpt lat="45.5218015" lon="11.162104"><ele>334.0</ele><time>2026-04-12T07:31:23.569Z</time></trkpt><trkpt lat="45.5218514" lon="11.162025"><ele>334.0</ele><time>2026-04-12T07:31:25.565Z</time></trkpt><trkpt lat="45.5218771" lon="11.1619283"><ele>333.8333333333333</ele><time>2026-04-12T07:31:27.583Z</time></trkpt><trkpt lat="45.5218719" lon="11.1618152"><ele>333.66666666666663</ele><time>2026-04-12T07:31:29.568Z</time></trkpt><trkpt lat="45.5218863" lon="11.161703"><ele>333.5</ele><time>2026-04-12T07:31:31.571Z</time></trkpt><trkpt lat="45.5219031" lon="11.1615672"><ele>333.3333333333333</ele><time>2026-04-12T07:31:33.572Z</time></trkpt><trkpt lat="45.5218854" lon="11.1614367"><ele>333.1666666666667</ele><time>2026-04-12T07:31:35.568Z</time></trkpt><trkpt lat="45.5218602" lon="11.161307"><ele>333.0</ele><time>2026-04-12T07:31:37.559Z</time></trkpt><trkpt lat="45.5218359" lon="11.1611889"><ele>333.0</ele><time>2026-04-12T07:31:39.562Z</time></trkpt><trkpt lat="45.521832" lon="11.1610635"><ele>333.0</ele><time>2026-04-12T07:31:41.618Z</time></trkpt><trkpt lat="45.5218359" lon="11.1609433"><ele>333.0</ele><time>2026-04-12T07:31:43.553Z</time></trkpt><trkpt lat="45.5218406" lon="11.1608359"><ele>333.0</ele><time>2026-04-12T07:31:45.564Z</time></trkpt><trkpt lat="45.5218203" lon="11.1607258"><ele>333.0</ele><time>2026-04-12T07:31:47.571Z</time></trkpt><trkpt lat="45.5217969" lon="11.1606251"><ele>333.0</ele><time>2026-04-12T07:31:49.57Z</time></trkpt><trkpt lat="45.5217737" lon="11.1605166"><ele>333.1666666666667</ele><time>2026-04-12T07:31:51.576Z</time></trkpt><trkpt lat="45.521753" lon="11.1604074"><ele>333.3333333333333</ele><time>2026-04-12T07:31:53.555Z</time></trkpt><trkpt lat="45.5217342" lon="11.160305"><ele>333.5</ele><time>2026-04-12T07:31:55.618Z</time></trkpt><trkpt lat="45.5217121" lon="11.1602019"><ele>333.66666666666663</ele><time>2026-04-12T07:31:57.566Z</time></trkpt><trkpt lat="45.5216909" lon="11.1601033"><ele>333.8333333333333</ele><time>2026-04-12T07:31:59.572Z</time></trkpt><trkpt lat="45.5216678" lon="11.1599974"><ele>334.0</ele><time>2026-04-12T07:32:01.565Z</time></trkpt><trkpt lat="45.5216453" lon="11.1598929"><ele>333.66666666666663</ele><time>2026-04-12T07:32:03.565Z</time></trkpt><trkpt lat="45.5216209" lon="11.1597815"><ele>333.3333333333333</ele><time>2026-04-12T07:32:05.597Z</time></trkpt><trkpt lat="45.5216104" lon="11.1596718"><ele>333.0</ele><time>2026-04-12T07:32:07.563Z</time></trkpt><trkpt lat="45.5215914" lon="11.1595737"><ele>332.6666666666667</ele><time>2026-04-12T07:32:09.569Z</time></trkpt><trkpt lat="45.5215456" lon="11.1594772"><ele>332.33333333333337</ele><time>2026-04-12T07:32:11.564Z</time></trkpt><trkpt lat="45.5215083" lon="11.1593611"><ele>332.0</ele><time>2026-04-12T07:32:13.601Z</time></trkpt><trkpt lat="45.5214709" lon="11.1592366"><ele>332.0</ele><time>2026-04-12T07:32:15.574Z</time></trkpt><trkpt lat="45.5214261" lon="11.1590957"><ele>332.0</ele><time>2026-04-12T07:32:17.575Z</time></trkpt><trkpt lat="45.5213773" lon="11.1589702"><ele>332.0</ele><time>2026-04-12T07:32:19.574Z</time></trkpt><trkpt lat="45.5213257" lon="11.1588485"><ele>332.0</ele><time>2026-04-12T07:32:21.577Z</time></trkpt><trkpt lat="45.5212604" lon="11.1587336"><ele>332.0</ele><time>2026-04-12T07:32:23.563Z</time></trkpt><trkpt lat="45.5211919" lon="11.1586261"><ele>331.8</ele><time>2026-04-12T07:32:25.576Z</time></trkpt><trkpt lat="45.5211173" lon="11.1585124"><ele>331.6</ele><time>2026-04-12T07:32:27.566Z</time></trkpt><trkpt lat="45.5210517" lon="11.1583737"><ele>331.40000000000003</ele><time>2026-04-12T07:32:29.602Z</time></trkpt><trkpt lat="45.5210323" lon="11.1582222"><ele>331.20000000000005</ele><time>2026-04-12T07:32:31.569Z</time></trkpt><trkpt lat="45.5210085" lon="11.1580783"><ele>331.0</ele><time>2026-04-12T07:32:33.571Z</time></trkpt><trkpt lat="45.5210072" lon="11.1579186"><ele>331.0</ele><time>2026-04-12T07:32:35.59Z</time></trkpt><trkpt lat="45.5210013" lon="11.1577694"><ele>331.0</ele><time>2026-04-12T07:32:37.575Z</time></trkpt><trkpt lat="45.5209987" lon="11.1576156"><ele>331.0</ele><time>2026-04-12T07:32:39.573Z</time></trkpt><trkpt lat="45.520995" lon="11.1574711"><ele>331.0</ele><time>2026-04-12T07:32:41.568Z</time></trkpt><trkpt lat="45.5210222" lon="11.1573263"><ele>331.0</ele><time>2026-04-12T07:32:43.58Z</time></trkpt><trkpt lat="45.5210311" lon="11.1571758"><ele>331.8</ele><time>2026-04-12T07:32:45.634Z</time></trkpt><trkpt lat="45.5210407" lon="11.1570442"><ele>332.6</ele><time>2026-04-12T07:32:47.571Z</time></trkpt><trkpt lat="45.5210466" lon="11.1569081"><ele>333.4</ele><time>2026-04-12T07:32:49.571Z</time></trkpt><trkpt lat="45.521063" lon="11.156759"><ele>334.2</ele><time>2026-04-12T07:32:51.573Z</time></trkpt><trkpt lat="45.5210597" lon="11.1566131"><ele>335.0</ele><time>2026-04-12T07:32:53.575Z</time></trkpt><trkpt lat="45.5210662" lon="11.1564673"><ele>335.2</ele><time>2026-04-12T07:32:55.627Z</time></trkpt><trkpt lat="45.521076" lon="11.1563429"><ele>335.4</ele><time>2026-04-12T07:32:57.57Z</time></trkpt><trkpt lat="45.5210938" lon="11.1562035"><ele>335.6</ele><time>2026-04-12T07:32:59.562Z</time></trkpt><trkpt lat="45.5211285" lon="11.1560799"><ele>335.8</ele><time>2026-04-12T07:33:01.571Z</time></trkpt><trkpt lat="45.5211486" lon="11.1559485"><ele>336.0</ele><time>2026-04-12T07:33:03.615Z</time></trkpt><trkpt lat="45.5211813" lon="11.1558278"><ele>336.0</ele><time>2026-04-12T07:33:05.56Z</time></trkpt><trkpt lat="45.5212225" lon="11.1557457"><ele>336.0</ele><time>2026-04-12T07:33:07.567Z</time></trkpt><trkpt lat="45.521306" lon="11.1556626"><ele>336.0</ele><time>2026-04-12T07:33:10.566Z</time></trkpt><trkpt lat="45.521382" lon="11.1556038"><ele>336.0</ele><time>2026-04-12T07:33:12.567Z</time></trkpt><trkpt lat="45.521462" lon="11.1555194"><ele>336.0</ele><time>2026-04-12T07:33:14.568Z</time></trkpt><trkpt lat="45.5215443" lon="11.1554701"><ele>336.0</ele><time>2026-04-12T07:33:16.568Z</time></trkpt><trkpt lat="45.5216183" lon="11.1554192"><ele>336.6666666666667</ele><time>2026-04-12T07:33:18.599Z</time></trkpt><trkpt lat="45.5216918" lon="11.1553585"><ele>337.3333333333333</ele><time>2026-04-12T07:33:20.568Z</time></trkpt><trkpt lat="45.5217641" lon="11.1553003"><ele>338.0</ele><time>2026-04-12T07:33:22.579Z</time></trkpt><trkpt lat="45.5218428" lon="11.1552489"><ele>338.66666666666663</ele><time>2026-04-12T07:33:24.569Z</time></trkpt><trkpt lat="45.5219229" lon="11.155185"><ele>339.3333333333333</ele><time>2026-04-12T07:33:26.571Z</time></trkpt><trkpt lat="45.5219902" lon="11.155129"><ele>340.0</ele><time>2026-04-12T07:33:28.57Z</time></trkpt><trkpt lat="45.5220543" lon="11.1550619"><ele>340.2</ele><time>2026-04-12T07:33:30.569Z</time></trkpt><trkpt lat="45.5221376" lon="11.1550039"><ele>340.4</ele><time>2026-04-12T07:33:32.564Z</time></trkpt><trkpt lat="45.522226" lon="11.1549415"><ele>340.6</ele><time>2026-04-12T07:33:34.571Z</time></trkpt><trkpt lat="45.5223024" lon="11.1548718"><ele>340.8</ele><time>2026-04-12T07:33:36.559Z</time></trkpt><trkpt lat="45.5223812" lon="11.1547998"><ele>341.0</ele><time>2026-04-12T07:33:38.566Z</time></trkpt><trkpt lat="45.5224584" lon="11.1547258"><ele>342.4</ele><time>2026-04-12T07:33:40.57Z</time></trkpt><trkpt lat="45.5225379" lon="11.1546606"><ele>343.8</ele><time>2026-04-12T07:33:42.565Z</time></trkpt><trkpt lat="45.5226216" lon="11.1545934"><ele>345.2</ele><time>2026-04-12T07:33:44.57Z</time></trkpt><trkpt lat="45.522704" lon="11.1545293"><ele>346.59999999999997</ele><time>2026-04-12T07:33:46.573Z</time></trkpt><trkpt lat="45.5227881" lon="11.1544602"><ele>348.0</ele><time>2026-04-12T07:33:48.598Z</time></trkpt><trkpt lat="45.5228692" lon="11.1543917"><ele>347.0</ele><time>2026-04-12T07:33:50.563Z</time></trkpt><trkpt lat="45.5229508" lon="11.1543346"><ele>346.0</ele><time>2026-04-12T07:33:52.563Z</time></trkpt><trkpt lat="45.5230366" lon="11.1542799"><ele>345.0</ele><time>2026-04-12T07:33:54.565Z</time></trkpt><trkpt lat="45.5231223" lon="11.1542111"><ele>344.0</ele><time>2026-04-12T07:33:56.572Z</time></trkpt><trkpt lat="45.52321" lon="11.1541317"><ele>343.0</ele><time>2026-04-12T07:33:58.587Z</time></trkpt><trkpt lat="45.5233051" lon="11.1540618"><ele>343.4</ele><time>2026-04-12T07:34:00.609Z</time></trkpt><trkpt lat="45.5234028" lon="11.1540065"><ele>343.79999999999995</ele><time>2026-04-12T07:34:02.572Z</time></trkpt><trkpt lat="45.5235026" lon="11.1539674"><ele>344.2</ele><time>2026-04-12T07:34:04.61Z</time></trkpt><trkpt lat="45.5236062" lon="11.1539576"><ele>344.6</ele><time>2026-04-12T07:34:06.622Z</time></trkpt><trkpt lat="45.5237077" lon="11.1539466"><ele>345.0</ele><time>2026-04-12T07:34:08.571Z</time></trkpt><trkpt lat="45.5237995" lon="11.1539304"><ele>345.0</ele><time>2026-04-12T07:34:10.558Z</time></trkpt><trkpt lat="45.523892" lon="11.1538964"><ele>345.0</ele><time>2026-04-12T07:34:12.565Z</time></trkpt><trkpt lat="45.523986" lon="11.1538685"><ele>345.0</ele><time>2026-04-12T07:34:14.564Z</time></trkpt><trkpt lat="45.5240743" lon="11.1538335"><ele>345.0</ele><time>2026-04-12T07:34:16.565Z</time></trkpt><trkpt lat="45.524152" lon="11.1537973"><ele>345.0</ele><time>2026-04-12T07:34:18.613Z</time></trkpt><trkpt lat="45.5242402" lon="11.153774"><ele>345.0</ele><time>2026-04-12T07:34:20.556Z</time></trkpt><trkpt lat="45.524326" lon="11.1537549"><ele>345.0</ele><time>2026-04-12T07:34:22.577Z</time></trkpt><trkpt lat="45.524415" lon="11.1537302"><ele>345.0</ele><time>2026-04-12T07:34:24.616Z</time></trkpt><trkpt lat="45.5245076" lon="11.1537291"><ele>345.0</ele><time>2026-04-12T07:34:26.688Z</time></trkpt><trkpt lat="45.5245989" lon="11.1536958"><ele>345.0</ele><time>2026-04-12T07:34:28.567Z</time></trkpt><trkpt lat="45.5246863" lon="11.1536934"><ele>345.6</ele><time>2026-04-12T07:34:30.573Z</time></trkpt><trkpt lat="45.5247916" lon="11.1536769"><ele>346.2</ele><time>2026-04-12T07:34:32.63Z</time></trkpt><trkpt lat="45.5248801" lon="11.1536644"><ele>346.79999999999995</ele><time>2026-04-12T07:34:34.574Z</time></trkpt><trkpt lat="45.5249671" lon="11.1536267"><ele>347.4</ele><time>2026-04-12T07:34:36.573Z</time></trkpt><trkpt lat="45.5250713" lon="11.1536183"><ele>348.0</ele><time>2026-04-12T07:34:38.564Z</time></trkpt><trkpt lat="45.5251604" lon="11.1536105"><ele>348.0</ele><time>2026-04-12T07:34:40.569Z</time></trkpt><trkpt lat="45.5252992" lon="11.1535768"><ele>348.0</ele><time>2026-04-12T07:34:43.558Z</time></trkpt><trkpt lat="45.5253896" lon="11.1535535"><ele>348.0</ele><time>2026-04-12T07:34:45.571Z</time></trkpt><trkpt lat="45.5254958" lon="11.1535203"><ele>348.0</ele><time>2026-04-12T07:34:47.559Z</time></trkpt><trkpt lat="45.5255894" lon="11.1534965"><ele>348.0</ele><time>2026-04-12T07:34:49.573Z</time></trkpt><trkpt lat="45.5256576" lon="11.1535006"><ele>348.4</ele><time>2026-04-12T07:34:50.573Z</time></trkpt><trkpt lat="45.5257434" lon="11.1534537"><ele>348.79999999999995</ele><time>2026-04-12T07:34:52.567Z</time></trkpt><trkpt lat="45.5258536" lon="11.1534437"><ele>349.2</ele><time>2026-04-12T07:34:54.574Z</time></trkpt><trkpt lat="45.5259556" lon="11.153424"><ele>349.6</ele><time>2026-04-12T07:34:56.574Z</time></trkpt><trkpt lat="45.5260438" lon="11.1533876"><ele>350.0</ele><time>2026-04-12T07:34:58.569Z</time></trkpt><trkpt lat="45.5261475" lon="11.153361"><ele>350.5</ele><time>2026-04-12T07:35:00.566Z</time></trkpt><trkpt lat="45.5262371" lon="11.1533376"><ele>351.0</ele><time>2026-04-12T07:35:02.571Z</time></trkpt><trkpt lat="45.5263089" lon="11.1533321"><ele>351.5</ele><time>2026-04-12T07:35:04.559Z</time></trkpt><trkpt lat="45.5264024" lon="11.1533204"><ele>352.0</ele><time>2026-04-12T07:35:07.566Z</time></trkpt><trkpt lat="45.5264723" lon="11.1532804"><ele>352.5</ele><time>2026-04-12T07:35:09.562Z</time></trkpt><trkpt lat="45.5265503" lon="11.153256"><ele>353.0</ele><time>2026-04-12T07:35:11.565Z</time></trkpt><trkpt lat="45.5266525" lon="11.1532135"><ele>353.1428571428571</ele><time>2026-04-12T07:35:13.56Z</time></trkpt><trkpt lat="45.5267117" lon="11.1531654"><ele>353.28571428571433</ele><time>2026-04-12T07:35:15.605Z</time></trkpt><trkpt lat="45.5267807" lon="11.153116"><ele>353.42857142857144</ele><time>2026-04-12T07:35:17.557Z</time></trkpt><trkpt lat="45.5268437" lon="11.1530597"><ele>353.57142857142856</ele><time>2026-04-12T07:35:19.567Z</time></trkpt><trkpt lat="45.5269071" lon="11.1530075"><ele>353.71428571428567</ele><time>2026-04-12T07:35:21.553Z</time></trkpt><trkpt lat="45.526973" lon="11.1529561"><ele>353.8571428571429</ele><time>2026-04-12T07:35:23.559Z</time></trkpt><trkpt lat="45.5270383" lon="11.1528996"><ele>354.0</ele><time>2026-04-12T07:35:25.567Z</time></trkpt><trkpt lat="45.5271065" lon="11.1528384"><ele>354.1666666666667</ele><time>2026-04-12T07:35:27.575Z</time></trkpt><trkpt lat="45.5271744" lon="11.1527827"><ele>354.3333333333333</ele><time>2026-04-12T07:35:29.653Z</time></trkpt><trkpt lat="45.527241" lon="11.1527294"><ele>354.5</ele><time>2026-04-12T07:35:31.561Z</time></trkpt><trkpt lat="45.5273075" lon="11.152672"><ele>354.66666666666663</ele><time>2026-04-12T07:35:33.568Z</time></trkpt><trkpt lat="45.527376" lon="11.1526113"><ele>354.8333333333333</ele><time>2026-04-12T07:35:35.582Z</time></trkpt><trkpt lat="45.5274505" lon="11.1525574"><ele>355.0</ele><time>2026-04-12T07:35:37.579Z</time></trkpt><trkpt lat="45.527518" lon="11.1525097"><ele>355.0</ele><time>2026-04-12T07:35:39.651Z</time></trkpt><trkpt lat="45.5275756" lon="11.15246"><ele>355.0</ele><time>2026-04-12T07:35:41.708Z</time></trkpt><trkpt lat="45.5276385" lon="11.1524192"><ele>355.0</ele><time>2026-04-12T07:35:43.571Z</time></trkpt><trkpt lat="45.5277035" lon="11.1523705"><ele>355.0</ele><time>2026-04-12T07:35:45.577Z</time></trkpt><trkpt lat="45.5277666" lon="11.1523307"><ele>355.0</ele><time>2026-04-12T07:35:47.565Z</time></trkpt><trkpt lat="45.5278278" lon="11.1522924"><ele>355.0</ele><time>2026-04-12T07:35:49.572Z</time></trkpt><trkpt lat="45.527918" lon="11.1522488"><ele>355.0</ele><time>2026-04-12T07:35:52.612Z</time></trkpt><trkpt lat="45.5279961" lon="11.1522136"><ele>356.0</ele><time>2026-04-12T07:35:55.592Z</time></trkpt><trkpt lat="45.5280591" lon="11.1521782"><ele>357.0</ele><time>2026-04-12T07:35:57.582Z</time></trkpt><trkpt lat="45.5281198" lon="11.1521467"><ele>358.0</ele><time>2026-04-12T07:35:59.566Z</time></trkpt><trkpt lat="45.5282021" lon="11.1520991"><ele>359.0</ele><time>2026-04-12T07:36:02.571Z</time></trkpt><trkpt lat="45.5282966" lon="11.1520701"><ele>360.0</ele><time>2026-04-12T07:36:05.566Z</time></trkpt><trkpt lat="45.5283622" lon="11.152045"><ele>361.0</ele><time>2026-04-12T07:36:07.562Z</time></trkpt><trkpt lat="45.5284254" lon="11.1520197"><ele>361.0</ele><time>2026-04-12T07:36:09.563Z</time></trkpt><trkpt lat="45.5285162" lon="11.151989"><ele>361.0</ele><time>2026-04-12T07:36:12.563Z</time></trkpt><trkpt lat="45.5285931" lon="11.1519638"><ele>361.0</ele><time>2026-04-12T07:36:15.571Z</time></trkpt><trkpt lat="45.5286571" lon="11.1519403"><ele>361.0</ele><time>2026-04-12T07:36:17.566Z</time></trkpt><trkpt lat="45.5287346" lon="11.1519244"><ele>361.0</ele><time>2026-04-12T07:36:19.591Z</time></trkpt><trkpt lat="45.5288209" lon="11.1519167"><ele>361.0</ele><time>2026-04-12T07:36:21.567Z</time></trkpt><trkpt lat="45.5289111" lon="11.151905"><ele>361.16666666666663</ele><time>2026-04-12T07:36:23.565Z</time></trkpt><trkpt lat="45.5289979" lon="11.1518966"><ele>361.3333333333333</ele><time>2026-04-12T07:36:25.577Z</time></trkpt><trkpt lat="45.5290751" lon="11.1518805"><ele>361.5</ele><time>2026-04-12T07:36:27.592Z</time></trkpt><trkpt lat="45.5291532" lon="11.1518616"><ele>361.6666666666667</ele><time>2026-04-12T07:36:29.572Z</time></trkpt><trkpt lat="45.5292314" lon="11.1518479"><ele>361.83333333333337</ele><time>2026-04-12T07:36:31.568Z</time></trkpt><trkpt lat="45.5293057" lon="11.1518287"><ele>362.0</ele><time>2026-04-12T07:36:33.569Z</time></trkpt><trkpt lat="45.5293765" lon="11.1518225"><ele>362.0</ele><time>2026-04-12T07:36:35.569Z</time></trkpt><trkpt lat="45.52947" lon="11.1518126"><ele>362.0</ele><time>2026-04-12T07:36:38.567Z</time></trkpt><trkpt lat="45.5295429" lon="11.1517938"><ele>362.0</ele><time>2026-04-12T07:36:40.567Z</time></trkpt><trkpt lat="45.5296234" lon="11.1517744"><ele>362.0</ele><time>2026-04-12T07:36:42.567Z</time></trkpt><trkpt lat="45.5297043" lon="11.1517504"><ele>362.0</ele><time>2026-04-12T07:36:44.568Z</time></trkpt><trkpt lat="45.529777" lon="11.1517313"><ele>362.0</ele><time>2026-04-12T07:36:46.564Z</time></trkpt><trkpt lat="45.5298526" lon="11.1517118"><ele>362.0</ele><time>2026-04-12T07:36:48.574Z</time></trkpt><trkpt lat="45.5299303" lon="11.1516963"><ele>362.0</ele><time>2026-04-12T07:36:50.564Z</time></trkpt><trkpt lat="45.5300123" lon="11.151685"><ele>362.0</ele><time>2026-04-12T07:36:52.572Z</time></trkpt><trkpt lat="45.5300928" lon="11.1516711"><ele>362.0</ele><time>2026-04-12T07:36:54.565Z</time></trkpt><trkpt lat="45.5301714" lon="11.1516579"><ele>362.0</ele><time>2026-04-12T07:36:56.577Z</time></trkpt><trkpt lat="45.5302493" lon="11.1516468"><ele>362.0</ele><time>2026-04-12T07:36:58.567Z</time></trkpt><trkpt lat="45.5303279" lon="11.1516387"><ele>362.83333333333337</ele><time>2026-04-12T07:37:00.574Z</time></trkpt><trkpt lat="45.5304064" lon="11.1516355"><ele>363.6666666666667</ele><time>2026-04-12T07:37:02.671Z</time></trkpt><trkpt lat="45.530481" lon="11.1516283"><ele>364.5</ele><time>2026-04-12T07:37:04.584Z</time></trkpt><trkpt lat="45.5305588" lon="11.1516255"><ele>365.3333333333333</ele><time>2026-04-12T07:37:06.564Z</time></trkpt><trkpt lat="45.5306372" lon="11.1516224"><ele>366.16666666666663</ele><time>2026-04-12T07:37:08.572Z</time></trkpt><trkpt lat="45.5307157" lon="11.1516157"><ele>367.0</ele><time>2026-04-12T07:37:10.561Z</time></trkpt><trkpt lat="45.5307976" lon="11.1516138"><ele>367.0</ele><time>2026-04-12T07:37:12.561Z</time></trkpt><trkpt lat="45.5308777" lon="11.1515993"><ele>367.0</ele><time>2026-04-12T07:37:14.547Z</time></trkpt><trkpt lat="45.5309488" lon="11.1515721"><ele>367.0</ele><time>2026-04-12T07:37:16.565Z</time></trkpt><trkpt lat="45.5310181" lon="11.1515439"><ele>367.0</ele><time>2026-04-12T07:37:18.571Z</time></trkpt><trkpt lat="45.5310932" lon="11.1515191"><ele>367.0</ele><time>2026-04-12T07:37:20.57Z</time></trkpt><trkpt lat="45.5311703" lon="11.1514919"><ele>367.0</ele><time>2026-04-12T07:37:22.571Z</time></trkpt><trkpt lat="45.5312482" lon="11.1514708"><ele>370.0</ele><time>2026-04-12T07:37:24.612Z</time></trkpt><trkpt lat="45.5313218" lon="11.1514467"><ele>373.0</ele><time>2026-04-12T07:37:26.564Z</time></trkpt><trkpt lat="45.5313919" lon="11.1514229"><ele>376.0</ele><time>2026-04-12T07:37:28.565Z</time></trkpt><trkpt lat="45.5314608" lon="11.151402"><ele>379.0</ele><time>2026-04-12T07:37:30.588Z</time></trkpt><trkpt lat="45.5315327" lon="11.1513828"><ele>382.0</ele><time>2026-04-12T07:37:32.567Z</time></trkpt><trkpt lat="45.5316041" lon="11.1513628"><ele>385.0</ele><time>2026-04-12T07:37:34.567Z</time></trkpt><trkpt lat="45.5316755" lon="11.1513477"><ele>388.0</ele><time>2026-04-12T07:37:36.58Z</time></trkpt><trkpt lat="45.5317469" lon="11.1513261"><ele>388.0</ele><time>2026-04-12T07:37:38.564Z</time></trkpt><trkpt lat="45.5318122" lon="11.1513056"><ele>388.0</ele><time>2026-04-12T07:37:40.599Z</time></trkpt><trkpt lat="45.5319044" lon="11.1512775"><ele>388.0</ele><time>2026-04-12T07:37:43.599Z</time></trkpt><trkpt lat="45.5319695" lon="11.1512555"><ele>388.0</ele><time>2026-04-12T07:37:45.573Z</time></trkpt><trkpt lat="45.5320326" lon="11.151242"><ele>388.0</ele><time>2026-04-12T07:37:47.572Z</time></trkpt><trkpt lat="45.5320939" lon="11.1512188"><ele>388.0</ele><time>2026-04-12T07:37:49.563Z</time></trkpt><trkpt lat="45.5321596" lon="11.1511935"><ele>388.0</ele><time>2026-04-12T07:37:51.598Z</time></trkpt><trkpt lat="45.5322227" lon="11.1511757"><ele>388.1666666666667</ele><time>2026-04-12T07:37:53.567Z</time></trkpt><trkpt lat="45.5322894" lon="11.1511618"><ele>388.33333333333337</ele><time>2026-04-12T07:37:55.57Z</time></trkpt><trkpt lat="45.5323777" lon="11.1511329"><ele>388.5</ele><time>2026-04-12T07:37:58.571Z</time></trkpt><trkpt lat="45.5324698" lon="11.1511176"><ele>388.66666666666663</ele><time>2026-04-12T07:38:01.561Z</time></trkpt><trkpt lat="45.5325593" lon="11.1510957"><ele>388.8333333333333</ele><time>2026-04-12T07:38:04.571Z</time></trkpt><trkpt lat="45.5326233" lon="11.1510733"><ele>389.0</ele><time>2026-04-12T07:38:06.572Z</time></trkpt><trkpt lat="45.5326888" lon="11.1510469"><ele>388.99999999999994</ele><time>2026-04-12T07:38:08.571Z</time></trkpt><trkpt lat="45.5327759" lon="11.151009"><ele>389.0</ele><time>2026-04-12T07:38:11.567Z</time></trkpt><trkpt lat="45.5328528" lon="11.1509765"><ele>389.0</ele><time>2026-04-12T07:38:14.568Z</time></trkpt><trkpt lat="45.5329411" lon="11.1509431"><ele>389.0</ele><time>2026-04-12T07:38:17.57Z</time></trkpt><trkpt lat="45.5330085" lon="11.1509187"><ele>388.99999999999994</ele><time>2026-04-12T07:38:19.565Z</time></trkpt><trkpt lat="45.5330783" lon="11.1509117"><ele>389.0</ele><time>2026-04-12T07:38:21.569Z</time></trkpt><trkpt lat="45.5331508" lon="11.1509015"><ele>387.8571428571429</ele><time>2026-04-12T07:38:23.567Z</time></trkpt><trkpt lat="45.5332236" lon="11.1508845"><ele>386.71428571428567</ele><time>2026-04-12T07:38:25.566Z</time></trkpt><trkpt lat="45.5332985" lon="11.1508696"><ele>385.57142857142856</ele><time>2026-04-12T07:38:27.57Z</time></trkpt><trkpt lat="45.5333707" lon="11.1508623"><ele>384.42857142857144</ele><time>2026-04-12T07:38:29.574Z</time></trkpt><trkpt lat="45.5334434" lon="11.1508661"><ele>383.28571428571433</ele><time>2026-04-12T07:38:31.564Z</time></trkpt><trkpt lat="45.533512" lon="11.1508873"><ele>382.1428571428571</ele><time>2026-04-12T07:38:33.575Z</time></trkpt><trkpt lat="45.5335779" lon="11.1509182"><ele>381.0</ele><time>2026-04-12T07:38:35.639Z</time></trkpt><trkpt lat="45.5336444" lon="11.1509519"><ele>381.0</ele><time>2026-04-12T07:38:37.564Z</time></trkpt><trkpt lat="45.5337106" lon="11.1509819"><ele>381.0</ele><time>2026-04-12T07:38:39.562Z</time></trkpt><trkpt lat="45.5337869" lon="11.1510201"><ele>381.0</ele><time>2026-04-12T07:38:41.577Z</time></trkpt><trkpt lat="45.5338657" lon="11.1510429"><ele>381.0</ele><time>2026-04-12T07:38:43.579Z</time></trkpt><trkpt lat="45.5339301" lon="11.1510571"><ele>381.0</ele><time>2026-04-12T07:38:45.563Z</time></trkpt><trkpt lat="45.5339945" lon="11.1510838"><ele>381.0</ele><time>2026-04-12T07:38:47.57Z</time></trkpt><trkpt lat="45.5340679" lon="11.1511031"><ele>381.0</ele><time>2026-04-12T07:38:49.572Z</time></trkpt><trkpt lat="45.5341423" lon="11.151105"><ele>380.8333333333333</ele><time>2026-04-12T07:38:51.569Z</time></trkpt><trkpt lat="45.5342205" lon="11.1511059"><ele>380.6666666666667</ele><time>2026-04-12T07:38:53.569Z</time></trkpt><trkpt lat="45.5342966" lon="11.1511004"><ele>380.5</ele><time>2026-04-12T07:38:55.565Z</time></trkpt><trkpt lat="45.5343773" lon="11.1511004"><ele>380.33333333333337</ele><time>2026-04-12T07:38:57.567Z</time></trkpt><trkpt lat="45.5344561" lon="11.1510974"><ele>380.1666666666667</ele><time>2026-04-12T07:38:59.571Z</time></trkpt><trkpt lat="45.5345365" lon="11.1510857"><ele>380.0</ele><time>2026-04-12T07:39:01.625Z</time></trkpt><trkpt lat="45.5346201" lon="11.1510719"><ele>380.33333333333337</ele><time>2026-04-12T07:39:03.57Z</time></trkpt><trkpt lat="45.5347032" lon="11.1510587"><ele>380.6666666666667</ele><time>2026-04-12T07:39:05.569Z</time></trkpt><trkpt lat="45.5347895" lon="11.1510577"><ele>381.0</ele><time>2026-04-12T07:39:07.575Z</time></trkpt><trkpt lat="45.5348768" lon="11.1510529"><ele>381.3333333333333</ele><time>2026-04-12T07:39:09.566Z</time></trkpt><trkpt lat="45.5349614" lon="11.1510506"><ele>381.66666666666663</ele><time>2026-04-12T07:39:11.576Z</time></trkpt><trkpt lat="45.5350518" lon="11.1510427"><ele>382.0</ele><time>2026-04-12T07:39:13.574Z</time></trkpt><trkpt lat="45.5351331" lon="11.1510367"><ele>382.0</ele><time>2026-04-12T07:39:15.569Z</time></trkpt><trkpt lat="45.5352124" lon="11.1510246"><ele>382.0</ele><time>2026-04-12T07:39:17.579Z</time></trkpt><trkpt lat="45.5353045" lon="11.1510198"><ele>382.0</ele><time>2026-04-12T07:39:19.568Z</time></trkpt><trkpt lat="45.5353936" lon="11.1510104"><ele>382.0</ele><time>2026-04-12T07:39:21.604Z</time></trkpt><trkpt lat="45.5354808" lon="11.1509972"><ele>382.0</ele><time>2026-04-12T07:39:23.562Z</time></trkpt><trkpt lat="45.535568" lon="11.1509792"><ele>382.0</ele><time>2026-04-12T07:39:25.562Z</time></trkpt><trkpt lat="45.5356572" lon="11.1509614"><ele>382.0</ele><time>2026-04-12T07:39:27.571Z</time></trkpt><trkpt lat="45.5357484" lon="11.150953"><ele>382.0</ele><time>2026-04-12T07:39:29.569Z</time></trkpt><trkpt lat="45.535843" lon="11.1509433"><ele>382.0</ele><time>2026-04-12T07:39:31.565Z</time></trkpt><trkpt lat="45.5359377" lon="11.1509339"><ele>382.0</ele><time>2026-04-12T07:39:33.567Z</time></trkpt><trkpt lat="45.5360321" lon="11.1509386"><ele>382.0</ele><time>2026-04-12T07:39:35.569Z</time></trkpt><trkpt lat="45.5361258" lon="11.1509462"><ele>382.0</ele><time>2026-04-12T07:39:37.581Z</time></trkpt><trkpt lat="45.536217" lon="11.1509757"><ele>382.0</ele><time>2026-04-12T07:39:39.585Z</time></trkpt><trkpt lat="45.5363045" lon="11.1510264"><ele>382.0</ele><time>2026-04-12T07:39:41.568Z</time></trkpt><trkpt lat="45.536415" lon="11.151138"><ele>382.0</ele><time>2026-04-12T07:39:44.564Z</time></trkpt><trkpt lat="45.536473" lon="11.1512326"><ele>382.0</ele><time>2026-04-12T07:39:46.561Z</time></trkpt><trkpt lat="45.536521" lon="11.1513463"><ele>382.6</ele><time>2026-04-12T07:39:48.596Z</time></trkpt><trkpt lat="45.5365586" lon="11.1514674"><ele>383.20000000000005</ele><time>2026-04-12T07:39:50.571Z</time></trkpt><trkpt lat="45.5365985" lon="11.1515903"><ele>383.8</ele><time>2026-04-12T07:39:52.561Z</time></trkpt><trkpt lat="45.5366424" lon="11.1517159"><ele>384.4</ele><time>2026-04-12T07:39:54.604Z</time></trkpt><trkpt lat="45.5366947" lon="11.1518352"><ele>385.0</ele><time>2026-04-12T07:39:56.563Z</time></trkpt><trkpt lat="45.5367597" lon="11.1519586"><ele>385.0</ele><time>2026-04-12T07:39:58.568Z</time></trkpt><trkpt lat="45.5368271" lon="11.1520818"><ele>385.0</ele><time>2026-04-12T07:40:00.567Z</time></trkpt><trkpt lat="45.5368904" lon="11.1522224"><ele>385.0</ele><time>2026-04-12T07:40:02.568Z</time></trkpt><trkpt lat="45.5369632" lon="11.1523758"><ele>385.0</ele><time>2026-04-12T07:40:04.567Z</time></trkpt><trkpt lat="45.5370021" lon="11.1524625"><ele>385.0</ele><time>2026-04-12T07:40:05.568Z</time></trkpt><trkpt lat="45.5370484" lon="11.1525448"><ele>384.00000000000006</ele><time>2026-04-12T07:40:06.566Z</time></trkpt><trkpt lat="45.5371049" lon="11.1526298"><ele>383.0</ele><time>2026-04-12T07:40:07.57Z</time></trkpt><trkpt lat="45.5371503" lon="11.1527196"><ele>382.0</ele><time>2026-04-12T07:40:08.605Z</time></trkpt><trkpt lat="45.537207" lon="11.152825"><ele>381.0</ele><time>2026-04-12T07:40:09.573Z</time></trkpt><trkpt lat="45.5372758" lon="11.1529131"><ele>380.0</ele><time>2026-04-12T07:40:10.561Z</time></trkpt><trkpt lat="45.5373434" lon="11.1529953"><ele>379.0</ele><time>2026-04-12T07:40:11.567Z</time></trkpt><trkpt lat="45.5374331" lon="11.1530608"><ele>379.0</ele><time>2026-04-12T07:40:12.571Z</time></trkpt><trkpt lat="45.5375052" lon="11.1531341"><ele>379.0</ele><time>2026-04-12T07:40:13.58Z</time></trkpt><trkpt lat="45.5375691" lon="11.1532181"><ele>379.0</ele><time>2026-04-12T07:40:14.57Z</time></trkpt><trkpt lat="45.5376286" lon="11.1533189"><ele>379.0</ele><time>2026-04-12T07:40:15.567Z</time></trkpt><trkpt lat="45.5376643" lon="11.1534157"><ele>379.0</ele><time>2026-04-12T07:40:16.573Z</time></trkpt><trkpt lat="45.5376934" lon="11.153523"><ele>379.0</ele><time>2026-04-12T07:40:17.566Z</time></trkpt><trkpt lat="45.5377204" lon="11.1536253"><ele>378.5</ele><time>2026-04-12T07:40:18.566Z</time></trkpt><trkpt lat="45.5377512" lon="11.1537245"><ele>378.0</ele><time>2026-04-12T07:40:19.566Z</time></trkpt><trkpt lat="45.5377884" lon="11.1538354"><ele>377.5</ele><time>2026-04-12T07:40:20.57Z</time></trkpt><trkpt lat="45.5378145" lon="11.1539303"><ele>377.0</ele><time>2026-04-12T07:40:21.67Z</time></trkpt><trkpt lat="45.5378348" lon="11.1540165"><ele>376.5</ele><time>2026-04-12T07:40:22.621Z</time></trkpt><trkpt lat="45.5378925" lon="11.154125"><ele>376.0</ele><time>2026-04-12T07:40:24.572Z</time></trkpt><trkpt lat="45.5379391" lon="11.1542004"><ele>376.0</ele><time>2026-04-12T07:40:26.56Z</time></trkpt><trkpt lat="45.5379899" lon="11.1542843"><ele>376.0</ele><time>2026-04-12T07:40:31.571Z</time></trkpt><trkpt lat="45.538067" lon="11.1542567"><ele>376.0</ele><time>2026-04-12T07:40:35.561Z</time></trkpt><trkpt lat="45.5381338" lon="11.1542084"><ele>376.0</ele><time>2026-04-12T07:40:37.562Z</time></trkpt><trkpt lat="45.5382166" lon="11.154163"><ele>376.0</ele><time>2026-04-12T07:40:39.568Z</time></trkpt><trkpt lat="45.5383042" lon="11.1541436"><ele>376.0</ele><time>2026-04-12T07:40:41.571Z</time></trkpt><trkpt lat="45.5383979" lon="11.1541411"><ele>376.0</ele><time>2026-04-12T07:40:44.565Z</time></trkpt><trkpt lat="45.5385002" lon="11.1541354"><ele>376.0</ele><time>2026-04-12T07:40:47.574Z</time></trkpt><trkpt lat="45.5385819" lon="11.1541178"><ele>376.0</ele><time>2026-04-12T07:40:49.574Z</time></trkpt><trkpt lat="45.5386752" lon="11.1541121"><ele>376.0</ele><time>2026-04-12T07:40:51.581Z</time></trkpt><trkpt lat="45.5387428" lon="11.1540738"><ele>376.0</ele><time>2026-04-12T07:40:53.568Z</time></trkpt><trkpt lat="45.5388115" lon="11.1540525"><ele>376.0</ele><time>2026-04-12T07:40:55.571Z</time></trkpt><trkpt lat="45.5388849" lon="11.1540354"><ele>375.66666666666663</ele><time>2026-04-12T07:40:57.566Z</time></trkpt><trkpt lat="45.5389604" lon="11.1540078"><ele>375.3333333333333</ele><time>2026-04-12T07:40:59.594Z</time></trkpt><trkpt lat="45.5390342" lon="11.1539796"><ele>375.0</ele><time>2026-04-12T07:41:01.567Z</time></trkpt><trkpt lat="45.5390974" lon="11.1539375"><ele>374.6666666666667</ele><time>2026-04-12T07:41:03.57Z</time></trkpt><trkpt lat="45.5391697" lon="11.1538972"><ele>374.33333333333337</ele><time>2026-04-12T07:41:06.563Z</time></trkpt><trkpt lat="45.5392501" lon="11.153874"><ele>374.0</ele><time>2026-04-12T07:41:09.565Z</time></trkpt><trkpt lat="45.5393431" lon="11.1538296"><ele>374.0</ele><time>2026-04-12T07:41:12.56Z</time></trkpt><trkpt lat="45.5394171" lon="11.1538226"><ele>374.0</ele><time>2026-04-12T07:41:14.569Z</time></trkpt><trkpt lat="45.5394821" lon="11.1538262"><ele>374.0</ele><time>2026-04-12T07:41:16.564Z</time></trkpt><trkpt lat="45.5395495" lon="11.1538216"><ele>374.0</ele><time>2026-04-12T07:41:18.568Z</time></trkpt><trkpt lat="45.5396449" lon="11.1538026"><ele>374.0</ele><time>2026-04-12T07:41:21.566Z</time></trkpt><trkpt lat="45.539718" lon="11.1538063"><ele>374.0</ele><time>2026-04-12T07:41:23.635Z</time></trkpt><trkpt lat="45.5397872" lon="11.1538121"><ele>374.0</ele><time>2026-04-12T07:41:25.562Z</time></trkpt><trkpt lat="45.5398601" lon="11.1538019"><ele>374.57142857142856</ele><time>2026-04-12T07:41:27.563Z</time></trkpt><trkpt lat="45.5399375" lon="11.1537816"><ele>375.14285714285717</ele><time>2026-04-12T07:41:29.567Z</time></trkpt><trkpt lat="45.5400191" lon="11.1537708"><ele>375.7142857142857</ele><time>2026-04-12T07:41:31.567Z</time></trkpt><trkpt lat="45.5400862" lon="11.1537615"><ele>376.2857142857143</ele><time>2026-04-12T07:41:33.568Z</time></trkpt><trkpt lat="45.5401544" lon="11.1537476"><ele>376.8571428571429</ele><time>2026-04-12T07:41:35.645Z</time></trkpt><trkpt lat="45.5402197" lon="11.1537311"><ele>377.42857142857144</ele><time>2026-04-12T07:41:37.577Z</time></trkpt><trkpt lat="45.5402915" lon="11.1537127"><ele>378.0</ele><time>2026-04-12T07:41:39.565Z</time></trkpt><trkpt lat="45.540359" lon="11.1536712"><ele>378.5</ele><time>2026-04-12T07:41:41.594Z</time></trkpt><trkpt lat="45.5404307" lon="11.15365"><ele>379.0</ele><time>2026-04-12T07:41:43.562Z</time></trkpt><trkpt lat="45.5405403" lon="11.1536331"><ele>379.5</ele><time>2026-04-12T07:41:46.567Z</time></trkpt><trkpt lat="45.5406106" lon="11.1536162"><ele>380.0</ele><time>2026-04-12T07:41:48.564Z</time></trkpt><trkpt lat="45.5406864" lon="11.1535783"><ele>380.5</ele><time>2026-04-12T07:41:50.566Z</time></trkpt><trkpt lat="45.5407605" lon="11.1535587"><ele>381.0</ele><time>2026-04-12T07:41:52.578Z</time></trkpt><trkpt lat="45.5408273" lon="11.1535457"><ele>381.0</ele><time>2026-04-12T07:41:54.56Z</time></trkpt><trkpt lat="45.5409024" lon="11.1535439"><ele>381.0</ele><time>2026-04-12T07:41:56.565Z</time></trkpt><trkpt lat="45.5409715" lon="11.1535413"><ele>381.0</ele><time>2026-04-12T07:41:58.576Z</time></trkpt><trkpt lat="45.541036" lon="11.153552"><ele>381.0</ele><time>2026-04-12T07:42:00.564Z</time></trkpt><trkpt lat="45.5411153" lon="11.1535553"><ele>381.0</ele><time>2026-04-12T07:42:02.59Z</time></trkpt><trkpt lat="45.5412039" lon="11.153564"><ele>381.0</ele><time>2026-04-12T07:42:04.563Z</time></trkpt><trkpt lat="45.5412965" lon="11.1535734"><ele>381.3333333333333</ele><time>2026-04-12T07:42:06.564Z</time></trkpt><trkpt lat="45.5413809" lon="11.1535789"><ele>381.6666666666667</ele><time>2026-04-12T07:42:08.567Z</time></trkpt><trkpt lat="45.5414654" lon="11.1535928"><ele>382.0</ele><time>2026-04-12T07:42:10.592Z</time></trkpt><trkpt lat="45.5415475" lon="11.1536055"><ele>382.33333333333337</ele><time>2026-04-12T07:42:12.572Z</time></trkpt><trkpt lat="45.5416323" lon="11.153627"><ele>382.6666666666667</ele><time>2026-04-12T07:42:14.619Z</time></trkpt><trkpt lat="45.5417157" lon="11.1536461"><ele>383.0</ele><time>2026-04-12T07:42:16.569Z</time></trkpt><trkpt lat="45.5417981" lon="11.1536623"><ele>383.0</ele><time>2026-04-12T07:42:18.567Z</time></trkpt><trkpt lat="45.5418761" lon="11.1536751"><ele>383.0</ele><time>2026-04-12T07:42:20.574Z</time></trkpt><trkpt lat="45.5419536" lon="11.1536781"><ele>383.0</ele><time>2026-04-12T07:42:22.574Z</time></trkpt><trkpt lat="45.5420395" lon="11.1536916"><ele>383.0</ele><time>2026-04-12T07:42:24.607Z</time></trkpt><trkpt lat="45.5421265" lon="11.1537056"><ele>383.0</ele><time>2026-04-12T07:42:26.571Z</time></trkpt><trkpt lat="45.5422096" lon="11.1537121"><ele>383.0</ele><time>2026-04-12T07:42:28.567Z</time></trkpt><trkpt lat="45.5422896" lon="11.1537076"><ele>383.33333333333337</ele><time>2026-04-12T07:42:30.574Z</time></trkpt><trkpt lat="45.5423619" lon="11.1536939"><ele>383.6666666666667</ele><time>2026-04-12T07:42:32.566Z</time></trkpt><trkpt lat="45.5424451" lon="11.153672"><ele>384.0</ele><time>2026-04-12T07:42:35.569Z</time></trkpt><trkpt lat="45.5425094" lon="11.1536185"><ele>384.33333333333337</ele><time>2026-04-12T07:42:38.566Z</time></trkpt><trkpt lat="45.5425584" lon="11.1535568"><ele>384.6666666666667</ele><time>2026-04-12T07:42:40.565Z</time></trkpt><trkpt lat="45.5426376" lon="11.1534834"><ele>385.0</ele><time>2026-04-12T07:42:43.571Z</time></trkpt><trkpt lat="45.5427343" lon="11.1534693"><ele>385.00000000000006</ele><time>2026-04-12T07:42:46.569Z</time></trkpt><trkpt lat="45.5427997" lon="11.1534763"><ele>385.0</ele><time>2026-04-12T07:42:48.592Z</time></trkpt><trkpt lat="45.5428922" lon="11.1534437"><ele>385.0</ele><time>2026-04-12T07:42:51.562Z</time></trkpt><trkpt lat="45.5429629" lon="11.1534333"><ele>385.0</ele><time>2026-04-12T07:42:53.585Z</time></trkpt><trkpt lat="45.5430322" lon="11.1534256"><ele>385.00000000000006</ele><time>2026-04-12T07:42:55.56Z</time></trkpt><trkpt lat="45.543118" lon="11.1534288"><ele>385.0</ele><time>2026-04-12T07:42:58.567Z</time></trkpt><trkpt lat="45.5431977" lon="11.1534077"><ele>385.6666666666667</ele><time>2026-04-12T07:43:02.572Z</time></trkpt><trkpt lat="45.5432614" lon="11.1533936"><ele>386.33333333333337</ele><time>2026-04-12T07:43:05.575Z</time></trkpt><trkpt lat="45.5433334" lon="11.1533583"><ele>387.0</ele><time>2026-04-12T07:43:08.565Z</time></trkpt><trkpt lat="45.5434221" lon="11.1533307"><ele>387.66666666666663</ele><time>2026-04-12T07:43:11.569Z</time></trkpt><trkpt lat="45.5434845" lon="11.153222"><ele>388.3333333333333</ele><time>2026-04-12T07:43:15.564Z</time></trkpt><trkpt lat="45.5435148" lon="11.1531281"><ele>389.0</ele><time>2026-04-12T07:43:17.603Z</time></trkpt><trkpt lat="45.543593" lon="11.1530723"><ele>389.3333333333333</ele><time>2026-04-12T07:43:20.562Z</time></trkpt><trkpt lat="45.5436665" lon="11.1530564"><ele>389.66666666666663</ele><time>2026-04-12T07:43:22.573Z</time></trkpt><trkpt lat="45.5437457" lon="11.1530431"><ele>390.0</ele><time>2026-04-12T07:43:24.568Z</time></trkpt><trkpt lat="45.543819" lon="11.1530166"><ele>390.33333333333337</ele><time>2026-04-12T07:43:26.577Z</time></trkpt><trkpt lat="45.5439087" lon="11.1530039"><ele>390.6666666666667</ele><time>2026-04-12T07:43:29.57Z</time></trkpt><trkpt lat="45.5439751" lon="11.1529733"><ele>391.0</ele><time>2026-04-12T07:43:32.571Z</time></trkpt><trkpt lat="45.5440335" lon="11.1529018"><ele>391.1428571428571</ele><time>2026-04-12T07:43:35.619Z</time></trkpt><trkpt lat="45.5441038" lon="11.1528647"><ele>391.2857142857143</ele><time>2026-04-12T07:43:38.568Z</time></trkpt><trkpt lat="45.5441709" lon="11.1528413"><ele>391.42857142857144</ele><time>2026-04-12T07:43:41.612Z</time></trkpt><trkpt lat="45.5442477" lon="11.1528146"><ele>391.57142857142856</ele><time>2026-04-12T07:43:44.569Z</time></trkpt><trkpt lat="45.5443202" lon="11.1527816"><ele>391.7142857142857</ele><time>2026-04-12T07:43:47.566Z</time></trkpt><trkpt lat="45.5443977" lon="11.1527454"><ele>391.85714285714283</ele><time>2026-04-12T07:43:50.569Z</time></trkpt><trkpt lat="45.5444631" lon="11.152753"><ele>392.0</ele><time>2026-04-12T07:43:53.569Z</time></trkpt><trkpt lat="45.5445352" lon="11.1527917"><ele>392.3333333333333</ele><time>2026-04-12T07:43:56.575Z</time></trkpt><trkpt lat="45.5446239" lon="11.1528106"><ele>392.66666666666663</ele><time>2026-04-12T07:43:59.57Z</time></trkpt><trkpt lat="45.5446949" lon="11.1528135"><ele>393.0</ele><time>2026-04-12T07:44:02.57Z</time></trkpt><trkpt lat="45.5447754" lon="11.1527798"><ele>393.33333333333337</ele><time>2026-04-12T07:44:05.568Z</time></trkpt><trkpt lat="45.5448493" lon="11.1527562"><ele>393.6666666666667</ele><time>2026-04-12T07:44:08.592Z</time></trkpt><trkpt lat="45.5449567" lon="11.1527314"><ele>394.0</ele><time>2026-04-12T07:44:12.569Z</time></trkpt><trkpt lat="45.5450284" lon="11.1527296"><ele>394.00000000000006</ele><time>2026-04-12T07:44:15.569Z</time></trkpt><trkpt lat="45.5451048" lon="11.1527375"><ele>394.0</ele><time>2026-04-12T07:44:18.571Z</time></trkpt><trkpt lat="45.5451868" lon="11.1527471"><ele>394.0</ele><time>2026-04-12T07:44:21.577Z</time></trkpt><trkpt lat="45.5452589" lon="11.1527575"><ele>394.0</ele><time>2026-04-12T07:44:24.57Z</time></trkpt><trkpt lat="45.545334" lon="11.1527817"><ele>394.00000000000006</ele><time>2026-04-12T07:44:27.563Z</time></trkpt><trkpt lat="45.5454226" lon="11.1527862"><ele>394.0</ele><time>2026-04-12T07:44:30.608Z</time></trkpt><trkpt lat="45.5455045" lon="11.1527861"><ele>394.6666666666667</ele><time>2026-04-12T07:44:33.6Z</time></trkpt><trkpt lat="45.5455716" lon="11.1527717"><ele>395.33333333333337</ele><time>2026-04-12T07:44:35.57Z</time></trkpt><trkpt lat="45.5456452" lon="11.1527574"><ele>396.0</ele><time>2026-04-12T07:44:44.568Z</time></trkpt><trkpt lat="45.5457226" lon="11.1527687"><ele>396.66666666666663</ele><time>2026-04-12T07:44:47.572Z</time></trkpt><trkpt lat="45.5457902" lon="11.1527312"><ele>397.3333333333333</ele><time>2026-04-12T07:44:49.568Z</time></trkpt><trkpt lat="45.5458937" lon="11.1527535"><ele>398.0</ele><time>2026-04-12T07:44:52.565Z</time></trkpt><trkpt lat="45.545968" lon="11.1527534"><ele>397.99999999999994</ele><time>2026-04-12T07:44:54.568Z</time></trkpt><trkpt lat="45.5460493" lon="11.1527471"><ele>398.0</ele><time>2026-04-12T07:44:57.571Z</time></trkpt><trkpt lat="45.5461116" lon="11.152714"><ele>398.0</ele><time>2026-04-12T07:45:00.571Z</time></trkpt><trkpt lat="45.5461921" lon="11.1527018"><ele>398.0</ele><time>2026-04-12T07:45:03.567Z</time></trkpt><trkpt lat="45.5462982" lon="11.1527106"><ele>397.99999999999994</ele><time>2026-04-12T07:45:05.572Z</time></trkpt><trkpt lat="45.5463695" lon="11.1527376"><ele>398.0</ele><time>2026-04-12T07:45:07.575Z</time></trkpt><trkpt lat="45.5464566" lon="11.1527546"><ele>398.3333333333333</ele><time>2026-04-12T07:45:10.564Z</time></trkpt><trkpt lat="45.5465324" lon="11.1526762"><ele>398.66666666666663</ele><time>2026-04-12T07:45:13.571Z</time></trkpt><trkpt lat="45.5465503" lon="11.1525869"><ele>399.0</ele><time>2026-04-12T07:45:15.566Z</time></trkpt><trkpt lat="45.5465909" lon="11.152506"><ele>399.33333333333337</ele><time>2026-04-12T07:45:18.569Z</time></trkpt><trkpt lat="45.5466252" lon="11.1525939"><ele>399.6666666666667</ele><time>2026-04-12T07:45:20.576Z</time></trkpt><trkpt lat="45.5466989" lon="11.1526196"><ele>400.0</ele><time>2026-04-12T07:45:22.568Z</time></trkpt><trkpt lat="45.5467875" lon="11.1526193"><ele>400.00000000000006</ele><time>2026-04-12T07:45:24.569Z</time></trkpt><trkpt lat="45.5468764" lon="11.1526192"><ele>400.0</ele><time>2026-04-12T07:45:26.57Z</time></trkpt><trkpt lat="45.5469642" lon="11.1526071"><ele>400.0</ele><time>2026-04-12T07:45:28.554Z</time></trkpt><trkpt lat="45.5470539" lon="11.1525932"><ele>400.0</ele><time>2026-04-12T07:45:30.619Z</time></trkpt><trkpt lat="45.5471367" lon="11.1525949"><ele>400.00000000000006</ele><time>2026-04-12T07:45:32.574Z</time></trkpt><trkpt lat="45.5472243" lon="11.152598"><ele>400.0</ele><time>2026-04-12T07:45:34.57Z</time></trkpt><trkpt lat="45.5473102" lon="11.1525951"><ele>400.00000000000006</ele><time>2026-04-12T07:45:36.568Z</time></trkpt><trkpt lat="45.5473915" lon="11.1525993"><ele>400.0</ele><time>2026-04-12T07:45:38.573Z</time></trkpt><trkpt lat="45.5474723" lon="11.1526005"><ele>400.0</ele><time>2026-04-12T07:45:40.579Z</time></trkpt><trkpt lat="45.5475579" lon="11.1526032"><ele>400.0</ele><time>2026-04-12T07:45:42.576Z</time></trkpt><trkpt lat="45.5476439" lon="11.1525942"><ele>400.00000000000006</ele><time>2026-04-12T07:45:44.575Z</time></trkpt><trkpt lat="45.5477287" lon="11.1525928"><ele>400.0</ele><time>2026-04-12T07:45:46.585Z</time></trkpt><trkpt lat="45.5478126" lon="11.1525951"><ele>400.33333333333337</ele><time>2026-04-12T07:45:48.579Z</time></trkpt><trkpt lat="45.5478985" lon="11.1525959"><ele>400.6666666666667</ele><time>2026-04-12T07:45:50.576Z</time></trkpt><trkpt lat="45.5479843" lon="11.1525929"><ele>401.0</ele><time>2026-04-12T07:45:52.586Z</time></trkpt><trkpt lat="45.5480691" lon="11.1525864"><ele>401.33333333333337</ele><time>2026-04-12T07:45:54.565Z</time></trkpt><trkpt lat="45.5481539" lon="11.152571"><ele>401.6666666666667</ele><time>2026-04-12T07:45:56.582Z</time></trkpt><trkpt lat="45.5482316" lon="11.1525298"><ele>402.0</ele><time>2026-04-12T07:45:58.575Z</time></trkpt><trkpt lat="45.5483013" lon="11.1524622"><ele>402.0</ele><time>2026-04-12T07:46:00.582Z</time></trkpt><trkpt lat="45.5483583" lon="11.1523815"><ele>402.0</ele><time>2026-04-12T07:46:02.574Z</time></trkpt><trkpt lat="45.5484025" lon="11.1522888"><ele>402.0</ele><time>2026-04-12T07:46:04.578Z</time></trkpt><trkpt lat="45.5484466" lon="11.1521951"><ele>402.0</ele><time>2026-04-12T07:46:06.58Z</time></trkpt><trkpt lat="45.5484919" lon="11.1520993"><ele>402.0</ele><time>2026-04-12T07:46:08.576Z</time></trkpt><trkpt lat="45.5485421" lon="11.1520067"><ele>402.0</ele><time>2026-04-12T07:46:10.577Z</time></trkpt><trkpt lat="45.5486005" lon="11.1519198"><ele>402.5</ele><time>2026-04-12T07:46:12.577Z</time></trkpt><trkpt lat="45.5486514" lon="11.1518393"><ele>403.0</ele><time>2026-04-12T07:46:14.574Z</time></trkpt><trkpt lat="45.5486944" lon="11.1517657"><ele>403.5</ele><time>2026-04-12T07:46:16.572Z</time></trkpt><trkpt lat="45.5487481" lon="11.1516706"><ele>404.0</ele><time>2026-04-12T07:46:19.58Z</time></trkpt><trkpt lat="45.5488418" lon="11.1516753"><ele>404.5</ele><time>2026-04-12T07:46:22.578Z</time></trkpt><trkpt lat="45.5489385" lon="11.1517436"><ele>405.0</ele><time>2026-04-12T07:46:24.582Z</time></trkpt><trkpt lat="45.5490388" lon="11.1518028"><ele>405.4</ele><time>2026-04-12T07:46:26.561Z</time></trkpt><trkpt lat="45.5491281" lon="11.1518513"><ele>405.8</ele><time>2026-04-12T07:46:28.616Z</time></trkpt><trkpt lat="45.5492211" lon="11.1519101"><ele>406.20000000000005</ele><time>2026-04-12T07:46:30.572Z</time></trkpt><trkpt lat="45.5493202" lon="11.151962"><ele>406.6</ele><time>2026-04-12T07:46:32.572Z</time></trkpt><trkpt lat="45.5494085" lon="11.1520022"><ele>407.0</ele><time>2026-04-12T07:46:34.568Z</time></trkpt><trkpt lat="45.5494946" lon="11.1520484"><ele>406.6</ele><time>2026-04-12T07:46:36.569Z</time></trkpt><trkpt lat="45.5495766" lon="11.1521045"><ele>406.20000000000005</ele><time>2026-04-12T07:46:38.566Z</time></trkpt><trkpt lat="45.549653" lon="11.1521662"><ele>405.8</ele><time>2026-04-12T07:46:40.581Z</time></trkpt><trkpt lat="45.5497336" lon="11.1522347"><ele>405.4</ele><time>2026-04-12T07:46:42.58Z</time></trkpt><trkpt lat="45.5498075" lon="11.152312"><ele>405.0</ele><time>2026-04-12T07:46:44.571Z</time></trkpt><trkpt lat="45.5498862" lon="11.1523782"><ele>405.0</ele><time>2026-04-12T07:46:46.563Z</time></trkpt><trkpt lat="45.5499341" lon="11.1524781"><ele>405.0</ele><time>2026-04-12T07:46:48.562Z</time></trkpt><trkpt lat="45.5499302" lon="11.1526382"><ele>405.0</ele><time>2026-04-12T07:46:50.578Z</time></trkpt><trkpt lat="45.5499319" lon="11.1528095"><ele>405.0</ele><time>2026-04-12T07:46:52.572Z</time></trkpt><trkpt lat="45.5499627" lon="11.1529531"><ele>405.0</ele><time>2026-04-12T07:46:54.573Z</time></trkpt><trkpt lat="45.5500135" lon="11.1530422"><ele>405.0</ele><time>2026-04-12T07:46:56.57Z</time></trkpt><trkpt lat="45.5500801" lon="11.1531058"><ele>405.0</ele><time>2026-04-12T07:46:58.562Z</time></trkpt><trkpt lat="45.5501719" lon="11.1531347"><ele>405.0</ele><time>2026-04-12T07:47:00.574Z</time></trkpt><trkpt lat="45.5502488" lon="11.1531438"><ele>405.0</ele><time>2026-04-12T07:47:02.582Z</time></trkpt><trkpt lat="45.5503284" lon="11.1531589"><ele>405.0</ele><time>2026-04-12T07:47:04.593Z</time></trkpt><trkpt lat="45.5504052" lon="11.1531711"><ele>405.0</ele><time>2026-04-12T07:47:06.574Z</time></trkpt><trkpt lat="45.5504817" lon="11.1531913"><ele>405.2857142857143</ele><time>2026-04-12T07:47:08.568Z</time></trkpt><trkpt lat="45.5505544" lon="11.1532255"><ele>405.57142857142856</ele><time>2026-04-12T07:47:10.574Z</time></trkpt><trkpt lat="45.5506321" lon="11.1532589"><ele>405.8571428571429</ele><time>2026-04-12T07:47:12.571Z</time></trkpt><trkpt lat="45.5506996" lon="11.1532802"><ele>406.1428571428571</ele><time>2026-04-12T07:47:14.571Z</time></trkpt><trkpt lat="45.5507631" lon="11.1533043"><ele>406.42857142857144</ele><time>2026-04-12T07:47:16.57Z</time></trkpt><trkpt lat="45.5508314" lon="11.1533176"><ele>406.7142857142857</ele><time>2026-04-12T07:47:18.564Z</time></trkpt><trkpt lat="45.5508975" lon="11.1533305"><ele>407.0</ele><time>2026-04-12T07:47:20.664Z</time></trkpt><trkpt lat="45.5509727" lon="11.153347"><ele>407.00000000000006</ele><time>2026-04-12T07:47:22.574Z</time></trkpt><trkpt lat="45.5510442" lon="11.1533686"><ele>407.0</ele><time>2026-04-12T07:47:24.567Z</time></trkpt><trkpt lat="45.5511116" lon="11.1533834"><ele>407.0</ele><time>2026-04-12T07:47:26.568Z</time></trkpt><trkpt lat="45.5511844" lon="11.1534014"><ele>407.0</ele><time>2026-04-12T07:47:28.557Z</time></trkpt><trkpt lat="45.5512651" lon="11.1534216"><ele>407.0</ele><time>2026-04-12T07:47:30.568Z</time></trkpt><trkpt lat="45.5513385" lon="11.1534343"><ele>407.00000000000006</ele><time>2026-04-12T07:47:32.566Z</time></trkpt><trkpt lat="45.5514108" lon="11.1534582"><ele>407.0</ele><time>2026-04-12T07:47:34.576Z</time></trkpt><trkpt lat="45.5514829" lon="11.1534793"><ele>407.3333333333333</ele><time>2026-04-12T07:47:36.574Z</time></trkpt><trkpt lat="45.5515515" lon="11.1534957"><ele>407.66666666666663</ele><time>2026-04-12T07:47:38.558Z</time></trkpt><trkpt lat="45.5516263" lon="11.1535142"><ele>408.0</ele><time>2026-04-12T07:47:40.615Z</time></trkpt><trkpt lat="45.5517" lon="11.1535365"><ele>408.33333333333337</ele><time>2026-04-12T07:47:42.57Z</time></trkpt><trkpt lat="45.5517793" lon="11.1535539"><ele>408.6666666666667</ele><time>2026-04-12T07:47:44.567Z</time></trkpt><trkpt lat="45.5518627" lon="11.1535772"><ele>409.0</ele><time>2026-04-12T07:47:46.578Z</time></trkpt><trkpt lat="45.5519349" lon="11.1535954"><ele>409.00000000000006</ele><time>2026-04-12T07:47:48.569Z</time></trkpt><trkpt lat="45.5520079" lon="11.1535967"><ele>409.0</ele><time>2026-04-12T07:47:50.563Z</time></trkpt><trkpt lat="45.5520803" lon="11.1536185"><ele>409.0</ele><time>2026-04-12T07:47:52.573Z</time></trkpt><trkpt lat="45.5521595" lon="11.1536334"><ele>409.0</ele><time>2026-04-12T07:47:54.567Z</time></trkpt><trkpt lat="45.5522374" lon="11.1536485"><ele>409.00000000000006</ele><time>2026-04-12T07:47:56.568Z</time></trkpt><trkpt lat="45.5523164" lon="11.1536599"><ele>409.0</ele><time>2026-04-12T07:47:58.562Z</time></trkpt><trkpt lat="45.5523944" lon="11.1536775"><ele>409.6666666666667</ele><time>2026-04-12T07:48:00.561Z</time></trkpt><trkpt lat="45.5524706" lon="11.1537031"><ele>410.33333333333337</ele><time>2026-04-12T07:48:02.639Z</time></trkpt><trkpt lat="45.5525427" lon="11.1537301"><ele>411.0</ele><time>2026-04-12T07:48:04.568Z</time></trkpt><trkpt lat="45.5526206" lon="11.1537552"><ele>411.66666666666663</ele><time>2026-04-12T07:48:06.576Z</time></trkpt><trkpt lat="45.5527014" lon="11.1537847"><ele>412.3333333333333</ele><time>2026-04-12T07:48:08.575Z</time></trkpt><trkpt lat="45.5527791" lon="11.1538187"><ele>413.0</ele><time>2026-04-12T07:48:10.569Z</time></trkpt><trkpt lat="45.5528608" lon="11.1538494"><ele>413.49999999999994</ele><time>2026-04-12T07:48:12.629Z</time></trkpt><trkpt lat="45.5529457" lon="11.1538883"><ele>414.0</ele><time>2026-04-12T07:48:15.58Z</time></trkpt><trkpt lat="45.5530271" lon="11.1539289"><ele>414.5</ele><time>2026-04-12T07:48:18.567Z</time></trkpt><trkpt lat="45.5531155" lon="11.1539657"><ele>415.0</ele><time>2026-04-12T07:48:21.57Z</time></trkpt><trkpt lat="45.5531811" lon="11.1539933"><ele>415.49999999999994</ele><time>2026-04-12T07:48:23.568Z</time></trkpt><trkpt lat="45.5532543" lon="11.1540116"><ele>416.0</ele><time>2026-04-12T07:48:25.567Z</time></trkpt><trkpt lat="45.5533294" lon="11.1540299"><ele>415.99999999999994</ele><time>2026-04-12T07:48:27.566Z</time></trkpt><trkpt lat="45.5533993" lon="11.1540288"><ele>416.0</ele><time>2026-04-12T07:48:29.625Z</time></trkpt><trkpt lat="45.5534688" lon="11.1540162"><ele>416.0</ele><time>2026-04-12T07:48:31.582Z</time></trkpt><trkpt lat="45.5535414" lon="11.1539912"><ele>416.0</ele><time>2026-04-12T07:48:33.618Z</time></trkpt><trkpt lat="45.5536145" lon="11.1539634"><ele>415.99999999999994</ele><time>2026-04-12T07:48:35.574Z</time></trkpt><trkpt lat="45.5537241" lon="11.1539468"><ele>416.0</ele><time>2026-04-12T07:48:38.637Z</time></trkpt><trkpt lat="45.5537958" lon="11.1539544"><ele>416.49999999999994</ele><time>2026-04-12T07:48:40.571Z</time></trkpt><trkpt lat="45.5538674" lon="11.1539633"><ele>417.0</ele><time>2026-04-12T07:48:42.574Z</time></trkpt><trkpt lat="45.5539348" lon="11.1539706"><ele>417.5</ele><time>2026-04-12T07:48:44.577Z</time></trkpt><trkpt lat="45.5540028" lon="11.1539793"><ele>418.0</ele><time>2026-04-12T07:48:46.572Z</time></trkpt><trkpt lat="45.5540687" lon="11.1539875"><ele>418.49999999999994</ele><time>2026-04-12T07:48:48.569Z</time></trkpt><trkpt lat="45.554136" lon="11.1539877"><ele>419.0</ele><time>2026-04-12T07:48:50.56Z</time></trkpt><trkpt lat="45.5542545" lon="11.1539749"><ele>418.99999999999994</ele><time>2026-04-12T07:48:54.667Z</time></trkpt><trkpt lat="45.5543499" lon="11.1539691"><ele>419.0</ele><time>2026-04-12T07:48:57.58Z</time></trkpt><trkpt lat="45.5544161" lon="11.1539626"><ele>419.0</ele><time>2026-04-12T07:48:59.572Z</time></trkpt><trkpt lat="45.554479" lon="11.1539548"><ele>419.0</ele><time>2026-04-12T07:49:01.573Z</time></trkpt><trkpt lat="45.5545721" lon="11.1539393"><ele>418.99999999999994</ele><time>2026-04-12T07:49:04.571Z</time></trkpt><trkpt lat="45.5546437" lon="11.153928"><ele>419.0</ele><time>2026-04-12T07:49:06.572Z</time></trkpt><trkpt lat="45.5547149" lon="11.1539162"><ele>419.2857142857143</ele><time>2026-04-12T07:49:08.598Z</time></trkpt><trkpt lat="45.5547852" lon="11.1538963"><ele>419.57142857142856</ele><time>2026-04-12T07:49:10.565Z</time></trkpt><trkpt lat="45.5548592" lon="11.1538897"><ele>419.8571428571429</ele><time>2026-04-12T07:49:12.576Z</time></trkpt><trkpt lat="45.5549279" lon="11.1539032"><ele>420.1428571428571</ele><time>2026-04-12T07:49:14.571Z</time></trkpt><trkpt lat="45.5549972" lon="11.1539233"><ele>420.42857142857144</ele><time>2026-04-12T07:49:16.564Z</time></trkpt><trkpt lat="45.5550669" lon="11.1539272"><ele>420.7142857142857</ele><time>2026-04-12T07:49:18.571Z</time></trkpt><trkpt lat="45.5551367" lon="11.1539375"><ele>421.0</ele><time>2026-04-12T07:49:20.568Z</time></trkpt><trkpt lat="45.5552069" lon="11.1539433"><ele>421.00000000000006</ele><time>2026-04-12T07:49:22.557Z</time></trkpt><trkpt lat="45.5552784" lon="11.1539532"><ele>421.0</ele><time>2026-04-12T07:49:24.638Z</time></trkpt><trkpt lat="45.5553537" lon="11.153961"><ele>421.0</ele><time>2026-04-12T07:49:26.571Z</time></trkpt><trkpt lat="45.5554328" lon="11.1539635"><ele>421.0</ele><time>2026-04-12T07:49:28.564Z</time></trkpt><trkpt lat="45.5555105" lon="11.1539709"><ele>421.0</ele><time>2026-04-12T07:49:30.563Z</time></trkpt><trkpt lat="45.5555817" lon="11.153974"><ele>421.00000000000006</ele><time>2026-04-12T07:49:32.567Z</time></trkpt><trkpt lat="45.5556545" lon="11.1539907"><ele>421.0</ele><time>2026-04-12T07:49:34.567Z</time></trkpt><trkpt lat="45.5557245" lon="11.1539961"><ele>421.1666666666667</ele><time>2026-04-12T07:49:36.566Z</time></trkpt><trkpt lat="45.5558035" lon="11.1540094"><ele>421.33333333333337</ele><time>2026-04-12T07:49:38.571Z</time></trkpt><trkpt lat="45.5558847" lon="11.1540298"><ele>421.5</ele><time>2026-04-12T07:49:40.566Z</time></trkpt><trkpt lat="45.5559629" lon="11.1540555"><ele>421.66666666666663</ele><time>2026-04-12T07:49:42.561Z</time></trkpt><trkpt lat="45.5560368" lon="11.1540815"><ele>421.8333333333333</ele><time>2026-04-12T07:49:44.568Z</time></trkpt><trkpt lat="45.5561093" lon="11.154098"><ele>422.0</ele><time>2026-04-12T07:49:46.57Z</time></trkpt><trkpt lat="45.5561822" lon="11.1541238"><ele>422.14285714285717</ele><time>2026-04-12T07:49:48.573Z</time></trkpt><trkpt lat="45.5562579" lon="11.1541356"><ele>422.28571428571433</ele><time>2026-04-12T07:49:50.569Z</time></trkpt><trkpt lat="45.5563363" lon="11.1541651"><ele>422.42857142857144</ele><time>2026-04-12T07:49:52.568Z</time></trkpt><trkpt lat="45.556403" lon="11.1542064"><ele>422.57142857142856</ele><time>2026-04-12T07:49:54.597Z</time></trkpt><trkpt lat="45.5564711" lon="11.1542291"><ele>422.7142857142857</ele><time>2026-04-12T07:49:56.565Z</time></trkpt><trkpt lat="45.5565394" lon="11.1542546"><ele>422.85714285714283</ele><time>2026-04-12T07:49:58.57Z</time></trkpt><trkpt lat="45.5566122" lon="11.1542722"><ele>423.0</ele><time>2026-04-12T07:50:00.566Z</time></trkpt><trkpt lat="45.5566834" lon="11.1542911"><ele>423.0</ele><time>2026-04-12T07:50:02.569Z</time></trkpt><trkpt lat="45.5567568" lon="11.1543132"><ele>423.0</ele><time>2026-04-12T07:50:04.566Z</time></trkpt><trkpt lat="45.5568356" lon="11.1543458"><ele>423.0</ele><time>2026-04-12T07:50:06.624Z</time></trkpt><trkpt lat="45.5569197" lon="11.1543741"><ele>423.0</ele><time>2026-04-12T07:50:08.572Z</time></trkpt><trkpt lat="45.557" lon="11.1544002"><ele>423.0</ele><time>2026-04-12T07:50:10.572Z</time></trkpt><trkpt lat="45.5570733" lon="11.1544158"><ele>423.0</ele><time>2026-04-12T07:50:12.606Z</time></trkpt><trkpt lat="45.5571483" lon="11.154433"><ele>423.3333333333333</ele><time>2026-04-12T07:50:14.566Z</time></trkpt><trkpt lat="45.5572262" lon="11.1544509"><ele>423.66666666666663</ele><time>2026-04-12T07:50:16.564Z</time></trkpt><trkpt lat="45.5573041" lon="11.154467"><ele>424.0</ele><time>2026-04-12T07:50:18.613Z</time></trkpt><trkpt lat="45.5573825" lon="11.1544811"><ele>424.3333333333333</ele><time>2026-04-12T07:50:20.569Z</time></trkpt><trkpt lat="45.5574559" lon="11.154488"><ele>424.66666666666663</ele><time>2026-04-12T07:50:22.576Z</time></trkpt><trkpt lat="45.5575321" lon="11.1544929"><ele>425.0</ele><time>2026-04-12T07:50:24.574Z</time></trkpt><trkpt lat="45.5576089" lon="11.1545018"><ele>425.0</ele><time>2026-04-12T07:50:26.602Z</time></trkpt><trkpt lat="45.5576854" lon="11.1545003"><ele>425.0</ele><time>2026-04-12T07:50:28.562Z</time></trkpt><trkpt lat="45.5577694" lon="11.1544979"><ele>425.0</ele><time>2026-04-12T07:50:30.57Z</time></trkpt><trkpt lat="45.5578552" lon="11.1544977"><ele>425.0</ele><time>2026-04-12T07:50:32.582Z</time></trkpt><trkpt lat="45.5579848" lon="11.154498"><ele>425.0</ele><time>2026-04-12T07:50:35.57Z</time></trkpt><trkpt lat="45.5580633" lon="11.1544948"><ele>425.3333333333333</ele><time>2026-04-12T07:50:37.615Z</time></trkpt><trkpt lat="45.5581396" lon="11.1544856"><ele>425.66666666666663</ele><time>2026-04-12T07:50:39.579Z</time></trkpt><trkpt lat="45.5582191" lon="11.1544811"><ele>426.0</ele><time>2026-04-12T07:50:41.585Z</time></trkpt><trkpt lat="45.558301" lon="11.1544778"><ele>426.33333333333337</ele><time>2026-04-12T07:50:43.57Z</time></trkpt><trkpt lat="45.558382" lon="11.1544717"><ele>426.6666666666667</ele><time>2026-04-12T07:50:45.565Z</time></trkpt><trkpt lat="45.5584619" lon="11.1544633"><ele>427.0</ele><time>2026-04-12T07:50:47.619Z</time></trkpt><trkpt lat="45.5585411" lon="11.154461"><ele>427.00000000000006</ele><time>2026-04-12T07:50:49.569Z</time></trkpt><trkpt lat="45.5586207" lon="11.1544579"><ele>427.0</ele><time>2026-04-12T07:50:51.603Z</time></trkpt><trkpt lat="45.5587003" lon="11.154456"><ele>427.0</ele><time>2026-04-12T07:50:53.576Z</time></trkpt><trkpt lat="45.5587824" lon="11.1544504"><ele>427.0</ele><time>2026-04-12T07:50:55.571Z</time></trkpt><trkpt lat="45.5588617" lon="11.1544465"><ele>427.00000000000006</ele><time>2026-04-12T07:50:57.569Z</time></trkpt><trkpt lat="45.5589384" lon="11.1544373"><ele>427.0</ele><time>2026-04-12T07:50:59.572Z</time></trkpt><trkpt lat="45.5590133" lon="11.1544336"><ele>427.14285714285717</ele><time>2026-04-12T07:51:01.613Z</time></trkpt><trkpt lat="45.5590861" lon="11.1544312"><ele>427.2857142857143</ele><time>2026-04-12T07:51:03.579Z</time></trkpt><trkpt lat="45.5591606" lon="11.1544311"><ele>427.42857142857144</ele><time>2026-04-12T07:51:05.566Z</time></trkpt><trkpt lat="45.5592339" lon="11.1544355"><ele>427.57142857142856</ele><time>2026-04-12T07:51:07.561Z</time></trkpt><trkpt lat="45.5593057" lon="11.1544304"><ele>427.7142857142857</ele><time>2026-04-12T07:51:09.572Z</time></trkpt><trkpt lat="45.5593748" lon="11.1544159"><ele>427.8571428571429</ele><time>2026-04-12T07:51:11.579Z</time></trkpt><trkpt lat="45.5594403" lon="11.1543887"><ele>428.0</ele><time>2026-04-12T07:51:13.578Z</time></trkpt><trkpt lat="45.5595069" lon="11.1543724"><ele>428.5714285714286</ele><time>2026-04-12T07:51:15.572Z</time></trkpt><trkpt lat="45.5595747" lon="11.1543549"><ele>429.14285714285717</ele><time>2026-04-12T07:51:17.576Z</time></trkpt><trkpt lat="45.5596403" lon="11.1543367"><ele>429.7142857142857</ele><time>2026-04-12T07:51:19.579Z</time></trkpt><trkpt lat="45.5597041" lon="11.1543144"><ele>430.28571428571433</ele><time>2026-04-12T07:51:21.62Z</time></trkpt><trkpt lat="45.5597684" lon="11.1542898"><ele>430.85714285714283</ele><time>2026-04-12T07:51:23.568Z</time></trkpt><trkpt lat="45.5598353" lon="11.1542679"><ele>431.42857142857144</ele><time>2026-04-12T07:51:25.568Z</time></trkpt><trkpt lat="45.5599011" lon="11.1542475"><ele>432.0</ele><time>2026-04-12T07:51:27.567Z</time></trkpt><trkpt lat="45.5599649" lon="11.1542208"><ele>432.0</ele><time>2026-04-12T07:51:29.61Z</time></trkpt><trkpt lat="45.5600267" lon="11.1541856"><ele>432.0</ele><time>2026-04-12T07:51:31.575Z</time></trkpt><trkpt lat="45.5600916" lon="11.1541564"><ele>432.0</ele><time>2026-04-12T07:51:33.569Z</time></trkpt><trkpt lat="45.5601569" lon="11.1541306"><ele>432.0</ele><time>2026-04-12T07:51:35.622Z</time></trkpt><trkpt lat="45.5602226" lon="11.1541059"><ele>432.0</ele><time>2026-04-12T07:51:37.557Z</time></trkpt><trkpt lat="45.5602908" lon="11.1540823"><ele>432.0</ele><time>2026-04-12T07:51:39.585Z</time></trkpt><trkpt lat="45.5603596" lon="11.1540528"><ele>432.0</ele><time>2026-04-12T07:51:41.593Z</time></trkpt><trkpt lat="45.5604281" lon="11.1540258"><ele>432.42857142857144</ele><time>2026-04-12T07:51:43.569Z</time></trkpt><trkpt lat="45.5604964" lon="11.153999"><ele>432.85714285714283</ele><time>2026-04-12T07:51:45.576Z</time></trkpt><trkpt lat="45.5605645" lon="11.1539674"><ele>433.28571428571433</ele><time>2026-04-12T07:51:47.577Z</time></trkpt><trkpt lat="45.5606317" lon="11.1539345"><ele>433.7142857142857</ele><time>2026-04-12T07:51:49.567Z</time></trkpt><trkpt lat="45.5606995" lon="11.1539035"><ele>434.14285714285717</ele><time>2026-04-12T07:51:51.58Z</time></trkpt><trkpt lat="45.5607675" lon="11.1538731"><ele>434.5714285714286</ele><time>2026-04-12T07:51:53.561Z</time></trkpt><trkpt lat="45.5608365" lon="11.1538336"><ele>435.0</ele><time>2026-04-12T07:51:55.577Z</time></trkpt><trkpt lat="45.5609089" lon="11.1538"><ele>435.00000000000006</ele><time>2026-04-12T07:51:57.571Z</time></trkpt><trkpt lat="45.5609745" lon="11.1537637"><ele>435.0</ele><time>2026-04-12T07:51:59.637Z</time></trkpt><trkpt lat="45.5610414" lon="11.1537229"><ele>435.0</ele><time>2026-04-12T07:52:01.572Z</time></trkpt><trkpt lat="45.5611091" lon="11.1536846"><ele>435.0</ele><time>2026-04-12T07:52:03.579Z</time></trkpt><trkpt lat="45.5611721" lon="11.1536415"><ele>435.0</ele><time>2026-04-12T07:52:05.562Z</time></trkpt><trkpt lat="45.5612358" lon="11.1536004"><ele>435.00000000000006</ele><time>2026-04-12T07:52:07.572Z</time></trkpt><trkpt lat="45.5613116" lon="11.1535921"><ele>435.0</ele><time>2026-04-12T07:52:09.613Z</time></trkpt><trkpt lat="45.561389" lon="11.1535876"><ele>435.5</ele><time>2026-04-12T07:52:11.57Z</time></trkpt><trkpt lat="45.5614711" lon="11.1535802"><ele>436.0</ele><time>2026-04-12T07:52:13.569Z</time></trkpt><trkpt lat="45.5615538" lon="11.1535872"><ele>436.5</ele><time>2026-04-12T07:52:15.574Z</time></trkpt><trkpt lat="45.5616353" lon="11.1536081"><ele>437.0</ele><time>2026-04-12T07:52:17.571Z</time></trkpt><trkpt lat="45.5617083" lon="11.1536228"><ele>437.5</ele><time>2026-04-12T07:52:19.607Z</time></trkpt><trkpt lat="45.5617944" lon="11.1536344"><ele>438.0</ele><time>2026-04-12T07:52:21.572Z</time></trkpt><trkpt lat="45.5618821" lon="11.1536408"><ele>438.0</ele><time>2026-04-12T07:52:23.566Z</time></trkpt><trkpt lat="45.5619677" lon="11.1536442"><ele>438.0</ele><time>2026-04-12T07:52:25.616Z</time></trkpt><trkpt lat="45.5620436" lon="11.1536404"><ele>438.0</ele><time>2026-04-12T07:52:27.569Z</time></trkpt><trkpt lat="45.5621178" lon="11.1536194"><ele>438.0</ele><time>2026-04-12T07:52:29.567Z</time></trkpt><trkpt lat="45.5621878" lon="11.1535906"><ele>438.0</ele><time>2026-04-12T07:52:31.571Z</time></trkpt><trkpt lat="45.5622622" lon="11.153575"><ele>438.0</ele><time>2026-04-12T07:52:33.609Z</time></trkpt><trkpt lat="45.5623381" lon="11.1535539"><ele>438.0</ele><time>2026-04-12T07:52:35.577Z</time></trkpt><trkpt lat="45.562406" lon="11.1535317"><ele>438.0</ele><time>2026-04-12T07:52:37.612Z</time></trkpt><trkpt lat="45.5624935" lon="11.1535107"><ele>438.0</ele><time>2026-04-12T07:52:39.61Z</time></trkpt><trkpt lat="45.5625739" lon="11.1534913"><ele>438.0</ele><time>2026-04-12T07:52:41.644Z</time></trkpt><trkpt lat="45.5626546" lon="11.1534758"><ele>438.0</ele><time>2026-04-12T07:52:43.573Z</time></trkpt><trkpt lat="45.5627367" lon="11.1534537"><ele>438.0</ele><time>2026-04-12T07:52:45.573Z</time></trkpt><trkpt lat="45.562821" lon="11.1534312"><ele>438.59999999999997</ele><time>2026-04-12T07:52:47.557Z</time></trkpt><trkpt lat="45.5629072" lon="11.1534222"><ele>439.19999999999993</ele><time>2026-04-12T07:52:49.571Z</time></trkpt><trkpt lat="45.5629961" lon="11.1534106"><ele>439.8</ele><time>2026-04-12T07:52:51.574Z</time></trkpt><trkpt lat="45.563088" lon="11.1533982"><ele>440.4</ele><time>2026-04-12T07:52:53.568Z</time></trkpt><trkpt lat="45.5631822" lon="11.1533809"><ele>441.0</ele><time>2026-04-12T07:52:55.62Z</time></trkpt><trkpt lat="45.5632775" lon="11.1533664"><ele>441.0</ele><time>2026-04-12T07:52:57.572Z</time></trkpt><trkpt lat="45.5633774" lon="11.1533523"><ele>441.0</ele><time>2026-04-12T07:52:59.605Z</time></trkpt><trkpt lat="45.5634763" lon="11.1533411"><ele>441.0</ele><time>2026-04-12T07:53:01.569Z</time></trkpt><trkpt lat="45.5635736" lon="11.1533235"><ele>441.0</ele><time>2026-04-12T07:53:03.615Z</time></trkpt><trkpt lat="45.5636726" lon="11.1533011"><ele>441.0</ele><time>2026-04-12T07:53:05.604Z</time></trkpt><trkpt lat="45.5637745" lon="11.1532823"><ele>441.20000000000005</ele><time>2026-04-12T07:53:07.568Z</time></trkpt><trkpt lat="45.5638747" lon="11.1532692"><ele>441.40000000000003</ele><time>2026-04-12T07:53:09.577Z</time></trkpt><trkpt lat="45.5639762" lon="11.1532638"><ele>441.6</ele><time>2026-04-12T07:53:11.611Z</time></trkpt><trkpt lat="45.5640804" lon="11.1532581"><ele>441.8</ele><time>2026-04-12T07:53:13.571Z</time></trkpt><trkpt lat="45.5641831" lon="11.1532417"><ele>442.0</ele><time>2026-04-12T07:53:15.571Z</time></trkpt><trkpt lat="45.5642856" lon="11.153226"><ele>442.0</ele><time>2026-04-12T07:53:17.574Z</time></trkpt><trkpt lat="45.5643866" lon="11.1532133"><ele>442.00000000000006</ele><time>2026-04-12T07:53:19.664Z</time></trkpt><trkpt lat="45.5644912" lon="11.1531976"><ele>442.00000000000006</ele><time>2026-04-12T07:53:21.573Z</time></trkpt><trkpt lat="45.5645985" lon="11.153178"><ele>442.0</ele><time>2026-04-12T07:53:23.574Z</time></trkpt><trkpt lat="45.5647064" lon="11.1531658"><ele>442.0</ele><time>2026-04-12T07:53:25.574Z</time></trkpt><trkpt lat="45.5648115" lon="11.153153"><ele>442.6</ele><time>2026-04-12T07:53:27.575Z</time></trkpt><trkpt lat="45.564917" lon="11.1531403"><ele>443.20000000000005</ele><time>2026-04-12T07:53:29.577Z</time></trkpt><trkpt lat="45.5650254" lon="11.1531297"><ele>443.8</ele><time>2026-04-12T07:53:31.568Z</time></trkpt><trkpt lat="45.5651283" lon="11.1531147"><ele>444.4</ele><time>2026-04-12T07:53:33.575Z</time></trkpt><trkpt lat="45.5652205" lon="11.1531023"><ele>445.0</ele><time>2026-04-12T07:53:35.576Z</time></trkpt><trkpt lat="45.5652952" lon="11.1530923"><ele>445.42857142857144</ele><time>2026-04-12T07:53:37.563Z</time></trkpt><trkpt lat="45.5653642" lon="11.1530805"><ele>445.85714285714283</ele><time>2026-04-12T07:53:39.568Z</time></trkpt><trkpt lat="45.5654345" lon="11.1530662"><ele>446.2857142857143</ele><time>2026-04-12T07:53:41.572Z</time></trkpt><trkpt lat="45.5655022" lon="11.153057"><ele>446.7142857142857</ele><time>2026-04-12T07:53:43.568Z</time></trkpt><trkpt lat="45.5655695" lon="11.1530492"><ele>447.1428571428571</ele><time>2026-04-12T07:53:45.569Z</time></trkpt><trkpt lat="45.565634" lon="11.1530398"><ele>447.57142857142856</ele><time>2026-04-12T07:53:47.566Z</time></trkpt><trkpt lat="45.5657026" lon="11.1530291"><ele>448.0</ele><time>2026-04-12T07:53:49.619Z</time></trkpt><trkpt lat="45.56577" lon="11.153017"><ele>448.0</ele><time>2026-04-12T07:53:51.573Z</time></trkpt><trkpt lat="45.5658356" lon="11.1530165"><ele>448.0</ele><time>2026-04-12T07:53:53.627Z</time></trkpt><trkpt lat="45.5659004" lon="11.1530052"><ele>448.0</ele><time>2026-04-12T07:53:55.569Z</time></trkpt><trkpt lat="45.5659626" lon="11.1529899"><ele>448.0</ele><time>2026-04-12T07:53:57.577Z</time></trkpt><trkpt lat="45.5660521" lon="11.152957"><ele>448.0</ele><time>2026-04-12T07:54:00.574Z</time></trkpt><trkpt lat="45.566124" lon="11.1529228"><ele>448.0</ele><time>2026-04-12T07:54:02.568Z</time></trkpt><trkpt lat="45.5662035" lon="11.152896"><ele>448.0</ele><time>2026-04-12T07:54:04.57Z</time></trkpt><trkpt lat="45.5662827" lon="11.1528578"><ele>447.85714285714283</ele><time>2026-04-12T07:54:06.691Z</time></trkpt><trkpt lat="45.5663637" lon="11.1528289"><ele>447.7142857142857</ele><time>2026-04-12T07:54:08.57Z</time></trkpt><trkpt lat="45.5664391" lon="11.1528167"><ele>447.57142857142856</ele><time>2026-04-12T07:54:10.581Z</time></trkpt><trkpt lat="45.5665134" lon="11.1528072"><ele>447.42857142857144</ele><time>2026-04-12T07:54:12.569Z</time></trkpt><trkpt lat="45.5665872" lon="11.1527952"><ele>447.2857142857143</ele><time>2026-04-12T07:54:14.612Z</time></trkpt><trkpt lat="45.5666575" lon="11.152776"><ele>447.1428571428571</ele><time>2026-04-12T07:54:16.568Z</time></trkpt><trkpt lat="45.5667212" lon="11.1527694"><ele>447.0</ele><time>2026-04-12T07:54:18.566Z</time></trkpt><trkpt lat="45.5668053" lon="11.1527567"><ele>447.0</ele><time>2026-04-12T07:54:20.579Z</time></trkpt><trkpt lat="45.5668769" lon="11.1527417"><ele>447.0</ele><time>2026-04-12T07:54:22.565Z</time></trkpt><trkpt lat="45.5669411" lon="11.1527236"><ele>447.0</ele><time>2026-04-12T07:54:24.572Z</time></trkpt><trkpt lat="45.5670109" lon="11.1527006"><ele>447.0</ele><time>2026-04-12T07:54:26.569Z</time></trkpt><trkpt lat="45.5671176" lon="11.1526776"><ele>447.0</ele><time>2026-04-12T07:54:29.568Z</time></trkpt><trkpt lat="45.5671846" lon="11.1526646"><ele>447.0</ele><time>2026-04-12T07:54:31.572Z</time></trkpt><trkpt lat="45.5672538" lon="11.1526485"><ele>446.99999999999994</ele><time>2026-04-12T07:54:33.574Z</time></trkpt><trkpt lat="45.5673274" lon="11.1526341"><ele>447.0</ele><time>2026-04-12T07:54:35.617Z</time></trkpt><trkpt lat="45.5674008" lon="11.152624"><ele>447.0</ele><time>2026-04-12T07:54:37.572Z</time></trkpt><trkpt lat="45.5674712" lon="11.1526097"><ele>447.0</ele><time>2026-04-12T07:54:39.583Z</time></trkpt><trkpt lat="45.567541" lon="11.1525899"><ele>447.0</ele><time>2026-04-12T07:54:41.574Z</time></trkpt><trkpt lat="45.5676135" lon="11.1525717"><ele>446.99999999999994</ele><time>2026-04-12T07:54:43.572Z</time></trkpt><trkpt lat="45.5676917" lon="11.1525687"><ele>447.0</ele><time>2026-04-12T07:54:45.567Z</time></trkpt><trkpt lat="45.5677609" lon="11.1525547"><ele>447.0</ele><time>2026-04-12T07:54:47.571Z</time></trkpt><trkpt lat="45.567836" lon="11.1525512"><ele>447.0</ele><time>2026-04-12T07:54:49.568Z</time></trkpt><trkpt lat="45.5679154" lon="11.1525305"><ele>447.0</ele><time>2026-04-12T07:54:51.562Z</time></trkpt><trkpt lat="45.568" lon="11.1525215"><ele>447.0</ele><time>2026-04-12T07:54:53.568Z</time></trkpt><trkpt lat="45.5680729" lon="11.1525077"><ele>447.0</ele><time>2026-04-12T07:54:55.571Z</time></trkpt><trkpt lat="45.5681478" lon="11.1524933"><ele>447.0</ele><time>2026-04-12T07:54:57.637Z</time></trkpt><trkpt lat="45.5682222" lon="11.1524818"><ele>447.3333333333333</ele><time>2026-04-12T07:54:59.579Z</time></trkpt><trkpt lat="45.5682959" lon="11.1524689"><ele>447.66666666666663</ele><time>2026-04-12T07:55:01.564Z</time></trkpt><trkpt lat="45.5683711" lon="11.1524549"><ele>448.0</ele><time>2026-04-12T07:55:03.577Z</time></trkpt><trkpt lat="45.568445" lon="11.1524355"><ele>448.3333333333333</ele><time>2026-04-12T07:55:05.571Z</time></trkpt><trkpt lat="45.5685231" lon="11.1524165"><ele>448.66666666666663</ele><time>2026-04-12T07:55:07.58Z</time></trkpt><trkpt lat="45.5685939" lon="11.1523926"><ele>449.0</ele><time>2026-04-12T07:55:09.57Z</time></trkpt><trkpt lat="45.5686652" lon="11.1523646"><ele>449.57142857142856</ele><time>2026-04-12T07:55:11.582Z</time></trkpt><trkpt lat="45.5687325" lon="11.1523387"><ele>450.1428571428571</ele><time>2026-04-12T07:55:13.582Z</time></trkpt><trkpt lat="45.5688013" lon="11.1523149"><ele>450.71428571428567</ele><time>2026-04-12T07:55:15.568Z</time></trkpt><trkpt lat="45.5688698" lon="11.1522934"><ele>451.2857142857142</ele><time>2026-04-12T07:55:17.615Z</time></trkpt><trkpt lat="45.5689462" lon="11.1522705"><ele>451.85714285714283</ele><time>2026-04-12T07:55:19.572Z</time></trkpt><trkpt lat="45.5690185" lon="11.1522369"><ele>452.42857142857133</ele><time>2026-04-12T07:55:21.575Z</time></trkpt><trkpt lat="45.5690905" lon="11.1522126"><ele>452.99999999999994</ele><time>2026-04-12T07:55:23.581Z</time></trkpt><trkpt lat="45.5691636" lon="11.1521973"><ele>453.0</ele><time>2026-04-12T07:55:25.575Z</time></trkpt><trkpt lat="45.5692383" lon="11.1521826"><ele>453.0</ele><time>2026-04-12T07:55:27.577Z</time></trkpt><trkpt lat="45.5693133" lon="11.1521711"><ele>453.0</ele><time>2026-04-12T07:55:29.573Z</time></trkpt><trkpt lat="45.5693907" lon="11.152162"><ele>453.0</ele><time>2026-04-12T07:55:31.581Z</time></trkpt><trkpt lat="45.569466" lon="11.1521511"><ele>453.0</ele><time>2026-04-12T07:55:33.562Z</time></trkpt><trkpt lat="45.5695407" lon="11.1521346"><ele>453.0</ele><time>2026-04-12T07:55:35.577Z</time></trkpt><trkpt lat="45.5696154" lon="11.1521063"><ele>452.99999999999994</ele><time>2026-04-12T07:55:37.564Z</time></trkpt><trkpt lat="45.569688" lon="11.1520855"><ele>453.0</ele><time>2026-04-12T07:55:39.573Z</time></trkpt><trkpt lat="45.5697511" lon="11.1520612"><ele>452.99999999999994</ele><time>2026-04-12T07:55:41.575Z</time></trkpt><trkpt lat="45.569819" lon="11.1520294"><ele>452.99999999999994</ele><time>2026-04-12T07:55:43.561Z</time></trkpt><trkpt lat="45.5698856" lon="11.1519984"><ele>453.0</ele><time>2026-04-12T07:55:45.579Z</time></trkpt><trkpt lat="45.5699546" lon="11.1519732"><ele>452.99999999999994</ele><time>2026-04-12T07:55:47.566Z</time></trkpt><trkpt lat="45.5700232" lon="11.1519396"><ele>452.99999999999994</ele><time>2026-04-12T07:55:49.582Z</time></trkpt><trkpt lat="45.5700944" lon="11.1519002"><ele>453.0</ele><time>2026-04-12T07:55:51.575Z</time></trkpt><trkpt lat="45.5701615" lon="11.1518552"><ele>453.0</ele><time>2026-04-12T07:55:53.574Z</time></trkpt><trkpt lat="45.5702305" lon="11.1518212"><ele>453.0</ele><time>2026-04-12T07:55:55.578Z</time></trkpt><trkpt lat="45.5703003" lon="11.1518014"><ele>453.0</ele><time>2026-04-12T07:55:57.573Z</time></trkpt><trkpt lat="45.5703683" lon="11.1517673"><ele>453.0</ele><time>2026-04-12T07:55:59.586Z</time></trkpt><trkpt lat="45.5704473" lon="11.1517256"><ele>453.0</ele><time>2026-04-12T07:56:01.567Z</time></trkpt><trkpt lat="45.5705192" lon="11.1516841"><ele>453.1666666666667</ele><time>2026-04-12T07:56:03.589Z</time></trkpt><trkpt lat="45.570589" lon="11.15165"><ele>453.33333333333337</ele><time>2026-04-12T07:56:05.567Z</time></trkpt><trkpt lat="45.5706679" lon="11.1516209"><ele>453.5</ele><time>2026-04-12T07:56:07.575Z</time></trkpt><trkpt lat="45.5707464" lon="11.1515767"><ele>453.6666666666667</ele><time>2026-04-12T07:56:09.575Z</time></trkpt><trkpt lat="45.570825" lon="11.1515312"><ele>453.83333333333337</ele><time>2026-04-12T07:56:11.572Z</time></trkpt><trkpt lat="45.5709029" lon="11.1514845"><ele>454.0</ele><time>2026-04-12T07:56:13.566Z</time></trkpt><trkpt lat="45.5709811" lon="11.151431"><ele>454.6666666666667</ele><time>2026-04-12T07:56:15.57Z</time></trkpt><trkpt lat="45.5710619" lon="11.1513862"><ele>455.33333333333337</ele><time>2026-04-12T07:56:17.584Z</time></trkpt><trkpt lat="45.5711428" lon="11.1513392"><ele>456.0</ele><time>2026-04-12T07:56:19.57Z</time></trkpt><trkpt lat="45.5712227" lon="11.1512951"><ele>456.66666666666663</ele><time>2026-04-12T07:56:21.586Z</time></trkpt><trkpt lat="45.5713005" lon="11.1512458"><ele>457.3333333333333</ele><time>2026-04-12T07:56:23.631Z</time></trkpt><trkpt lat="45.5713796" lon="11.1511922"><ele>458.0</ele><time>2026-04-12T07:56:25.576Z</time></trkpt><trkpt lat="45.5714482" lon="11.1511407"><ele>458.16666666666663</ele><time>2026-04-12T07:56:27.57Z</time></trkpt><trkpt lat="45.5715137" lon="11.1511054"><ele>458.3333333333333</ele><time>2026-04-12T07:56:29.581Z</time></trkpt><trkpt lat="45.5715838" lon="11.1510653"><ele>458.5</ele><time>2026-04-12T07:56:31.574Z</time></trkpt><trkpt lat="45.5716628" lon="11.1510243"><ele>458.66666666666663</ele><time>2026-04-12T07:56:33.572Z</time></trkpt><trkpt lat="45.5717518" lon="11.1509854"><ele>458.8333333333333</ele><time>2026-04-12T07:56:35.581Z</time></trkpt><trkpt lat="45.5718372" lon="11.1509653"><ele>459.0</ele><time>2026-04-12T07:56:37.562Z</time></trkpt><trkpt lat="45.5719222" lon="11.1509556"><ele>459.0</ele><time>2026-04-12T07:56:39.582Z</time></trkpt><trkpt lat="45.5720097" lon="11.150944"><ele>459.0</ele><time>2026-04-12T07:56:41.576Z</time></trkpt><trkpt lat="45.5720951" lon="11.1509191"><ele>459.0</ele><time>2026-04-12T07:56:43.561Z</time></trkpt><trkpt lat="45.5721776" lon="11.1508928"><ele>459.0</ele><time>2026-04-12T07:56:45.573Z</time></trkpt><trkpt lat="45.5722626" lon="11.1508703"><ele>459.0</ele><time>2026-04-12T07:56:47.569Z</time></trkpt><trkpt lat="45.5723469" lon="11.1508461"><ele>459.0</ele><time>2026-04-12T07:56:49.602Z</time></trkpt><trkpt lat="45.5724297" lon="11.1508142"><ele>458.6666666666667</ele><time>2026-04-12T07:56:51.563Z</time></trkpt><trkpt lat="45.5725143" lon="11.1507886"><ele>458.33333333333337</ele><time>2026-04-12T07:56:53.571Z</time></trkpt><trkpt lat="45.5725932" lon="11.150751"><ele>458.0</ele><time>2026-04-12T07:56:55.565Z</time></trkpt><trkpt lat="45.5726713" lon="11.1507135"><ele>457.6666666666667</ele><time>2026-04-12T07:56:57.579Z</time></trkpt><trkpt lat="45.5727508" lon="11.1506778"><ele>457.33333333333337</ele><time>2026-04-12T07:56:59.583Z</time></trkpt><trkpt lat="45.5728325" lon="11.1506435"><ele>457.0</ele><time>2026-04-12T07:57:01.578Z</time></trkpt><trkpt lat="45.5729146" lon="11.1505971"><ele>457.83333333333337</ele><time>2026-04-12T07:57:03.581Z</time></trkpt><trkpt lat="45.5729871" lon="11.1505459"><ele>458.6666666666667</ele><time>2026-04-12T07:57:05.572Z</time></trkpt><trkpt lat="45.5730672" lon="11.1505062"><ele>459.5</ele><time>2026-04-12T07:57:07.576Z</time></trkpt><trkpt lat="45.5731432" lon="11.1504727"><ele>460.33333333333337</ele><time>2026-04-12T07:57:09.61Z</time></trkpt><trkpt lat="45.5732135" lon="11.1504363"><ele>461.1666666666667</ele><time>2026-04-12T07:57:11.576Z</time></trkpt><trkpt lat="45.5732859" lon="11.1504128"><ele>462.0</ele><time>2026-04-12T07:57:13.571Z</time></trkpt><trkpt lat="45.5733593" lon="11.1503787"><ele>462.0</ele><time>2026-04-12T07:57:15.58Z</time></trkpt><trkpt lat="45.5734328" lon="11.1503468"><ele>462.0</ele><time>2026-04-12T07:57:17.572Z</time></trkpt><trkpt lat="45.5735069" lon="11.1503314"><ele>462.0</ele><time>2026-04-12T07:57:19.571Z</time></trkpt><trkpt lat="45.5735814" lon="11.1503146"><ele>462.0</ele><time>2026-04-12T07:57:21.568Z</time></trkpt><trkpt lat="45.5736523" lon="11.1502948"><ele>462.0</ele><time>2026-04-12T07:57:23.689Z</time></trkpt><trkpt lat="45.5737252" lon="11.1502915"><ele>462.0</ele><time>2026-04-12T07:57:25.613Z</time></trkpt><trkpt lat="45.5738007" lon="11.1502934"><ele>462.0</ele><time>2026-04-12T07:57:27.549Z</time></trkpt><trkpt lat="45.5738764" lon="11.1502948"><ele>462.0</ele><time>2026-04-12T07:57:29.57Z</time></trkpt><trkpt lat="45.5739491" lon="11.1502911"><ele>462.0</ele><time>2026-04-12T07:57:31.58Z</time></trkpt><trkpt lat="45.5740202" lon="11.150282"><ele>462.0</ele><time>2026-04-12T07:57:33.581Z</time></trkpt><trkpt lat="45.5740914" lon="11.1502739"><ele>462.0</ele><time>2026-04-12T07:57:35.574Z</time></trkpt><trkpt lat="45.5741637" lon="11.1502707"><ele>462.0</ele><time>2026-04-12T07:57:37.58Z</time></trkpt><trkpt lat="45.5742347" lon="11.1502822"><ele>462.0</ele><time>2026-04-12T07:57:39.571Z</time></trkpt><trkpt lat="45.5743054" lon="11.150303"><ele>462.0</ele><time>2026-04-12T07:57:41.629Z</time></trkpt><trkpt lat="45.5743753" lon="11.1503221"><ele>462.0</ele><time>2026-04-12T07:57:43.568Z</time></trkpt><trkpt lat="45.5744447" lon="11.1503218"><ele>462.0</ele><time>2026-04-12T07:57:45.568Z</time></trkpt><trkpt lat="45.5745174" lon="11.1503048"><ele>462.0</ele><time>2026-04-12T07:57:47.626Z</time></trkpt><trkpt lat="45.5745914" lon="11.1502786"><ele>462.0</ele><time>2026-04-12T07:57:49.577Z</time></trkpt><trkpt lat="45.5746657" lon="11.1502594"><ele>462.0</ele><time>2026-04-12T07:57:51.574Z</time></trkpt><trkpt lat="45.5747412" lon="11.1502393"><ele>462.0</ele><time>2026-04-12T07:57:53.571Z</time></trkpt><trkpt lat="45.5748201" lon="11.1502173"><ele>462.2857142857143</ele><time>2026-04-12T07:57:55.574Z</time></trkpt><trkpt lat="45.5748947" lon="11.1501946"><ele>462.57142857142856</ele><time>2026-04-12T07:57:57.614Z</time></trkpt><trkpt lat="45.5749654" lon="11.1501703"><ele>462.8571428571429</ele><time>2026-04-12T07:57:59.567Z</time></trkpt><trkpt lat="45.5750324" lon="11.1501458"><ele>463.14285714285717</ele><time>2026-04-12T07:58:01.575Z</time></trkpt><trkpt lat="45.5750963" lon="11.1501225"><ele>463.42857142857144</ele><time>2026-04-12T07:58:03.574Z</time></trkpt><trkpt lat="45.5751852" lon="11.1500643"><ele>463.7142857142858</ele><time>2026-04-12T07:58:06.562Z</time></trkpt><trkpt lat="45.5752309" lon="11.1500009"><ele>464.00000000000006</ele><time>2026-04-12T07:58:08.618Z</time></trkpt><trkpt lat="45.575303" lon="11.1499453"><ele>463.99999999999994</ele><time>2026-04-12T07:58:11.649Z</time></trkpt><trkpt lat="45.5753743" lon="11.1499056"><ele>464.0</ele><time>2026-04-12T07:58:14.571Z</time></trkpt><trkpt lat="45.5754492" lon="11.1498844"><ele>464.0</ele><time>2026-04-12T07:58:17.572Z</time></trkpt><trkpt lat="45.5755087" lon="11.1498512"><ele>464.0</ele><time>2026-04-12T07:58:20.573Z</time></trkpt><trkpt lat="45.575581" lon="11.149815"><ele>463.99999999999994</ele><time>2026-04-12T07:58:23.571Z</time></trkpt><trkpt lat="45.5756585" lon="11.1497921"><ele>464.0</ele><time>2026-04-12T07:58:26.573Z</time></trkpt><trkpt lat="45.5757371" lon="11.1497658"><ele>464.99999999999994</ele><time>2026-04-12T07:58:29.574Z</time></trkpt><trkpt lat="45.5758158" lon="11.149728"><ele>466.0</ele><time>2026-04-12T07:58:32.58Z</time></trkpt><trkpt lat="45.5759039" lon="11.1496982"><ele>467.0</ele><time>2026-04-12T07:58:35.569Z</time></trkpt><trkpt lat="45.5759886" lon="11.1496637"><ele>468.0</ele><time>2026-04-12T07:58:38.568Z</time></trkpt><trkpt lat="45.5760804" lon="11.1496353"><ele>468.99999999999994</ele><time>2026-04-12T07:58:41.593Z</time></trkpt><trkpt lat="45.5761464" lon="11.1496018"><ele>470.0</ele><time>2026-04-12T07:58:43.571Z</time></trkpt><trkpt lat="45.5762106" lon="11.1495746"><ele>470.4285714285714</ele><time>2026-04-12T07:58:45.565Z</time></trkpt><trkpt lat="45.5762745" lon="11.1495441"><ele>470.8571428571428</ele><time>2026-04-12T07:58:47.571Z</time></trkpt><trkpt lat="45.5763426" lon="11.1495094"><ele>471.2857142857143</ele><time>2026-04-12T07:58:49.56Z</time></trkpt><trkpt lat="45.5764077" lon="11.1494877"><ele>471.71428571428567</ele><time>2026-04-12T07:58:51.637Z</time></trkpt><trkpt lat="45.5764725" lon="11.1494558"><ele>472.1428571428571</ele><time>2026-04-12T07:58:53.616Z</time></trkpt><trkpt lat="45.5765386" lon="11.1494259"><ele>472.57142857142856</ele><time>2026-04-12T07:58:55.57Z</time></trkpt><trkpt lat="45.5766048" lon="11.149382"><ele>473.0</ele><time>2026-04-12T07:58:57.571Z</time></trkpt><trkpt lat="45.5766677" lon="11.1493424"><ele>473.0</ele><time>2026-04-12T07:58:59.567Z</time></trkpt><trkpt lat="45.5767323" lon="11.149313"><ele>473.0</ele><time>2026-04-12T07:59:01.573Z</time></trkpt><trkpt lat="45.576802" lon="11.1492864"><ele>473.0</ele><time>2026-04-12T07:59:03.579Z</time></trkpt><trkpt lat="45.576868" lon="11.1492542"><ele>473.0</ele><time>2026-04-12T07:59:05.574Z</time></trkpt><trkpt lat="45.5769391" lon="11.1492358"><ele>473.0</ele><time>2026-04-12T07:59:07.576Z</time></trkpt><trkpt lat="45.5770134" lon="11.1492214"><ele>473.0</ele><time>2026-04-12T07:59:09.576Z</time></trkpt><trkpt lat="45.5770855" lon="11.1492057"><ele>473.0</ele><time>2026-04-12T07:59:11.599Z</time></trkpt><trkpt lat="45.5771509" lon="11.1491901"><ele>473.49999999999994</ele><time>2026-04-12T07:59:13.568Z</time></trkpt><trkpt lat="45.5772135" lon="11.149173"><ele>474.0</ele><time>2026-04-12T07:59:15.598Z</time></trkpt><trkpt lat="45.5772836" lon="11.1491527"><ele>474.5</ele><time>2026-04-12T07:59:17.578Z</time></trkpt><trkpt lat="45.5773564" lon="11.1491348"><ele>475.0</ele><time>2026-04-12T07:59:19.605Z</time></trkpt><trkpt lat="45.5774246" lon="11.1491165"><ele>475.49999999999994</ele><time>2026-04-12T07:59:21.634Z</time></trkpt><trkpt lat="45.5775213" lon="11.1490951"><ele>476.0</ele><time>2026-04-12T07:59:24.566Z</time></trkpt><trkpt lat="45.5775945" lon="11.1490804"><ele>475.99999999999994</ele><time>2026-04-12T07:59:26.576Z</time></trkpt><trkpt lat="45.57767" lon="11.1490557"><ele>476.0</ele><time>2026-04-12T07:59:28.573Z</time></trkpt><trkpt lat="45.5777471" lon="11.1490352"><ele>476.0</ele><time>2026-04-12T07:59:30.573Z</time></trkpt><trkpt lat="45.5778219" lon="11.1490156"><ele>476.0</ele><time>2026-04-12T07:59:32.589Z</time></trkpt><trkpt lat="45.5778972" lon="11.1489992"><ele>475.99999999999994</ele><time>2026-04-12T07:59:34.567Z</time></trkpt><trkpt lat="45.5779718" lon="11.1489835"><ele>476.0</ele><time>2026-04-12T07:59:36.57Z</time></trkpt><trkpt lat="45.5780473" lon="11.1489679"><ele>479.99999999999994</ele><time>2026-04-12T07:59:38.559Z</time></trkpt><trkpt lat="45.5781212" lon="11.1489482"><ele>484.0</ele><time>2026-04-12T07:59:40.572Z</time></trkpt><trkpt lat="45.5781958" lon="11.1489286"><ele>488.0</ele><time>2026-04-12T07:59:42.566Z</time></trkpt><trkpt lat="45.5782711" lon="11.1489034"><ele>492.0</ele><time>2026-04-12T07:59:44.558Z</time></trkpt><trkpt lat="45.5783466" lon="11.1488732"><ele>495.99999999999994</ele><time>2026-04-12T07:59:46.613Z</time></trkpt><trkpt lat="45.578421" lon="11.1488432"><ele>500.0</ele><time>2026-04-12T07:59:48.57Z</time></trkpt><trkpt lat="45.5784975" lon="11.1488145"><ele>499.99999999999994</ele><time>2026-04-12T07:59:50.628Z</time></trkpt><trkpt lat="45.5785754" lon="11.1487818"><ele>500.0</ele><time>2026-04-12T07:59:52.574Z</time></trkpt><trkpt lat="45.5786562" lon="11.1487587"><ele>500.0</ele><time>2026-04-12T07:59:54.569Z</time></trkpt><trkpt lat="45.5787371" lon="11.1487321"><ele>500.0</ele><time>2026-04-12T07:59:56.572Z</time></trkpt><trkpt lat="45.5788151" lon="11.1487069"><ele>499.99999999999994</ele><time>2026-04-12T07:59:58.564Z</time></trkpt><trkpt lat="45.5788964" lon="11.1486915"><ele>500.0</ele><time>2026-04-12T08:00:00.569Z</time></trkpt><trkpt lat="45.5789766" lon="11.1486761"><ele>497.66666666666663</ele><time>2026-04-12T08:00:02.572Z</time></trkpt><trkpt lat="45.579057" lon="11.148674"><ele>495.3333333333333</ele><time>2026-04-12T08:00:04.564Z</time></trkpt><trkpt lat="45.5791372" lon="11.1486929"><ele>493.0</ele><time>2026-04-12T08:00:06.574Z</time></trkpt><trkpt lat="45.57921" lon="11.1487398"><ele>490.66666666666663</ele><time>2026-04-12T08:00:08.568Z</time></trkpt><trkpt lat="45.5792743" lon="11.1488074"><ele>488.3333333333333</ele><time>2026-04-12T08:00:10.628Z</time></trkpt><trkpt lat="45.5793295" lon="11.1488887"><ele>486.0</ele><time>2026-04-12T08:00:12.58Z</time></trkpt><trkpt lat="45.5793773" lon="11.1489785"><ele>484.8333333333333</ele><time>2026-04-12T08:00:14.576Z</time></trkpt><trkpt lat="45.5794249" lon="11.1490695"><ele>483.66666666666663</ele><time>2026-04-12T08:00:16.571Z</time></trkpt><trkpt lat="45.5794744" lon="11.1491539"><ele>482.5</ele><time>2026-04-12T08:00:18.564Z</time></trkpt><trkpt lat="45.5795218" lon="11.1492372"><ele>481.3333333333333</ele><time>2026-04-12T08:00:20.603Z</time></trkpt><trkpt lat="45.5795803" lon="11.1493204"><ele>480.16666666666663</ele><time>2026-04-12T08:00:22.577Z</time></trkpt><trkpt lat="45.5796441" lon="11.1493822"><ele>479.0</ele><time>2026-04-12T08:00:24.565Z</time></trkpt><trkpt lat="45.5797158" lon="11.149415"><ele>478.99999999999994</ele><time>2026-04-12T08:00:26.567Z</time></trkpt><trkpt lat="45.5797889" lon="11.1494399"><ele>479.0</ele><time>2026-04-12T08:00:28.57Z</time></trkpt><trkpt lat="45.5798656" lon="11.1494566"><ele>479.0</ele><time>2026-04-12T08:00:30.563Z</time></trkpt><trkpt lat="45.5799423" lon="11.1494815"><ele>479.0</ele><time>2026-04-12T08:00:32.617Z</time></trkpt><trkpt lat="45.5800199" lon="11.1495094"><ele>478.99999999999994</ele><time>2026-04-12T08:00:34.561Z</time></trkpt><trkpt lat="45.5801008" lon="11.1495248"><ele>479.0</ele><time>2026-04-12T08:00:36.568Z</time></trkpt><trkpt lat="45.5801827" lon="11.1495249"><ele>478.99999999999994</ele><time>2026-04-12T08:00:38.571Z</time></trkpt><trkpt lat="45.5802622" lon="11.1495048"><ele>479.0</ele><time>2026-04-12T08:00:40.598Z</time></trkpt><trkpt lat="45.5803392" lon="11.1494718"><ele>479.0</ele><time>2026-04-12T08:00:42.562Z</time></trkpt><trkpt lat="45.5804161" lon="11.1494278"><ele>479.0</ele><time>2026-04-12T08:00:44.567Z</time></trkpt><trkpt lat="45.5804932" lon="11.1493783"><ele>478.99999999999994</ele><time>2026-04-12T08:00:46.568Z</time></trkpt><trkpt lat="45.580568" lon="11.1493168"><ele>479.0</ele><time>2026-04-12T08:00:48.565Z</time></trkpt><trkpt lat="45.5806346" lon="11.1492642"><ele>481.16666666666663</ele><time>2026-04-12T08:00:50.603Z</time></trkpt><trkpt lat="45.5807072" lon="11.1492395"><ele>483.3333333333333</ele><time>2026-04-12T08:00:52.562Z</time></trkpt><trkpt lat="45.5807702" lon="11.1492695"><ele>485.5</ele><time>2026-04-12T08:00:54.566Z</time></trkpt><trkpt lat="45.5808434" lon="11.1493108"><ele>487.66666666666663</ele><time>2026-04-12T08:00:56.619Z</time></trkpt><trkpt lat="45.5809222" lon="11.1493615"><ele>489.8333333333333</ele><time>2026-04-12T08:00:58.564Z</time></trkpt><trkpt lat="45.581001" lon="11.1494274"><ele>492.0</ele><time>2026-04-12T08:01:00.571Z</time></trkpt><trkpt lat="45.5810881" lon="11.1494853"><ele>492.0</ele><time>2026-04-12T08:01:02.573Z</time></trkpt><trkpt lat="45.5811739" lon="11.1495281"><ele>492.0</ele><time>2026-04-12T08:01:04.621Z</time></trkpt><trkpt lat="45.5812441" lon="11.1495773"><ele>492.0</ele><time>2026-04-12T08:01:06.567Z</time></trkpt><trkpt lat="45.581318" lon="11.1496346"><ele>492.0</ele><time>2026-04-12T08:01:08.573Z</time></trkpt><trkpt lat="45.5813812" lon="11.1496996"><ele>492.0</ele><time>2026-04-12T08:01:10.58Z</time></trkpt><trkpt lat="45.5814438" lon="11.149763"><ele>492.0</ele><time>2026-04-12T08:01:12.561Z</time></trkpt><trkpt lat="45.581522" lon="11.1498217"><ele>491.28571428571433</ele><time>2026-04-12T08:01:14.573Z</time></trkpt><trkpt lat="45.5815639" lon="11.149904"><ele>490.57142857142856</ele><time>2026-04-12T08:01:16.581Z</time></trkpt><trkpt lat="45.5816349" lon="11.1499479"><ele>489.8571428571429</ele><time>2026-04-12T08:01:18.622Z</time></trkpt><trkpt lat="45.5817005" lon="11.1499804"><ele>489.14285714285717</ele><time>2026-04-12T08:01:20.571Z</time></trkpt><trkpt lat="45.5817635" lon="11.150013"><ele>488.42857142857144</ele><time>2026-04-12T08:01:22.568Z</time></trkpt><trkpt lat="45.5818257" lon="11.1500574"><ele>487.7142857142857</ele><time>2026-04-12T08:01:24.572Z</time></trkpt><trkpt lat="45.5818703" lon="11.150129"><ele>487.0</ele><time>2026-04-12T08:01:26.631Z</time></trkpt><trkpt lat="45.581906" lon="11.1502062"><ele>487.0</ele><time>2026-04-12T08:01:28.566Z</time></trkpt><trkpt lat="45.5819461" lon="11.1502922"><ele>487.0</ele><time>2026-04-12T08:01:30.587Z</time></trkpt><trkpt lat="45.5819808" lon="11.1503708"><ele>487.0</ele><time>2026-04-12T08:01:32.573Z</time></trkpt><trkpt lat="45.5820269" lon="11.150446"><ele>487.0</ele><time>2026-04-12T08:01:34.575Z</time></trkpt><trkpt lat="45.5820733" lon="11.1505218"><ele>487.0</ele><time>2026-04-12T08:01:36.571Z</time></trkpt><trkpt lat="45.5821267" lon="11.1505946"><ele>487.0</ele><time>2026-04-12T08:01:38.69Z</time></trkpt><trkpt lat="45.582185" lon="11.1506686"><ele>487.0</ele><time>2026-04-12T08:01:40.568Z</time></trkpt><trkpt lat="45.5822521" lon="11.1507401"><ele>486.28571428571433</ele><time>2026-04-12T08:01:42.573Z</time></trkpt><trkpt lat="45.5823122" lon="11.1507784"><ele>485.57142857142856</ele><time>2026-04-12T08:01:44.574Z</time></trkpt><trkpt lat="45.5823711" lon="11.1508204"><ele>484.8571428571429</ele><time>2026-04-12T08:01:46.607Z</time></trkpt><trkpt lat="45.5824345" lon="11.150863"><ele>484.14285714285717</ele><time>2026-04-12T08:01:48.572Z</time></trkpt><trkpt lat="45.582499" lon="11.1509009"><ele>483.42857142857144</ele><time>2026-04-12T08:01:50.618Z</time></trkpt><trkpt lat="45.5825766" lon="11.1509237"><ele>482.7142857142857</ele><time>2026-04-12T08:01:52.557Z</time></trkpt><trkpt lat="45.5826594" lon="11.1509349"><ele>482.0</ele><time>2026-04-12T08:01:54.572Z</time></trkpt><trkpt lat="45.5827375" lon="11.1509494"><ele>481.99999999999994</ele><time>2026-04-12T08:01:56.565Z</time></trkpt><trkpt lat="45.5828195" lon="11.1509594"><ele>482.0</ele><time>2026-04-12T08:01:58.57Z</time></trkpt><trkpt lat="45.5829032" lon="11.1509791"><ele>482.0</ele><time>2026-04-12T08:02:00.568Z</time></trkpt><trkpt lat="45.582996" lon="11.1509882"><ele>482.0</ele><time>2026-04-12T08:02:02.568Z</time></trkpt><trkpt lat="45.5830726" lon="11.150986"><ele>481.99999999999994</ele><time>2026-04-12T08:02:04.597Z</time></trkpt><trkpt lat="45.5831529" lon="11.1509834"><ele>482.0</ele><time>2026-04-12T08:02:07.55Z</time></trkpt><trkpt lat="45.5832286" lon="11.1509566"><ele>482.5714285714286</ele><time>2026-04-12T08:02:09.577Z</time></trkpt><trkpt lat="45.5833036" lon="11.1509223"><ele>483.1428571428572</ele><time>2026-04-12T08:02:11.586Z</time></trkpt><trkpt lat="45.5833795" lon="11.1508885"><ele>483.7142857142857</ele><time>2026-04-12T08:02:13.582Z</time></trkpt><trkpt lat="45.5834543" lon="11.1508555"><ele>484.28571428571433</ele><time>2026-04-12T08:02:15.582Z</time></trkpt><trkpt lat="45.5835271" lon="11.1508242"><ele>484.8571428571429</ele><time>2026-04-12T08:02:17.627Z</time></trkpt><trkpt lat="45.583596" lon="11.1508019"><ele>485.42857142857144</ele><time>2026-04-12T08:02:19.573Z</time></trkpt><trkpt lat="45.5836593" lon="11.1507785"><ele>486.0</ele><time>2026-04-12T08:02:21.587Z</time></trkpt><trkpt lat="45.583748" lon="11.150797"><ele>487.5</ele><time>2026-04-12T08:02:24.573Z</time></trkpt><trkpt lat="45.5837979" lon="11.1508596"><ele>489.0</ele><time>2026-04-12T08:02:26.572Z</time></trkpt><trkpt lat="45.5838031" lon="11.1510078"><ele>490.5</ele><time>2026-04-12T08:02:29.563Z</time></trkpt><trkpt lat="45.5838105" lon="11.151113"><ele>492.0</ele><time>2026-04-12T08:02:31.588Z</time></trkpt><trkpt lat="45.5838288" lon="11.1512072"><ele>493.5</ele><time>2026-04-12T08:02:33.569Z</time></trkpt><trkpt lat="45.5838987" lon="11.1512135"><ele>495.0</ele><time>2026-04-12T08:02:35.569Z</time></trkpt><trkpt lat="45.584018" lon="11.1512069"><ele>495.0</ele><time>2026-04-12T08:02:38.563Z</time></trkpt><trkpt lat="45.5841059" lon="11.1512079"><ele>495.0</ele><time>2026-04-12T08:02:40.608Z</time></trkpt><trkpt lat="45.584186" lon="11.1512222"><ele>495.0</ele><time>2026-04-12T08:02:42.571Z</time></trkpt><trkpt lat="45.5842595" lon="11.1512358"><ele>495.0</ele><time>2026-04-12T08:02:44.632Z</time></trkpt><trkpt lat="45.5843466" lon="11.151262"><ele>495.0</ele><time>2026-04-12T08:02:46.566Z</time></trkpt><trkpt lat="45.584435" lon="11.1512832"><ele>495.0</ele><time>2026-04-12T08:02:48.575Z</time></trkpt><trkpt lat="45.5845284" lon="11.1513102"><ele>495.6666666666667</ele><time>2026-04-12T08:02:50.567Z</time></trkpt><trkpt lat="45.5846119" lon="11.1513478"><ele>496.33333333333337</ele><time>2026-04-12T08:02:52.56Z</time></trkpt><trkpt lat="45.5846899" lon="11.1514241"><ele>497.0</ele><time>2026-04-12T08:02:54.572Z</time></trkpt><trkpt lat="45.5847399" lon="11.1514788"><ele>497.6666666666667</ele><time>2026-04-12T08:02:56.571Z</time></trkpt><trkpt lat="45.5848081" lon="11.1515731"><ele>498.33333333333337</ele><time>2026-04-12T08:02:58.566Z</time></trkpt><trkpt lat="45.5848526" lon="11.1516647"><ele>499.0</ele><time>2026-04-12T08:03:00.564Z</time></trkpt><trkpt lat="45.5849079" lon="11.151754"><ele>497.50000000000006</ele><time>2026-04-12T08:03:02.58Z</time></trkpt><trkpt lat="45.5849754" lon="11.15184"><ele>496.0</ele><time>2026-04-12T08:03:04.574Z</time></trkpt><trkpt lat="45.5850522" lon="11.1518927"><ele>494.5</ele><time>2026-04-12T08:03:06.666Z</time></trkpt><trkpt lat="45.5851336" lon="11.1519236"><ele>493.0</ele><time>2026-04-12T08:03:08.574Z</time></trkpt><trkpt lat="45.585218" lon="11.1519409"><ele>491.50000000000006</ele><time>2026-04-12T08:03:10.569Z</time></trkpt><trkpt lat="45.5852932" lon="11.1519544"><ele>490.0</ele><time>2026-04-12T08:03:12.574Z</time></trkpt><trkpt lat="45.5853716" lon="11.1519712"><ele>490.00000000000006</ele><time>2026-04-12T08:03:14.568Z</time></trkpt><trkpt lat="45.5854508" lon="11.1519848"><ele>490.0</ele><time>2026-04-12T08:03:16.572Z</time></trkpt><trkpt lat="45.5855287" lon="11.1520112"><ele>490.0</ele><time>2026-04-12T08:03:18.577Z</time></trkpt><trkpt lat="45.585608" lon="11.1520389"><ele>490.0</ele><time>2026-04-12T08:03:20.592Z</time></trkpt><trkpt lat="45.5856781" lon="11.152067"><ele>490.00000000000006</ele><time>2026-04-12T08:03:22.571Z</time></trkpt><trkpt lat="45.5857473" lon="11.1520921"><ele>490.0</ele><time>2026-04-12T08:03:24.576Z</time></trkpt><trkpt lat="45.5858183" lon="11.1521138"><ele>490.00000000000006</ele><time>2026-04-12T08:03:26.574Z</time></trkpt><trkpt lat="45.5858956" lon="11.1521376"><ele>490.0</ele><time>2026-04-12T08:03:28.569Z</time></trkpt><trkpt lat="45.5859753" lon="11.1521675"><ele>490.0</ele><time>2026-04-12T08:03:30.572Z</time></trkpt><trkpt lat="45.5860556" lon="11.1521999"><ele>490.0</ele><time>2026-04-12T08:03:32.569Z</time></trkpt><trkpt lat="45.5861679" lon="11.1522603"><ele>490.00000000000006</ele><time>2026-04-12T08:03:35.573Z</time></trkpt><trkpt lat="45.5862425" lon="11.1523032"><ele>490.0</ele><time>2026-04-12T08:03:37.63Z</time></trkpt><trkpt lat="45.5863158" lon="11.1523432"><ele>490.50000000000006</ele><time>2026-04-12T08:03:39.572Z</time></trkpt><trkpt lat="45.5863944" lon="11.1523835"><ele>491.0</ele><time>2026-04-12T08:03:41.568Z</time></trkpt><trkpt lat="45.5864794" lon="11.1524174"><ele>491.5</ele><time>2026-04-12T08:03:43.638Z</time></trkpt><trkpt lat="45.5865548" lon="11.1524695"><ele>492.0</ele><time>2026-04-12T08:03:45.569Z</time></trkpt><trkpt lat="45.5866313" lon="11.1525068"><ele>492.50000000000006</ele><time>2026-04-12T08:03:47.575Z</time></trkpt><trkpt lat="45.5867136" lon="11.1525407"><ele>493.0</ele><time>2026-04-12T08:03:49.569Z</time></trkpt><trkpt lat="45.5867919" lon="11.1525824"><ele>493.00000000000006</ele><time>2026-04-12T08:03:51.569Z</time></trkpt><trkpt lat="45.586864" lon="11.1526229"><ele>493.0</ele><time>2026-04-12T08:03:53.578Z</time></trkpt><trkpt lat="45.5869375" lon="11.1526601"><ele>493.0</ele><time>2026-04-12T08:03:55.622Z</time></trkpt><trkpt lat="45.5870115" lon="11.1526902"><ele>493.0</ele><time>2026-04-12T08:03:57.576Z</time></trkpt><trkpt lat="45.5870856" lon="11.1527154"><ele>493.00000000000006</ele><time>2026-04-12T08:03:59.637Z</time></trkpt><trkpt lat="45.587161" lon="11.1527349"><ele>493.0</ele><time>2026-04-12T08:04:01.576Z</time></trkpt><trkpt lat="45.5872393" lon="11.1527615"><ele>492.50000000000006</ele><time>2026-04-12T08:04:03.616Z</time></trkpt><trkpt lat="45.587318" lon="11.1527899"><ele>492.0</ele><time>2026-04-12T08:04:05.616Z</time></trkpt><trkpt lat="45.5873953" lon="11.1528186"><ele>491.5</ele><time>2026-04-12T08:04:07.567Z</time></trkpt><trkpt lat="45.5874715" lon="11.1528353"><ele>491.0</ele><time>2026-04-12T08:04:09.574Z</time></trkpt><trkpt lat="45.5875559" lon="11.1528438"><ele>490.50000000000006</ele><time>2026-04-12T08:04:11.643Z</time></trkpt><trkpt lat="45.5876393" lon="11.1528503"><ele>490.0</ele><time>2026-04-12T08:04:13.577Z</time></trkpt><trkpt lat="45.5877196" lon="11.1528388"><ele>490.00000000000006</ele><time>2026-04-12T08:04:15.624Z</time></trkpt><trkpt lat="45.5878052" lon="11.1528339"><ele>490.0</ele><time>2026-04-12T08:04:17.575Z</time></trkpt><trkpt lat="45.58789" lon="11.1528305"><ele>490.0</ele><time>2026-04-12T08:04:19.574Z</time></trkpt><trkpt lat="45.5879715" lon="11.1528277"><ele>490.0</ele><time>2026-04-12T08:04:21.573Z</time></trkpt><trkpt lat="45.5880517" lon="11.1528177"><ele>490.00000000000006</ele><time>2026-04-12T08:04:23.578Z</time></trkpt><trkpt lat="45.5881333" lon="11.1528053"><ele>490.0</ele><time>2026-04-12T08:04:25.576Z</time></trkpt><trkpt lat="45.5882124" lon="11.1527862"><ele>490.6666666666667</ele><time>2026-04-12T08:04:27.576Z</time></trkpt><trkpt lat="45.5882864" lon="11.1527682"><ele>491.33333333333337</ele><time>2026-04-12T08:04:29.632Z</time></trkpt><trkpt lat="45.5883605" lon="11.1527525"><ele>492.0</ele><time>2026-04-12T08:04:31.568Z</time></trkpt><trkpt lat="45.5884389" lon="11.1527366"><ele>492.66666666666663</ele><time>2026-04-12T08:04:33.575Z</time></trkpt><trkpt lat="45.5885168" lon="11.1527244"><ele>493.3333333333333</ele><time>2026-04-12T08:04:35.58Z</time></trkpt><trkpt lat="45.5885938" lon="11.1527049"><ele>494.0</ele><time>2026-04-12T08:04:37.569Z</time></trkpt><trkpt lat="45.5886704" lon="11.1526823"><ele>494.49999999999994</ele><time>2026-04-12T08:04:39.573Z</time></trkpt><trkpt lat="45.5887505" lon="11.1526682"><ele>495.0</ele><time>2026-04-12T08:04:41.562Z</time></trkpt><trkpt lat="45.5888287" lon="11.1526525"><ele>495.5</ele><time>2026-04-12T08:04:43.588Z</time></trkpt><trkpt lat="45.588909" lon="11.1526327"><ele>496.0</ele><time>2026-04-12T08:04:45.575Z</time></trkpt><trkpt lat="45.5889881" lon="11.1526122"><ele>496.49999999999994</ele><time>2026-04-12T08:04:47.568Z</time></trkpt><trkpt lat="45.5890706" lon="11.1525951"><ele>497.0</ele><time>2026-04-12T08:04:49.632Z</time></trkpt><trkpt lat="45.5891515" lon="11.1525727"><ele>496.99999999999994</ele><time>2026-04-12T08:04:51.608Z</time></trkpt><trkpt lat="45.5892345" lon="11.1525465"><ele>497.0</ele><time>2026-04-12T08:04:53.579Z</time></trkpt><trkpt lat="45.5893162" lon="11.1525265"><ele>497.0</ele><time>2026-04-12T08:04:55.572Z</time></trkpt><trkpt lat="45.5893969" lon="11.152511"><ele>497.0</ele><time>2026-04-12T08:04:57.577Z</time></trkpt><trkpt lat="45.5894747" lon="11.1524954"><ele>496.99999999999994</ele><time>2026-04-12T08:04:59.578Z</time></trkpt><trkpt lat="45.5895516" lon="11.1524748"><ele>497.0</ele><time>2026-04-12T08:05:01.633Z</time></trkpt><trkpt lat="45.5896282" lon="11.1524573"><ele>496.99999999999994</ele><time>2026-04-12T08:05:03.588Z</time></trkpt><trkpt lat="45.5897083" lon="11.1524534"><ele>497.0</ele><time>2026-04-12T08:05:05.573Z</time></trkpt><trkpt lat="45.5897967" lon="11.1524362"><ele>497.0</ele><time>2026-04-12T08:05:08.586Z</time></trkpt><trkpt lat="45.5898815" lon="11.1524145"><ele>497.0</ele><time>2026-04-12T08:05:11.579Z</time></trkpt><trkpt lat="45.5899469" lon="11.1524089"><ele>496.99999999999994</ele><time>2026-04-12T08:05:13.581Z</time></trkpt><trkpt lat="45.5900123" lon="11.1523978"><ele>497.0</ele><time>2026-04-12T08:05:15.578Z</time></trkpt><trkpt lat="45.5900768" lon="11.1523858"><ele>496.99999999999994</ele><time>2026-04-12T08:05:17.583Z</time></trkpt><trkpt lat="45.590163" lon="11.1523756"><ele>497.0</ele><time>2026-04-12T08:05:20.57Z</time></trkpt><trkpt lat="45.5902525" lon="11.1523754"><ele>497.0</ele><time>2026-04-12T08:05:23.605Z</time></trkpt><trkpt lat="45.5903393" lon="11.1523701"><ele>497.0</ele><time>2026-04-12T08:05:26.568Z</time></trkpt><trkpt lat="45.5904259" lon="11.1523578"><ele>496.99999999999994</ele><time>2026-04-12T08:05:29.57Z</time></trkpt><trkpt lat="45.5905136" lon="11.1523243"><ele>497.0</ele><time>2026-04-12T08:05:32.571Z</time></trkpt><trkpt lat="45.5906053" lon="11.1523087"><ele>497.7142857142857</ele><time>2026-04-12T08:05:35.58Z</time></trkpt><trkpt lat="45.5906767" lon="11.1522981"><ele>498.42857142857144</ele><time>2026-04-12T08:05:37.563Z</time></trkpt><trkpt lat="45.5907537" lon="11.1522804"><ele>499.1428571428571</ele><time>2026-04-12T08:05:39.565Z</time></trkpt><trkpt lat="45.5908185" lon="11.1522581"><ele>499.85714285714283</ele><time>2026-04-12T08:05:41.552Z</time></trkpt><trkpt lat="45.5908877" lon="11.1522343"><ele>500.57142857142856</ele><time>2026-04-12T08:05:43.554Z</time></trkpt><trkpt lat="45.5909602" lon="11.152214"><ele>501.2857142857142</ele><time>2026-04-12T08:05:45.56Z</time></trkpt><trkpt lat="45.5910321" lon="11.152196"><ele>501.99999999999994</ele><time>2026-04-12T08:05:47.557Z</time></trkpt><trkpt lat="45.5911031" lon="11.1521741"><ele>501.99999999999994</ele><time>2026-04-12T08:05:49.562Z</time></trkpt><trkpt lat="45.5911725" lon="11.1521545"><ele>502.0</ele><time>2026-04-12T08:05:51.57Z</time></trkpt><trkpt lat="45.5912411" lon="11.1521425"><ele>501.99999999999994</ele><time>2026-04-12T08:05:53.568Z</time></trkpt><trkpt lat="45.5913096" lon="11.1521258"><ele>501.99999999999994</ele><time>2026-04-12T08:05:55.562Z</time></trkpt><trkpt lat="45.5913781" lon="11.1521037"><ele>502.0</ele><time>2026-04-12T08:05:57.569Z</time></trkpt><trkpt lat="45.5914475" lon="11.1520957"><ele>501.99999999999994</ele><time>2026-04-12T08:05:59.558Z</time></trkpt><trkpt lat="45.5915182" lon="11.1520791"><ele>501.99999999999994</ele><time>2026-04-12T08:06:01.571Z</time></trkpt><trkpt lat="45.5915904" lon="11.1520662"><ele>502.00000000000006</ele><time>2026-04-12T08:06:03.577Z</time></trkpt><trkpt lat="45.5916624" lon="11.1520517"><ele>502.0</ele><time>2026-04-12T08:06:05.568Z</time></trkpt><trkpt lat="45.5917367" lon="11.1520314"><ele>502.0</ele><time>2026-04-12T08:06:07.569Z</time></trkpt><trkpt lat="45.5918093" lon="11.1520126"><ele>502.0</ele><time>2026-04-12T08:06:09.563Z</time></trkpt><trkpt lat="45.5918866" lon="11.1519966"><ele>502.00000000000006</ele><time>2026-04-12T08:06:11.554Z</time></trkpt><trkpt lat="45.5919625" lon="11.1519886"><ele>502.0</ele><time>2026-04-12T08:06:13.558Z</time></trkpt><trkpt lat="45.5920359" lon="11.1519778"><ele>502.2857142857142</ele><time>2026-04-12T08:06:15.56Z</time></trkpt><trkpt lat="45.5921081" lon="11.1519543"><ele>502.57142857142856</ele><time>2026-04-12T08:06:17.653Z</time></trkpt><trkpt lat="45.5921827" lon="11.1519424"><ele>502.85714285714283</ele><time>2026-04-12T08:06:19.563Z</time></trkpt><trkpt lat="45.5922572" lon="11.151936"><ele>503.1428571428571</ele><time>2026-04-12T08:06:21.56Z</time></trkpt><trkpt lat="45.5923337" lon="11.1519263"><ele>503.42857142857144</ele><time>2026-04-12T08:06:23.618Z</time></trkpt><trkpt lat="45.5924036" lon="11.1519073"><ele>503.7142857142857</ele><time>2026-04-12T08:06:25.599Z</time></trkpt><trkpt lat="45.5924788" lon="11.1518968"><ele>504.0</ele><time>2026-04-12T08:06:27.615Z</time></trkpt><trkpt lat="45.5925498" lon="11.1518968"><ele>504.0</ele><time>2026-04-12T08:06:29.622Z</time></trkpt><trkpt lat="45.5926283" lon="11.1518788"><ele>504.0</ele><time>2026-04-12T08:06:31.622Z</time></trkpt><trkpt lat="45.5927035" lon="11.1518559"><ele>504.0</ele><time>2026-04-12T08:06:33.566Z</time></trkpt><trkpt lat="45.5927764" lon="11.1518497"><ele>504.0</ele><time>2026-04-12T08:06:35.566Z</time></trkpt><trkpt lat="45.5928484" lon="11.1518437"><ele>504.0</ele><time>2026-04-12T08:06:37.604Z</time></trkpt><trkpt lat="45.5929388" lon="11.151853"><ele>504.0</ele><time>2026-04-12T08:06:40.568Z</time></trkpt><trkpt lat="45.5930289" lon="11.1518497"><ele>504.2857142857143</ele><time>2026-04-12T08:06:43.62Z</time></trkpt><trkpt lat="45.5930966" lon="11.1518558"><ele>504.57142857142856</ele><time>2026-04-12T08:06:45.603Z</time></trkpt><trkpt lat="45.5931623" lon="11.1518715"><ele>504.8571428571429</ele><time>2026-04-12T08:06:47.593Z</time></trkpt><trkpt lat="45.5932275" lon="11.151876"><ele>505.14285714285717</ele><time>2026-04-12T08:06:49.586Z</time></trkpt><trkpt lat="45.593313" lon="11.1518745"><ele>505.42857142857144</ele><time>2026-04-12T08:06:52.56Z</time></trkpt><trkpt lat="45.5934049" lon="11.1518773"><ele>505.7142857142858</ele><time>2026-04-12T08:06:55.611Z</time></trkpt><trkpt lat="45.5934714" lon="11.1518737"><ele>506.00000000000006</ele><time>2026-04-12T08:06:58.564Z</time></trkpt><trkpt lat="45.5935424" lon="11.1518964"><ele>505.99999999999994</ele><time>2026-04-12T08:07:02.605Z</time></trkpt><trkpt lat="45.5936059" lon="11.1519186"><ele>506.0</ele><time>2026-04-12T08:07:06.627Z</time></trkpt><trkpt lat="45.5936765" lon="11.1518877"><ele>506.0</ele><time>2026-04-12T08:07:10.563Z</time></trkpt><trkpt lat="45.593773" lon="11.1518919"><ele>506.0</ele><time>2026-04-12T08:07:13.563Z</time></trkpt><trkpt lat="45.5938873" lon="11.1519002"><ele>505.99999999999994</ele><time>2026-04-12T08:07:16.566Z</time></trkpt><trkpt lat="45.59397" lon="11.151905"><ele>506.0</ele><time>2026-04-12T08:07:18.568Z</time></trkpt><trkpt lat="45.5940596" lon="11.1519038"><ele>506.49999999999994</ele><time>2026-04-12T08:07:20.57Z</time></trkpt><trkpt lat="45.5941877" lon="11.151913"><ele>507.0</ele><time>2026-04-12T08:07:23.56Z</time></trkpt><trkpt lat="45.5942878" lon="11.1519363"><ele>507.5</ele><time>2026-04-12T08:07:26.611Z</time></trkpt><trkpt lat="45.5943524" lon="11.1519435"><ele>508.0</ele><time>2026-04-12T08:07:28.56Z</time></trkpt><trkpt lat="45.5944184" lon="11.151939"><ele>508.49999999999994</ele><time>2026-04-12T08:07:30.561Z</time></trkpt><trkpt lat="45.5944819" lon="11.1519215"><ele>509.0</ele><time>2026-04-12T08:07:33.559Z</time></trkpt><trkpt lat="45.5945731" lon="11.1519087"><ele>509.49999999999994</ele><time>2026-04-12T08:07:36.617Z</time></trkpt><trkpt lat="45.59464" lon="11.1519015"><ele>510.0</ele><time>2026-04-12T08:07:39.562Z</time></trkpt><trkpt lat="45.5947296" lon="11.1519042"><ele>510.5</ele><time>2026-04-12T08:07:42.563Z</time></trkpt><trkpt lat="45.5948182" lon="11.151894"><ele>511.0</ele><time>2026-04-12T08:07:45.566Z</time></trkpt><trkpt lat="45.5948997" lon="11.1518967"><ele>511.49999999999994</ele><time>2026-04-12T08:07:48.565Z</time></trkpt><trkpt lat="45.5949728" lon="11.1519131"><ele>512.0</ele><time>2026-04-12T08:07:51.622Z</time></trkpt><trkpt lat="45.5950501" lon="11.1519244"><ele>511.99999999999994</ele><time>2026-04-12T08:07:54.57Z</time></trkpt><trkpt lat="45.5951269" lon="11.1519374"><ele>512.0</ele><time>2026-04-12T08:07:57.57Z</time></trkpt><trkpt lat="45.5952064" lon="11.1519583"><ele>512.0</ele><time>2026-04-12T08:08:00.576Z</time></trkpt><trkpt lat="45.5952545" lon="11.1520357"><ele>512.0</ele><time>2026-04-12T08:08:03.567Z</time></trkpt><trkpt lat="45.5952653" lon="11.1521495"><ele>511.99999999999994</ele><time>2026-04-12T08:08:06.562Z</time></trkpt><trkpt lat="45.595272" lon="11.1522433"><ele>512.0</ele><time>2026-04-12T08:08:08.563Z</time></trkpt><trkpt lat="45.5952539" lon="11.1523587"><ele>512.8333333333333</ele><time>2026-04-12T08:08:11.564Z</time></trkpt><trkpt lat="45.5952174" lon="11.1524655"><ele>513.6666666666666</ele><time>2026-04-12T08:08:14.575Z</time></trkpt><trkpt lat="45.5951758" lon="11.1525535"><ele>514.5</ele><time>2026-04-12T08:08:17.571Z</time></trkpt><trkpt lat="45.595142" lon="11.1526587"><ele>515.3333333333334</ele><time>2026-04-12T08:08:21.565Z</time></trkpt><trkpt lat="45.5951784" lon="11.1527544"><ele>516.1666666666667</ele><time>2026-04-12T08:08:24.563Z</time></trkpt><trkpt lat="45.5952419" lon="11.15277"><ele>517.0</ele><time>2026-04-12T08:08:27.6Z</time></trkpt><trkpt lat="45.5953176" lon="11.152771"><ele>518.0</ele><time>2026-04-12T08:08:31.564Z</time></trkpt><trkpt lat="45.5953761" lon="11.1527347"><ele>519.0</ele><time>2026-04-12T08:08:34.564Z</time></trkpt><trkpt lat="45.595439" lon="11.1527016"><ele>520.0</ele><time>2026-04-12T08:08:37.588Z</time></trkpt><trkpt lat="45.5955118" lon="11.1526674"><ele>521.0</ele><time>2026-04-12T08:08:40.567Z</time></trkpt><trkpt lat="45.5955734" lon="11.152631"><ele>522.0</ele><time>2026-04-12T08:08:43.591Z</time></trkpt><trkpt lat="45.5956424" lon="11.1525875"><ele>523.0</ele><time>2026-04-12T08:08:46.562Z</time></trkpt><trkpt lat="45.5957131" lon="11.1525558"><ele>524.0</ele><time>2026-04-12T08:08:50.559Z</time></trkpt><trkpt lat="45.5957792" lon="11.1525331"><ele>524.0</ele><time>2026-04-12T08:08:53.58Z</time></trkpt><trkpt lat="45.595845" lon="11.1525349"><ele>524.0</ele><time>2026-04-12T08:08:56.57Z</time></trkpt><trkpt lat="45.595928" lon="11.1525887"><ele>524.0</ele><time>2026-04-12T08:09:01.565Z</time></trkpt><trkpt lat="45.5959826" lon="11.1526719"><ele>524.0</ele><time>2026-04-12T08:09:05.56Z</time></trkpt><trkpt lat="45.5960059" lon="11.1527662"><ele>524.0</ele><time>2026-04-12T08:09:09.561Z</time></trkpt><trkpt lat="45.5960465" lon="11.152837"><ele>524.0</ele><time>2026-04-12T08:09:13.588Z</time></trkpt><trkpt lat="45.5960865" lon="11.1529198"><ele>524.0</ele><time>2026-04-12T08:09:17.562Z</time></trkpt><trkpt lat="45.5961168" lon="11.1530009"><ele>524.0</ele><time>2026-04-12T08:09:21.573Z</time></trkpt><trkpt lat="45.5961601" lon="11.1530777"><ele>524.0</ele><time>2026-04-12T08:09:25.564Z</time></trkpt><trkpt lat="45.5962371" lon="11.1531501"><ele>524.0</ele><time>2026-04-12T08:09:31.568Z</time></trkpt><trkpt lat="45.596298" lon="11.1532172"><ele>524.0</ele><time>2026-04-12T08:09:35.573Z</time></trkpt><trkpt lat="45.59635" lon="11.153271"><ele>524.0</ele><time>2026-04-12T08:09:38.589Z</time></trkpt><trkpt lat="45.5964054" lon="11.1533376"><ele>524.0</ele><time>2026-04-12T08:09:42.567Z</time></trkpt><trkpt lat="45.5964712" lon="11.1533854"><ele>524.0</ele><time>2026-04-12T08:09:47.567Z</time></trkpt><trkpt lat="45.5965432" lon="11.1534209"><ele>526.4285714285714</ele><time>2026-04-12T08:09:53.564Z</time></trkpt><trkpt lat="45.5965962" lon="11.1534825"><ele>528.8571428571429</ele><time>2026-04-12T08:09:57.594Z</time></trkpt><trkpt lat="45.5966528" lon="11.1535259"><ele>531.2857142857143</ele><time>2026-04-12T08:10:01.57Z</time></trkpt><trkpt lat="45.5967142" lon="11.1535693"><ele>533.7142857142858</ele><time>2026-04-12T08:10:05.575Z</time></trkpt><trkpt lat="45.5967752" lon="11.1536174"><ele>536.1428571428571</ele><time>2026-04-12T08:10:09.568Z</time></trkpt><trkpt lat="45.5968317" lon="11.1536614"><ele>538.5714285714287</ele><time>2026-04-12T08:10:13.56Z</time></trkpt><trkpt lat="45.5968812" lon="11.153717"><ele>541.0</ele><time>2026-04-12T08:10:17.566Z</time></trkpt><trkpt lat="45.5969279" lon="11.153779"><ele>541.0</ele><time>2026-04-12T08:10:21.563Z</time></trkpt><trkpt lat="45.5969803" lon="11.1538456"><ele>541.0</ele><time>2026-04-12T08:10:25.566Z</time></trkpt><trkpt lat="45.5970455" lon="11.1539198"><ele>541.0</ele><time>2026-04-12T08:10:29.562Z</time></trkpt><trkpt lat="45.5971035" lon="11.153973"><ele>541.0</ele><time>2026-04-12T08:10:32.663Z</time></trkpt><trkpt lat="45.5971669" lon="11.1540443"><ele>541.0</ele><time>2026-04-12T08:10:36.568Z</time></trkpt><trkpt lat="45.5972257" lon="11.1541084"><ele>541.0</ele><time>2026-04-12T08:10:41.568Z</time></trkpt><trkpt lat="45.5972805" lon="11.1541786"><ele>543.0000000000001</ele><time>2026-04-12T08:10:45.574Z</time></trkpt><trkpt lat="45.5973258" lon="11.1542487"><ele>545.0</ele><time>2026-04-12T08:10:49.572Z</time></trkpt><trkpt lat="45.5973819" lon="11.1543249"><ele>547.0</ele><time>2026-04-12T08:10:53.574Z</time></trkpt><trkpt lat="45.5974384" lon="11.154386"><ele>549.0</ele><time>2026-04-12T08:10:57.608Z</time></trkpt><trkpt lat="45.5974834" lon="11.1544751"><ele>551.0</ele><time>2026-04-12T08:11:01.575Z</time></trkpt><trkpt lat="45.5975351" lon="11.1545424"><ele>553.0000000000001</ele><time>2026-04-12T08:11:05.603Z</time></trkpt><trkpt lat="45.59759" lon="11.1546056"><ele>555.0</ele><time>2026-04-12T08:11:09.567Z</time></trkpt><trkpt lat="45.5976434" lon="11.1546788"><ele>555.0</ele><time>2026-04-12T08:11:13.567Z</time></trkpt><trkpt lat="45.597693" lon="11.1547503"><ele>555.0</ele><time>2026-04-12T08:11:17.577Z</time></trkpt><trkpt lat="45.5977436" lon="11.1548294"><ele>555.0</ele><time>2026-04-12T08:11:21.569Z</time></trkpt><trkpt lat="45.597791" lon="11.1548981"><ele>555.0</ele><time>2026-04-12T08:11:25.576Z</time></trkpt><trkpt lat="45.5978457" lon="11.1549793"><ele>555.0</ele><time>2026-04-12T08:11:29.576Z</time></trkpt><trkpt lat="45.5979053" lon="11.1550536"><ele>555.0</ele><time>2026-04-12T08:11:33.582Z</time></trkpt><trkpt lat="45.597963" lon="11.1551305"><ele>556.5714285714287</ele><time>2026-04-12T08:11:37.574Z</time></trkpt><trkpt lat="45.598011" lon="11.1551945"><ele>558.1428571428571</ele><time>2026-04-12T08:11:41.619Z</time></trkpt><trkpt lat="45.5980654" lon="11.1552696"><ele>559.7142857142858</ele><time>2026-04-12T08:11:45.623Z</time></trkpt><trkpt lat="45.5981237" lon="11.1553503"><ele>561.2857142857143</ele><time>2026-04-12T08:11:49.573Z</time></trkpt><trkpt lat="45.5981756" lon="11.1554192"><ele>562.8571428571429</ele><time>2026-04-12T08:11:52.57Z</time></trkpt><trkpt lat="45.5982397" lon="11.1554752"><ele>564.4285714285714</ele><time>2026-04-12T08:11:55.572Z</time></trkpt><trkpt lat="45.5982875" lon="11.1555423"><ele>566.0</ele><time>2026-04-12T08:11:59.603Z</time></trkpt><trkpt lat="45.5983317" lon="11.1556229"><ele>564.3333333333333</ele><time>2026-04-12T08:12:03.572Z</time></trkpt><trkpt lat="45.598366" lon="11.1557155"><ele>562.6666666666666</ele><time>2026-04-12T08:12:08.569Z</time></trkpt><trkpt lat="45.5983975" lon="11.1558011"><ele>561.0</ele><time>2026-04-12T08:12:13.573Z</time></trkpt><trkpt lat="45.5984334" lon="11.155897"><ele>559.3333333333334</ele><time>2026-04-12T08:12:18.586Z</time></trkpt><trkpt lat="45.5984765" lon="11.1559949"><ele>557.6666666666667</ele><time>2026-04-12T08:12:22.574Z</time></trkpt><trkpt lat="45.5985177" lon="11.156094"><ele>556.0</ele><time>2026-04-12T08:12:26.574Z</time></trkpt><trkpt lat="45.5985547" lon="11.1561915"><ele>556.0</ele><time>2026-04-12T08:12:30.567Z</time></trkpt><trkpt lat="45.5985636" lon="11.1562924"><ele>556.0</ele><time>2026-04-12T08:12:34.571Z</time></trkpt><trkpt lat="45.5985743" lon="11.1564154"><ele>556.0</ele><time>2026-04-12T08:12:39.575Z</time></trkpt><trkpt lat="45.5985774" lon="11.1565185"><ele>556.0</ele><time>2026-04-12T08:12:43.569Z</time></trkpt><trkpt lat="45.5985812" lon="11.1566245"><ele>556.0</ele><time>2026-04-12T08:12:47.565Z</time></trkpt><trkpt lat="45.5985965" lon="11.1567281"><ele>556.0</ele><time>2026-04-12T08:12:51.569Z</time></trkpt><trkpt lat="45.598593" lon="11.1568394"><ele>556.2857142857142</ele><time>2026-04-12T08:12:55.574Z</time></trkpt><trkpt lat="45.5986193" lon="11.1569356"><ele>556.5714285714286</ele><time>2026-04-12T08:12:59.611Z</time></trkpt><trkpt lat="45.5986375" lon="11.1570239"><ele>556.8571428571429</ele><time>2026-04-12T08:13:03.572Z</time></trkpt><trkpt lat="45.5986526" lon="11.157118"><ele>557.1428571428571</ele><time>2026-04-12T08:13:07.572Z</time></trkpt><trkpt lat="45.5986632" lon="11.1572256"><ele>557.4285714285714</ele><time>2026-04-12T08:13:11.575Z</time></trkpt><trkpt lat="45.5986762" lon="11.1573234"><ele>557.7142857142857</ele><time>2026-04-12T08:13:15.575Z</time></trkpt><trkpt lat="45.5986955" lon="11.1574288"><ele>558.0</ele><time>2026-04-12T08:13:19.571Z</time></trkpt><trkpt lat="45.5987062" lon="11.1575311"><ele>564.2857142857142</ele><time>2026-04-12T08:13:23.569Z</time></trkpt><trkpt lat="45.5987444" lon="11.1576213"><ele>570.5714285714286</ele><time>2026-04-12T08:13:27.573Z</time></trkpt><trkpt lat="45.5987841" lon="11.1576952"><ele>576.8571428571429</ele><time>2026-04-12T08:13:31.597Z</time></trkpt><trkpt lat="45.598819" lon="11.1577911"><ele>583.1428571428571</ele><time>2026-04-12T08:13:35.573Z</time></trkpt><trkpt lat="45.598854" lon="11.1578816"><ele>589.4285714285714</ele><time>2026-04-12T08:13:39.584Z</time></trkpt><trkpt lat="45.5988903" lon="11.1579687"><ele>595.7142857142857</ele><time>2026-04-12T08:13:43.575Z</time></trkpt><trkpt lat="45.598924" lon="11.1580553"><ele>602.0</ele><time>2026-04-12T08:13:47.572Z</time></trkpt><trkpt lat="45.5989568" lon="11.1581355"><ele>599.5</ele><time>2026-04-12T08:13:50.579Z</time></trkpt><trkpt lat="45.5990056" lon="11.1582187"><ele>597.0</ele><time>2026-04-12T08:13:54.611Z</time></trkpt><trkpt lat="45.5990712" lon="11.1582844"><ele>594.5</ele><time>2026-04-12T08:13:58.575Z</time></trkpt><trkpt lat="45.5991216" lon="11.1583545"><ele>592.0</ele><time>2026-04-12T08:14:02.594Z</time></trkpt><trkpt lat="45.5991721" lon="11.1584443"><ele>589.5</ele><time>2026-04-12T08:14:06.571Z</time></trkpt><trkpt lat="45.5992071" lon="11.1585356"><ele>587.0</ele><time>2026-04-12T08:14:10.581Z</time></trkpt><trkpt lat="45.5992528" lon="11.1586275"><ele>587.0</ele><time>2026-04-12T08:14:14.58Z</time></trkpt><trkpt lat="45.599314" lon="11.1587025"><ele>587.0</ele><time>2026-04-12T08:14:18.572Z</time></trkpt><trkpt lat="45.5993744" lon="11.1587577"><ele>587.0</ele><time>2026-04-12T08:14:21.576Z</time></trkpt><trkpt lat="45.5994302" lon="11.1588001"><ele>587.0</ele><time>2026-04-12T08:14:24.568Z</time></trkpt><trkpt lat="45.5994863" lon="11.1588652"><ele>587.0</ele><time>2026-04-12T08:14:28.573Z</time></trkpt><trkpt lat="45.5995469" lon="11.1589363"><ele>587.0</ele><time>2026-04-12T08:14:32.571Z</time></trkpt><trkpt lat="45.5996002" lon="11.1590205"><ele>587.0</ele><time>2026-04-12T08:14:36.577Z</time></trkpt><trkpt lat="45.5996455" lon="11.1590941"><ele>589.1428571428571</ele><time>2026-04-12T08:14:40.576Z</time></trkpt><trkpt lat="45.5997061" lon="11.1591593"><ele>591.2857142857143</ele><time>2026-04-12T08:14:43.58Z</time></trkpt><trkpt lat="45.599769" lon="11.1592061"><ele>593.4285714285714</ele><time>2026-04-12T08:14:46.561Z</time></trkpt><trkpt lat="45.5998337" lon="11.1592525"><ele>595.5714285714286</ele><time>2026-04-12T08:14:50.576Z</time></trkpt><trkpt lat="45.5999027" lon="11.1593056"><ele>597.7142857142858</ele><time>2026-04-12T08:14:54.57Z</time></trkpt><trkpt lat="45.5999495" lon="11.1593659"><ele>599.8571428571429</ele><time>2026-04-12T08:14:57.575Z</time></trkpt><trkpt lat="45.5999966" lon="11.1594434"><ele>602.0</ele><time>2026-04-12T08:15:00.574Z</time></trkpt><trkpt lat="45.6000588" lon="11.1595306"><ele>602.0</ele><time>2026-04-12T08:15:04.571Z</time></trkpt><trkpt lat="45.6001134" lon="11.1595774"><ele>602.0</ele><time>2026-04-12T08:15:07.576Z</time></trkpt><trkpt lat="45.600167" lon="11.1596602"><ele>602.0</ele><time>2026-04-12T08:15:10.579Z</time></trkpt><trkpt lat="45.600216" lon="11.1597317"><ele>602.0</ele><time>2026-04-12T08:15:13.58Z</time></trkpt><trkpt lat="45.600264" lon="11.1598179"><ele>602.0</ele><time>2026-04-12T08:15:17.669Z</time></trkpt><trkpt lat="45.6003073" lon="11.1599008"><ele>602.0</ele><time>2026-04-12T08:15:21.574Z</time></trkpt><trkpt lat="45.6003564" lon="11.1599931"><ele>602.0</ele><time>2026-04-12T08:15:25.568Z</time></trkpt><trkpt lat="45.6004116" lon="11.1600717"><ele>603.0</ele><time>2026-04-12T08:15:28.569Z</time></trkpt><trkpt lat="45.6004686" lon="11.160126"><ele>604.0</ele><time>2026-04-12T08:15:31.579Z</time></trkpt><trkpt lat="45.6005273" lon="11.1601686"><ele>605.0</ele><time>2026-04-12T08:15:34.628Z</time></trkpt><trkpt lat="45.6005896" lon="11.160206"><ele>606.0</ele><time>2026-04-12T08:15:37.578Z</time></trkpt><trkpt lat="45.6006509" lon="11.1602404"><ele>607.0</ele><time>2026-04-12T08:15:40.571Z</time></trkpt><trkpt lat="45.6007167" lon="11.1602648"><ele>608.0</ele><time>2026-04-12T08:15:43.576Z</time></trkpt><trkpt lat="45.6007769" lon="11.1603003"><ele>609.0</ele><time>2026-04-12T08:15:46.579Z</time></trkpt><trkpt lat="45.6008378" lon="11.160347"><ele>609.0</ele><time>2026-04-12T08:15:49.575Z</time></trkpt><trkpt lat="45.6008931" lon="11.1603931"><ele>609.0</ele><time>2026-04-12T08:15:52.575Z</time></trkpt><trkpt lat="45.6009498" lon="11.1604595"><ele>609.0</ele><time>2026-04-12T08:15:56.574Z</time></trkpt><trkpt lat="45.60102" lon="11.1605044"><ele>609.0</ele><time>2026-04-12T08:16:00.579Z</time></trkpt><trkpt lat="45.6010719" lon="11.1605625"><ele>609.0</ele><time>2026-04-12T08:16:03.581Z</time></trkpt><trkpt lat="45.6011212" lon="11.160645"><ele>609.0</ele><time>2026-04-12T08:16:07.581Z</time></trkpt><trkpt lat="45.6011677" lon="11.160746"><ele>609.0</ele><time>2026-04-12T08:16:12.574Z</time></trkpt><trkpt lat="45.601221" lon="11.1608109"><ele>610.8571428571429</ele><time>2026-04-12T08:16:16.612Z</time></trkpt><trkpt lat="45.6012714" lon="11.1608964"><ele>612.7142857142858</ele><time>2026-04-12T08:16:20.689Z</time></trkpt><trkpt lat="45.6013092" lon="11.1609786"><ele>614.5714285714286</ele><time>2026-04-12T08:16:23.617Z</time></trkpt><trkpt lat="45.6013415" lon="11.1610606"><ele>616.4285714285714</ele><time>2026-04-12T08:16:27.565Z</time></trkpt><trkpt lat="45.6013798" lon="11.1611432"><ele>618.2857142857143</ele><time>2026-04-12T08:16:30.583Z</time></trkpt><trkpt lat="45.601416" lon="11.1612215"><ele>620.1428571428571</ele><time>2026-04-12T08:16:33.574Z</time></trkpt><trkpt lat="45.6014705" lon="11.1612824"><ele>622.0</ele><time>2026-04-12T08:16:36.563Z</time></trkpt><trkpt lat="45.6015277" lon="11.1613385"><ele>622.0</ele><time>2026-04-12T08:16:40.572Z</time></trkpt><trkpt lat="45.6016027" lon="11.161384"><ele>622.0</ele><time>2026-04-12T08:16:44.568Z</time></trkpt><trkpt lat="45.6016701" lon="11.1614051"><ele>622.0</ele><time>2026-04-12T08:16:47.57Z</time></trkpt><trkpt lat="45.6017293" lon="11.1614391"><ele>622.0</ele><time>2026-04-12T08:16:50.586Z</time></trkpt><trkpt lat="45.6018008" lon="11.1614863"><ele>622.0</ele><time>2026-04-12T08:16:54.57Z</time></trkpt><trkpt lat="45.601868" lon="11.1615402"><ele>622.0</ele><time>2026-04-12T08:16:58.616Z</time></trkpt><trkpt lat="45.6019229" lon="11.1616075"><ele>622.0</ele><time>2026-04-12T08:17:02.634Z</time></trkpt><trkpt lat="45.6019562" lon="11.1616943"><ele>625.5</ele><time>2026-04-12T08:17:06.573Z</time></trkpt><trkpt lat="45.6019817" lon="11.1617833"><ele>629.0</ele><time>2026-04-12T08:17:10.572Z</time></trkpt><trkpt lat="45.6020074" lon="11.1618943"><ele>632.5</ele><time>2026-04-12T08:17:14.687Z</time></trkpt><trkpt lat="45.6020397" lon="11.1619856"><ele>636.0</ele><time>2026-04-12T08:17:18.577Z</time></trkpt><trkpt lat="45.6020644" lon="11.1620782"><ele>639.5</ele><time>2026-04-12T08:17:21.575Z</time></trkpt><trkpt lat="45.6020931" lon="11.1621883"><ele>643.0</ele><time>2026-04-12T08:17:25.578Z</time></trkpt><trkpt lat="45.6021011" lon="11.1622995"><ele>643.2857142857142</ele><time>2026-04-12T08:17:30.573Z</time></trkpt><trkpt lat="45.6020965" lon="11.1624132"><ele>643.5714285714287</ele><time>2026-04-12T08:17:34.68Z</time></trkpt><trkpt lat="45.6021123" lon="11.1625235"><ele>643.8571428571429</ele><time>2026-04-12T08:17:38.573Z</time></trkpt><trkpt lat="45.60212" lon="11.1626197"><ele>644.1428571428571</ele><time>2026-04-12T08:17:42.599Z</time></trkpt><trkpt lat="45.6021424" lon="11.1627152"><ele>644.4285714285713</ele><time>2026-04-12T08:17:45.572Z</time></trkpt><trkpt lat="45.6021669" lon="11.1628024"><ele>644.7142857142858</ele><time>2026-04-12T08:17:48.574Z</time></trkpt><trkpt lat="45.6021751" lon="11.1629028"><ele>645.0</ele><time>2026-04-12T08:17:52.57Z</time></trkpt><trkpt lat="45.602184" lon="11.1630124"><ele>645.0</ele><time>2026-04-12T08:17:57.576Z</time></trkpt><trkpt lat="45.6022106" lon="11.1631238"><ele>645.0</ele><time>2026-04-12T08:18:01.586Z</time></trkpt><trkpt lat="45.6022287" lon="11.1632164"><ele>645.0</ele><time>2026-04-12T08:18:05.686Z</time></trkpt><trkpt lat="45.602245" lon="11.163338"><ele>645.0</ele><time>2026-04-12T08:18:10.57Z</time></trkpt><trkpt lat="45.6022608" lon="11.1634555"><ele>645.0</ele><time>2026-04-12T08:18:14.59Z</time></trkpt><trkpt lat="45.6022769" lon="11.1635455"><ele>645.0</ele><time>2026-04-12T08:18:17.573Z</time></trkpt><trkpt lat="45.6022986" lon="11.1636505"><ele>643.5714285714286</ele><time>2026-04-12T08:18:22.563Z</time></trkpt><trkpt lat="45.602343" lon="11.1637423"><ele>642.1428571428571</ele><time>2026-04-12T08:18:26.579Z</time></trkpt><trkpt lat="45.6023874" lon="11.1638194"><ele>640.7142857142857</ele><time>2026-04-12T08:18:29.572Z</time></trkpt><trkpt lat="45.6024315" lon="11.1638899"><ele>639.2857142857142</ele><time>2026-04-12T08:18:32.571Z</time></trkpt><trkpt lat="45.6024799" lon="11.1639523"><ele>637.8571428571429</ele><time>2026-04-12T08:18:35.641Z</time></trkpt><trkpt lat="45.602521" lon="11.1640486"><ele>636.4285714285713</ele><time>2026-04-12T08:18:39.572Z</time></trkpt><trkpt lat="45.6025488" lon="11.164135"><ele>635.0</ele><time>2026-04-12T08:18:43.568Z</time></trkpt><trkpt lat="45.6025965" lon="11.1642023"><ele>633.7142857142857</ele><time>2026-04-12T08:18:47.584Z</time></trkpt><trkpt lat="45.6026451" lon="11.1642705"><ele>632.4285714285714</ele><time>2026-04-12T08:18:50.575Z</time></trkpt><trkpt lat="45.6026799" lon="11.1643795"><ele>631.1428571428571</ele><time>2026-04-12T08:18:54.575Z</time></trkpt><trkpt lat="45.6027251" lon="11.1644716"><ele>629.8571428571429</ele><time>2026-04-12T08:18:58.633Z</time></trkpt><trkpt lat="45.6027476" lon="11.1645698"><ele>628.5714285714286</ele><time>2026-04-12T08:19:02.584Z</time></trkpt><trkpt lat="45.6027445" lon="11.1646632"><ele>627.2857142857142</ele><time>2026-04-12T08:19:05.629Z</time></trkpt><trkpt lat="45.6027388" lon="11.1647626"><ele>626.0</ele><time>2026-04-12T08:19:08.583Z</time></trkpt><trkpt lat="45.602744" lon="11.1648661"><ele>625.0</ele><time>2026-04-12T08:19:11.577Z</time></trkpt><trkpt lat="45.6027447" lon="11.164981"><ele>624.0</ele><time>2026-04-12T08:19:15.567Z</time></trkpt><trkpt lat="45.6027405" lon="11.1650802"><ele>623.0</ele><time>2026-04-12T08:19:18.575Z</time></trkpt><trkpt lat="45.6027547" lon="11.1651926"><ele>622.0</ele><time>2026-04-12T08:19:23.561Z</time></trkpt><trkpt lat="45.602767" lon="11.1652891"><ele>621.0</ele><time>2026-04-12T08:21:31.419Z</time></trkpt><trkpt lat="45.6028" lon="11.1653695"><ele>620.0</ele><time>2026-04-12T08:21:38.6Z</time></trkpt><trkpt lat="45.6028606" lon="11.1654309"><ele>619.0</ele><time>2026-04-12T08:37:30.588Z</time></trkpt><trkpt lat="45.6028006" lon="11.1653762"><ele>619.0</ele><time>2026-04-12T08:38:13.613Z</time></trkpt><trkpt lat="45.6027659" lon="11.1652928"><ele>619.0</ele><time>2026-04-12T08:38:29.571Z</time></trkpt><trkpt lat="45.6027986" lon="11.1651815"><ele>619.0</ele><time>2026-04-12T08:38:33.595Z</time></trkpt><trkpt lat="45.6028387" lon="11.1651037"><ele>619.0</ele><time>2026-04-12T08:38:36.609Z</time></trkpt><trkpt lat="45.6028649" lon="11.1650203"><ele>619.0</ele><time>2026-04-12T08:38:39.641Z</time></trkpt><trkpt lat="45.6028796" lon="11.1649317"><ele>619.0</ele><time>2026-04-12T08:38:43.593Z</time></trkpt><trkpt lat="45.6029" lon="11.1648245"><ele>619.0</ele><time>2026-04-12T08:38:47.566Z</time></trkpt><trkpt lat="45.6028895" lon="11.1647296"><ele>620.1666666666667</ele><time>2026-04-12T08:38:51.672Z</time></trkpt><trkpt lat="45.6028512" lon="11.1646252"><ele>621.3333333333334</ele><time>2026-04-12T08:38:55.587Z</time></trkpt><trkpt lat="45.6028433" lon="11.1645133"><ele>622.5</ele><time>2026-04-12T08:38:59.618Z</time></trkpt><trkpt lat="45.6028492" lon="11.1644"><ele>623.6666666666666</ele><time>2026-04-12T08:39:03.611Z</time></trkpt><trkpt lat="45.6028271" lon="11.1643038"><ele>624.8333333333333</ele><time>2026-04-12T08:39:07.599Z</time></trkpt><trkpt lat="45.602805" lon="11.164202"><ele>626.0</ele><time>2026-04-12T08:39:11.603Z</time></trkpt><trkpt lat="45.6027713" lon="11.1641123"><ele>627.5</ele><time>2026-04-12T08:39:14.602Z</time></trkpt><trkpt lat="45.6027312" lon="11.1640205"><ele>629.0</ele><time>2026-04-12T08:39:17.592Z</time></trkpt><trkpt lat="45.6026814" lon="11.1639265"><ele>630.5</ele><time>2026-04-12T08:39:21.614Z</time></trkpt><trkpt lat="45.6026649" lon="11.1638388"><ele>632.0</ele><time>2026-04-12T08:39:27.599Z</time></trkpt><trkpt lat="45.6026249" lon="11.1637514"><ele>633.5</ele><time>2026-04-12T08:39:31.588Z</time></trkpt><trkpt lat="45.6026049" lon="11.1636419"><ele>635.0</ele><time>2026-04-12T08:39:35.582Z</time></trkpt><trkpt lat="45.6025972" lon="11.1635315"><ele>634.9999999999999</ele><time>2026-04-12T08:39:39.624Z</time></trkpt><trkpt lat="45.6026112" lon="11.1634161"><ele>635.0</ele><time>2026-04-12T08:39:43.612Z</time></trkpt><trkpt lat="45.6026192" lon="11.1633209"><ele>635.0</ele><time>2026-04-12T08:39:46.595Z</time></trkpt><trkpt lat="45.6026227" lon="11.16323"><ele>635.0</ele><time>2026-04-12T08:39:49.681Z</time></trkpt><trkpt lat="45.6026075" lon="11.1631351"><ele>635.0</ele><time>2026-04-12T08:39:53.619Z</time></trkpt><trkpt lat="45.6025921" lon="11.1630444"><ele>634.9999999999999</ele><time>2026-04-12T08:39:56.597Z</time></trkpt><trkpt lat="45.6025896" lon="11.162943"><ele>635.0</ele><time>2026-04-12T08:40:00.598Z</time></trkpt><trkpt lat="45.6026049" lon="11.1628248"><ele>636.4285714285713</ele><time>2026-04-12T08:40:04.608Z</time></trkpt><trkpt lat="45.6026236" lon="11.1627197"><ele>637.8571428571429</ele><time>2026-04-12T08:40:08.598Z</time></trkpt><trkpt lat="45.6026653" lon="11.1626404"><ele>639.2857142857142</ele><time>2026-04-12T08:40:12.596Z</time></trkpt><trkpt lat="45.6027032" lon="11.1627177"><ele>640.7142857142857</ele><time>2026-04-12T08:40:16.576Z</time></trkpt><trkpt lat="45.6026678" lon="11.162798"><ele>642.1428571428571</ele><time>2026-04-12T08:40:19.578Z</time></trkpt><trkpt lat="45.6026415" lon="11.1628821"><ele>643.5714285714286</ele><time>2026-04-12T08:40:22.587Z</time></trkpt><trkpt lat="45.6026354" lon="11.1629776"><ele>645.0</ele><time>2026-04-12T08:40:25.594Z</time></trkpt><trkpt lat="45.6026417" lon="11.1630928"><ele>643.3333333333334</ele><time>2026-04-12T08:40:29.604Z</time></trkpt><trkpt lat="45.6026521" lon="11.163198"><ele>641.6666666666666</ele><time>2026-04-12T08:40:33.562Z</time></trkpt><trkpt lat="45.6026563" lon="11.1633099"><ele>640.0</ele><time>2026-04-12T08:40:38.579Z</time></trkpt><trkpt lat="45.6026609" lon="11.1634094"><ele>638.3333333333333</ele><time>2026-04-12T08:40:42.582Z</time></trkpt><trkpt lat="45.6026669" lon="11.1635169"><ele>636.6666666666666</ele><time>2026-04-12T08:40:46.592Z</time></trkpt><trkpt lat="45.6026858" lon="11.1636159"><ele>635.0</ele><time>2026-04-12T08:40:50.6Z</time></trkpt><trkpt lat="45.6027341" lon="11.163709"><ele>635.0</ele><time>2026-04-12T08:40:54.627Z</time></trkpt><trkpt lat="45.6027814" lon="11.1637864"><ele>635.0</ele><time>2026-04-12T08:40:58.596Z</time></trkpt><trkpt lat="45.6028409" lon="11.1638657"><ele>635.0</ele><time>2026-04-12T08:41:02.572Z</time></trkpt><trkpt lat="45.6028993" lon="11.1639245"><ele>635.0</ele><time>2026-04-12T08:41:05.615Z</time></trkpt><trkpt lat="45.6029574" lon="11.1640038"><ele>635.0</ele><time>2026-04-12T08:41:09.623Z</time></trkpt><trkpt lat="45.6029994" lon="11.1640915"><ele>635.0</ele><time>2026-04-12T08:41:13.615Z</time></trkpt><trkpt lat="45.6030341" lon="11.1641891"><ele>640.9999999999999</ele><time>2026-04-12T08:41:17.628Z</time></trkpt><trkpt lat="45.6030697" lon="11.1642801"><ele>647.0</ele><time>2026-04-12T08:41:21.596Z</time></trkpt><trkpt lat="45.6030898" lon="11.164367"><ele>653.0</ele><time>2026-04-12T08:41:25.601Z</time></trkpt><trkpt lat="45.6031322" lon="11.1644524"><ele>659.0</ele><time>2026-04-12T08:41:30.599Z</time></trkpt><trkpt lat="45.6031705" lon="11.1645381"><ele>665.0</ele><time>2026-04-12T08:41:35.612Z</time></trkpt><trkpt lat="45.6032214" lon="11.16463"><ele>670.9999999999999</ele><time>2026-04-12T08:41:39.577Z</time></trkpt><trkpt lat="45.6032513" lon="11.1647099"><ele>677.0</ele><time>2026-04-12T08:41:42.579Z</time></trkpt><trkpt lat="45.6032773" lon="11.164807"><ele>675.4285714285713</ele><time>2026-04-12T08:41:45.635Z</time></trkpt><trkpt lat="45.6032832" lon="11.1649239"><ele>673.8571428571429</ele><time>2026-04-12T08:41:49.641Z</time></trkpt><trkpt lat="45.6032838" lon="11.1650314"><ele>672.2857142857142</ele><time>2026-04-12T08:41:53.61Z</time></trkpt><trkpt lat="45.6032566" lon="11.1651255"><ele>670.7142857142857</ele><time>2026-04-12T08:41:57.626Z</time></trkpt><trkpt lat="45.6032565" lon="11.1652206"><ele>669.1428571428571</ele><time>2026-04-12T08:42:01.623Z</time></trkpt><trkpt lat="45.6032913" lon="11.165314"><ele>667.5714285714286</ele><time>2026-04-12T08:42:05.608Z</time></trkpt><trkpt lat="45.6033403" lon="11.1653771"><ele>666.0</ele><time>2026-04-12T08:42:09.613Z</time></trkpt><trkpt lat="45.6034077" lon="11.1653829"><ele>666.0</ele><time>2026-04-12T08:42:13.635Z</time></trkpt><trkpt lat="45.6034457" lon="11.1652902"><ele>666.0</ele><time>2026-04-12T08:42:18.576Z</time></trkpt><trkpt lat="45.6034644" lon="11.165194"><ele>666.0</ele><time>2026-04-12T08:42:22.576Z</time></trkpt><trkpt lat="45.6034622" lon="11.1650767"><ele>666.0</ele><time>2026-04-12T08:42:26.581Z</time></trkpt><trkpt lat="45.6034659" lon="11.1649578"><ele>666.0</ele><time>2026-04-12T08:42:31.621Z</time></trkpt><trkpt lat="45.6034499" lon="11.1648506"><ele>666.0</ele><time>2026-04-12T08:42:35.619Z</time></trkpt><trkpt lat="45.6034336" lon="11.1647564"><ele>667.5714285714286</ele><time>2026-04-12T08:42:38.596Z</time></trkpt><trkpt lat="45.6034103" lon="11.1646658"><ele>669.1428571428571</ele><time>2026-04-12T08:42:42.602Z</time></trkpt><trkpt lat="45.6033995" lon="11.1645724"><ele>670.7142857142857</ele><time>2026-04-12T08:42:46.615Z</time></trkpt><trkpt lat="45.6034098" lon="11.1644735"><ele>672.2857142857142</ele><time>2026-04-12T08:42:49.607Z</time></trkpt><trkpt lat="45.6034204" lon="11.1643701"><ele>673.8571428571429</ele><time>2026-04-12T08:42:54.647Z</time></trkpt><trkpt lat="45.6034041" lon="11.1642662"><ele>675.4285714285713</ele><time>2026-04-12T08:42:58.572Z</time></trkpt><trkpt lat="45.6033896" lon="11.1641717"><ele>677.0</ele><time>2026-04-12T08:43:02.569Z</time></trkpt><trkpt lat="45.6033703" lon="11.1640822"><ele>680.4285714285713</ele><time>2026-04-12T08:43:06.594Z</time></trkpt><trkpt lat="45.6033454" lon="11.1639882"><ele>683.8571428571429</ele><time>2026-04-12T08:43:10.582Z</time></trkpt><trkpt lat="45.6033103" lon="11.1638995"><ele>687.2857142857142</ele><time>2026-04-12T08:43:14.597Z</time></trkpt><trkpt lat="45.6032617" lon="11.1638163"><ele>690.7142857142857</ele><time>2026-04-12T08:43:19.583Z</time></trkpt><trkpt lat="45.6032006" lon="11.1637516"><ele>694.1428571428571</ele><time>2026-04-12T08:43:24.643Z</time></trkpt><trkpt lat="45.6031463" lon="11.1636775"><ele>697.5714285714286</ele><time>2026-04-12T08:43:28.615Z</time></trkpt><trkpt lat="45.6030997" lon="11.1635887"><ele>701.0</ele><time>2026-04-12T08:43:32.625Z</time></trkpt><trkpt lat="45.6030764" lon="11.1634965"><ele>701.0</ele><time>2026-04-12T08:43:36.657Z</time></trkpt><trkpt lat="45.6030537" lon="11.1633993"><ele>701.0</ele><time>2026-04-12T08:43:40.63Z</time></trkpt><trkpt lat="45.6030913" lon="11.1633144"><ele>701.0</ele><time>2026-04-12T08:43:44.597Z</time></trkpt><trkpt lat="45.6031705" lon="11.16332"><ele>701.0</ele><time>2026-04-12T08:43:48.577Z</time></trkpt><trkpt lat="45.6032175" lon="11.1634138"><ele>701.0</ele><time>2026-04-12T08:43:52.589Z</time></trkpt><trkpt lat="45.6032635" lon="11.1634874"><ele>701.0</ele><time>2026-04-12T08:43:55.575Z</time></trkpt><trkpt lat="45.6033239" lon="11.1635586"><ele>701.0</ele><time>2026-04-12T08:43:59.605Z</time></trkpt><trkpt lat="45.603369" lon="11.1636233"><ele>701.0</ele><time>2026-04-12T08:44:03.601Z</time></trkpt><trkpt lat="45.6034116" lon="11.1637127"><ele>701.0</ele><time>2026-04-12T08:44:09.596Z</time></trkpt><trkpt lat="45.6034659" lon="11.1637849"><ele>701.0</ele><time>2026-04-12T08:44:13.584Z</time></trkpt><trkpt lat="45.6035053" lon="11.1638847"><ele>701.0</ele><time>2026-04-12T08:44:17.609Z</time></trkpt><trkpt lat="45.6035258" lon="11.1639709"><ele>701.0</ele><time>2026-04-12T08:44:20.619Z</time></trkpt><trkpt lat="45.603553" lon="11.1640724"><ele>701.0</ele><time>2026-04-12T08:44:24.609Z</time></trkpt><trkpt lat="45.6035798" lon="11.1641593"><ele>701.0</ele><time>2026-04-12T08:44:28.578Z</time></trkpt><trkpt lat="45.6035963" lon="11.1642616"><ele>704.1666666666666</ele><time>2026-04-12T08:44:33.575Z</time></trkpt><trkpt lat="45.6036491" lon="11.1643857"><ele>707.3333333333333</ele><time>2026-04-12T08:44:39.585Z</time></trkpt><trkpt lat="45.6036708" lon="11.1644767"><ele>710.5</ele><time>2026-04-12T08:44:43.589Z</time></trkpt><trkpt lat="45.6036921" lon="11.1645827"><ele>713.6666666666666</ele><time>2026-04-12T08:44:47.613Z</time></trkpt><trkpt lat="45.6037062" lon="11.1646825"><ele>716.8333333333334</ele><time>2026-04-12T08:44:51.593Z</time></trkpt><trkpt lat="45.6037018" lon="11.164785"><ele>720.0</ele><time>2026-04-12T08:44:55.634Z</time></trkpt><trkpt lat="45.6036963" lon="11.1649013"><ele>720.0</ele><time>2026-04-12T08:44:59.575Z</time></trkpt><trkpt lat="45.6037001" lon="11.1650028"><ele>720.0</ele><time>2026-04-12T08:45:03.607Z</time></trkpt><trkpt lat="45.6037217" lon="11.1651082"><ele>720.0</ele><time>2026-04-12T08:45:07.619Z</time></trkpt><trkpt lat="45.6037375" lon="11.1652005"><ele>720.0</ele><time>2026-04-12T08:45:10.605Z</time></trkpt><trkpt lat="45.603765" lon="11.1652846"><ele>720.0</ele><time>2026-04-12T08:45:13.605Z</time></trkpt><trkpt lat="45.603816" lon="11.1653585"><ele>720.0</ele><time>2026-04-12T08:45:17.603Z</time></trkpt><trkpt lat="45.6038709" lon="11.1654311"><ele>720.0</ele><time>2026-04-12T08:45:22.603Z</time></trkpt><trkpt lat="45.6039316" lon="11.1655018"><ele>720.0</ele><time>2026-04-12T08:45:26.577Z</time></trkpt><trkpt lat="45.603983" lon="11.1655731"><ele>720.0</ele><time>2026-04-12T08:45:30.6Z</time></trkpt><trkpt lat="45.6040261" lon="11.1656499"><ele>720.0</ele><time>2026-04-12T08:45:34.608Z</time></trkpt><trkpt lat="45.6040702" lon="11.1657297"><ele>720.0</ele><time>2026-04-12T08:45:38.589Z</time></trkpt><trkpt lat="45.6041033" lon="11.1658223"><ele>720.0</ele><time>2026-04-12T08:45:42.614Z</time></trkpt><trkpt lat="45.6041353" lon="11.1659194"><ele>720.0</ele><time>2026-04-12T08:45:46.614Z</time></trkpt><trkpt lat="45.6041576" lon="11.1660063"><ele>720.0</ele><time>2026-04-12T08:45:50.603Z</time></trkpt><trkpt lat="45.6041634" lon="11.1661064"><ele>718.2857142857142</ele><time>2026-04-12T08:45:54.624Z</time></trkpt><trkpt lat="45.6041928" lon="11.1661893"><ele>716.5714285714287</ele><time>2026-04-12T08:45:58.579Z</time></trkpt><trkpt lat="45.6042209" lon="11.1662925"><ele>714.8571428571429</ele><time>2026-04-12T08:46:02.633Z</time></trkpt><trkpt lat="45.6042526" lon="11.166373"><ele>713.1428571428571</ele><time>2026-04-12T08:46:06.622Z</time></trkpt><trkpt lat="45.6043038" lon="11.1664515"><ele>711.4285714285713</ele><time>2026-04-12T08:46:11.602Z</time></trkpt><trkpt lat="45.6043403" lon="11.1665413"><ele>709.7142857142858</ele><time>2026-04-12T08:46:15.599Z</time></trkpt><trkpt lat="45.6043756" lon="11.1666332"><ele>708.0</ele><time>2026-04-12T08:46:19.599Z</time></trkpt><trkpt lat="45.6044139" lon="11.1667286"><ele>706.1428571428572</ele><time>2026-04-12T08:46:23.603Z</time></trkpt><trkpt lat="45.6044706" lon="11.166805"><ele>704.2857142857142</ele><time>2026-04-12T08:46:27.621Z</time></trkpt><trkpt lat="45.6045194" lon="11.1668776"><ele>702.4285714285714</ele><time>2026-04-12T08:46:31.593Z</time></trkpt><trkpt lat="45.6045809" lon="11.1669351"><ele>700.5714285714287</ele><time>2026-04-12T08:46:35.59Z</time></trkpt><trkpt lat="45.6046411" lon="11.1670091"><ele>698.7142857142858</ele><time>2026-04-12T08:46:39.613Z</time></trkpt><trkpt lat="45.604683" lon="11.1671062"><ele>696.8571428571429</ele><time>2026-04-12T08:46:44.601Z</time></trkpt><trkpt lat="45.6047116" lon="11.1671919"><ele>695.0</ele><time>2026-04-12T08:46:48.603Z</time></trkpt><trkpt lat="45.6047571" lon="11.1672855"><ele>697.2857142857143</ele><time>2026-04-12T08:46:52.6Z</time></trkpt><trkpt lat="45.6048175" lon="11.1673475"><ele>699.5714285714286</ele><time>2026-04-12T08:46:56.611Z</time></trkpt><trkpt lat="45.6048929" lon="11.1673809"><ele>701.8571428571429</ele><time>2026-04-12T08:47:00.607Z</time></trkpt><trkpt lat="45.6049729" lon="11.1673917"><ele>704.1428571428571</ele><time>2026-04-12T08:47:04.599Z</time></trkpt><trkpt lat="45.6050409" lon="11.1674024"><ele>706.4285714285714</ele><time>2026-04-12T08:47:08.603Z</time></trkpt><trkpt lat="45.6051037" lon="11.1673903"><ele>708.7142857142858</ele><time>2026-04-12T08:47:11.575Z</time></trkpt><trkpt lat="45.6051835" lon="11.1673774"><ele>711.0</ele><time>2026-04-12T08:47:15.576Z</time></trkpt><trkpt lat="45.6052562" lon="11.1673388"><ele>716.4285714285714</ele><time>2026-04-12T08:47:19.578Z</time></trkpt><trkpt lat="45.6053331" lon="11.1672987"><ele>721.8571428571429</ele><time>2026-04-12T08:47:23.599Z</time></trkpt><trkpt lat="45.605396" lon="11.1672812"><ele>727.2857142857142</ele><time>2026-04-12T08:47:26.604Z</time></trkpt><trkpt lat="45.6054542" lon="11.1672449"><ele>732.7142857142858</ele><time>2026-04-12T08:47:29.607Z</time></trkpt><trkpt lat="45.6055249" lon="11.1672041"><ele>738.1428571428571</ele><time>2026-04-12T08:47:33.594Z</time></trkpt><trkpt lat="45.6055983" lon="11.1671694"><ele>743.5714285714286</ele><time>2026-04-12T08:47:37.574Z</time></trkpt><trkpt lat="45.6056706" lon="11.1671258"><ele>749.0</ele><time>2026-04-12T08:47:41.577Z</time></trkpt><trkpt lat="45.6057302" lon="11.1670743"><ele>749.0</ele><time>2026-04-12T08:47:45.599Z</time></trkpt><trkpt lat="45.6057986" lon="11.1670209"><ele>749.0</ele><time>2026-04-12T08:47:49.599Z</time></trkpt><trkpt lat="45.6058697" lon="11.1669593"><ele>749.0</ele><time>2026-04-12T08:47:53.584Z</time></trkpt><trkpt lat="45.6059256" lon="11.1668834"><ele>749.0</ele><time>2026-04-12T08:47:57.604Z</time></trkpt><trkpt lat="45.6059886" lon="11.1668132"><ele>749.0</ele><time>2026-04-12T08:48:01.623Z</time></trkpt><trkpt lat="45.6060564" lon="11.1667728"><ele>749.0</ele><time>2026-04-12T08:48:05.602Z</time></trkpt><trkpt lat="45.6061258" lon="11.1667136"><ele>750.1428571428571</ele><time>2026-04-12T08:48:09.59Z</time></trkpt><trkpt lat="45.6061947" lon="11.1666512"><ele>751.2857142857142</ele><time>2026-04-12T08:48:13.616Z</time></trkpt><trkpt lat="45.6062575" lon="11.1665993"><ele>752.4285714285714</ele><time>2026-04-12T08:48:17.605Z</time></trkpt><trkpt lat="45.6063185" lon="11.1665434"><ele>753.5714285714286</ele><time>2026-04-12T08:48:21.611Z</time></trkpt><trkpt lat="45.6063807" lon="11.1664925"><ele>754.7142857142857</ele><time>2026-04-12T08:48:25.605Z</time></trkpt><trkpt lat="45.6064394" lon="11.1664429"><ele>755.8571428571429</ele><time>2026-04-12T08:48:29.579Z</time></trkpt><trkpt lat="45.606497" lon="11.1663905"><ele>757.0</ele><time>2026-04-12T08:48:33.587Z</time></trkpt><trkpt lat="45.606548" lon="11.16633"><ele>757.0</ele><time>2026-04-12T08:48:37.597Z</time></trkpt><trkpt lat="45.606597" lon="11.1662405"><ele>757.0</ele><time>2026-04-12T08:48:41.579Z</time></trkpt><trkpt lat="45.6066513" lon="11.1661625"><ele>757.0</ele><time>2026-04-12T08:48:45.607Z</time></trkpt><trkpt lat="45.6067034" lon="11.1661031"><ele>757.0</ele><time>2026-04-12T08:48:49.608Z</time></trkpt><trkpt lat="45.6067629" lon="11.1660273"><ele>757.0</ele><time>2026-04-12T08:48:54.608Z</time></trkpt><trkpt lat="45.6068054" lon="11.1659575"><ele>757.0</ele><time>2026-04-12T08:48:58.609Z</time></trkpt><trkpt lat="45.6068343" lon="11.1658713"><ele>757.0</ele><time>2026-04-12T08:49:03.598Z</time></trkpt><trkpt lat="45.6068981" lon="11.1658745"><ele>757.0</ele><time>2026-04-12T08:49:07.607Z</time></trkpt><trkpt lat="45.6069617" lon="11.1659078"><ele>757.0</ele><time>2026-04-12T08:49:12.607Z</time></trkpt><trkpt lat="45.6069762" lon="11.1660052"><ele>757.0</ele><time>2026-04-12T08:49:17.597Z</time></trkpt><trkpt lat="45.6070041" lon="11.1660889"><ele>757.0</ele><time>2026-04-12T08:49:22.599Z</time></trkpt><trkpt lat="45.6070513" lon="11.166152"><ele>757.0</ele><time>2026-04-12T08:49:25.688Z</time></trkpt><trkpt lat="45.6071141" lon="11.1661813"><ele>757.0</ele><time>2026-04-12T08:49:28.606Z</time></trkpt><trkpt lat="45.6071836" lon="11.1662226"><ele>757.0</ele><time>2026-04-12T08:49:32.589Z</time></trkpt><trkpt lat="45.6072388" lon="11.1662676"><ele>758.7142857142858</ele><time>2026-04-12T08:49:36.604Z</time></trkpt><trkpt lat="45.6073051" lon="11.166305"><ele>760.4285714285713</ele><time>2026-04-12T08:49:41.592Z</time></trkpt><trkpt lat="45.607363" lon="11.1663621"><ele>762.1428571428571</ele><time>2026-04-12T08:49:46.602Z</time></trkpt><trkpt lat="45.6074348" lon="11.1664049"><ele>763.8571428571429</ele><time>2026-04-12T08:49:51.607Z</time></trkpt><trkpt lat="45.6075031" lon="11.1664481"><ele>765.5714285714287</ele><time>2026-04-12T08:49:55.616Z</time></trkpt><trkpt lat="45.6075735" lon="11.1664939"><ele>767.2857142857142</ele><time>2026-04-12T08:49:59.589Z</time></trkpt><trkpt lat="45.6076274" lon="11.1665405"><ele>769.0</ele><time>2026-04-12T08:50:04.599Z</time></trkpt><trkpt lat="45.607711" lon="11.1665311"><ele>769.2857142857142</ele><time>2026-04-12T08:50:07.603Z</time></trkpt><trkpt lat="45.6077797" lon="11.1665684"><ele>769.5714285714287</ele><time>2026-04-12T08:50:11.605Z</time></trkpt><trkpt lat="45.6078456" lon="11.1666213"><ele>769.8571428571429</ele><time>2026-04-12T08:50:15.577Z</time></trkpt><trkpt lat="45.607912" lon="11.1666809"><ele>770.1428571428571</ele><time>2026-04-12T08:50:19.616Z</time></trkpt><trkpt lat="45.6079678" lon="11.1667424"><ele>770.4285714285713</ele><time>2026-04-12T08:50:23.601Z</time></trkpt><trkpt lat="45.6080182" lon="11.1668031"><ele>770.7142857142858</ele><time>2026-04-12T08:50:27.578Z</time></trkpt><trkpt lat="45.608073" lon="11.1668489"><ele>771.0</ele><time>2026-04-12T08:50:31.593Z</time></trkpt><trkpt lat="45.6081339" lon="11.1669239"><ele>771.0</ele><time>2026-04-12T08:50:37.614Z</time></trkpt><trkpt lat="45.6081864" lon="11.1670163"><ele>771.0</ele><time>2026-04-12T08:50:43.564Z</time></trkpt><trkpt lat="45.6082527" lon="11.1670651"><ele>771.0</ele><time>2026-04-12T08:50:47.576Z</time></trkpt><trkpt lat="45.6083234" lon="11.167123"><ele>771.0</ele><time>2026-04-12T08:50:51.607Z</time></trkpt><trkpt lat="45.608365" lon="11.1672028"><ele>771.0</ele><time>2026-04-12T08:50:55.688Z</time></trkpt><trkpt lat="45.6083474" lon="11.1673031"><ele>771.0</ele><time>2026-04-12T08:50:59.592Z</time></trkpt><trkpt lat="45.6083034" lon="11.1673828"><ele>771.1428571428572</ele><time>2026-04-12T08:51:05.619Z</time></trkpt><trkpt lat="45.6082428" lon="11.1674358"><ele>771.2857142857142</ele><time>2026-04-12T08:51:10.602Z</time></trkpt><trkpt lat="45.6081874" lon="11.1674848"><ele>771.4285714285714</ele><time>2026-04-12T08:51:14.594Z</time></trkpt><trkpt lat="45.6081154" lon="11.1674982"><ele>771.5714285714287</ele><time>2026-04-12T08:51:18.608Z</time></trkpt><trkpt lat="45.6080437" lon="11.1675078"><ele>771.7142857142858</ele><time>2026-04-12T08:51:24.6Z</time></trkpt><trkpt lat="45.6079732" lon="11.1675512"><ele>771.8571428571429</ele><time>2026-04-12T08:51:29.611Z</time></trkpt><trkpt lat="45.607901" lon="11.1675875"><ele>772.0</ele><time>2026-04-12T08:51:33.617Z</time></trkpt><trkpt lat="45.6078273" lon="11.1676222"><ele>768.1428571428572</ele><time>2026-04-12T08:51:37.618Z</time></trkpt><trkpt lat="45.6077583" lon="11.1676701"><ele>764.2857142857143</ele><time>2026-04-12T08:51:41.616Z</time></trkpt><trkpt lat="45.6076945" lon="11.1677361"><ele>760.4285714285714</ele><time>2026-04-12T08:51:45.622Z</time></trkpt><trkpt lat="45.6076421" lon="11.1677873"><ele>756.5714285714287</ele><time>2026-04-12T08:51:48.58Z</time></trkpt><trkpt lat="45.6075805" lon="11.1678635"><ele>752.7142857142857</ele><time>2026-04-12T08:51:52.625Z</time></trkpt><trkpt lat="45.6075303" lon="11.1679268"><ele>748.8571428571429</ele><time>2026-04-12T08:51:55.566Z</time></trkpt><trkpt lat="45.6074808" lon="11.1679857"><ele>745.0</ele><time>2026-04-12T08:51:58.577Z</time></trkpt><trkpt lat="45.6074162" lon="11.1680601"><ele>745.0</ele><time>2026-04-12T08:52:02.593Z</time></trkpt><trkpt lat="45.6073517" lon="11.1681369"><ele>745.0</ele><time>2026-04-12T08:52:06.618Z</time></trkpt><trkpt lat="45.607305" lon="11.1681996"><ele>745.0</ele><time>2026-04-12T08:52:09.609Z</time></trkpt><trkpt lat="45.6072412" lon="11.1682717"><ele>745.0</ele><time>2026-04-12T08:52:13.581Z</time></trkpt><trkpt lat="45.6071772" lon="11.1683308"><ele>745.0</ele><time>2026-04-12T08:52:17.594Z</time></trkpt><trkpt lat="45.6071164" lon="11.1683935"><ele>745.0</ele><time>2026-04-12T08:52:21.617Z</time></trkpt><trkpt lat="45.6070693" lon="11.1684574"><ele>745.0</ele><time>2026-04-12T08:52:24.589Z</time></trkpt><trkpt lat="45.6070233" lon="11.168553"><ele>745.2857142857142</ele><time>2026-04-12T08:52:28.594Z</time></trkpt><trkpt lat="45.6069696" lon="11.1686365"><ele>745.5714285714286</ele><time>2026-04-12T08:52:32.599Z</time></trkpt><trkpt lat="45.606926" lon="11.1687293"><ele>745.8571428571429</ele><time>2026-04-12T08:52:35.593Z</time></trkpt><trkpt lat="45.6068922" lon="11.1688115"><ele>746.1428571428571</ele><time>2026-04-12T08:52:38.618Z</time></trkpt><trkpt lat="45.606852" lon="11.168882"><ele>746.4285714285714</ele><time>2026-04-12T08:52:42.603Z</time></trkpt><trkpt lat="45.6067864" lon="11.168962"><ele>746.7142857142857</ele><time>2026-04-12T08:52:46.584Z</time></trkpt><trkpt lat="45.6067296" lon="11.1690093"><ele>747.0</ele><time>2026-04-12T08:52:49.577Z</time></trkpt><trkpt lat="45.6066745" lon="11.1690573"><ele>752.1428571428571</ele><time>2026-04-12T08:52:52.608Z</time></trkpt><trkpt lat="45.6066216" lon="11.1691072"><ele>757.2857142857142</ele><time>2026-04-12T08:52:55.632Z</time></trkpt><trkpt lat="45.6065726" lon="11.1691735"><ele>762.4285714285713</ele><time>2026-04-12T08:52:59.588Z</time></trkpt><trkpt lat="45.6065186" lon="11.169253"><ele>767.5714285714286</ele><time>2026-04-12T08:53:06.598Z</time></trkpt><trkpt lat="45.6064631" lon="11.169311"><ele>772.7142857142858</ele><time>2026-04-12T08:53:10.615Z</time></trkpt><trkpt lat="45.6064197" lon="11.1693812"><ele>777.8571428571428</ele><time>2026-04-12T08:53:13.575Z</time></trkpt><trkpt lat="45.6063614" lon="11.1694659"><ele>783.0</ele><time>2026-04-12T08:53:17.594Z</time></trkpt><trkpt lat="45.6063067" lon="11.1695448"><ele>783.0</ele><time>2026-04-12T08:53:21.594Z</time></trkpt><trkpt lat="45.6062562" lon="11.169625"><ele>783.0</ele><time>2026-04-12T08:53:25.607Z</time></trkpt><trkpt lat="45.6062004" lon="11.1697064"><ele>783.0</ele><time>2026-04-12T08:53:30.584Z</time></trkpt><trkpt lat="45.6061608" lon="11.169786"><ele>783.0</ele><time>2026-04-12T08:53:34.619Z</time></trkpt><trkpt lat="45.6061292" lon="11.1698671"><ele>783.0</ele><time>2026-04-12T08:53:38.603Z</time></trkpt><trkpt lat="45.6061138" lon="11.1699676"><ele>783.0</ele><time>2026-04-12T08:53:42.581Z</time></trkpt><trkpt lat="45.6061126" lon="11.1700818"><ele>783.0</ele><time>2026-04-12T08:53:47.597Z</time></trkpt><trkpt lat="45.6061123" lon="11.1701771"><ele>781.8571428571428</ele><time>2026-04-12T08:53:51.609Z</time></trkpt><trkpt lat="45.606105" lon="11.1702712"><ele>780.7142857142858</ele><time>2026-04-12T08:53:55.578Z</time></trkpt><trkpt lat="45.6061061" lon="11.1703671"><ele>779.5714285714286</ele><time>2026-04-12T08:53:59.629Z</time></trkpt><trkpt lat="45.6061052" lon="11.1704651"><ele>778.4285714285713</ele><time>2026-04-12T08:54:03.634Z</time></trkpt><trkpt lat="45.6061034" lon="11.1705726"><ele>777.2857142857142</ele><time>2026-04-12T08:54:08.616Z</time></trkpt><trkpt lat="45.6061029" lon="11.1706671"><ele>776.1428571428571</ele><time>2026-04-12T08:54:12.6Z</time></trkpt><trkpt lat="45.6061045" lon="11.1707624"><ele>775.0</ele><time>2026-04-12T08:54:16.604Z</time></trkpt><trkpt lat="45.6061061" lon="11.1708632"><ele>774.9999999999999</ele><time>2026-04-12T08:54:21.628Z</time></trkpt><trkpt lat="45.6061185" lon="11.1709677"><ele>775.0</ele><time>2026-04-12T08:54:25.599Z</time></trkpt><trkpt lat="45.606112" lon="11.1710701"><ele>775.0</ele><time>2026-04-12T08:54:30.603Z</time></trkpt><trkpt lat="45.6061109" lon="11.1711773"><ele>775.0</ele><time>2026-04-12T08:54:34.58Z</time></trkpt><trkpt lat="45.606108" lon="11.1712952"><ele>775.0</ele><time>2026-04-12T08:54:39.585Z</time></trkpt><trkpt lat="45.6061064" lon="11.171389"><ele>774.9999999999999</ele><time>2026-04-12T08:54:43.581Z</time></trkpt><trkpt lat="45.6060983" lon="11.1714956"><ele>775.0</ele><time>2026-04-12T08:54:48.606Z</time></trkpt><trkpt lat="45.6061005" lon="11.1716023"><ele>775.9999999999999</ele><time>2026-04-12T08:54:52.586Z</time></trkpt><trkpt lat="45.6060945" lon="11.171697"><ele>777.0</ele><time>2026-04-12T08:54:56.605Z</time></trkpt><trkpt lat="45.6060908" lon="11.1717888"><ele>778.0</ele><time>2026-04-12T08:55:00.611Z</time></trkpt><trkpt lat="45.6060913" lon="11.1718833"><ele>779.0</ele><time>2026-04-12T08:55:04.576Z</time></trkpt><trkpt lat="45.6061394" lon="11.1719642"><ele>780.0</ele><time>2026-04-12T08:55:09.609Z</time></trkpt><trkpt lat="45.6061821" lon="11.1720436"><ele>780.9999999999999</ele><time>2026-04-12T08:55:13.609Z</time></trkpt><trkpt lat="45.6062334" lon="11.1721148"><ele>782.0</ele><time>2026-04-12T08:55:17.637Z</time></trkpt><trkpt lat="45.6062933" lon="11.1722052"><ele>789.0000000000001</ele><time>2026-04-12T08:55:21.597Z</time></trkpt><trkpt lat="45.6063227" lon="11.1723017"><ele>796.0</ele><time>2026-04-12T08:55:24.626Z</time></trkpt><trkpt lat="45.6063241" lon="11.1723963"><ele>803.0</ele><time>2026-04-12T08:55:28.58Z</time></trkpt><trkpt lat="45.6063104" lon="11.172485"><ele>810.0</ele><time>2026-04-12T08:55:32.602Z</time></trkpt><trkpt lat="45.6062981" lon="11.1726005"><ele>817.0000000000001</ele><time>2026-04-12T08:55:36.575Z</time></trkpt><trkpt lat="45.6062822" lon="11.172721"><ele>824.0</ele><time>2026-04-12T08:55:40.62Z</time></trkpt><trkpt lat="45.6062802" lon="11.1728361"><ele>823.9999999999999</ele><time>2026-04-12T08:55:44.575Z</time></trkpt><trkpt lat="45.6062657" lon="11.1729464"><ele>824.0</ele><time>2026-04-12T08:55:48.616Z</time></trkpt><trkpt lat="45.6062426" lon="11.1730533"><ele>824.0</ele><time>2026-04-12T08:55:52.599Z</time></trkpt><trkpt lat="45.6062273" lon="11.1731447"><ele>824.0</ele><time>2026-04-12T08:55:55.601Z</time></trkpt><trkpt lat="45.6062225" lon="11.1732528"><ele>824.0</ele><time>2026-04-12T08:55:59.614Z</time></trkpt><trkpt lat="45.6062085" lon="11.1733613"><ele>823.9999999999999</ele><time>2026-04-12T08:56:04.606Z</time></trkpt><trkpt lat="45.6062092" lon="11.173461"><ele>824.0</ele><time>2026-04-12T08:56:08.613Z</time></trkpt><trkpt lat="45.6062138" lon="11.1735599"><ele>824.2857142857142</ele><time>2026-04-12T08:56:13.597Z</time></trkpt><trkpt lat="45.6062339" lon="11.1736569"><ele>824.5714285714286</ele><time>2026-04-12T08:56:19.61Z</time></trkpt><trkpt lat="45.6062921" lon="11.1737032"><ele>824.8571428571429</ele><time>2026-04-12T08:56:24.587Z</time></trkpt><trkpt lat="45.6063549" lon="11.1736939"><ele>825.1428571428571</ele><time>2026-04-12T08:56:29.622Z</time></trkpt><trkpt lat="45.6063888" lon="11.173601"><ele>825.4285714285714</ele><time>2026-04-12T08:56:34.629Z</time></trkpt><trkpt lat="45.6063641" lon="11.1735008"><ele>825.7142857142857</ele><time>2026-04-12T08:56:39.632Z</time></trkpt><trkpt lat="45.6063698" lon="11.1733972"><ele>826.0</ele><time>2026-04-12T08:56:44.638Z</time></trkpt><trkpt lat="45.6063976" lon="11.1732953"><ele>826.0</ele><time>2026-04-12T08:56:48.671Z</time></trkpt><trkpt lat="45.6064411" lon="11.1732105"><ele>826.0</ele><time>2026-04-12T08:56:52.583Z</time></trkpt><trkpt lat="45.6064533" lon="11.1731001"><ele>826.0</ele><time>2026-04-12T08:56:57.613Z</time></trkpt><trkpt lat="45.6064782" lon="11.1730031"><ele>826.0</ele><time>2026-04-12T08:57:01.61Z</time></trkpt><trkpt lat="45.6064709" lon="11.1729033"><ele>826.0</ele><time>2026-04-12T08:57:06.627Z</time></trkpt><trkpt lat="45.6064771" lon="11.1728024"><ele>826.0</ele><time>2026-04-12T08:57:10.608Z</time></trkpt><trkpt lat="45.6065026" lon="11.1727032"><ele>826.0</ele><time>2026-04-12T08:57:14.581Z</time></trkpt><trkpt lat="45.6065135" lon="11.1725934"><ele>826.1428571428571</ele><time>2026-04-12T08:57:19.682Z</time></trkpt><trkpt lat="45.6065442" lon="11.1725105"><ele>826.2857142857142</ele><time>2026-04-12T08:57:22.617Z</time></trkpt><trkpt lat="45.606561" lon="11.1724222"><ele>826.4285714285714</ele><time>2026-04-12T08:57:25.576Z</time></trkpt><trkpt lat="45.6065643" lon="11.1723107"><ele>826.5714285714286</ele><time>2026-04-12T08:57:29.597Z</time></trkpt><trkpt lat="45.6066219" lon="11.1722575"><ele>826.7142857142857</ele><time>2026-04-12T08:57:34.602Z</time></trkpt><trkpt lat="45.6066204" lon="11.1723661"><ele>826.8571428571429</ele><time>2026-04-12T08:57:38.596Z</time></trkpt><trkpt lat="45.6065988" lon="11.1724628"><ele>827.0</ele><time>2026-04-12T08:57:41.596Z</time></trkpt><trkpt lat="45.6065901" lon="11.1725535"><ele>826.8571428571429</ele><time>2026-04-12T08:57:44.608Z</time></trkpt><trkpt lat="45.6065712" lon="11.1726438"><ele>826.7142857142857</ele><time>2026-04-12T08:57:47.611Z</time></trkpt><trkpt lat="45.6065643" lon="11.1727387"><ele>826.5714285714286</ele><time>2026-04-12T08:57:50.585Z</time></trkpt><trkpt lat="45.6065699" lon="11.1728365"><ele>826.4285714285714</ele><time>2026-04-12T08:57:53.628Z</time></trkpt><trkpt lat="45.606569" lon="11.1729513"><ele>826.2857142857142</ele><time>2026-04-12T08:57:57.672Z</time></trkpt><trkpt lat="45.6065792" lon="11.1730503"><ele>826.1428571428571</ele><time>2026-04-12T08:58:00.593Z</time></trkpt><trkpt lat="45.6065689" lon="11.1731625"><ele>826.0</ele><time>2026-04-12T08:58:04.603Z</time></trkpt><trkpt lat="45.6065686" lon="11.1732538"><ele>826.0</ele><time>2026-04-12T08:58:07.605Z</time></trkpt><trkpt lat="45.6065557" lon="11.1733442"><ele>826.0</ele><time>2026-04-12T08:58:11.624Z</time></trkpt><trkpt lat="45.6065455" lon="11.1734356"><ele>826.0</ele><time>2026-04-12T08:58:15.589Z</time></trkpt><trkpt lat="45.6065448" lon="11.1735424"><ele>826.0</ele><time>2026-04-12T08:58:20.597Z</time></trkpt><trkpt lat="45.6065764" lon="11.1736531"><ele>826.0</ele><time>2026-04-12T08:58:24.601Z</time></trkpt><trkpt lat="45.6065815" lon="11.173756"><ele>826.0</ele><time>2026-04-12T08:58:28.604Z</time></trkpt><trkpt lat="45.606547" lon="11.1738538"><ele>826.0</ele><time>2026-04-12T08:58:33.582Z</time></trkpt><trkpt lat="45.6065177" lon="11.1739476"><ele>826.4285714285714</ele><time>2026-04-12T08:58:38.625Z</time></trkpt><trkpt lat="45.6065066" lon="11.1740474"><ele>826.8571428571429</ele><time>2026-04-12T08:58:42.592Z</time></trkpt><trkpt lat="45.6065306" lon="11.1741339"><ele>827.2857142857142</ele><time>2026-04-12T08:58:46.614Z</time></trkpt><trkpt lat="45.606574" lon="11.1742052"><ele>827.7142857142858</ele><time>2026-04-12T08:58:50.601Z</time></trkpt><trkpt lat="45.6066334" lon="11.1742881"><ele>828.1428571428571</ele><time>2026-04-12T08:58:54.596Z</time></trkpt><trkpt lat="45.6066834" lon="11.1743492"><ele>828.5714285714286</ele><time>2026-04-12T08:58:57.601Z</time></trkpt><trkpt lat="45.6067387" lon="11.1744221"><ele>829.0</ele><time>2026-04-12T08:59:01.575Z</time></trkpt><trkpt lat="45.6068069" lon="11.1745016"><ele>829.0</ele><time>2026-04-12T08:59:05.576Z</time></trkpt><trkpt lat="45.606854" lon="11.1745681"><ele>829.0</ele><time>2026-04-12T08:59:08.6Z</time></trkpt><trkpt lat="45.6069098" lon="11.1746557"><ele>829.0</ele><time>2026-04-12T08:59:12.613Z</time></trkpt><trkpt lat="45.6069501" lon="11.1747294"><ele>829.0</ele><time>2026-04-12T08:59:15.608Z</time></trkpt><trkpt lat="45.6069826" lon="11.1748069"><ele>829.0</ele><time>2026-04-12T08:59:18.632Z</time></trkpt><trkpt lat="45.6070165" lon="11.1749084"><ele>829.0</ele><time>2026-04-12T08:59:22.601Z</time></trkpt><trkpt lat="45.607054" lon="11.1750003"><ele>829.0</ele><time>2026-04-12T08:59:26.708Z</time></trkpt><trkpt lat="45.6070841" lon="11.1750916"><ele>831.5714285714286</ele><time>2026-04-12T08:59:31.597Z</time></trkpt><trkpt lat="45.6071153" lon="11.1751866"><ele>834.1428571428571</ele><time>2026-04-12T08:59:37.622Z</time></trkpt><trkpt lat="45.607142" lon="11.1752859"><ele>836.7142857142858</ele><time>2026-04-12T08:59:41.631Z</time></trkpt><trkpt lat="45.6071797" lon="11.1753678"><ele>839.2857142857142</ele><time>2026-04-12T08:59:44.625Z</time></trkpt><trkpt lat="45.607197" lon="11.1754575"><ele>841.8571428571429</ele><time>2026-04-12T08:59:47.583Z</time></trkpt><trkpt lat="45.6072166" lon="11.1755584"><ele>844.4285714285714</ele><time>2026-04-12T08:59:52.593Z</time></trkpt><trkpt lat="45.6072298" lon="11.1756544"><ele>847.0</ele><time>2026-04-12T08:59:56.582Z</time></trkpt><trkpt lat="45.6072416" lon="11.1757454"><ele>847.0</ele><time>2026-04-12T08:59:59.588Z</time></trkpt><trkpt lat="45.6072579" lon="11.1758333"><ele>847.0</ele><time>2026-04-12T09:00:02.612Z</time></trkpt><trkpt lat="45.6072886" lon="11.1759294"><ele>847.0</ele><time>2026-04-12T09:00:07.598Z</time></trkpt><trkpt lat="45.6073175" lon="11.1760118"><ele>847.0</ele><time>2026-04-12T09:00:11.613Z</time></trkpt><trkpt lat="45.6073485" lon="11.1761108"><ele>847.0</ele><time>2026-04-12T09:00:15.61Z</time></trkpt><trkpt lat="45.6073893" lon="11.1762121"><ele>847.0</ele><time>2026-04-12T09:00:19.618Z</time></trkpt><trkpt lat="45.6074322" lon="11.1762971"><ele>847.0</ele><time>2026-04-12T09:00:23.609Z</time></trkpt><trkpt lat="45.6074783" lon="11.1763713"><ele>847.0</ele><time>2026-04-12T09:00:27.58Z</time></trkpt><trkpt lat="45.6075345" lon="11.1764419"><ele>847.0</ele><time>2026-04-12T09:00:31.575Z</time></trkpt><trkpt lat="45.6075944" lon="11.1765002"><ele>847.0</ele><time>2026-04-12T09:00:35.604Z</time></trkpt><trkpt lat="45.6076564" lon="11.1765563"><ele>847.0</ele><time>2026-04-12T09:00:39.594Z</time></trkpt><trkpt lat="45.6077238" lon="11.1765859"><ele>847.0</ele><time>2026-04-12T09:00:43.615Z</time></trkpt><trkpt lat="45.6077604" lon="11.1766651"><ele>847.0</ele><time>2026-04-12T09:00:47.579Z</time></trkpt><trkpt lat="45.6078137" lon="11.1767359"><ele>847.0</ele><time>2026-04-12T09:00:52.61Z</time></trkpt><trkpt lat="45.6078848" lon="11.1767579"><ele>848.4285714285714</ele><time>2026-04-12T09:00:56.577Z</time></trkpt><trkpt lat="45.6079357" lon="11.1768114"><ele>849.8571428571429</ele><time>2026-04-12T09:01:00.613Z</time></trkpt><trkpt lat="45.6079829" lon="11.1768754"><ele>851.2857142857142</ele><time>2026-04-12T09:01:04.59Z</time></trkpt><trkpt lat="45.608041" lon="11.1769155"><ele>852.7142857142858</ele><time>2026-04-12T09:01:09.609Z</time></trkpt><trkpt lat="45.6081101" lon="11.1769568"><ele>854.1428571428571</ele><time>2026-04-12T09:01:15.58Z</time></trkpt><trkpt lat="45.6081799" lon="11.1769746"><ele>855.5714285714286</ele><time>2026-04-12T09:01:20.568Z</time></trkpt><trkpt lat="45.608255" lon="11.176971"><ele>857.0</ele><time>2026-04-12T09:01:25.602Z</time></trkpt><trkpt lat="45.6083281" lon="11.1769368"><ele>857.0</ele><time>2026-04-12T09:01:31.578Z</time></trkpt><trkpt lat="45.6083742" lon="11.1768671"><ele>857.0</ele><time>2026-04-12T09:01:36.621Z</time></trkpt><trkpt lat="45.6084099" lon="11.1767698"><ele>857.0</ele><time>2026-04-12T09:01:41.597Z</time></trkpt><trkpt lat="45.6084022" lon="11.1766804"><ele>857.0</ele><time>2026-04-12T09:01:45.612Z</time></trkpt><trkpt lat="45.6083922" lon="11.1765721"><ele>857.0</ele><time>2026-04-12T09:01:49.622Z</time></trkpt><trkpt lat="45.6083978" lon="11.1764769"><ele>857.0</ele><time>2026-04-12T09:01:55.57Z</time></trkpt><trkpt lat="45.6083969" lon="11.1763726"><ele>857.0</ele><time>2026-04-12T09:01:59.614Z</time></trkpt><trkpt lat="45.6083833" lon="11.176281"><ele>857.7142857142857</ele><time>2026-04-12T09:02:03.578Z</time></trkpt><trkpt lat="45.6083689" lon="11.1761781"><ele>858.4285714285713</ele><time>2026-04-12T09:02:07.605Z</time></trkpt><trkpt lat="45.6083251" lon="11.1760834"><ele>859.1428571428571</ele><time>2026-04-12T09:02:12.574Z</time></trkpt><trkpt lat="45.6082809" lon="11.1759993"><ele>859.8571428571429</ele><time>2026-04-12T09:02:17.577Z</time></trkpt><trkpt lat="45.6082276" lon="11.17593"><ele>860.5714285714286</ele><time>2026-04-12T09:02:23.578Z</time></trkpt><trkpt lat="45.6081915" lon="11.1758517"><ele>861.2857142857143</ele><time>2026-04-12T09:02:28.612Z</time></trkpt><trkpt lat="45.6081522" lon="11.1757765"><ele>862.0</ele><time>2026-04-12T09:02:33.599Z</time></trkpt><trkpt lat="45.6081338" lon="11.1756748"><ele>864.0</ele><time>2026-04-12T09:02:37.613Z</time></trkpt><trkpt lat="45.6081916" lon="11.1756278"><ele>866.0</ele><time>2026-04-12T09:02:43.672Z</time></trkpt><trkpt lat="45.6082702" lon="11.1756217"><ele>868.0</ele><time>2026-04-12T09:02:48.616Z</time></trkpt><trkpt lat="45.6083321" lon="11.1756028"><ele>870.0</ele><time>2026-04-12T09:02:52.586Z</time></trkpt><trkpt lat="45.6084036" lon="11.1755955"><ele>872.0</ele><time>2026-04-12T09:02:57.584Z</time></trkpt><trkpt lat="45.6084872" lon="11.1755974"><ele>874.0</ele><time>2026-04-12T09:03:03.157Z</time></trkpt><trkpt lat="45.6085647" lon="11.1755813"><ele>876.0</ele><time>2026-04-12T09:03:07.61Z</time></trkpt><trkpt lat="45.6086313" lon="11.1755779"><ele>876.5714285714286</ele><time>2026-04-12T09:03:11.586Z</time></trkpt><trkpt lat="45.6086971" lon="11.1755812"><ele>877.1428571428571</ele><time>2026-04-12T09:03:15.582Z</time></trkpt><trkpt lat="45.6087616" lon="11.1756095"><ele>877.7142857142857</ele><time>2026-04-12T09:03:19.617Z</time></trkpt><trkpt lat="45.608804" lon="11.175689"><ele>878.2857142857142</ele><time>2026-04-12T09:03:23.609Z</time></trkpt><trkpt lat="45.6088391" lon="11.1757682"><ele>878.8571428571429</ele><time>2026-04-12T09:03:27.576Z</time></trkpt><trkpt lat="45.6088478" lon="11.1758577"><ele>879.4285714285713</ele><time>2026-04-12T09:03:32.599Z</time></trkpt><trkpt lat="45.6088514" lon="11.1759555"><ele>880.0</ele><time>2026-04-12T09:03:37.595Z</time></trkpt><trkpt lat="45.6088414" lon="11.1760454"><ele>879.9999999999999</ele><time>2026-04-12T09:03:41.617Z</time></trkpt><trkpt lat="45.6088226" lon="11.1761573"><ele>880.0</ele><time>2026-04-12T09:03:45.592Z</time></trkpt><trkpt lat="45.6088168" lon="11.1762698"><ele>880.0</ele><time>2026-04-12T09:03:49.58Z</time></trkpt><trkpt lat="45.6088152" lon="11.1763708"><ele>880.0</ele><time>2026-04-12T09:03:53.605Z</time></trkpt><trkpt lat="45.6088406" lon="11.1764538"><ele>880.0</ele><time>2026-04-12T09:03:57.601Z</time></trkpt><trkpt lat="45.6088626" lon="11.1765582"><ele>879.9999999999999</ele><time>2026-04-12T09:04:02.645Z</time></trkpt><trkpt lat="45.6088903" lon="11.176651"><ele>880.0</ele><time>2026-04-12T09:04:06.635Z</time></trkpt><trkpt lat="45.6089063" lon="11.1767483"><ele>880.4285714285713</ele><time>2026-04-12T09:04:10.595Z</time></trkpt><trkpt lat="45.6089151" lon="11.1768434"><ele>880.8571428571429</ele><time>2026-04-12T09:04:14.583Z</time></trkpt><trkpt lat="45.6089365" lon="11.1769322"><ele>881.2857142857142</ele><time>2026-04-12T09:04:18.616Z</time></trkpt><trkpt lat="45.6089551" lon="11.1770269"><ele>881.7142857142857</ele><time>2026-04-12T09:04:22.609Z</time></trkpt><trkpt lat="45.6089662" lon="11.1771322"><ele>882.1428571428571</ele><time>2026-04-12T09:04:27.581Z</time></trkpt><trkpt lat="45.6090282" lon="11.1771843"><ele>882.5714285714286</ele><time>2026-04-12T09:04:31.574Z</time></trkpt><trkpt lat="45.6090951" lon="11.1772186"><ele>883.0</ele><time>2026-04-12T09:04:34.574Z</time></trkpt><trkpt lat="45.6091508" lon="11.1772765"><ele>883.0</ele><time>2026-04-12T09:04:37.585Z</time></trkpt><trkpt lat="45.6092071" lon="11.1773214"><ele>883.0</ele><time>2026-04-12T09:04:40.584Z</time></trkpt><trkpt lat="45.609285" lon="11.1773688"><ele>883.0</ele><time>2026-04-12T09:04:44.574Z</time></trkpt><trkpt lat="45.6093591" lon="11.1774157"><ele>883.0</ele><time>2026-04-12T09:04:48.581Z</time></trkpt><trkpt lat="45.6094301" lon="11.1774514"><ele>883.0</ele><time>2026-04-12T09:04:52.579Z</time></trkpt><trkpt lat="45.6094932" lon="11.177486"><ele>883.0</ele><time>2026-04-12T09:04:55.58Z</time></trkpt><trkpt lat="45.6095655" lon="11.1775119"><ele>883.0</ele><time>2026-04-12T09:04:58.613Z</time></trkpt><trkpt lat="45.6096265" lon="11.1775579"><ele>886.1428571428571</ele><time>2026-04-12T09:05:01.609Z</time></trkpt><trkpt lat="45.6096921" lon="11.1776289"><ele>889.2857142857142</ele><time>2026-04-12T09:05:06.603Z</time></trkpt><trkpt lat="45.6097611" lon="11.1776543"><ele>892.4285714285713</ele><time>2026-04-12T09:05:11.57Z</time></trkpt><trkpt lat="45.609764" lon="11.1777824"><ele>895.5714285714286</ele><time>2026-04-12T09:09:45.568Z</time></trkpt><trkpt lat="45.6097986" lon="11.1777002"><ele>898.7142857142856</ele><time>2026-04-12T09:10:54.59Z</time></trkpt><trkpt lat="45.6097679" lon="11.1777946"><ele>901.8571428571428</ele><time>2026-04-12T09:11:38.576Z</time></trkpt><trkpt lat="45.6097889" lon="11.1778826"><ele>905.0</ele><time>2026-04-12T09:11:45.566Z</time></trkpt><trkpt lat="45.6098326" lon="11.1779561"><ele>905.0</ele><time>2026-04-12T09:11:53.573Z</time></trkpt><trkpt lat="45.6097703" lon="11.1779346"><ele>904.9999999999999</ele><time>2026-04-12T09:12:04.579Z</time></trkpt><trkpt lat="45.6097392" lon="11.1780162"><ele>905.0</ele><time>2026-04-12T09:12:07.585Z</time></trkpt><trkpt lat="45.6097057" lon="11.1781027"><ele>905.0</ele><time>2026-04-12T09:12:09.574Z</time></trkpt><trkpt lat="45.6096569" lon="11.1781678"><ele>904.9999999999999</ele><time>2026-04-12T09:12:11.575Z</time></trkpt><trkpt lat="45.6095807" lon="11.1782459"><ele>905.0</ele><time>2026-04-12T09:12:14.576Z</time></trkpt><trkpt lat="45.6094942" lon="11.1782753"><ele>905.0</ele><time>2026-04-12T09:12:17.581Z</time></trkpt><trkpt lat="45.6094108" lon="11.1783007"><ele>901.3333333333334</ele><time>2026-04-12T09:12:20.582Z</time></trkpt><trkpt lat="45.6093216" lon="11.1783432"><ele>897.6666666666667</ele><time>2026-04-12T09:12:23.577Z</time></trkpt><trkpt lat="45.6092439" lon="11.1783991"><ele>894.0</ele><time>2026-04-12T09:12:26.582Z</time></trkpt><trkpt lat="45.6091935" lon="11.1784816"><ele>890.3333333333333</ele><time>2026-04-12T09:12:29.587Z</time></trkpt><trkpt lat="45.6091761" lon="11.1785766"><ele>886.6666666666666</ele><time>2026-04-12T09:12:32.674Z</time></trkpt><trkpt lat="45.6092019" lon="11.178684"><ele>883.0</ele><time>2026-04-12T09:12:35.584Z</time></trkpt><trkpt lat="45.609249" lon="11.1787701"><ele>883.0</ele><time>2026-04-12T09:12:38.58Z</time></trkpt><trkpt lat="45.609292" lon="11.1788453"><ele>883.0</ele><time>2026-04-12T09:12:41.606Z</time></trkpt><trkpt lat="45.6093328" lon="11.1789232"><ele>883.0</ele><time>2026-04-12T09:12:44.62Z</time></trkpt><trkpt lat="45.6093674" lon="11.1790087"><ele>883.0</ele><time>2026-04-12T09:12:47.586Z</time></trkpt><trkpt lat="45.6093926" lon="11.1790927"><ele>883.0</ele><time>2026-04-12T09:12:50.582Z</time></trkpt><trkpt lat="45.6093839" lon="11.1791885"><ele>883.0</ele><time>2026-04-12T09:12:55.579Z</time></trkpt><trkpt lat="45.6093447" lon="11.1792688"><ele>883.0</ele><time>2026-04-12T09:13:00.581Z</time></trkpt><trkpt lat="45.6093032" lon="11.1793482"><ele>884.7142857142858</ele><time>2026-04-12T09:13:04.587Z</time></trkpt><trkpt lat="45.6092523" lon="11.1794347"><ele>886.4285714285713</ele><time>2026-04-12T09:13:09.618Z</time></trkpt><trkpt lat="45.6092013" lon="11.1794961"><ele>888.1428571428571</ele><time>2026-04-12T09:13:13.577Z</time></trkpt><trkpt lat="45.6091492" lon="11.1795719"><ele>889.8571428571429</ele><time>2026-04-12T09:13:17.577Z</time></trkpt><trkpt lat="45.6090975" lon="11.1796504"><ele>891.5714285714287</ele><time>2026-04-12T09:13:21.664Z</time></trkpt><trkpt lat="45.609053" lon="11.1797185"><ele>893.2857142857142</ele><time>2026-04-12T09:13:25.579Z</time></trkpt><trkpt lat="45.6089916" lon="11.1797638"><ele>895.0</ele><time>2026-04-12T09:13:29.584Z</time></trkpt><trkpt lat="45.6089284" lon="11.1798168"><ele>896.2857142857142</ele><time>2026-04-12T09:13:34.568Z</time></trkpt><trkpt lat="45.6088722" lon="11.1798763"><ele>897.5714285714287</ele><time>2026-04-12T09:13:39.576Z</time></trkpt><trkpt lat="45.608802" lon="11.1799088"><ele>898.8571428571429</ele><time>2026-04-12T09:13:44.583Z</time></trkpt><trkpt lat="45.6087359" lon="11.1798931"><ele>900.1428571428571</ele><time>2026-04-12T09:13:49.594Z</time></trkpt><trkpt lat="45.6086772" lon="11.179859"><ele>901.4285714285713</ele><time>2026-04-12T09:13:54.624Z</time></trkpt><trkpt lat="45.6086031" lon="11.1798527"><ele>902.7142857142858</ele><time>2026-04-12T09:13:59.578Z</time></trkpt><trkpt lat="45.6085287" lon="11.1798592"><ele>904.0</ele><time>2026-04-12T09:14:04.58Z</time></trkpt><trkpt lat="45.6084668" lon="11.1798769"><ele>904.4285714285714</ele><time>2026-04-12T09:14:08.58Z</time></trkpt><trkpt lat="45.6084011" lon="11.1798714"><ele>904.8571428571429</ele><time>2026-04-12T09:14:12.577Z</time></trkpt><trkpt lat="45.6083352" lon="11.1798967"><ele>905.2857142857143</ele><time>2026-04-12T09:14:16.59Z</time></trkpt><trkpt lat="45.6082635" lon="11.179923"><ele>905.7142857142858</ele><time>2026-04-12T09:14:21.579Z</time></trkpt><trkpt lat="45.6082021" lon="11.1799934"><ele>906.1428571428571</ele><time>2026-04-12T09:14:26.591Z</time></trkpt><trkpt lat="45.608265" lon="11.1800231"><ele>906.5714285714287</ele><time>2026-04-12T09:14:30.588Z</time></trkpt><trkpt lat="45.6083305" lon="11.1800169"><ele>907.0000000000001</ele><time>2026-04-12T09:14:33.582Z</time></trkpt><trkpt lat="45.6084012" lon="11.1800302"><ele>907.0000000000001</ele><time>2026-04-12T09:14:36.588Z</time></trkpt><trkpt lat="45.6084629" lon="11.1800645"><ele>907.0</ele><time>2026-04-12T09:14:39.588Z</time></trkpt><trkpt lat="45.6085216" lon="11.1801025"><ele>907.0000000000001</ele><time>2026-04-12T09:14:42.583Z</time></trkpt><trkpt lat="45.6085723" lon="11.1801645"><ele>907.0000000000001</ele><time>2026-04-12T09:14:45.624Z</time></trkpt><trkpt lat="45.6086275" lon="11.180252"><ele>907.0</ele><time>2026-04-12T09:14:49.582Z</time></trkpt><trkpt lat="45.6086569" lon="11.1803686"><ele>907.0000000000001</ele><time>2026-04-12T09:14:53.588Z</time></trkpt><trkpt lat="45.6086917" lon="11.1804567"><ele>907.0000000000001</ele><time>2026-04-12T09:14:56.584Z</time></trkpt><trkpt lat="45.6087293" lon="11.1805416"><ele>906.4999999999999</ele><time>2026-04-12T09:14:59.614Z</time></trkpt><trkpt lat="45.6087755" lon="11.1806279"><ele>906.0</ele><time>2026-04-12T09:15:02.58Z</time></trkpt><trkpt lat="45.6088403" lon="11.1806995"><ele>905.5</ele><time>2026-04-12T09:15:06.636Z</time></trkpt><trkpt lat="45.6089107" lon="11.1807517"><ele>905.0</ele><time>2026-04-12T09:15:10.583Z</time></trkpt><trkpt lat="45.6089868" lon="11.1807747"><ele>904.4999999999999</ele><time>2026-04-12T09:15:14.575Z</time></trkpt><trkpt lat="45.6090477" lon="11.1808206"><ele>904.0</ele><time>2026-04-12T09:15:17.585Z</time></trkpt><trkpt lat="45.6091202" lon="11.1808688"><ele>904.0</ele><time>2026-04-12T09:15:20.582Z</time></trkpt><trkpt lat="45.6091924" lon="11.1809089"><ele>904.0</ele><time>2026-04-12T09:15:23.582Z</time></trkpt><trkpt lat="45.6092651" lon="11.1809096"><ele>904.0</ele><time>2026-04-12T09:15:26.61Z</time></trkpt><trkpt lat="45.6093289" lon="11.1808779"><ele>904.0</ele><time>2026-04-12T09:15:29.586Z</time></trkpt><trkpt lat="45.6093899" lon="11.1808169"><ele>904.0</ele><time>2026-04-12T09:15:32.579Z</time></trkpt><trkpt lat="45.6094443" lon="11.1807432"><ele>904.0</ele><time>2026-04-12T09:15:35.579Z</time></trkpt><trkpt lat="45.6094902" lon="11.1806632"><ele>904.0</ele><time>2026-04-12T09:15:38.577Z</time></trkpt><trkpt lat="45.6095302" lon="11.1805567"><ele>906.1428571428571</ele><time>2026-04-12T09:15:42.584Z</time></trkpt><trkpt lat="45.6095632" lon="11.1804542"><ele>908.2857142857142</ele><time>2026-04-12T09:15:46.58Z</time></trkpt><trkpt lat="45.6096089" lon="11.1803575"><ele>910.4285714285713</ele><time>2026-04-12T09:15:50.585Z</time></trkpt><trkpt lat="45.6096483" lon="11.1802855"><ele>912.5714285714286</ele><time>2026-04-12T09:15:53.582Z</time></trkpt><trkpt lat="45.6097043" lon="11.1802053"><ele>914.7142857142856</ele><time>2026-04-12T09:15:57.58Z</time></trkpt><trkpt lat="45.6097791" lon="11.1801723"><ele>916.8571428571428</ele><time>2026-04-12T09:16:01.581Z</time></trkpt><trkpt lat="45.6098436" lon="11.1801869"><ele>919.0</ele><time>2026-04-12T09:16:04.585Z</time></trkpt><trkpt lat="45.6099063" lon="11.1802028"><ele>919.0</ele><time>2026-04-12T09:16:07.58Z</time></trkpt><trkpt lat="45.6099911" lon="11.180207"><ele>918.9999999999999</ele><time>2026-04-12T09:16:11.639Z</time></trkpt><trkpt lat="45.6100582" lon="11.1802052"><ele>919.0</ele><time>2026-04-12T09:16:14.579Z</time></trkpt><trkpt lat="45.6101264" lon="11.1801871"><ele>919.0</ele><time>2026-04-12T09:16:17.578Z</time></trkpt><trkpt lat="45.6101969" lon="11.1801771"><ele>918.9999999999999</ele><time>2026-04-12T09:16:20.695Z</time></trkpt><trkpt lat="45.610257" lon="11.1801322"><ele>919.0</ele><time>2026-04-12T09:16:23.583Z</time></trkpt><trkpt lat="45.6103006" lon="11.1800512"><ele>919.0</ele><time>2026-04-12T09:16:26.584Z</time></trkpt><trkpt lat="45.6103302" lon="11.1799669"><ele>918.4285714285713</ele><time>2026-04-12T09:16:29.579Z</time></trkpt><trkpt lat="45.610346" lon="11.1798756"><ele>917.8571428571428</ele><time>2026-04-12T09:16:32.591Z</time></trkpt><trkpt lat="45.6103481" lon="11.1797778"><ele>917.2857142857142</ele><time>2026-04-12T09:16:35.575Z</time></trkpt><trkpt lat="45.6103409" lon="11.1796872"><ele>916.7142857142858</ele><time>2026-04-12T09:16:38.575Z</time></trkpt><trkpt lat="45.6103266" lon="11.1795842"><ele>916.1428571428572</ele><time>2026-04-12T09:16:42.58Z</time></trkpt><trkpt lat="45.6103213" lon="11.1794888"><ele>915.5714285714287</ele><time>2026-04-12T09:16:45.577Z</time></trkpt><trkpt lat="45.610318" lon="11.1793855"><ele>915.0</ele><time>2026-04-12T09:16:49.588Z</time></trkpt><trkpt lat="45.6103657" lon="11.1792999"><ele>916.2857142857143</ele><time>2026-04-12T09:16:54.591Z</time></trkpt><trkpt lat="45.6104303" lon="11.1792866"><ele>917.5714285714287</ele><time>2026-04-12T09:16:59.568Z</time></trkpt><trkpt lat="45.6104978" lon="11.1793062"><ele>918.8571428571429</ele><time>2026-04-12T09:17:03.582Z</time></trkpt><trkpt lat="45.6105692" lon="11.179333"><ele>920.1428571428571</ele><time>2026-04-12T09:17:07.577Z</time></trkpt><trkpt lat="45.6106385" lon="11.1793601"><ele>921.4285714285714</ele><time>2026-04-12T09:17:11.613Z</time></trkpt><trkpt lat="45.6107136" lon="11.179378"><ele>922.7142857142858</ele><time>2026-04-12T09:17:15.603Z</time></trkpt><trkpt lat="45.6107877" lon="11.1794064"><ele>924.0</ele><time>2026-04-12T09:17:19.638Z</time></trkpt><trkpt lat="45.6108627" lon="11.1794302"><ele>924.0</ele><time>2026-04-12T09:17:23.624Z</time></trkpt><trkpt lat="45.6109374" lon="11.1794589"><ele>924.0</ele><time>2026-04-12T09:17:27.644Z</time></trkpt><trkpt lat="45.6110033" lon="11.1795258"><ele>924.0</ele><time>2026-04-12T09:17:31.57Z</time></trkpt><trkpt lat="45.6110595" lon="11.179605"><ele>924.0</ele><time>2026-04-12T09:17:35.638Z</time></trkpt><trkpt lat="45.6111052" lon="11.1796694"><ele>924.0</ele><time>2026-04-12T09:17:38.622Z</time></trkpt><trkpt lat="45.6111537" lon="11.1797459"><ele>924.0</ele><time>2026-04-12T09:17:41.637Z</time></trkpt><trkpt lat="45.6112123" lon="11.179811"><ele>924.0</ele><time>2026-04-12T09:17:45.577Z</time></trkpt><trkpt lat="45.6112791" lon="11.1798537"><ele>925.0</ele><time>2026-04-12T09:17:49.6Z</time></trkpt><trkpt lat="45.6113376" lon="11.1798909"><ele>926.0</ele><time>2026-04-12T09:17:52.597Z</time></trkpt><trkpt lat="45.6114068" lon="11.1799037"><ele>927.0</ele><time>2026-04-12T09:17:55.585Z</time></trkpt><trkpt lat="45.6114889" lon="11.1798883"><ele>928.0</ele><time>2026-04-12T09:17:59.599Z</time></trkpt><trkpt lat="45.6115567" lon="11.1798467"><ele>929.0</ele><time>2026-04-12T09:18:03.602Z</time></trkpt><trkpt lat="45.6116145" lon="11.1797974"><ele>930.0</ele><time>2026-04-12T09:18:07.606Z</time></trkpt><trkpt lat="45.611664" lon="11.1797372"><ele>931.0</ele><time>2026-04-12T09:18:11.628Z</time></trkpt><trkpt lat="45.6117233" lon="11.1796994"><ele>931.0</ele><time>2026-04-12T09:18:15.583Z</time></trkpt><trkpt lat="45.6117925" lon="11.1796645"><ele>931.0</ele><time>2026-04-12T09:18:19.601Z</time></trkpt><trkpt lat="45.6118649" lon="11.1796595"><ele>931.0</ele><time>2026-04-12T09:18:23.611Z</time></trkpt><trkpt lat="45.6119346" lon="11.1796501"><ele>931.0</ele><time>2026-04-12T09:18:26.603Z</time></trkpt><trkpt lat="45.6120006" lon="11.1796638"><ele>931.0</ele><time>2026-04-12T09:18:29.608Z</time></trkpt><trkpt lat="45.6120804" lon="11.1796922"><ele>931.0</ele><time>2026-04-12T09:18:33.58Z</time></trkpt><trkpt lat="45.612155" lon="11.1797219"><ele>931.0</ele><time>2026-04-12T09:18:37.603Z</time></trkpt><trkpt lat="45.6122213" lon="11.1797406"><ele>934.4999999999999</ele><time>2026-04-12T09:18:40.58Z</time></trkpt><trkpt lat="45.612286" lon="11.1797395"><ele>938.0</ele><time>2026-04-12T09:18:43.604Z</time></trkpt><trkpt lat="45.6123683" lon="11.17972"><ele>941.5</ele><time>2026-04-12T09:18:47.64Z</time></trkpt><trkpt lat="45.612445" lon="11.1796844"><ele>945.0</ele><time>2026-04-12T09:18:51.571Z</time></trkpt><trkpt lat="45.6125201" lon="11.1796604"><ele>948.4999999999999</ele><time>2026-04-12T09:18:55.592Z</time></trkpt><trkpt lat="45.6125847" lon="11.1796368"><ele>952.0</ele><time>2026-04-12T09:18:58.6Z</time></trkpt><trkpt lat="45.6126652" lon="11.1796096"><ele>951.9999999999999</ele><time>2026-04-12T09:19:02.62Z</time></trkpt><trkpt lat="45.6127466" lon="11.1795902"><ele>952.0</ele><time>2026-04-12T09:19:07.429Z</time></trkpt><trkpt lat="45.6128225" lon="11.1795663"><ele>952.0</ele><time>2026-04-12T09:19:10.599Z</time></trkpt><trkpt lat="45.6129044" lon="11.1795479"><ele>952.0</ele><time>2026-04-12T09:19:14.583Z</time></trkpt><trkpt lat="45.6129798" lon="11.1795125"><ele>951.9999999999999</ele><time>2026-04-12T09:19:18.594Z</time></trkpt><trkpt lat="45.6130473" lon="11.1794685"><ele>952.0</ele><time>2026-04-12T09:19:22.618Z</time></trkpt><trkpt lat="45.6131123" lon="11.179418"><ele>951.9999999999999</ele><time>2026-04-12T09:19:26.606Z</time></trkpt><trkpt lat="45.6131716" lon="11.1793697"><ele>952.0</ele><time>2026-04-12T09:19:30.617Z</time></trkpt><trkpt lat="45.61324" lon="11.1793291"><ele>952.0</ele><time>2026-04-12T09:19:35.6Z</time></trkpt><trkpt lat="45.6133083" lon="11.179306"><ele>952.0</ele><time>2026-04-12T09:19:37.638Z</time></trkpt><trkpt lat="45.6134014" lon="11.179249"><ele>951.9999999999999</ele><time>2026-04-12T09:19:39.593Z</time></trkpt><trkpt lat="45.6134608" lon="11.1791394"><ele>952.0</ele><time>2026-04-12T09:19:42.571Z</time></trkpt><trkpt lat="45.6135023" lon="11.1790522"><ele>953.8333333333333</ele><time>2026-04-12T09:19:43.569Z</time></trkpt><trkpt lat="45.6135144" lon="11.1789636"><ele>955.6666666666666</ele><time>2026-04-12T09:19:44.579Z</time></trkpt><trkpt lat="45.6135187" lon="11.1788459"><ele>957.5</ele><time>2026-04-12T09:19:45.609Z</time></trkpt><trkpt lat="45.6135313" lon="11.1787112"><ele>959.3333333333333</ele><time>2026-04-12T09:19:46.604Z</time></trkpt><trkpt lat="45.6135383" lon="11.1785882"><ele>961.1666666666666</ele><time>2026-04-12T09:19:47.6Z</time></trkpt><trkpt lat="45.6135622" lon="11.1784684"><ele>963.0</ele><time>2026-04-12T09:19:48.603Z</time></trkpt><trkpt lat="45.6135758" lon="11.1783358"><ele>963.0</ele><time>2026-04-12T09:19:49.608Z</time></trkpt><trkpt lat="45.6135856" lon="11.1782174"><ele>963.0</ele><time>2026-04-12T09:19:50.607Z</time></trkpt><trkpt lat="45.6136164" lon="11.1781207"><ele>963.0</ele><time>2026-04-12T09:19:51.612Z</time></trkpt><trkpt lat="45.6136716" lon="11.1780589"><ele>963.0</ele><time>2026-04-12T09:19:52.6Z</time></trkpt><trkpt lat="45.6137469" lon="11.1780128"><ele>963.0</ele><time>2026-04-12T09:19:53.695Z</time></trkpt><trkpt lat="45.6138194" lon="11.1779616"><ele>963.0</ele><time>2026-04-12T09:19:54.605Z</time></trkpt><trkpt lat="45.6139104" lon="11.1779169"><ele>959.6666666666666</ele><time>2026-04-12T09:19:55.588Z</time></trkpt><trkpt lat="45.6139837" lon="11.1778744"><ele>956.3333333333333</ele><time>2026-04-12T09:19:56.587Z</time></trkpt><trkpt lat="45.6140618" lon="11.1778315"><ele>953.0</ele><time>2026-04-12T09:19:57.582Z</time></trkpt><trkpt lat="45.6141217" lon="11.1777513"><ele>949.6666666666666</ele><time>2026-04-12T09:20:00.577Z</time></trkpt><trkpt lat="45.6141601" lon="11.1776621"><ele>946.3333333333333</ele><time>2026-04-12T09:20:01.58Z</time></trkpt><trkpt lat="45.6142303" lon="11.177516"><ele>943.0</ele><time>2026-04-12T09:20:03.573Z</time></trkpt><trkpt lat="45.6142836" lon="11.1774014"><ele>943.8333333333333</ele><time>2026-04-12T09:20:05.579Z</time></trkpt><trkpt lat="45.6143685" lon="11.1773015"><ele>944.6666666666666</ele><time>2026-04-12T09:20:07.579Z</time></trkpt><trkpt lat="45.6144673" lon="11.1772831"><ele>945.5</ele><time>2026-04-12T09:20:09.646Z</time></trkpt><trkpt lat="45.6145305" lon="11.1772942"><ele>946.3333333333333</ele><time>2026-04-12T09:20:10.59Z</time></trkpt><trkpt lat="45.6145929" lon="11.1773069"><ele>947.1666666666666</ele><time>2026-04-12T09:20:11.652Z</time></trkpt><trkpt lat="45.6146815" lon="11.1772486"><ele>948.0</ele><time>2026-04-12T09:20:13.607Z</time></trkpt><trkpt lat="45.6147812" lon="11.1771577"><ele>948.0</ele><time>2026-04-12T09:20:15.565Z</time></trkpt><trkpt lat="45.614842" lon="11.1771203"><ele>948.0</ele><time>2026-04-12T09:20:16.581Z</time></trkpt><trkpt lat="45.6149498" lon="11.1770398"><ele>948.0</ele><time>2026-04-12T09:20:18.578Z</time></trkpt><trkpt lat="45.6150926" lon="11.177014"><ele>948.0</ele><time>2026-04-12T09:20:20.635Z</time></trkpt><trkpt lat="45.6151737" lon="11.1770182"><ele>948.0</ele><time>2026-04-12T09:20:21.702Z</time></trkpt><trkpt lat="45.6153136" lon="11.1770873"><ele>943.5</ele><time>2026-04-12T09:20:23.596Z</time></trkpt><trkpt lat="45.6154108" lon="11.1771402"><ele>939.0</ele><time>2026-04-12T09:20:25.598Z</time></trkpt><trkpt lat="45.6154747" lon="11.1771856"><ele>934.5</ele><time>2026-04-12T09:20:27.624Z</time></trkpt><trkpt lat="45.6155447" lon="11.1771857"><ele>930.0</ele><time>2026-04-12T09:20:52.584Z</time></trkpt><trkpt lat="45.6156323" lon="11.1771533"><ele>925.5</ele><time>2026-04-12T09:20:56.58Z</time></trkpt><trkpt lat="45.6156958" lon="11.1770894"><ele>921.0</ele><time>2026-04-12T09:20:58.625Z</time></trkpt><trkpt lat="45.6157512" lon="11.1769979"><ele>921.0</ele><time>2026-04-12T09:21:00.597Z</time></trkpt><trkpt lat="45.6157897" lon="11.1768678"><ele>921.0</ele><time>2026-04-12T09:21:02.622Z</time></trkpt><trkpt lat="45.615815" lon="11.1767671"><ele>921.0</ele><time>2026-04-12T09:21:03.611Z</time></trkpt><trkpt lat="45.6158399" lon="11.1766567"><ele>921.0</ele><time>2026-04-12T09:21:05.596Z</time></trkpt><trkpt lat="45.6158899" lon="11.1765616"><ele>921.0</ele><time>2026-04-12T09:21:07.617Z</time></trkpt><trkpt lat="45.6159336" lon="11.1764727"><ele>921.0</ele><time>2026-04-12T09:21:10.581Z</time></trkpt><trkpt lat="45.6159935" lon="11.1764123"><ele>924.1666666666666</ele><time>2026-04-12T09:21:13.621Z</time></trkpt><trkpt lat="45.6160695" lon="11.1763849"><ele>927.3333333333333</ele><time>2026-04-12T09:21:17.577Z</time></trkpt><trkpt lat="45.6161314" lon="11.1763348"><ele>930.5</ele><time>2026-04-12T09:21:21.624Z</time></trkpt><trkpt lat="45.6161905" lon="11.1762722"><ele>933.6666666666666</ele><time>2026-04-12T09:21:24.635Z</time></trkpt><trkpt lat="45.6162567" lon="11.1762321"><ele>936.8333333333333</ele><time>2026-04-12T09:21:27.606Z</time></trkpt><trkpt lat="45.6163532" lon="11.1762186"><ele>940.0</ele><time>2026-04-12T09:21:30.608Z</time></trkpt><trkpt lat="45.6164205" lon="11.1762189"><ele>940.0</ele><time>2026-04-12T09:21:32.624Z</time></trkpt><trkpt lat="45.6165039" lon="11.1762058"><ele>939.9999999999999</ele><time>2026-04-12T09:21:35.614Z</time></trkpt><trkpt lat="45.6165822" lon="11.1762049"><ele>940.0</ele><time>2026-04-12T09:21:39.579Z</time></trkpt><trkpt lat="45.6166409" lon="11.1761698"><ele>940.0</ele><time>2026-04-12T09:21:42.583Z</time></trkpt><trkpt lat="45.6167224" lon="11.1761735"><ele>939.9999999999999</ele><time>2026-04-12T09:21:46.617Z</time></trkpt><trkpt lat="45.6167935" lon="11.176201"><ele>940.0</ele><time>2026-04-12T09:21:50.629Z</time></trkpt><trkpt lat="45.6168584" lon="11.1761998"><ele>940.0</ele><time>2026-04-12T09:21:53.627Z</time></trkpt><trkpt lat="45.6169221" lon="11.1762078"><ele>939.7142857142857</ele><time>2026-04-12T09:21:57.638Z</time></trkpt><trkpt lat="45.6169948" lon="11.1762132"><ele>939.4285714285713</ele><time>2026-04-12T09:22:01.619Z</time></trkpt><trkpt lat="45.6170609" lon="11.1761935"><ele>939.1428571428571</ele><time>2026-04-12T09:22:05.639Z</time></trkpt><trkpt lat="45.6171313" lon="11.176201"><ele>938.8571428571429</ele><time>2026-04-12T09:22:09.601Z</time></trkpt><trkpt lat="45.6172043" lon="11.1762319"><ele>938.5714285714286</ele><time>2026-04-12T09:22:13.614Z</time></trkpt><trkpt lat="45.6172597" lon="11.1763037"><ele>938.2857142857142</ele><time>2026-04-12T09:22:18.633Z</time></trkpt><trkpt lat="45.6173283" lon="11.1763119"><ele>938.0</ele><time>2026-04-12T09:22:23.586Z</time></trkpt><trkpt lat="45.6173945" lon="11.1763161"><ele>938.0000000000001</ele><time>2026-04-12T09:22:26.58Z</time></trkpt><trkpt lat="45.6174718" lon="11.1763136"><ele>938.0</ele><time>2026-04-12T09:22:30.639Z</time></trkpt><trkpt lat="45.6175406" lon="11.176323"><ele>938.0</ele><time>2026-04-12T09:22:35.58Z</time></trkpt><trkpt lat="45.6176169" lon="11.176326"><ele>938.0</ele><time>2026-04-12T09:22:41.574Z</time></trkpt><trkpt lat="45.6176911" lon="11.1762922"><ele>938.0000000000001</ele><time>2026-04-12T09:22:46.62Z</time></trkpt><trkpt lat="45.617758" lon="11.1761864"><ele>938.0</ele><time>2026-04-12T09:22:49.602Z</time></trkpt><trkpt lat="45.6178107" lon="11.1760832"><ele>936.1666666666667</ele><time>2026-04-12T09:22:51.613Z</time></trkpt><trkpt lat="45.6178683" lon="11.1759717"><ele>934.3333333333334</ele><time>2026-04-12T09:22:53.621Z</time></trkpt><trkpt lat="45.6179122" lon="11.175873"><ele>932.5</ele><time>2026-04-12T09:22:55.59Z</time></trkpt><trkpt lat="45.6179504" lon="11.1757762"><ele>930.6666666666667</ele><time>2026-04-12T09:22:57.592Z</time></trkpt><trkpt lat="45.6180136" lon="11.1756805"><ele>928.8333333333334</ele><time>2026-04-12T09:23:00.623Z</time></trkpt><trkpt lat="45.6180752" lon="11.1755971"><ele>927.0</ele><time>2026-04-12T09:23:03.623Z</time></trkpt><trkpt lat="45.6180804" lon="11.175494"><ele>927.0</ele><time>2026-04-12T09:23:07.572Z</time></trkpt><trkpt lat="45.6180346" lon="11.1753803"><ele>927.0</ele><time>2026-04-12T09:23:10.61Z</time></trkpt><trkpt lat="45.6179897" lon="11.1752768"><ele>927.0</ele><time>2026-04-12T09:23:12.682Z</time></trkpt><trkpt lat="45.6179653" lon="11.1751445"><ele>927.0</ele><time>2026-04-12T09:23:14.579Z</time></trkpt><trkpt lat="45.6180142" lon="11.1750365"><ele>927.0</ele><time>2026-04-12T09:23:16.585Z</time></trkpt><trkpt lat="45.6180835" lon="11.1749852"><ele>927.0</ele><time>2026-04-12T09:23:17.612Z</time></trkpt><trkpt lat="45.6181438" lon="11.1749381"><ele>927.0</ele><time>2026-04-12T09:23:18.604Z</time></trkpt><trkpt lat="45.6181943" lon="11.1747939"><ele>927.0</ele><time>2026-04-12T09:23:20.581Z</time></trkpt><trkpt lat="45.618282" lon="11.1747559"><ele>927.0</ele><time>2026-04-12T09:23:22.672Z</time></trkpt><trkpt lat="45.6183434" lon="11.1747291"><ele>927.0</ele><time>2026-04-12T09:23:23.571Z</time></trkpt><trkpt lat="45.6184499" lon="11.1748168"><ele>927.0</ele><time>2026-04-12T09:23:26.632Z</time></trkpt><trkpt lat="45.618519" lon="11.1748767"><ele>927.0</ele><time>2026-04-12T09:23:28.573Z</time></trkpt><trkpt lat="45.6186036" lon="11.1749043"><ele>927.0</ele><time>2026-04-12T09:23:30.593Z</time></trkpt><trkpt lat="45.618702" lon="11.1749264"><ele>927.0</ele><time>2026-04-12T09:23:32.584Z</time></trkpt><trkpt lat="45.6188063" lon="11.1748662"><ele>927.0</ele><time>2026-04-12T09:23:34.587Z</time></trkpt><trkpt lat="45.6188942" lon="11.1747698"><ele>927.0</ele><time>2026-04-12T09:23:35.584Z</time></trkpt><trkpt lat="45.6189566" lon="11.1747471"><ele>930.8</ele><time>2026-04-12T09:23:36.584Z</time></trkpt><trkpt lat="45.6190206" lon="11.1746826"><ele>934.6</ele><time>2026-04-12T09:23:37.583Z</time></trkpt><trkpt lat="45.6191284" lon="11.1746341"><ele>938.3999999999999</ele><time>2026-04-12T09:23:39.577Z</time></trkpt><trkpt lat="45.6192266" lon="11.1746442"><ele>942.1999999999999</ele><time>2026-04-12T09:23:41.604Z</time></trkpt><trkpt lat="45.6193197" lon="11.1747052"><ele>946.0</ele><time>2026-04-12T09:23:44.576Z</time></trkpt><trkpt lat="45.6193747" lon="11.1747853"><ele>940.5714285714287</ele><time>2026-04-12T09:23:46.587Z</time></trkpt><trkpt lat="45.6194098" lon="11.1748685"><ele>935.1428571428571</ele><time>2026-04-12T09:23:48.61Z</time></trkpt><trkpt lat="45.6194709" lon="11.1749134"><ele>929.7142857142858</ele><time>2026-04-12T09:23:51.587Z</time></trkpt><trkpt lat="45.6195576" lon="11.174964"><ele>924.2857142857143</ele><time>2026-04-12T09:23:54.582Z</time></trkpt><trkpt lat="45.6196278" lon="11.1749701"><ele>918.8571428571429</ele><time>2026-04-12T09:23:56.581Z</time></trkpt><trkpt lat="45.6196924" lon="11.174963"><ele>913.4285714285714</ele><time>2026-04-12T09:23:58.583Z</time></trkpt><trkpt lat="45.6197685" lon="11.1749664"><ele>908.0</ele><time>2026-04-12T09:24:00.587Z</time></trkpt><trkpt lat="45.6198598" lon="11.1749561"><ele>906.0</ele><time>2026-04-12T09:24:02.585Z</time></trkpt><trkpt lat="45.6199611" lon="11.1749029"><ele>904.0</ele><time>2026-04-12T09:24:04.584Z</time></trkpt><trkpt lat="45.6200717" lon="11.1747459"><ele>902.0</ele><time>2026-04-12T09:24:06.585Z</time></trkpt><trkpt lat="45.6201462" lon="11.1746895"><ele>900.0</ele><time>2026-04-12T09:24:08.582Z</time></trkpt><trkpt lat="45.6202362" lon="11.1746447"><ele>898.0</ele><time>2026-04-12T09:24:10.584Z</time></trkpt><trkpt lat="45.6203021" lon="11.1746353"><ele>899.8333333333333</ele><time>2026-04-12T09:24:12.58Z</time></trkpt><trkpt lat="45.6203776" lon="11.1746152"><ele>901.6666666666666</ele><time>2026-04-12T09:24:14.576Z</time></trkpt><trkpt lat="45.6204532" lon="11.1745769"><ele>903.5</ele><time>2026-04-12T09:24:16.576Z</time></trkpt><trkpt lat="45.6205133" lon="11.1745316"><ele>905.3333333333333</ele><time>2026-04-12T09:24:18.586Z</time></trkpt><trkpt lat="45.6205841" lon="11.174429"><ele>907.1666666666666</ele><time>2026-04-12T09:24:21.581Z</time></trkpt><trkpt lat="45.6206238" lon="11.1743585"><ele>909.0</ele><time>2026-04-12T09:24:23.587Z</time></trkpt><trkpt lat="45.6206701" lon="11.1742496"><ele>909.0</ele><time>2026-04-12T09:24:26.583Z</time></trkpt><trkpt lat="45.6207083" lon="11.1741579"><ele>909.0</ele><time>2026-04-12T09:24:29.584Z</time></trkpt><trkpt lat="45.6207508" lon="11.1740787"><ele>909.0</ele><time>2026-04-12T09:24:32.579Z</time></trkpt><trkpt lat="45.620806" lon="11.1740304"><ele>909.0</ele><time>2026-04-12T09:24:35.582Z</time></trkpt><trkpt lat="45.6208758" lon="11.1739573"><ele>909.0</ele><time>2026-04-12T09:24:39.593Z</time></trkpt><trkpt lat="45.6209355" lon="11.1738845"><ele>909.0</ele><time>2026-04-12T09:24:43.587Z</time></trkpt><trkpt lat="45.6209953" lon="11.1738435"><ele>909.0</ele><time>2026-04-12T09:24:46.585Z</time></trkpt><trkpt lat="45.6210413" lon="11.1737775"><ele>910.8333333333334</ele><time>2026-04-12T09:24:49.587Z</time></trkpt><trkpt lat="45.6210975" lon="11.1736998"><ele>912.6666666666667</ele><time>2026-04-12T09:24:53.633Z</time></trkpt><trkpt lat="45.6211515" lon="11.1736471"><ele>914.5</ele><time>2026-04-12T09:24:57.58Z</time></trkpt><trkpt lat="45.621232" lon="11.1736192"><ele>916.3333333333334</ele><time>2026-04-12T09:25:00.641Z</time></trkpt><trkpt lat="45.6213309" lon="11.1736168"><ele>918.1666666666667</ele><time>2026-04-12T09:25:02.578Z</time></trkpt><trkpt lat="45.6214376" lon="11.1735729"><ele>920.0</ele><time>2026-04-12T09:25:04.577Z</time></trkpt><trkpt lat="45.6215438" lon="11.1735245"><ele>920.0000000000001</ele><time>2026-04-12T09:25:06.584Z</time></trkpt><trkpt lat="45.6216013" lon="11.173478"><ele>920.0</ele><time>2026-04-12T09:25:07.592Z</time></trkpt><trkpt lat="45.6217098" lon="11.1734309"><ele>920.0</ele><time>2026-04-12T09:25:09.58Z</time></trkpt><trkpt lat="45.6217809" lon="11.1734682"><ele>920.0</ele><time>2026-04-12T09:25:11.577Z</time></trkpt><trkpt lat="45.6217883" lon="11.1735659"><ele>920.0000000000001</ele><time>2026-04-12T09:25:16.578Z</time></trkpt><trkpt lat="45.6218101" lon="11.1736597"><ele>920.0</ele><time>2026-04-12T09:25:28.571Z</time></trkpt><trkpt lat="45.6218515" lon="11.1737592"><ele>920.0</ele><time>2026-04-12T09:25:31.573Z</time></trkpt><trkpt lat="45.6218979" lon="11.1738644"><ele>920.0</ele><time>2026-04-12T09:25:33.582Z</time></trkpt><trkpt lat="45.6220175" lon="11.1740584"><ele>920.0</ele><time>2026-04-12T09:25:36.583Z</time></trkpt><trkpt lat="45.622124" lon="11.1741452"><ele>920.0</ele><time>2026-04-12T09:25:38.587Z</time></trkpt><trkpt lat="45.6221815" lon="11.1741867"><ele>919.0000000000001</ele><time>2026-04-12T09:25:39.576Z</time></trkpt><trkpt lat="45.6222814" lon="11.1742477"><ele>918.0</ele><time>2026-04-12T09:25:41.582Z</time></trkpt><trkpt lat="45.622363" lon="11.1743017"><ele>917.0</ele><time>2026-04-12T09:25:43.579Z</time></trkpt><trkpt lat="45.622434" lon="11.174365"><ele>916.0</ele><time>2026-04-12T09:25:46.572Z</time></trkpt><trkpt lat="45.622515" lon="11.1744109"><ele>915.0000000000001</ele><time>2026-04-12T09:25:49.582Z</time></trkpt><trkpt lat="45.6225785" lon="11.1744364"><ele>914.0</ele><time>2026-04-12T09:25:51.62Z</time></trkpt><trkpt lat="45.6226515" lon="11.1744522"><ele>914.0000000000001</ele><time>2026-04-12T09:25:53.583Z</time></trkpt><trkpt lat="45.6227232" lon="11.1744548"><ele>914.0</ele><time>2026-04-12T09:25:55.583Z</time></trkpt><trkpt lat="45.6228028" lon="11.1744516"><ele>914.0</ele><time>2026-04-12T09:25:58.581Z</time></trkpt><trkpt lat="45.6228831" lon="11.1744721"><ele>914.0</ele><time>2026-04-12T09:26:01.582Z</time></trkpt><trkpt lat="45.6229802" lon="11.1744763"><ele>914.0000000000001</ele><time>2026-04-12T09:26:04.581Z</time></trkpt><trkpt lat="45.6230555" lon="11.1744583"><ele>914.0</ele><time>2026-04-12T09:26:06.6Z</time></trkpt><trkpt lat="45.6231327" lon="11.1744435"><ele>914.6666666666667</ele><time>2026-04-12T09:26:08.582Z</time></trkpt><trkpt lat="45.6232007" lon="11.1744225"><ele>915.3333333333334</ele><time>2026-04-12T09:26:10.572Z</time></trkpt><trkpt lat="45.6232692" lon="11.174411"><ele>916.0</ele><time>2026-04-12T09:26:12.585Z</time></trkpt><trkpt lat="45.6233628" lon="11.174395"><ele>916.6666666666667</ele><time>2026-04-12T09:26:15.592Z</time></trkpt><trkpt lat="45.6234445" lon="11.1743665"><ele>917.3333333333334</ele><time>2026-04-12T09:26:18.581Z</time></trkpt><trkpt lat="45.6235184" lon="11.1743296"><ele>918.0</ele><time>2026-04-12T09:26:21.584Z</time></trkpt><trkpt lat="45.6235808" lon="11.1742993"><ele>917.5714285714287</ele><time>2026-04-12T09:26:24.592Z</time></trkpt><trkpt lat="45.6236579" lon="11.1742677"><ele>917.1428571428571</ele><time>2026-04-12T09:26:28.587Z</time></trkpt><trkpt lat="45.623735" lon="11.1742563"><ele>916.7142857142858</ele><time>2026-04-12T09:26:32.589Z</time></trkpt><trkpt lat="45.6237987" lon="11.1742491"><ele>916.2857142857143</ele><time>2026-04-12T09:26:35.581Z</time></trkpt><trkpt lat="45.6238729" lon="11.1742344"><ele>915.8571428571429</ele><time>2026-04-12T09:26:38.579Z</time></trkpt><trkpt lat="45.6239435" lon="11.1742082"><ele>915.4285714285714</ele><time>2026-04-12T09:26:40.58Z</time></trkpt><trkpt lat="45.624018" lon="11.1741853"><ele>915.0</ele><time>2026-04-12T09:26:42.59Z</time></trkpt><trkpt lat="45.6240962" lon="11.1741706"><ele>915.0</ele><time>2026-04-12T09:26:44.586Z</time></trkpt><trkpt lat="45.6241677" lon="11.1741481"><ele>915.0</ele><time>2026-04-12T09:26:46.688Z</time></trkpt><trkpt lat="45.6242411" lon="11.1741442"><ele>915.0</ele><time>2026-04-12T09:26:49.647Z</time></trkpt><trkpt lat="45.6243173" lon="11.1741489"><ele>915.0</ele><time>2026-04-12T09:26:52.585Z</time></trkpt><trkpt lat="45.6243992" lon="11.1741478"><ele>915.0</ele><time>2026-04-12T09:26:55.576Z</time></trkpt><trkpt lat="45.6244757" lon="11.1741511"><ele>915.0</ele><time>2026-04-12T09:26:58.58Z</time></trkpt><trkpt lat="45.6245439" lon="11.1741673"><ele>914.6666666666666</ele><time>2026-04-12T09:27:01.587Z</time></trkpt><trkpt lat="45.6246154" lon="11.1741686"><ele>914.3333333333333</ele><time>2026-04-12T09:27:04.581Z</time></trkpt><trkpt lat="45.6246851" lon="11.1741427"><ele>914.0</ele><time>2026-04-12T09:27:07.654Z</time></trkpt><trkpt lat="45.6247726" lon="11.1741305"><ele>913.6666666666666</ele><time>2026-04-12T09:27:10.594Z</time></trkpt><trkpt lat="45.6248503" lon="11.1741032"><ele>913.3333333333333</ele><time>2026-04-12T09:27:14.162Z</time></trkpt><trkpt lat="45.6249131" lon="11.1740601"><ele>913.0</ele><time>2026-04-12T09:27:16.581Z</time></trkpt><trkpt lat="45.6249795" lon="11.174005"><ele>918.142857142857</ele><time>2026-04-12T09:27:19.578Z</time></trkpt><trkpt lat="45.6250468" lon="11.1739571"><ele>923.2857142857142</ele><time>2026-04-12T09:27:22.588Z</time></trkpt><trkpt lat="45.625122" lon="11.1739192"><ele>928.4285714285714</ele><time>2026-04-12T09:27:26.58Z</time></trkpt><trkpt lat="45.6251976" lon="11.1738974"><ele>933.5714285714286</ele><time>2026-04-12T09:27:30.64Z</time></trkpt><trkpt lat="45.625259" lon="11.1738695"><ele>938.7142857142858</ele><time>2026-04-12T09:27:33.592Z</time></trkpt><trkpt lat="45.6253321" lon="11.1738315"><ele>943.857142857143</ele><time>2026-04-12T09:27:37.58Z</time></trkpt><trkpt lat="45.625398" lon="11.1738532"><ele>949.0000000000001</ele><time>2026-04-12T09:27:41.62Z</time></trkpt><trkpt lat="45.6254582" lon="11.1739798"><ele>947.4285714285716</ele><time>2026-04-12T09:27:47.579Z</time></trkpt><trkpt lat="45.6254803" lon="11.1740891"><ele>945.8571428571429</ele><time>2026-04-12T09:27:51.574Z</time></trkpt><trkpt lat="45.6254977" lon="11.1741992"><ele>944.2857142857143</ele><time>2026-04-12T09:27:55.591Z</time></trkpt><trkpt lat="45.6255162" lon="11.1743016"><ele>942.7142857142858</ele><time>2026-04-12T09:27:58.605Z</time></trkpt><trkpt lat="45.6255335" lon="11.1743897"><ele>941.1428571428571</ele><time>2026-04-12T09:28:00.586Z</time></trkpt><trkpt lat="45.6255551" lon="11.1744807"><ele>939.5714285714286</ele><time>2026-04-12T09:28:02.582Z</time></trkpt><trkpt lat="45.6255956" lon="11.1745851"><ele>938.0</ele><time>2026-04-12T09:28:04.586Z</time></trkpt><trkpt lat="45.6256368" lon="11.1746726"><ele>938.0</ele><time>2026-04-12T09:28:07.591Z</time></trkpt><trkpt lat="45.6256868" lon="11.1747491"><ele>938.0</ele><time>2026-04-12T09:28:11.578Z</time></trkpt><trkpt lat="45.6257327" lon="11.1748208"><ele>938.0</ele><time>2026-04-12T09:28:15.58Z</time></trkpt><trkpt lat="45.6257608" lon="11.1749114"><ele>938.0</ele><time>2026-04-12T09:28:20.587Z</time></trkpt><trkpt lat="45.6257988" lon="11.1750158"><ele>938.0</ele><time>2026-04-12T09:28:26.581Z</time></trkpt><trkpt lat="45.6258372" lon="11.1750944"><ele>938.0</ele><time>2026-04-12T09:28:30.589Z</time></trkpt><trkpt lat="45.6258634" lon="11.1751817"><ele>938.0</ele><time>2026-04-12T09:28:36.583Z</time></trkpt><trkpt lat="45.6258658" lon="11.1752803"><ele>936.8571428571429</ele><time>2026-04-12T09:28:41.588Z</time></trkpt><trkpt lat="45.6258785" lon="11.1753794"><ele>935.7142857142858</ele><time>2026-04-12T09:28:46.566Z</time></trkpt><trkpt lat="45.6259153" lon="11.1754618"><ele>934.5714285714286</ele><time>2026-04-12T09:28:52.574Z</time></trkpt><trkpt lat="45.6259643" lon="11.1755352"><ele>933.4285714285714</ele><time>2026-04-12T09:28:58.59Z</time></trkpt><trkpt lat="45.6260108" lon="11.1756026"><ele>932.2857142857143</ele><time>2026-04-12T09:29:02.571Z</time></trkpt><trkpt lat="45.6260445" lon="11.1756823"><ele>931.1428571428571</ele><time>2026-04-12T09:29:06.579Z</time></trkpt><trkpt lat="45.6260941" lon="11.1757527"><ele>930.0</ele><time>2026-04-12T09:29:10.582Z</time></trkpt><trkpt lat="45.6261347" lon="11.1758254"><ele>930.1428571428571</ele><time>2026-04-12T09:29:14.575Z</time></trkpt><trkpt lat="45.6261503" lon="11.1759192"><ele>930.2857142857143</ele><time>2026-04-12T09:29:35.604Z</time></trkpt><trkpt lat="45.6262105" lon="11.1758857"><ele>930.4285714285714</ele><time>2026-04-12T09:30:05.587Z</time></trkpt><trkpt lat="45.6262646" lon="11.1758307"><ele>930.5714285714286</ele><time>2026-04-12T09:30:10.575Z</time></trkpt><trkpt lat="45.6263198" lon="11.1757499"><ele>930.7142857142858</ele><time>2026-04-12T09:30:15.584Z</time></trkpt><trkpt lat="45.626374" lon="11.1756917"><ele>930.8571428571429</ele><time>2026-04-12T09:30:20.626Z</time></trkpt><trkpt lat="45.6264501" lon="11.1756863"><ele>931.0</ele><time>2026-04-12T09:30:25.589Z</time></trkpt><trkpt lat="45.6265404" lon="11.1756912"><ele>931.0</ele><time>2026-04-12T09:30:29.584Z</time></trkpt><trkpt lat="45.6266032" lon="11.1756981"><ele>931.0</ele><time>2026-04-12T09:30:31.593Z</time></trkpt><trkpt lat="45.6268459" lon="11.175632"><ele>931.0</ele><time>2026-04-12T09:30:33.587Z</time></trkpt><trkpt lat="45.6269205" lon="11.1756348"><ele>931.0</ele><time>2026-04-12T09:30:36.579Z</time></trkpt><trkpt lat="45.6269875" lon="11.1756252"><ele>933.7142857142858</ele><time>2026-04-12T09:30:39.585Z</time></trkpt><trkpt lat="45.627062" lon="11.1755812"><ele>936.4285714285714</ele><time>2026-04-12T09:30:42.578Z</time></trkpt><trkpt lat="45.6271225" lon="11.175525"><ele>939.1428571428571</ele><time>2026-04-12T09:30:44.581Z</time></trkpt><trkpt lat="45.6271937" lon="11.1754966"><ele>941.8571428571429</ele><time>2026-04-12T09:30:46.581Z</time></trkpt><trkpt lat="45.627259" lon="11.1754789"><ele>944.5714285714287</ele><time>2026-04-12T09:30:48.564Z</time></trkpt><trkpt lat="45.6273179" lon="11.1754365"><ele>947.2857142857143</ele><time>2026-04-12T09:30:51.585Z</time></trkpt><trkpt lat="45.6273496" lon="11.175357"><ele>950.0</ele><time>2026-04-12T09:30:54.581Z</time></trkpt><trkpt lat="45.6274098" lon="11.1752501"><ele>950.0000000000001</ele><time>2026-04-12T09:30:57.585Z</time></trkpt><trkpt lat="45.6274665" lon="11.1751837"><ele>950.0</ele><time>2026-04-12T09:30:59.577Z</time></trkpt><trkpt lat="45.6275198" lon="11.1751193"><ele>950.0</ele><time>2026-04-12T09:31:01.584Z</time></trkpt><trkpt lat="45.6275818" lon="11.17506"><ele>950.0</ele><time>2026-04-12T09:31:03.617Z</time></trkpt><trkpt lat="45.6276623" lon="11.1750193"><ele>950.0000000000001</ele><time>2026-04-12T09:31:06.585Z</time></trkpt><trkpt lat="45.6277497" lon="11.1749703"><ele>950.0</ele><time>2026-04-12T09:31:08.585Z</time></trkpt><trkpt lat="45.6278631" lon="11.1749196"><ele>956.0</ele><time>2026-04-12T09:31:10.585Z</time></trkpt><trkpt lat="45.6279796" lon="11.1748119"><ele>962.0</ele><time>2026-04-12T09:31:12.584Z</time></trkpt><trkpt lat="45.6280946" lon="11.1747787"><ele>968.0</ele><time>2026-04-12T09:31:14.583Z</time></trkpt><trkpt lat="45.6281813" lon="11.1747797"><ele>974.0</ele><time>2026-04-12T09:31:16.588Z</time></trkpt><trkpt lat="45.6282998" lon="11.1747725"><ele>974.0000000000001</ele><time>2026-04-12T09:31:18.624Z</time></trkpt><trkpt lat="45.6283663" lon="11.1747706"><ele>974.0</ele><time>2026-04-12T09:31:19.587Z</time></trkpt><trkpt lat="45.628444" lon="11.1747702"><ele>974.0</ele><time>2026-04-12T09:31:20.58Z</time></trkpt><trkpt lat="45.6285051" lon="11.1747972"><ele>974.0</ele><time>2026-04-12T09:31:21.584Z</time></trkpt><trkpt lat="45.6285658" lon="11.1748232"><ele>974.0000000000001</ele><time>2026-04-12T09:31:22.583Z</time></trkpt><trkpt lat="45.628673" lon="11.1748957"><ele>974.0</ele><time>2026-04-12T09:31:24.583Z</time></trkpt><trkpt lat="45.6287431" lon="11.1749172"><ele>964.8000000000001</ele><time>2026-04-12T09:31:26.588Z</time></trkpt><trkpt lat="45.6288128" lon="11.1749823"><ele>955.6000000000001</ele><time>2026-04-12T09:31:29.574Z</time></trkpt><trkpt lat="45.6288883" lon="11.1750185"><ele>946.4</ele><time>2026-04-12T09:31:31.587Z</time></trkpt><trkpt lat="45.6289986" lon="11.1750733"><ele>937.2</ele><time>2026-04-12T09:31:33.582Z</time></trkpt><trkpt lat="45.6290902" lon="11.1750741"><ele>928.0</ele><time>2026-04-12T09:31:34.607Z</time></trkpt><trkpt lat="45.6291683" lon="11.1750846"><ele>927.9999999999999</ele><time>2026-04-12T09:31:35.584Z</time></trkpt><trkpt lat="45.6292732" lon="11.1751136"><ele>928.0</ele><time>2026-04-12T09:31:37.624Z</time></trkpt><trkpt lat="45.6293413" lon="11.1751689"><ele>928.0</ele><time>2026-04-12T09:31:39.577Z</time></trkpt><trkpt lat="45.6294049" lon="11.175159"><ele>928.0</ele><time>2026-04-12T09:31:41.575Z</time></trkpt><trkpt lat="45.6294594" lon="11.1751118"><ele>927.9999999999999</ele><time>2026-04-12T09:31:43.579Z</time></trkpt><trkpt lat="45.6295372" lon="11.175132"><ele>928.0</ele><time>2026-04-12T09:31:46.628Z</time></trkpt><trkpt lat="45.6295697" lon="11.1752255"><ele>927.6666666666666</ele><time>2026-04-12T09:31:48.58Z</time></trkpt><trkpt lat="45.6296343" lon="11.1752958"><ele>927.3333333333333</ele><time>2026-04-12T09:31:51.576Z</time></trkpt><trkpt lat="45.6297154" lon="11.1752908"><ele>927.0</ele><time>2026-04-12T09:31:54.583Z</time></trkpt><trkpt lat="45.6297887" lon="11.1752962"><ele>926.6666666666667</ele><time>2026-04-12T09:31:58.581Z</time></trkpt><trkpt lat="45.6298804" lon="11.1753034"><ele>926.3333333333334</ele><time>2026-04-12T09:32:01.579Z</time></trkpt><trkpt lat="45.6299707" lon="11.1753031"><ele>926.0</ele><time>2026-04-12T09:32:04.586Z</time></trkpt><trkpt lat="45.6300441" lon="11.1753158"><ele>926.0</ele><time>2026-04-12T09:32:07.567Z</time></trkpt><trkpt lat="45.6301165" lon="11.1753298"><ele>925.9999999999999</ele><time>2026-04-12T09:32:10.577Z</time></trkpt><trkpt lat="45.6301876" lon="11.1753654"><ele>926.0</ele><time>2026-04-12T09:32:14.577Z</time></trkpt><trkpt lat="45.6302506" lon="11.1753625"><ele>926.0</ele><time>2026-04-12T09:32:16.58Z</time></trkpt><trkpt lat="45.6303318" lon="11.1753686"><ele>925.9999999999999</ele><time>2026-04-12T09:32:19.568Z</time></trkpt><trkpt lat="45.6304099" lon="11.1753648"><ele>926.0</ele><time>2026-04-12T09:32:21.577Z</time></trkpt><trkpt lat="45.6304736" lon="11.1753476"><ele>926.0</ele><time>2026-04-12T09:32:23.579Z</time></trkpt><trkpt lat="45.6305421" lon="11.1753333"><ele>925.1666666666667</ele><time>2026-04-12T09:32:38.58Z</time></trkpt><trkpt lat="45.630625" lon="11.1752609"><ele>924.3333333333334</ele><time>2026-04-12T09:32:41.582Z</time></trkpt><trkpt lat="45.6306979" lon="11.1752324"><ele>923.5</ele><time>2026-04-12T09:32:43.581Z</time></trkpt><trkpt lat="45.6307513" lon="11.1751762"><ele>922.6666666666667</ele><time>2026-04-12T09:34:48.583Z</time></trkpt><trkpt lat="45.6307749" lon="11.175264"><ele>921.8333333333334</ele><time>2026-04-12T09:37:16.597Z</time></trkpt><trkpt lat="45.6308718" lon="11.1752912"><ele>921.0</ele><time>2026-04-12T09:37:19.584Z</time></trkpt><trkpt lat="45.6309426" lon="11.1752486"><ele>921.0000000000001</ele><time>2026-04-12T09:37:21.588Z</time></trkpt><trkpt lat="45.6310221" lon="11.1752611"><ele>921.0</ele><time>2026-04-12T09:37:24.584Z</time></trkpt><trkpt lat="45.631092" lon="11.1752633"><ele>921.0000000000001</ele><time>2026-04-12T09:37:27.608Z</time></trkpt><trkpt lat="45.6311531" lon="11.175241"><ele>921.0000000000001</ele><time>2026-04-12T09:37:30.582Z</time></trkpt><trkpt lat="45.6312314" lon="11.1752157"><ele>921.0</ele><time>2026-04-12T09:37:33.61Z</time></trkpt><trkpt lat="45.6313061" lon="11.175229"><ele>921.0000000000001</ele><time>2026-04-12T09:37:36.58Z</time></trkpt><trkpt lat="45.6313764" lon="11.1752511"><ele>921.0000000000001</ele><time>2026-04-12T09:37:39.586Z</time></trkpt><trkpt lat="45.6314502" lon="11.1752005"><ele>919.4285714285716</ele><time>2026-04-12T09:37:42.576Z</time></trkpt><trkpt lat="45.6315012" lon="11.1751336"><ele>917.8571428571429</ele><time>2026-04-12T09:37:44.579Z</time></trkpt><trkpt lat="45.6315674" lon="11.1751251"><ele>916.2857142857143</ele><time>2026-04-12T09:37:46.607Z</time></trkpt><trkpt lat="45.631638" lon="11.1751777"><ele>914.7142857142858</ele><time>2026-04-12T09:37:48.583Z</time></trkpt><trkpt lat="45.6317113" lon="11.1752242"><ele>913.1428571428571</ele><time>2026-04-12T09:37:50.586Z</time></trkpt><trkpt lat="45.6317832" lon="11.175231"><ele>911.5714285714286</ele><time>2026-04-12T09:37:52.58Z</time></trkpt><trkpt lat="45.6318542" lon="11.1752078"><ele>910.0</ele><time>2026-04-12T09:37:54.588Z</time></trkpt><trkpt lat="45.6320808" lon="11.1752594"><ele>907.6666666666666</ele><time>2026-04-12T09:38:01.59Z</time></trkpt><trkpt lat="45.6321493" lon="11.1752772"><ele>905.3333333333333</ele><time>2026-04-12T09:38:04.614Z</time></trkpt><trkpt lat="45.6322167" lon="11.1752629"><ele>903.0</ele><time>2026-04-12T09:38:06.573Z</time></trkpt><trkpt lat="45.6323017" lon="11.1752364"><ele>900.6666666666667</ele><time>2026-04-12T09:38:08.582Z</time></trkpt><trkpt lat="45.6323845" lon="11.1752653"><ele>898.3333333333334</ele><time>2026-04-12T09:38:10.592Z</time></trkpt><trkpt lat="45.6324527" lon="11.1753074"><ele>896.0</ele><time>2026-04-12T09:38:12.583Z</time></trkpt><trkpt lat="45.632507" lon="11.1753765"><ele>896.0000000000001</ele><time>2026-04-12T09:38:14.58Z</time></trkpt><trkpt lat="45.6325769" lon="11.1754038"><ele>896.0</ele><time>2026-04-12T09:38:17.619Z</time></trkpt><trkpt lat="45.6326607" lon="11.1753692"><ele>896.0</ele><time>2026-04-12T09:38:21.605Z</time></trkpt><trkpt lat="45.6327109" lon="11.1753101"><ele>896.0</ele><time>2026-04-12T09:38:23.587Z</time></trkpt><trkpt lat="45.6328017" lon="11.1751668"><ele>896.0000000000001</ele><time>2026-04-12T09:38:25.584Z</time></trkpt><trkpt lat="45.6328647" lon="11.1751351"><ele>896.0</ele><time>2026-04-12T09:38:27.59Z</time></trkpt><trkpt lat="45.6329464" lon="11.1751462"><ele>893.4</ele><time>2026-04-12T09:38:29.566Z</time></trkpt><trkpt lat="45.6330598" lon="11.1751969"><ele>890.8</ele><time>2026-04-12T09:38:31.584Z</time></trkpt><trkpt lat="45.6331902" lon="11.1751805"><ele>888.1999999999999</ele><time>2026-04-12T09:38:33.581Z</time></trkpt><trkpt lat="45.6332819" lon="11.1751687"><ele>885.5999999999999</ele><time>2026-04-12T09:38:35.583Z</time></trkpt><trkpt lat="45.6333681" lon="11.175195"><ele>883.0</ele><time>2026-04-12T09:38:37.585Z</time></trkpt><trkpt lat="45.6334247" lon="11.1752541"><ele>882.9999999999999</ele><time>2026-04-12T09:38:39.584Z</time></trkpt><trkpt lat="45.6334916" lon="11.1753434"><ele>883.0</ele><time>2026-04-12T09:38:42.575Z</time></trkpt><trkpt lat="45.6335766" lon="11.1753564"><ele>883.0</ele><time>2026-04-12T09:38:45.694Z</time></trkpt><trkpt lat="45.6336391" lon="11.1753701"><ele>883.0</ele><time>2026-04-12T09:38:47.57Z</time></trkpt><trkpt lat="45.6337326" lon="11.1753909"><ele>882.9999999999999</ele><time>2026-04-12T09:38:49.583Z</time></trkpt><trkpt lat="45.6338053" lon="11.1754166"><ele>883.0</ele><time>2026-04-12T09:38:51.585Z</time></trkpt><trkpt lat="45.6338906" lon="11.1754763"><ele>886.4</ele><time>2026-04-12T09:38:53.582Z</time></trkpt><trkpt lat="45.6340091" lon="11.1754762"><ele>889.8</ele><time>2026-04-12T09:38:55.58Z</time></trkpt><trkpt lat="45.6341144" lon="11.1754887"><ele>893.2</ele><time>2026-04-12T09:38:57.576Z</time></trkpt><trkpt lat="45.6342201" lon="11.1755528"><ele>896.6</ele><time>2026-04-12T09:38:59.575Z</time></trkpt><trkpt lat="45.6343042" lon="11.1755531"><ele>900.0</ele><time>2026-04-12T09:39:01.58Z</time></trkpt><trkpt lat="45.6343574" lon="11.1756098"><ele>900.0</ele><time>2026-04-12T09:39:03.578Z</time></trkpt><trkpt lat="45.6344599" lon="11.1756013"><ele>900.0</ele><time>2026-04-12T09:39:05.585Z</time></trkpt><trkpt lat="45.634521" lon="11.1756363"><ele>900.0</ele><time>2026-04-12T09:39:06.592Z</time></trkpt><trkpt lat="45.6345843" lon="11.1756532"><ele>900.0</ele><time>2026-04-12T09:39:07.58Z</time></trkpt><trkpt lat="45.6346478" lon="11.1756334"><ele>900.0</ele><time>2026-04-12T09:39:08.586Z</time></trkpt><trkpt lat="45.6347308" lon="11.1756576"><ele>900.0</ele><time>2026-04-12T09:39:10.588Z</time></trkpt><trkpt lat="45.6348056" lon="11.1756802"><ele>892.8333333333334</ele><time>2026-04-12T09:39:12.576Z</time></trkpt><trkpt lat="45.6349031" lon="11.1757062"><ele>885.6666666666667</ele><time>2026-04-12T09:39:15.61Z</time></trkpt><trkpt lat="45.6349522" lon="11.1757667"><ele>878.5</ele><time>2026-04-12T09:39:16.612Z</time></trkpt><trkpt lat="45.6350147" lon="11.1758328"><ele>871.3333333333334</ele><time>2026-04-12T09:39:18.578Z</time></trkpt><trkpt lat="45.6350913" lon="11.1758576"><ele>864.1666666666667</ele><time>2026-04-12T09:39:20.599Z</time></trkpt><trkpt lat="45.6352028" lon="11.1758143"><ele>857.0</ele><time>2026-04-12T09:39:22.583Z</time></trkpt><trkpt lat="45.6352662" lon="11.1758053"><ele>855.8</ele><time>2026-04-12T09:39:23.584Z</time></trkpt><trkpt lat="45.6353948" lon="11.1757753"><ele>854.6</ele><time>2026-04-12T09:39:25.59Z</time></trkpt><trkpt lat="45.6354692" lon="11.1757728"><ele>853.4</ele><time>2026-04-12T09:39:26.582Z</time></trkpt><trkpt lat="45.6355552" lon="11.1758104"><ele>852.1999999999999</ele><time>2026-04-12T09:39:28.588Z</time></trkpt><trkpt lat="45.6356317" lon="11.1758118"><ele>851.0</ele><time>2026-04-12T09:39:30.576Z</time></trkpt><trkpt lat="45.6357104" lon="11.1758644"><ele>851.0</ele><time>2026-04-12T09:39:33.582Z</time></trkpt><trkpt lat="45.6357789" lon="11.1758827"><ele>851.0</ele><time>2026-04-12T09:39:35.591Z</time></trkpt><trkpt lat="45.635913" lon="11.1758336"><ele>851.0</ele><time>2026-04-12T09:39:37.577Z</time></trkpt><trkpt lat="45.6360152" lon="11.1758077"><ele>851.0</ele><time>2026-04-12T09:39:40.433Z</time></trkpt><trkpt lat="45.6361042" lon="11.1758125"><ele>851.0</ele><time>2026-04-12T09:39:41.578Z</time></trkpt><trkpt lat="45.6361757" lon="11.1758225"><ele>850.3333333333334</ele><time>2026-04-12T09:39:43.587Z</time></trkpt><trkpt lat="45.6362407" lon="11.1758601"><ele>849.6666666666667</ele><time>2026-04-12T09:39:45.58Z</time></trkpt><trkpt lat="45.6363103" lon="11.1759"><ele>849.0</ele><time>2026-04-12T09:39:48.587Z</time></trkpt><trkpt lat="45.6363766" lon="11.1759562"><ele>848.3333333333333</ele><time>2026-04-12T09:39:51.6Z</time></trkpt><trkpt lat="45.6364441" lon="11.1759862"><ele>847.6666666666666</ele><time>2026-04-12T09:39:53.587Z</time></trkpt><trkpt lat="45.6365755" lon="11.176008"><ele>847.0</ele><time>2026-04-12T09:39:55.583Z</time></trkpt><trkpt lat="45.6366773" lon="11.1759945"><ele>846.9999999999999</ele><time>2026-04-12T09:39:57.583Z</time></trkpt><trkpt lat="45.6367382" lon="11.176053"><ele>847.0</ele><time>2026-04-12T09:39:59.582Z</time></trkpt><trkpt lat="45.6368262" lon="11.1760769"><ele>847.0</ele><time>2026-04-12T09:40:01.609Z</time></trkpt><trkpt lat="45.6369074" lon="11.1760482"><ele>847.0</ele><time>2026-04-12T09:40:04.642Z</time></trkpt><trkpt lat="45.6369767" lon="11.1760481"><ele>846.9999999999999</ele><time>2026-04-12T09:40:07.58Z</time></trkpt><trkpt lat="45.6370323" lon="11.1760983"><ele>847.0</ele><time>2026-04-12T09:40:09.618Z</time></trkpt><trkpt lat="45.6371036" lon="11.1761262"><ele>845.9999999999999</ele><time>2026-04-12T09:40:13.584Z</time></trkpt><trkpt lat="45.6371883" lon="11.1760849"><ele>845.0</ele><time>2026-04-12T09:40:16.585Z</time></trkpt><trkpt lat="45.6372639" lon="11.1761288"><ele>844.0</ele><time>2026-04-12T09:40:19.583Z</time></trkpt><trkpt lat="45.6373256" lon="11.1762318"><ele>843.0</ele><time>2026-04-12T09:40:22.579Z</time></trkpt><trkpt lat="45.6374143" lon="11.1762157"><ele>841.9999999999999</ele><time>2026-04-12T09:40:25.587Z</time></trkpt><trkpt lat="45.637481" lon="11.1762096"><ele>841.0</ele><time>2026-04-12T09:40:27.59Z</time></trkpt><trkpt lat="45.6375556" lon="11.176231"><ele>840.9999999999999</ele><time>2026-04-12T09:40:29.586Z</time></trkpt><trkpt lat="45.6376273" lon="11.1762369"><ele>841.0</ele><time>2026-04-12T09:40:31.589Z</time></trkpt><trkpt lat="45.6377076" lon="11.1762624"><ele>841.0</ele><time>2026-04-12T09:40:33.587Z</time></trkpt><trkpt lat="45.6378276" lon="11.1762452"><ele>841.0</ele><time>2026-04-12T09:40:35.583Z</time></trkpt><trkpt lat="45.637894" lon="11.1762311"><ele>840.9999999999999</ele><time>2026-04-12T09:40:36.579Z</time></trkpt><trkpt lat="45.6379685" lon="11.1762648"><ele>841.0</ele><time>2026-04-12T09:40:38.585Z</time></trkpt><trkpt lat="45.6380585" lon="11.1763038"><ele>838.6666666666666</ele><time>2026-04-12T09:40:40.568Z</time></trkpt><trkpt lat="45.6381599" lon="11.1763192"><ele>836.3333333333333</ele><time>2026-04-12T09:40:42.583Z</time></trkpt><trkpt lat="45.6382372" lon="11.1763434"><ele>834.0</ele><time>2026-04-12T09:40:45.572Z</time></trkpt><trkpt lat="45.6382784" lon="11.1764206"><ele>831.6666666666667</ele><time>2026-04-12T09:40:53.58Z</time></trkpt><trkpt lat="45.6382487" lon="11.1765292"><ele>829.3333333333334</ele><time>2026-04-12T09:40:57.585Z</time></trkpt><trkpt lat="45.6382259" lon="11.1766318"><ele>827.0</ele><time>2026-04-12T09:41:00.58Z</time></trkpt><trkpt lat="45.6382125" lon="11.1767301"><ele>825.4285714285714</ele><time>2026-04-12T09:41:03.579Z</time></trkpt><trkpt lat="45.6382321" lon="11.1768347"><ele>823.8571428571428</ele><time>2026-04-12T09:41:07.582Z</time></trkpt><trkpt lat="45.6382635" lon="11.17693"><ele>822.2857142857142</ele><time>2026-04-12T09:41:11.575Z</time></trkpt><trkpt lat="45.6383131" lon="11.1770131"><ele>820.7142857142858</ele><time>2026-04-12T09:41:16.593Z</time></trkpt><trkpt lat="45.6383479" lon="11.1771083"><ele>819.1428571428571</ele><time>2026-04-12T09:41:21.579Z</time></trkpt><trkpt lat="45.638348" lon="11.1772089"><ele>817.5714285714286</ele><time>2026-04-12T09:41:25.581Z</time></trkpt><trkpt lat="45.6383" lon="11.1772684"><ele>816.0</ele><time>2026-04-12T09:41:29.58Z</time></trkpt><trkpt lat="45.6382264" lon="11.177274"><ele>816.0</ele><time>2026-04-12T09:41:33.649Z</time></trkpt><trkpt lat="45.6381595" lon="11.1772703"><ele>816.0</ele><time>2026-04-12T09:41:37.584Z</time></trkpt><trkpt lat="45.6380897" lon="11.1772871"><ele>816.0</ele><time>2026-04-12T09:41:41.591Z</time></trkpt><trkpt lat="45.638019" lon="11.1773281"><ele>816.0</ele><time>2026-04-12T09:41:45.613Z</time></trkpt><trkpt lat="45.6379554" lon="11.1773711"><ele>816.0</ele><time>2026-04-12T09:41:49.584Z</time></trkpt><trkpt lat="45.637903" lon="11.1774417"><ele>816.0</ele><time>2026-04-12T09:41:55.587Z</time></trkpt><trkpt lat="45.6378468" lon="11.17752"><ele>816.0</ele><time>2026-04-12T09:41:59.586Z</time></trkpt><trkpt lat="45.6378005" lon="11.1775819"><ele>815.0</ele><time>2026-04-12T09:42:02.587Z</time></trkpt><trkpt lat="45.6377537" lon="11.1776446"><ele>814.0</ele><time>2026-04-12T09:42:06.586Z</time></trkpt><trkpt lat="45.6377016" lon="11.1777207"><ele>813.0</ele><time>2026-04-12T09:42:11.573Z</time></trkpt><trkpt lat="45.63765" lon="11.177774"><ele>812.0</ele><time>2026-04-12T09:42:17.586Z</time></trkpt><trkpt lat="45.6375954" lon="11.1778397"><ele>811.0</ele><time>2026-04-12T09:42:23.572Z</time></trkpt><trkpt lat="45.6375356" lon="11.1778745"><ele>810.0</ele><time>2026-04-12T09:42:30.575Z</time></trkpt><trkpt lat="45.6374815" lon="11.1779415"><ele>809.0</ele><time>2026-04-12T09:42:37.574Z</time></trkpt><trkpt lat="45.637432" lon="11.1780065"><ele>809.0</ele><time>2026-04-12T09:42:43.577Z</time></trkpt><trkpt lat="45.6373975" lon="11.1780825"><ele>809.0</ele><time>2026-04-12T09:42:49.585Z</time></trkpt><trkpt lat="45.6373768" lon="11.1781774"><ele>809.0</ele><time>2026-04-12T09:42:55.579Z</time></trkpt><trkpt lat="45.6373462" lon="11.1782617"><ele>809.0</ele><time>2026-04-12T09:43:00.576Z</time></trkpt><trkpt lat="45.6373108" lon="11.1783396"><ele>809.0</ele><time>2026-04-12T09:43:05.584Z</time></trkpt><trkpt lat="45.6372704" lon="11.1784127"><ele>809.0</ele><time>2026-04-12T09:43:10.589Z</time></trkpt><trkpt lat="45.6372077" lon="11.1784498"><ele>809.0</ele><time>2026-04-12T09:43:15.578Z</time></trkpt><trkpt lat="45.6371533" lon="11.1784966"><ele>811.0</ele><time>2026-04-12T09:43:19.581Z</time></trkpt><trkpt lat="45.6370999" lon="11.1785682"><ele>813.0</ele><time>2026-04-12T09:43:24.58Z</time></trkpt><trkpt lat="45.6370373" lon="11.1786377"><ele>815.0</ele><time>2026-04-12T09:43:28.572Z</time></trkpt><trkpt lat="45.6369945" lon="11.1787113"><ele>817.0</ele><time>2026-04-12T09:43:31.579Z</time></trkpt><trkpt lat="45.6369924" lon="11.1788016"><ele>819.0</ele><time>2026-04-12T09:44:03.583Z</time></trkpt><trkpt lat="45.6369935" lon="11.1789107"><ele>821.0</ele><time>2026-04-12T09:44:17.644Z</time></trkpt><trkpt lat="45.6369788" lon="11.179004"><ele>823.0</ele><time>2026-04-12T09:44:20.582Z</time></trkpt><trkpt lat="45.6369637" lon="11.1790929"><ele>823.0</ele><time>2026-04-12T09:44:23.586Z</time></trkpt><trkpt lat="45.6369655" lon="11.1791905"><ele>823.0</ele><time>2026-04-12T09:44:27.637Z</time></trkpt><trkpt lat="45.636963" lon="11.1792997"><ele>823.0</ele><time>2026-04-12T09:44:31.587Z</time></trkpt><trkpt lat="45.636956" lon="11.1793986"><ele>823.0</ele><time>2026-04-12T09:44:34.586Z</time></trkpt><trkpt lat="45.6369539" lon="11.1794915"><ele>823.0</ele><time>2026-04-12T09:44:37.636Z</time></trkpt><trkpt lat="45.6369629" lon="11.1795933"><ele>823.0</ele><time>2026-04-12T09:44:40.586Z</time></trkpt><trkpt lat="45.636983" lon="11.1796787"><ele>823.0</ele><time>2026-04-12T09:44:43.58Z</time></trkpt><trkpt lat="45.6370114" lon="11.1797846"><ele>823.4285714285714</ele><time>2026-04-12T09:44:47.584Z</time></trkpt><trkpt lat="45.6370218" lon="11.1798817"><ele>823.8571428571429</ele><time>2026-04-12T09:44:50.579Z</time></trkpt><trkpt lat="45.6370237" lon="11.1799918"><ele>824.2857142857142</ele><time>2026-04-12T09:44:53.583Z</time></trkpt><trkpt lat="45.6370231" lon="11.1800997"><ele>824.7142857142858</ele><time>2026-04-12T09:44:56.58Z</time></trkpt><trkpt lat="45.6370081" lon="11.1802018"><ele>825.1428571428571</ele><time>2026-04-12T09:44:59.582Z</time></trkpt><trkpt lat="45.6369855" lon="11.180303"><ele>825.5714285714286</ele><time>2026-04-12T09:45:02.657Z</time></trkpt><trkpt lat="45.6369554" lon="11.1804005"><ele>826.0</ele><time>2026-04-12T09:45:04.621Z</time></trkpt><trkpt lat="45.6369209" lon="11.180515"><ele>826.0</ele><time>2026-04-12T09:45:06.583Z</time></trkpt><trkpt lat="45.63691" lon="11.1806621"><ele>826.0</ele><time>2026-04-12T09:45:08.612Z</time></trkpt><trkpt lat="45.6369047" lon="11.1808373"><ele>826.0</ele><time>2026-04-12T09:45:10.592Z</time></trkpt><trkpt lat="45.6369448" lon="11.1809855"><ele>826.0</ele><time>2026-04-12T09:45:12.61Z</time></trkpt><trkpt lat="45.6369884" lon="11.1810988"><ele>826.0</ele><time>2026-04-12T09:45:14.603Z</time></trkpt><trkpt lat="45.6370267" lon="11.1812037"><ele>828.2857142857143</ele><time>2026-04-12T09:45:17.642Z</time></trkpt><trkpt lat="45.6370033" lon="11.1812969"><ele>830.5714285714286</ele><time>2026-04-12T09:45:20.589Z</time></trkpt><trkpt lat="45.6369822" lon="11.1813876"><ele>832.8571428571429</ele><time>2026-04-12T09:45:23.577Z</time></trkpt><trkpt lat="45.6370058" lon="11.1814732"><ele>835.1428571428571</ele><time>2026-04-12T09:45:26.618Z</time></trkpt><trkpt lat="45.6370442" lon="11.1815543"><ele>837.4285714285714</ele><time>2026-04-12T09:45:29.596Z</time></trkpt><trkpt lat="45.6370803" lon="11.181646"><ele>839.7142857142858</ele><time>2026-04-12T09:45:33.585Z</time></trkpt><trkpt lat="45.6370903" lon="11.1817366"><ele>842.0</ele><time>2026-04-12T09:45:38.6Z</time></trkpt><trkpt lat="45.6371007" lon="11.181839"><ele>842.0000000000001</ele><time>2026-04-12T09:45:42.614Z</time></trkpt><trkpt lat="45.6371298" lon="11.1819269"><ele>842.0</ele><time>2026-04-12T09:45:46.609Z</time></trkpt><trkpt lat="45.6371764" lon="11.1820165"><ele>842.0</ele><time>2026-04-12T09:45:50.613Z</time></trkpt><trkpt lat="45.6372128" lon="11.1821014"><ele>842.0</ele><time>2026-04-12T09:45:53.588Z</time></trkpt><trkpt lat="45.6372569" lon="11.1821925"><ele>842.0</ele><time>2026-04-12T09:45:56.618Z</time></trkpt><trkpt lat="45.6372984" lon="11.1822833"><ele>842.0000000000001</ele><time>2026-04-12T09:46:00.686Z</time></trkpt><trkpt lat="45.6373291" lon="11.1823625"><ele>842.0</ele><time>2026-04-12T09:46:03.605Z</time></trkpt><trkpt lat="45.6373662" lon="11.1824601"><ele>842.1428571428572</ele><time>2026-04-12T09:46:07.614Z</time></trkpt><trkpt lat="45.6373732" lon="11.1825513"><ele>842.2857142857143</ele><time>2026-04-12T09:46:10.592Z</time></trkpt><trkpt lat="45.6373698" lon="11.182644"><ele>842.4285714285714</ele><time>2026-04-12T09:46:13.617Z</time></trkpt><trkpt lat="45.6373637" lon="11.1827491"><ele>842.5714285714287</ele><time>2026-04-12T09:46:16.583Z</time></trkpt><trkpt lat="45.6373504" lon="11.1828567"><ele>842.7142857142857</ele><time>2026-04-12T09:46:19.646Z</time></trkpt><trkpt lat="45.6373229" lon="11.1829646"><ele>842.8571428571429</ele><time>2026-04-12T09:46:23.673Z</time></trkpt><trkpt lat="45.6373011" lon="11.1830499"><ele>843.0</ele><time>2026-04-12T09:46:26.571Z</time></trkpt><trkpt lat="45.6372632" lon="11.1831385"><ele>843.8571428571429</ele><time>2026-04-12T09:46:30.572Z</time></trkpt><trkpt lat="45.6372384" lon="11.183235"><ele>844.7142857142857</ele><time>2026-04-12T09:46:34.592Z</time></trkpt><trkpt lat="45.6372039" lon="11.1833394"><ele>845.5714285714287</ele><time>2026-04-12T09:46:38.585Z</time></trkpt><trkpt lat="45.63716" lon="11.1834061"><ele>846.4285714285714</ele><time>2026-04-12T09:46:41.585Z</time></trkpt><trkpt lat="45.637126" lon="11.1834997"><ele>847.2857142857143</ele><time>2026-04-12T09:46:44.587Z</time></trkpt><trkpt lat="45.6370903" lon="11.1835868"><ele>848.1428571428572</ele><time>2026-04-12T09:46:47.614Z</time></trkpt><trkpt lat="45.6370581" lon="11.1836664"><ele>849.0</ele><time>2026-04-12T09:46:50.611Z</time></trkpt><trkpt lat="45.6370204" lon="11.1837509"><ele>849.0000000000001</ele><time>2026-04-12T09:46:53.611Z</time></trkpt><trkpt lat="45.6369797" lon="11.1838249"><ele>849.0</ele><time>2026-04-12T09:46:56.643Z</time></trkpt><trkpt lat="45.6369291" lon="11.1839139"><ele>849.0</ele><time>2026-04-12T09:47:00.604Z</time></trkpt><trkpt lat="45.636889" lon="11.183993"><ele>849.0</ele><time>2026-04-12T09:47:04.595Z</time></trkpt><trkpt lat="45.6368452" lon="11.1840615"><ele>849.0</ele><time>2026-04-12T09:47:09.626Z</time></trkpt><trkpt lat="45.6367843" lon="11.18411"><ele>849.0000000000001</ele><time>2026-04-12T09:47:13.661Z</time></trkpt><trkpt lat="45.6367211" lon="11.1841578"><ele>849.0</ele><time>2026-04-12T09:47:17.621Z</time></trkpt><trkpt lat="45.6366761" lon="11.1842242"><ele>848.5714285714287</ele><time>2026-04-12T09:47:21.65Z</time></trkpt><trkpt lat="45.6366942" lon="11.1843222"><ele>848.1428571428571</ele><time>2026-04-12T09:47:28.608Z</time></trkpt><trkpt lat="45.6367737" lon="11.1843385"><ele>847.7142857142858</ele><time>2026-04-12T09:47:33.624Z</time></trkpt><trkpt lat="45.6368407" lon="11.1843037"><ele>847.2857142857143</ele><time>2026-04-12T09:47:36.606Z</time></trkpt><trkpt lat="45.6369088" lon="11.1842826"><ele>846.8571428571429</ele><time>2026-04-12T09:47:39.601Z</time></trkpt><trkpt lat="45.6369731" lon="11.1842774"><ele>846.4285714285714</ele><time>2026-04-12T09:47:42.577Z</time></trkpt><trkpt lat="45.6370431" lon="11.1843001"><ele>846.0</ele><time>2026-04-12T09:47:46.6Z</time></trkpt><trkpt lat="45.6371025" lon="11.1843314"><ele>847.4285714285714</ele><time>2026-04-12T09:47:50.614Z</time></trkpt><trkpt lat="45.6371656" lon="11.1843943"><ele>848.8571428571429</ele><time>2026-04-12T09:47:55.609Z</time></trkpt><trkpt lat="45.6372322" lon="11.1844494"><ele>850.2857142857143</ele><time>2026-04-12T09:48:00.587Z</time></trkpt><trkpt lat="45.6372896" lon="11.1845"><ele>851.7142857142858</ele><time>2026-04-12T09:48:04.583Z</time></trkpt><trkpt lat="45.6373523" lon="11.1845515"><ele>853.1428571428571</ele><time>2026-04-12T09:48:08.606Z</time></trkpt><trkpt lat="45.637423" lon="11.1845827"><ele>854.5714285714287</ele><time>2026-04-12T09:48:12.613Z</time></trkpt><trkpt lat="45.6374958" lon="11.1846023"><ele>856.0</ele><time>2026-04-12T09:48:16.584Z</time></trkpt><trkpt lat="45.6375788" lon="11.1845862"><ele>856.0000000000001</ele><time>2026-04-12T09:48:20.612Z</time></trkpt><trkpt lat="45.6376431" lon="11.1845563"><ele>856.0</ele><time>2026-04-12T09:48:23.684Z</time></trkpt><trkpt lat="45.637701" lon="11.1845143"><ele>856.0</ele><time>2026-04-12T09:48:26.63Z</time></trkpt><trkpt lat="45.6377748" lon="11.1844649"><ele>856.0</ele><time>2026-04-12T09:48:30.649Z</time></trkpt><trkpt lat="45.6378358" lon="11.18442"><ele>856.0</ele><time>2026-04-12T09:48:33.581Z</time></trkpt><trkpt lat="45.6378915" lon="11.184374"><ele>856.0000000000001</ele><time>2026-04-12T09:48:36.628Z</time></trkpt><trkpt lat="45.637946" lon="11.184326"><ele>856.0</ele><time>2026-04-12T09:48:39.618Z</time></trkpt><trkpt lat="45.6380068" lon="11.1842913"><ele>856.4285714285714</ele><time>2026-04-12T09:48:42.622Z</time></trkpt><trkpt lat="45.6380714" lon="11.1842704"><ele>856.8571428571429</ele><time>2026-04-12T09:48:45.586Z</time></trkpt><trkpt lat="45.638141" lon="11.1842255"><ele>857.2857142857142</ele><time>2026-04-12T09:48:49.592Z</time></trkpt><trkpt lat="45.63821" lon="11.1841867"><ele>857.7142857142858</ele><time>2026-04-12T09:48:52.615Z</time></trkpt><trkpt lat="45.6382721" lon="11.184153"><ele>858.1428571428571</ele><time>2026-04-12T09:48:55.613Z</time></trkpt><trkpt lat="45.6383336" lon="11.1841222"><ele>858.5714285714286</ele><time>2026-04-12T09:48:58.613Z</time></trkpt><trkpt lat="45.6384041" lon="11.1840842"><ele>859.0</ele><time>2026-04-12T09:49:01.592Z</time></trkpt><trkpt lat="45.6384678" lon="11.1840452"><ele>859.7142857142857</ele><time>2026-04-12T09:49:04.604Z</time></trkpt><trkpt lat="45.6385309" lon="11.1839986"><ele>860.4285714285714</ele><time>2026-04-12T09:49:07.583Z</time></trkpt><trkpt lat="45.6385948" lon="11.1839546"><ele>861.1428571428571</ele><time>2026-04-12T09:49:10.62Z</time></trkpt><trkpt lat="45.6386497" lon="11.18391"><ele>861.8571428571429</ele><time>2026-04-12T09:49:13.62Z</time></trkpt><trkpt lat="45.638709" lon="11.1838516"><ele>862.5714285714286</ele><time>2026-04-12T09:49:17.606Z</time></trkpt><trkpt lat="45.6387729" lon="11.1837966"><ele>863.2857142857142</ele><time>2026-04-12T09:49:22.602Z</time></trkpt><trkpt lat="45.6388204" lon="11.1837324"><ele>864.0</ele><time>2026-04-12T09:49:26.586Z</time></trkpt><trkpt lat="45.6388332" lon="11.1836211"><ele>865.1428571428571</ele><time>2026-04-12T09:49:30.615Z</time></trkpt><trkpt lat="45.6388008" lon="11.1835164"><ele>866.2857142857142</ele><time>2026-04-12T09:49:35.586Z</time></trkpt><trkpt lat="45.6387621" lon="11.1834412"><ele>867.4285714285714</ele><time>2026-04-12T09:49:39.609Z</time></trkpt><trkpt lat="45.6387356" lon="11.1833416"><ele>868.5714285714286</ele><time>2026-04-12T09:49:44.603Z</time></trkpt><trkpt lat="45.6386938" lon="11.1832718"><ele>869.7142857142858</ele><time>2026-04-12T09:49:48.594Z</time></trkpt><trkpt lat="45.6386651" lon="11.1831754"><ele>870.8571428571429</ele><time>2026-04-12T09:49:53.612Z</time></trkpt><trkpt lat="45.6386768" lon="11.1830806"><ele>872.0</ele><time>2026-04-12T09:49:57.588Z</time></trkpt><trkpt lat="45.63869" lon="11.1829876"><ele>872.7142857142858</ele><time>2026-04-12T09:50:01.621Z</time></trkpt><trkpt lat="45.6387223" lon="11.1828878"><ele>873.4285714285714</ele><time>2026-04-12T09:50:06.613Z</time></trkpt><trkpt lat="45.6387451" lon="11.1827996"><ele>874.1428571428571</ele><time>2026-04-12T09:50:10.655Z</time></trkpt><trkpt lat="45.6387808" lon="11.1827167"><ele>874.8571428571429</ele><time>2026-04-12T09:50:14.661Z</time></trkpt><trkpt lat="45.6388188" lon="11.1826321"><ele>875.5714285714286</ele><time>2026-04-12T09:50:18.637Z</time></trkpt><trkpt lat="45.6388714" lon="11.1825393"><ele>876.2857142857143</ele><time>2026-04-12T09:50:23.611Z</time></trkpt><trkpt lat="45.6389361" lon="11.1824776"><ele>877.0</ele><time>2026-04-12T09:50:27.586Z</time></trkpt><trkpt lat="45.6389975" lon="11.1824315"><ele>877.0000000000001</ele><time>2026-04-12T09:50:31.608Z</time></trkpt><trkpt lat="45.6390524" lon="11.1823869"><ele>877.0</ele><time>2026-04-12T09:50:34.603Z</time></trkpt><trkpt lat="45.6391201" lon="11.1823428"><ele>877.0</ele><time>2026-04-12T09:50:38.613Z</time></trkpt><trkpt lat="45.6391826" lon="11.182304"><ele>877.0</ele><time>2026-04-12T09:50:42.595Z</time></trkpt><trkpt lat="45.6392446" lon="11.1822548"><ele>877.0</ele><time>2026-04-12T09:50:46.622Z</time></trkpt><trkpt lat="45.6393047" lon="11.1821992"><ele>877.0000000000001</ele><time>2026-04-12T09:50:50.621Z</time></trkpt><trkpt lat="45.6393702" lon="11.1821394"><ele>877.0</ele><time>2026-04-12T09:50:54.632Z</time></trkpt><trkpt lat="45.639432" lon="11.1820765"><ele>879.1666666666666</ele><time>2026-04-12T09:50:58.614Z</time></trkpt><trkpt lat="45.6394866" lon="11.1820033"><ele>881.3333333333333</ele><time>2026-04-12T09:51:02.587Z</time></trkpt><trkpt lat="45.6395481" lon="11.1819287"><ele>883.5</ele><time>2026-04-12T09:51:06.615Z</time></trkpt><trkpt lat="45.6395959" lon="11.1818341"><ele>885.6666666666667</ele><time>2026-04-12T09:51:10.613Z</time></trkpt><trkpt lat="45.6396179" lon="11.1816811"><ele>887.8333333333334</ele><time>2026-04-12T09:51:15.619Z</time></trkpt><trkpt lat="45.639621" lon="11.1815884"><ele>890.0</ele><time>2026-04-12T09:51:18.622Z</time></trkpt><trkpt lat="45.6396304" lon="11.1814739"><ele>890.5000000000001</ele><time>2026-04-12T09:51:22.605Z</time></trkpt><trkpt lat="45.6396343" lon="11.1813682"><ele>891.0</ele><time>2026-04-12T09:51:26.586Z</time></trkpt><trkpt lat="45.6396577" lon="11.1812597"><ele>891.5</ele><time>2026-04-12T09:51:30.623Z</time></trkpt><trkpt lat="45.6396644" lon="11.1811436"><ele>892.0</ele><time>2026-04-12T09:51:34.621Z</time></trkpt><trkpt lat="45.6396726" lon="11.18102"><ele>892.5000000000001</ele><time>2026-04-12T09:51:38.625Z</time></trkpt><trkpt lat="45.6396912" lon="11.1809231"><ele>893.0</ele><time>2026-04-12T09:51:41.602Z</time></trkpt><trkpt lat="45.6397087" lon="11.1808228"><ele>893.0000000000001</ele><time>2026-04-12T09:51:45.63Z</time></trkpt><trkpt lat="45.639725" lon="11.1807033"><ele>893.0</ele><time>2026-04-12T09:51:49.61Z</time></trkpt><trkpt lat="45.6397688" lon="11.1805944"><ele>893.0</ele><time>2026-04-12T09:51:53.612Z</time></trkpt><trkpt lat="45.6398087" lon="11.1805173"><ele>893.0</ele><time>2026-04-12T09:51:56.614Z</time></trkpt><trkpt lat="45.6398527" lon="11.1804361"><ele>893.0000000000001</ele><time>2026-04-12T09:52:00.672Z</time></trkpt><trkpt lat="45.6399031" lon="11.1803801"><ele>893.0</ele><time>2026-04-12T09:52:04.621Z</time></trkpt><trkpt lat="45.6399653" lon="11.1803179"><ele>892.7142857142858</ele><time>2026-04-12T09:52:08.614Z</time></trkpt><trkpt lat="45.6400306" lon="11.1802515"><ele>892.4285714285714</ele><time>2026-04-12T09:52:12.611Z</time></trkpt><trkpt lat="45.6400888" lon="11.1802037"><ele>892.1428571428571</ele><time>2026-04-12T09:52:15.588Z</time></trkpt><trkpt lat="45.6401498" lon="11.1801601"><ele>891.8571428571429</ele><time>2026-04-12T09:52:18.599Z</time></trkpt><trkpt lat="45.6402187" lon="11.1801313"><ele>891.5714285714286</ele><time>2026-04-12T09:52:21.59Z</time></trkpt><trkpt lat="45.6402768" lon="11.1800947"><ele>891.2857142857143</ele><time>2026-04-12T09:52:24.589Z</time></trkpt><trkpt lat="45.6403396" lon="11.1800641"><ele>891.0</ele><time>2026-04-12T09:52:27.582Z</time></trkpt><trkpt lat="45.6404096" lon="11.1800076"><ele>891.0000000000001</ele><time>2026-04-12T09:52:31.589Z</time></trkpt><trkpt lat="45.6404768" lon="11.1799994"><ele>891.0</ele><time>2026-04-12T09:52:35.607Z</time></trkpt><trkpt lat="45.6405366" lon="11.1800276"><ele>891.0</ele><time>2026-04-12T09:52:38.603Z</time></trkpt><trkpt lat="45.640602" lon="11.1800433"><ele>891.0</ele><time>2026-04-12T09:52:44.58Z</time></trkpt><trkpt lat="45.6406809" lon="11.1800472"><ele>891.0</ele><time>2026-04-12T09:52:51.681Z</time></trkpt><trkpt lat="45.6407432" lon="11.1800776"><ele>891.0000000000001</ele><time>2026-04-12T09:52:54.585Z</time></trkpt><trkpt lat="45.6408247" lon="11.1800948"><ele>891.0</ele><time>2026-04-12T09:52:57.633Z</time></trkpt><trkpt lat="45.6409154" lon="11.1801082"><ele>891.0</ele><time>2026-04-12T09:52:59.575Z</time></trkpt><trkpt lat="45.6410075" lon="11.1801497"><ele>891.0</ele><time>2026-04-12T09:53:01.579Z</time></trkpt><trkpt lat="45.6410764" lon="11.1801832"><ele>891.0</ele><time>2026-04-12T09:53:03.571Z</time></trkpt><trkpt lat="45.6411439" lon="11.1801927"><ele>891.0</ele><time>2026-04-12T09:53:19.578Z</time></trkpt><trkpt lat="45.6412241" lon="11.1802372"><ele>891.0</ele><time>2026-04-12T09:53:23.587Z</time></trkpt><trkpt lat="45.6412951" lon="11.1802373"><ele>891.0</ele><time>2026-04-12T09:53:25.577Z</time></trkpt><trkpt lat="45.6413733" lon="11.1802165"><ele>888.0</ele><time>2026-04-12T09:53:28.578Z</time></trkpt><trkpt lat="45.641458" lon="11.1802314"><ele>884.9999999999999</ele><time>2026-04-12T09:53:31.58Z</time></trkpt><trkpt lat="45.6415109" lon="11.1803285"><ele>881.9999999999999</ele><time>2026-04-12T09:53:33.582Z</time></trkpt><trkpt lat="45.6416176" lon="11.1804105"><ele>879.0</ele><time>2026-04-12T09:53:35.58Z</time></trkpt><trkpt lat="45.6417255" lon="11.1804881"><ele>876.0</ele><time>2026-04-12T09:53:37.583Z</time></trkpt><trkpt lat="45.6417958" lon="11.1805034"><ele>876.0</ele><time>2026-04-12T09:53:38.579Z</time></trkpt><trkpt lat="45.6419104" lon="11.1804937"><ele>875.9999999999999</ele><time>2026-04-12T09:53:40.583Z</time></trkpt><trkpt lat="45.6420029" lon="11.1804955"><ele>875.9999999999999</ele><time>2026-04-12T09:53:42.582Z</time></trkpt><trkpt lat="45.6420782" lon="11.1804898"><ele>876.0</ele><time>2026-04-12T09:54:45.585Z</time></trkpt><trkpt lat="45.6421669" lon="11.1804753"><ele>876.0</ele><time>2026-04-12T09:54:47.674Z</time></trkpt><trkpt lat="45.6422519" lon="11.1804469"><ele>872.1666666666666</ele><time>2026-04-12T09:54:49.591Z</time></trkpt><trkpt lat="45.6423181" lon="11.1804338"><ele>868.3333333333333</ele><time>2026-04-12T09:54:51.586Z</time></trkpt><trkpt lat="45.6423902" lon="11.1804885"><ele>864.5</ele><time>2026-04-12T09:54:53.588Z</time></trkpt><trkpt lat="45.6424608" lon="11.1805514"><ele>860.6666666666666</ele><time>2026-04-12T09:54:55.602Z</time></trkpt><trkpt lat="45.6425206" lon="11.1806382"><ele>856.8333333333333</ele><time>2026-04-12T09:54:57.631Z</time></trkpt><trkpt lat="45.6425563" lon="11.1807157"><ele>853.0</ele><time>2026-04-12T09:54:59.643Z</time></trkpt><trkpt lat="45.6426241" lon="11.1807623"><ele>853.0</ele><time>2026-04-12T09:55:03.585Z</time></trkpt><trkpt lat="45.6426563" lon="11.1806691"><ele>853.0</ele><time>2026-04-12T09:55:05.585Z</time></trkpt><trkpt lat="45.6426688" lon="11.1805545"><ele>853.0</ele><time>2026-04-12T09:55:08.615Z</time></trkpt><trkpt lat="45.6426828" lon="11.1804551"><ele>853.0</ele><time>2026-04-12T09:55:10.586Z</time></trkpt><trkpt lat="45.6426999" lon="11.180368"><ele>853.0</ele><time>2026-04-12T09:55:12.631Z</time></trkpt><trkpt lat="45.6427057" lon="11.1802767"><ele>853.0</ele><time>2026-04-12T09:55:15.62Z</time></trkpt><trkpt lat="45.6427166" lon="11.1801869"><ele>853.0</ele><time>2026-04-12T09:55:21.569Z</time></trkpt><trkpt lat="45.6427571" lon="11.180113"><ele>853.4999999999999</ele><time>2026-04-12T09:55:29.574Z</time></trkpt><trkpt lat="45.642808" lon="11.180057"><ele>854.0</ele><time>2026-04-12T09:55:38.573Z</time></trkpt><trkpt lat="45.6428883" lon="11.1800451"><ele>854.5</ele><time>2026-04-12T09:55:44.634Z</time></trkpt><trkpt lat="45.6429395" lon="11.1799659"><ele>855.0</ele><time>2026-04-12T09:55:47.612Z</time></trkpt><trkpt lat="45.6429812" lon="11.179874"><ele>855.4999999999999</ele><time>2026-04-12T09:55:51.586Z</time></trkpt><trkpt lat="45.6430229" lon="11.1797968"><ele>856.0</ele><time>2026-04-12T09:55:54.648Z</time></trkpt><trkpt lat="45.6430851" lon="11.1796732"><ele>856.0000000000001</ele><time>2026-04-12T09:56:00.455Z</time></trkpt><trkpt lat="45.6431467" lon="11.1796034"><ele>856.0</ele><time>2026-04-12T09:56:02.585Z</time></trkpt><trkpt lat="45.6432062" lon="11.1795584"><ele>856.0</ele><time>2026-04-12T09:56:04.627Z</time></trkpt><trkpt lat="45.6432706" lon="11.1795547"><ele>856.0</ele><time>2026-04-12T09:56:06.586Z</time></trkpt><trkpt lat="45.6433325" lon="11.1796115"><ele>856.0</ele><time>2026-04-12T09:56:09.595Z</time></trkpt><trkpt lat="45.6434069" lon="11.1796178"><ele>856.0000000000001</ele><time>2026-04-12T09:56:14.589Z</time></trkpt><trkpt lat="45.6434792" lon="11.1795777"><ele>856.0</ele><time>2026-04-12T09:56:20.621Z</time></trkpt><trkpt lat="45.6435103" lon="11.1794887"><ele>855.9999999999999</ele><time>2026-04-12T09:56:27.605Z</time></trkpt><trkpt lat="45.6435788" lon="11.1794206"><ele>856.0</ele><time>2026-04-12T09:56:32.858Z</time></trkpt><trkpt lat="45.6436467" lon="11.1793473"><ele>856.0</ele><time>2026-04-12T09:56:35.613Z</time></trkpt><trkpt lat="45.6437209" lon="11.1793317"><ele>856.0</ele><time>2026-04-12T09:56:38.629Z</time></trkpt><trkpt lat="45.6437593" lon="11.1794116"><ele>855.9999999999999</ele><time>2026-04-12T09:56:42.413Z</time></trkpt><trkpt lat="45.643839" lon="11.1794558"><ele>856.0</ele><time>2026-04-12T09:56:45.609Z</time></trkpt><trkpt lat="45.643893" lon="11.1795245"><ele>854.1428571428572</ele><time>2026-04-12T09:56:48.593Z</time></trkpt><trkpt lat="45.6439103" lon="11.1796167"><ele>852.2857142857143</ele><time>2026-04-12T09:56:54.618Z</time></trkpt><trkpt lat="45.6438832" lon="11.1797153"><ele>850.4285714285714</ele><time>2026-04-12T09:57:22.575Z</time></trkpt><trkpt lat="45.6438432" lon="11.179796"><ele>848.5714285714287</ele><time>2026-04-12T09:57:29.688Z</time></trkpt><trkpt lat="45.6439102" lon="11.1798044"><ele>846.7142857142857</ele><time>2026-04-12T09:57:52.624Z</time></trkpt><trkpt lat="45.6439849" lon="11.1797768"><ele>844.8571428571429</ele><time>2026-04-12T09:57:56.569Z</time></trkpt><trkpt lat="45.644053" lon="11.179796"><ele>843.0</ele><time>2026-04-12T09:58:07.576Z</time></trkpt><trkpt lat="45.6441145" lon="11.1798573"><ele>843.0</ele><time>2026-04-12T09:58:13.581Z</time></trkpt><trkpt lat="45.6441743" lon="11.1799163"><ele>843.0</ele><time>2026-04-12T09:58:21.61Z</time></trkpt><trkpt lat="45.644228" lon="11.1799656"><ele>843.0</ele><time>2026-04-12T09:58:28.606Z</time></trkpt><trkpt lat="45.6442953" lon="11.1800017"><ele>843.0</ele><time>2026-04-12T09:58:33.58Z</time></trkpt><trkpt lat="45.6443573" lon="11.179986"><ele>843.0</ele><time>2026-04-12T09:58:35.579Z</time></trkpt><trkpt lat="45.6444352" lon="11.1799662"><ele>843.0</ele><time>2026-04-12T09:58:38.573Z</time></trkpt><trkpt lat="45.6444907" lon="11.180012"><ele>843.0</ele><time>2026-04-12T09:58:40.575Z</time></trkpt><trkpt lat="45.6445535" lon="11.1800455"><ele>846.1666666666666</ele><time>2026-04-12T09:58:42.578Z</time></trkpt><trkpt lat="45.644621" lon="11.180108"><ele>849.3333333333333</ele><time>2026-04-12T09:58:44.575Z</time></trkpt><trkpt lat="45.6446546" lon="11.1802062"><ele>852.5</ele><time>2026-04-12T09:58:46.578Z</time></trkpt><trkpt lat="45.6447016" lon="11.180286"><ele>855.6666666666666</ele><time>2026-04-12T09:58:48.579Z</time></trkpt><trkpt lat="45.6447408" lon="11.1803846"><ele>858.8333333333333</ele><time>2026-04-12T09:58:50.583Z</time></trkpt><trkpt lat="45.6447775" lon="11.1804608"><ele>862.0</ele><time>2026-04-12T09:58:51.574Z</time></trkpt><trkpt lat="45.6448986" lon="11.1806061"><ele>856.1666666666666</ele><time>2026-04-12T09:58:53.581Z</time></trkpt><trkpt lat="45.6449759" lon="11.1806998"><ele>850.3333333333333</ele><time>2026-04-12T09:58:55.588Z</time></trkpt><trkpt lat="45.6450516" lon="11.1807417"><ele>844.5</ele><time>2026-04-12T09:58:57.585Z</time></trkpt><trkpt lat="45.6451411" lon="11.1807593"><ele>838.6666666666667</ele><time>2026-04-12T09:58:59.573Z</time></trkpt><trkpt lat="45.645213" lon="11.1808093"><ele>832.8333333333334</ele><time>2026-04-12T09:59:01.581Z</time></trkpt><trkpt lat="45.6452809" lon="11.1808141"><ele>827.0</ele><time>2026-04-12T09:59:03.589Z</time></trkpt><trkpt lat="45.6453826" lon="11.1807528"><ele>825.0</ele><time>2026-04-12T09:59:05.573Z</time></trkpt><trkpt lat="45.6455042" lon="11.1806834"><ele>823.0</ele><time>2026-04-12T09:59:07.587Z</time></trkpt><trkpt lat="45.6455786" lon="11.1806391"><ele>821.0</ele><time>2026-04-12T09:59:08.585Z</time></trkpt><trkpt lat="45.6456438" lon="11.1806217"><ele>819.0</ele><time>2026-04-12T09:59:09.586Z</time></trkpt><trkpt lat="45.6457062" lon="11.1806008"><ele>817.0</ele><time>2026-04-12T09:59:10.587Z</time></trkpt><trkpt lat="45.6458106" lon="11.1805143"><ele>820.4999999999999</ele><time>2026-04-12T09:59:12.686Z</time></trkpt><trkpt lat="45.6459183" lon="11.1804274"><ele>824.0</ele><time>2026-04-12T09:59:14.688Z</time></trkpt><trkpt lat="45.6460054" lon="11.1803686"><ele>827.5</ele><time>2026-04-12T09:59:16.617Z</time></trkpt><trkpt lat="45.6460763" lon="11.1803956"><ele>831.0</ele><time>2026-04-12T09:59:18.591Z</time></trkpt><trkpt lat="45.6461152" lon="11.1804885"><ele>834.4999999999999</ele><time>2026-04-12T09:59:20.578Z</time></trkpt><trkpt lat="45.6461455" lon="11.1805805"><ele>838.0</ele><time>2026-04-12T09:59:22.586Z</time></trkpt><trkpt lat="45.6461673" lon="11.1806985"><ele>837.9999999999999</ele><time>2026-04-12T09:59:24.597Z</time></trkpt><trkpt lat="45.6462293" lon="11.1807819"><ele>838.0</ele><time>2026-04-12T09:59:26.587Z</time></trkpt><trkpt lat="45.6463032" lon="11.1807931"><ele>838.0</ele><time>2026-04-12T09:59:28.588Z</time></trkpt><trkpt lat="45.6463938" lon="11.1807866"><ele>838.0</ele><time>2026-04-12T09:59:31.595Z</time></trkpt><trkpt lat="45.6464587" lon="11.1808306"><ele>837.9999999999999</ele><time>2026-04-12T09:59:33.589Z</time></trkpt><trkpt lat="45.6465096" lon="11.1808902"><ele>838.0</ele><time>2026-04-12T09:59:35.619Z</time></trkpt><trkpt lat="45.6465509" lon="11.1809614"><ele>837.9999999999999</ele><time>2026-04-12T09:59:57.579Z</time></trkpt><trkpt lat="45.6465798" lon="11.1810706"><ele>838.0</ele><time>2026-04-12T10:01:43.567Z</time></trkpt><trkpt lat="45.6466355" lon="11.1810189"><ele>838.0</ele><time>2026-04-12T10:03:40.57Z</time></trkpt><trkpt lat="45.6467031" lon="11.1809709"><ele>838.0</ele><time>2026-04-12T10:10:55.578Z</time></trkpt><trkpt lat="45.6468009" lon="11.1810082"><ele>837.9999999999999</ele><time>2026-04-12T10:10:57.587Z</time></trkpt><trkpt lat="45.6468644" lon="11.181063"><ele>838.0</ele><time>2026-04-12T10:10:59.663Z</time></trkpt><trkpt lat="45.6469334" lon="11.181121"><ele>838.4999999999999</ele><time>2026-04-12T10:11:02.596Z</time></trkpt><trkpt lat="45.6469966" lon="11.1812085"><ele>839.0</ele><time>2026-04-12T10:11:04.576Z</time></trkpt><trkpt lat="45.6470159" lon="11.1813052"><ele>839.5</ele><time>2026-04-12T10:11:06.582Z</time></trkpt><trkpt lat="45.6470026" lon="11.1814187"><ele>840.0</ele><time>2026-04-12T10:11:08.624Z</time></trkpt><trkpt lat="45.6469791" lon="11.1815147"><ele>840.4999999999999</ele><time>2026-04-12T10:11:10.636Z</time></trkpt><trkpt lat="45.6469883" lon="11.1816846"><ele>841.0</ele><time>2026-04-12T10:11:12.585Z</time></trkpt><trkpt lat="45.6470051" lon="11.1818727"><ele>836.4</ele><time>2026-04-12T10:11:14.591Z</time></trkpt><trkpt lat="45.6469509" lon="11.1820312"><ele>831.8</ele><time>2026-04-12T10:11:16.642Z</time></trkpt><trkpt lat="45.6469199" lon="11.182149"><ele>827.1999999999999</ele><time>2026-04-12T10:11:18.695Z</time></trkpt><trkpt lat="45.6469497" lon="11.1822346"><ele>822.5999999999999</ele><time>2026-04-12T10:11:19.725Z</time></trkpt><trkpt lat="45.6469981" lon="11.1823878"><ele>818.0</ele><time>2026-04-12T10:11:21.599Z</time></trkpt><trkpt lat="45.6470647" lon="11.1825392"><ele>818.0000000000001</ele><time>2026-04-12T10:11:23.586Z</time></trkpt><trkpt lat="45.6471606" lon="11.1826099"><ele>818.0</ele><time>2026-04-12T10:11:25.58Z</time></trkpt><trkpt lat="45.6472566" lon="11.1826426"><ele>818.0</ele><time>2026-04-12T10:11:27.626Z</time></trkpt><trkpt lat="45.6473498" lon="11.1826828"><ele>818.0</ele><time>2026-04-12T10:11:29.626Z</time></trkpt><trkpt lat="45.6474222" lon="11.1827052"><ele>818.0000000000001</ele><time>2026-04-12T10:11:33.6Z</time></trkpt><trkpt lat="45.6474907" lon="11.1827163"><ele>818.0</ele><time>2026-04-12T10:11:38.64Z</time></trkpt><trkpt lat="45.6475685" lon="11.1826691"><ele>818.0</ele><time>2026-04-12T10:11:42.589Z</time></trkpt><trkpt lat="45.6476345" lon="11.1826137"><ele>818.0</ele><time>2026-04-12T10:11:46.583Z</time></trkpt><trkpt lat="45.6476981" lon="11.1825786"><ele>818.0</ele><time>2026-04-12T10:11:50.629Z</time></trkpt><trkpt lat="45.6477722" lon="11.1825713"><ele>818.0</ele><time>2026-04-12T10:11:57.637Z</time></trkpt><trkpt lat="45.6478108" lon="11.1824964"><ele>818.0</ele><time>2026-04-12T10:12:03.621Z</time></trkpt><trkpt lat="45.6478455" lon="11.1824171"><ele>818.0</ele><time>2026-04-12T10:12:08.575Z</time></trkpt><trkpt lat="45.6478989" lon="11.1823543"><ele>818.0</ele><time>2026-04-12T10:12:16.593Z</time></trkpt><trkpt lat="45.6479227" lon="11.1822606"><ele>819.8571428571428</ele><time>2026-04-12T10:12:29.58Z</time></trkpt><trkpt lat="45.6479395" lon="11.1821718"><ele>821.7142857142858</ele><time>2026-04-12T10:12:34.58Z</time></trkpt><trkpt lat="45.6479435" lon="11.1820699"><ele>823.5714285714286</ele><time>2026-04-12T10:12:39.588Z</time></trkpt><trkpt lat="45.6479871" lon="11.1819879"><ele>825.4285714285713</ele><time>2026-04-12T10:12:43.585Z</time></trkpt><trkpt lat="45.6480459" lon="11.1819219"><ele>827.2857142857142</ele><time>2026-04-12T10:12:47.571Z</time></trkpt><trkpt lat="45.6480927" lon="11.1818494"><ele>829.1428571428571</ele><time>2026-04-12T10:12:53.589Z</time></trkpt><trkpt lat="45.6481467" lon="11.181789"><ele>831.0</ele><time>2026-04-12T10:12:58.581Z</time></trkpt><trkpt lat="45.648202" lon="11.1817004"><ele>830.9999999999999</ele><time>2026-04-12T10:13:03.626Z</time></trkpt><trkpt lat="45.6482535" lon="11.1816224"><ele>831.0</ele><time>2026-04-12T10:13:07.587Z</time></trkpt><trkpt lat="45.6482982" lon="11.1815552"><ele>831.0</ele><time>2026-04-12T10:13:10.582Z</time></trkpt><trkpt lat="45.6483595" lon="11.1814659"><ele>831.0</ele><time>2026-04-12T10:13:16.592Z</time></trkpt><trkpt lat="45.6484012" lon="11.1813936"><ele>831.0</ele><time>2026-04-12T10:13:20.654Z</time></trkpt><trkpt lat="45.6484557" lon="11.1813465"><ele>830.9999999999999</ele><time>2026-04-12T10:13:23.592Z</time></trkpt><trkpt lat="45.6485072" lon="11.1812752"><ele>831.0</ele><time>2026-04-12T10:13:28.578Z</time></trkpt><trkpt lat="45.6485677" lon="11.1812195"><ele>828.1666666666666</ele><time>2026-04-12T10:13:33.577Z</time></trkpt><trkpt lat="45.6485867" lon="11.1811233"><ele>825.3333333333333</ele><time>2026-04-12T10:13:39.574Z</time></trkpt><trkpt lat="45.6486434" lon="11.1810288"><ele>822.5</ele><time>2026-04-12T10:13:43.587Z</time></trkpt><trkpt lat="45.6487094" lon="11.1809898"><ele>819.6666666666666</ele><time>2026-04-12T10:13:47.579Z</time></trkpt><trkpt lat="45.6488077" lon="11.1808973"><ele>816.8333333333333</ele><time>2026-04-12T10:14:04.622Z</time></trkpt><trkpt lat="45.64887" lon="11.180852"><ele>814.0</ele><time>2026-04-12T10:14:08.584Z</time></trkpt><trkpt lat="45.6489311" lon="11.1807993"><ele>813.9999999999999</ele><time>2026-04-12T10:14:12.577Z</time></trkpt><trkpt lat="45.6489887" lon="11.1806978"><ele>814.0</ele><time>2026-04-12T10:14:16.63Z</time></trkpt><trkpt lat="45.6490311" lon="11.180587"><ele>814.0</ele><time>2026-04-12T10:14:19.582Z</time></trkpt><trkpt lat="45.6490954" lon="11.1805067"><ele>814.0</ele><time>2026-04-12T10:14:21.587Z</time></trkpt><trkpt lat="45.6491711" lon="11.1804635"><ele>813.9999999999999</ele><time>2026-04-12T10:14:23.582Z</time></trkpt><trkpt lat="45.6492602" lon="11.1804189"><ele>814.0</ele><time>2026-04-12T10:14:26.648Z</time></trkpt><trkpt lat="45.6493444" lon="11.1804059"><ele>817.2857142857143</ele><time>2026-04-12T10:14:28.586Z</time></trkpt><trkpt lat="45.649397" lon="11.1803555"><ele>820.5714285714286</ele><time>2026-04-12T10:14:30.582Z</time></trkpt><trkpt lat="45.6494238" lon="11.1802294"><ele>823.8571428571429</ele><time>2026-04-12T10:14:33.578Z</time></trkpt><trkpt lat="45.6494547" lon="11.1801332"><ele>827.1428571428571</ele><time>2026-04-12T10:14:35.587Z</time></trkpt><trkpt lat="45.6494962" lon="11.1800463"><ele>830.4285714285714</ele><time>2026-04-12T10:14:37.576Z</time></trkpt><trkpt lat="45.649567" lon="11.1799912"><ele>833.7142857142858</ele><time>2026-04-12T10:14:38.63Z</time></trkpt><trkpt lat="45.6496294" lon="11.1799651"><ele>837.0</ele><time>2026-04-12T10:14:39.636Z</time></trkpt><trkpt lat="45.6497053" lon="11.179949"><ele>829.0</ele><time>2026-04-12T10:14:40.578Z</time></trkpt><trkpt lat="45.6498091" lon="11.1799627"><ele>821.0</ele><time>2026-04-12T10:14:42.578Z</time></trkpt><trkpt lat="45.6498781" lon="11.179926"><ele>813.0</ele><time>2026-04-12T10:14:44.576Z</time></trkpt><trkpt lat="45.6499215" lon="11.1798045"><ele>805.0</ele><time>2026-04-12T10:14:47.584Z</time></trkpt><trkpt lat="45.6499533" lon="11.1797248"><ele>797.0</ele><time>2026-04-12T10:14:48.579Z</time></trkpt><trkpt lat="45.6499502" lon="11.1795728"><ele>789.0</ele><time>2026-04-12T10:14:50.581Z</time></trkpt><trkpt lat="45.6499679" lon="11.17944"><ele>789.0</ele><time>2026-04-12T10:14:51.582Z</time></trkpt><trkpt lat="45.6499475" lon="11.1793261"><ele>789.0</ele><time>2026-04-12T10:14:52.578Z</time></trkpt><trkpt lat="45.6499191" lon="11.1792433"><ele>789.0</ele><time>2026-04-12T10:14:53.583Z</time></trkpt><trkpt lat="45.6498475" lon="11.1791063"><ele>789.0</ele><time>2026-04-12T10:14:55.587Z</time></trkpt><trkpt lat="45.6498365" lon="11.1789969"><ele>789.0</ele><time>2026-04-12T10:14:57.577Z</time></trkpt><trkpt lat="45.6498476" lon="11.1788733"><ele>789.0</ele><time>2026-04-12T10:14:59.57Z</time></trkpt><trkpt lat="45.6498911" lon="11.1787542"><ele>788.4285714285713</ele><time>2026-04-12T10:15:01.582Z</time></trkpt><trkpt lat="45.6499143" lon="11.1786649"><ele>787.8571428571429</ele><time>2026-04-12T10:15:03.581Z</time></trkpt><trkpt lat="45.6499162" lon="11.1785708"><ele>787.2857142857142</ele><time>2026-04-12T10:15:05.579Z</time></trkpt><trkpt lat="45.6499004" lon="11.1784556"><ele>786.7142857142857</ele><time>2026-04-12T10:15:08.583Z</time></trkpt><trkpt lat="45.6499176" lon="11.1783657"><ele>786.1428571428571</ele><time>2026-04-12T10:15:11.585Z</time></trkpt><trkpt lat="45.6499846" lon="11.178371"><ele>785.5714285714286</ele><time>2026-04-12T10:15:14.58Z</time></trkpt><trkpt lat="45.6500393" lon="11.1784683"><ele>785.0</ele><time>2026-04-12T10:15:16.575Z</time></trkpt><trkpt lat="45.6500934" lon="11.1785702"><ele>785.0000000000001</ele><time>2026-04-12T10:15:18.586Z</time></trkpt><trkpt lat="45.6501294" lon="11.1787015"><ele>785.0</ele><time>2026-04-12T10:15:21.592Z</time></trkpt><trkpt lat="45.6501464" lon="11.178803"><ele>785.0</ele><time>2026-04-12T10:15:23.581Z</time></trkpt><trkpt lat="45.6501498" lon="11.1789037"><ele>785.0</ele><time>2026-04-12T10:15:25.576Z</time></trkpt><trkpt lat="45.6502005" lon="11.1788365"><ele>785.0000000000001</ele><time>2026-04-12T10:15:31.592Z</time></trkpt><trkpt lat="45.6501977" lon="11.1787315"><ele>785.0</ele><time>2026-04-12T10:15:33.58Z</time></trkpt><trkpt lat="45.6502014" lon="11.1786292"><ele>785.0</ele><time>2026-04-12T10:15:34.58Z</time></trkpt><trkpt lat="45.6502001" lon="11.1784732"><ele>785.0</ele><time>2026-04-12T10:15:36.583Z</time></trkpt><trkpt lat="45.65018" lon="11.1783241"><ele>785.0</ele><time>2026-04-12T10:15:38.584Z</time></trkpt><trkpt lat="45.6501499" lon="11.1782389"><ele>785.0</ele><time>2026-04-12T10:15:39.589Z</time></trkpt><trkpt lat="45.6501407" lon="11.1780682"><ele>785.0</ele><time>2026-04-12T10:15:41.581Z</time></trkpt><trkpt lat="45.6501227" lon="11.1779446"><ele>785.8</ele><time>2026-04-12T10:15:43.585Z</time></trkpt><trkpt lat="45.6501423" lon="11.1778052"><ele>786.6</ele><time>2026-04-12T10:15:45.581Z</time></trkpt><trkpt lat="45.6502051" lon="11.1776777"><ele>787.4000000000001</ele><time>2026-04-12T10:15:47.587Z</time></trkpt><trkpt lat="45.6502357" lon="11.1775726"><ele>788.2</ele><time>2026-04-12T10:15:50.582Z</time></trkpt><trkpt lat="45.6502484" lon="11.1774458"><ele>789.0</ele><time>2026-04-12T10:15:54.57Z</time></trkpt><trkpt lat="45.6503269" lon="11.1774752"><ele>784.4000000000001</ele><time>2026-04-12T10:15:57.579Z</time></trkpt><trkpt lat="45.6503882" lon="11.1775798"><ele>779.8</ele><time>2026-04-12T10:16:00.588Z</time></trkpt><trkpt lat="45.6504212" lon="11.1776793"><ele>775.2</ele><time>2026-04-12T10:16:02.578Z</time></trkpt><trkpt lat="45.6504905" lon="11.1777716"><ele>770.5999999999999</ele><time>2026-04-12T10:16:04.58Z</time></trkpt><trkpt lat="45.6505096" lon="11.1778822"><ele>766.0</ele><time>2026-04-12T10:16:06.586Z</time></trkpt><trkpt lat="45.6506207" lon="11.1779376"><ele>766.0</ele><time>2026-04-12T10:16:25.582Z</time></trkpt><trkpt lat="45.6507367" lon="11.1780036"><ele>766.0</ele><time>2026-04-12T10:16:27.578Z</time></trkpt><trkpt lat="45.6508645" lon="11.1781365"><ele>766.0</ele><time>2026-04-12T10:16:30.577Z</time></trkpt><trkpt lat="45.6509461" lon="11.1782303"><ele>766.0</ele><time>2026-04-12T10:16:32.579Z</time></trkpt><trkpt lat="45.6510243" lon="11.1782704"><ele>762.3333333333334</ele><time>2026-04-12T10:16:34.602Z</time></trkpt><trkpt lat="45.6511" lon="11.178296"><ele>758.6666666666667</ele><time>2026-04-12T10:16:37.592Z</time></trkpt><trkpt lat="45.6511646" lon="11.1783426"><ele>755.0</ele><time>2026-04-12T10:16:44.578Z</time></trkpt><trkpt lat="45.6512322" lon="11.1783785"><ele>751.3333333333334</ele><time>2026-04-12T10:16:50.589Z</time></trkpt><trkpt lat="45.6512992" lon="11.1784375"><ele>747.6666666666666</ele><time>2026-04-12T10:16:54.581Z</time></trkpt><trkpt lat="45.6513703" lon="11.1784976"><ele>744.0</ele><time>2026-04-12T10:16:57.63Z</time></trkpt><trkpt lat="45.6514398" lon="11.1785454"><ele>744.0</ele><time>2026-04-12T10:17:01.584Z</time></trkpt><trkpt lat="45.6514941" lon="11.1786124"><ele>744.0</ele><time>2026-04-12T10:17:04.62Z</time></trkpt><trkpt lat="45.6515393" lon="11.1786896"><ele>744.0</ele><time>2026-04-12T10:17:08.584Z</time></trkpt><trkpt lat="45.6516087" lon="11.1786566"><ele>744.0</ele><time>2026-04-12T10:17:17.637Z</time></trkpt><trkpt lat="45.6517044" lon="11.1786084"><ele>744.0</ele><time>2026-04-12T10:17:21.583Z</time></trkpt><trkpt lat="45.6517839" lon="11.1785921"><ele>744.0</ele><time>2026-04-12T10:17:23.669Z</time></trkpt><trkpt lat="45.6518855" lon="11.1785638"><ele>741.0</ele><time>2026-04-12T10:17:25.628Z</time></trkpt><trkpt lat="45.651969" lon="11.1785252"><ele>738.0</ele><time>2026-04-12T10:17:27.591Z</time></trkpt><trkpt lat="45.6520905" lon="11.1784566"><ele>735.0</ele><time>2026-04-12T10:17:29.59Z</time></trkpt><trkpt lat="45.6522191" lon="11.1783773"><ele>732.0</ele><time>2026-04-12T10:17:31.576Z</time></trkpt><trkpt lat="45.6522755" lon="11.1783336"><ele>729.0</ele><time>2026-04-12T10:17:32.6Z</time></trkpt><trkpt lat="45.6523583" lon="11.1782551"><ele>729.6666666666666</ele><time>2026-04-12T10:17:34.589Z</time></trkpt><trkpt lat="45.6525369" lon="11.1781188"><ele>730.3333333333333</ele><time>2026-04-12T10:17:39.579Z</time></trkpt><trkpt lat="45.6527732" lon="11.1781137"><ele>731.0</ele><time>2026-04-12T10:17:45.58Z</time></trkpt><trkpt lat="45.6528549" lon="11.1780618"><ele>731.0</ele><time>2026-04-12T10:17:47.578Z</time></trkpt><trkpt lat="45.6529175" lon="11.1780195"><ele>731.0</ele><time>2026-04-12T10:17:49.631Z</time></trkpt><trkpt lat="45.6529616" lon="11.1779446"><ele>731.0</ele><time>2026-04-12T10:17:51.648Z</time></trkpt><trkpt lat="45.6530193" lon="11.177858"><ele>731.0</ele><time>2026-04-12T10:17:53.576Z</time></trkpt><trkpt lat="45.6530805" lon="11.1777838"><ele>731.0</ele><time>2026-04-12T10:17:55.629Z</time></trkpt><trkpt lat="45.6531456" lon="11.1777246"><ele>731.0</ele><time>2026-04-12T10:17:57.589Z</time></trkpt><trkpt lat="45.6532089" lon="11.1776762"><ele>731.0</ele><time>2026-04-12T10:17:59.581Z</time></trkpt><trkpt lat="45.6532762" lon="11.177625"><ele>731.0</ele><time>2026-04-12T10:18:01.588Z</time></trkpt><trkpt lat="45.6533546" lon="11.1775915"><ele>731.0</ele><time>2026-04-12T10:18:03.584Z</time></trkpt><trkpt lat="45.6534092" lon="11.1775463"><ele>731.0</ele><time>2026-04-12T10:18:04.578Z</time></trkpt><trkpt lat="45.6534853" lon="11.1774641"><ele>731.0</ele><time>2026-04-12T10:18:06.585Z</time></trkpt><trkpt lat="45.6535636" lon="11.1773933"><ele>731.0</ele><time>2026-04-12T10:18:08.578Z</time></trkpt><trkpt lat="45.6536373" lon="11.177296"><ele>731.5714285714286</ele><time>2026-04-12T10:18:10.584Z</time></trkpt><trkpt lat="45.6537046" lon="11.1772536"><ele>732.1428571428571</ele><time>2026-04-12T10:18:12.58Z</time></trkpt><trkpt lat="45.6537746" lon="11.1772485"><ele>732.7142857142858</ele><time>2026-04-12T10:18:14.576Z</time></trkpt><trkpt lat="45.6538521" lon="11.1772522"><ele>733.2857142857142</ele><time>2026-04-12T10:18:17.585Z</time></trkpt><trkpt lat="45.6539207" lon="11.1772776"><ele>733.8571428571429</ele><time>2026-04-12T10:18:20.574Z</time></trkpt><trkpt lat="45.6539722" lon="11.1773336"><ele>734.4285714285714</ele><time>2026-04-12T10:18:22.571Z</time></trkpt><trkpt lat="45.6540494" lon="11.1773323"><ele>735.0</ele><time>2026-04-12T10:18:25.583Z</time></trkpt><trkpt lat="45.65408" lon="11.1772404"><ele>735.0</ele><time>2026-04-12T10:18:31.569Z</time></trkpt><trkpt lat="45.6541101" lon="11.1771418"><ele>735.0</ele><time>2026-04-12T10:18:37.579Z</time></trkpt><trkpt lat="45.6541697" lon="11.1770986"><ele>735.0</ele><time>2026-04-12T10:18:41.588Z</time></trkpt><trkpt lat="45.6542381" lon="11.1770446"><ele>735.0</ele><time>2026-04-12T10:18:47.58Z</time></trkpt><trkpt lat="45.6542889" lon="11.176987"><ele>735.0</ele><time>2026-04-12T10:18:51.576Z</time></trkpt><trkpt lat="45.654356" lon="11.1769423"><ele>735.0</ele><time>2026-04-12T10:18:56.59Z</time></trkpt><trkpt lat="45.654389" lon="11.1768548"><ele>735.0</ele><time>2026-04-12T10:19:02.587Z</time></trkpt><trkpt lat="45.6544431" lon="11.1767955"><ele>734.8571428571429</ele><time>2026-04-12T10:19:09.584Z</time></trkpt><trkpt lat="45.6544912" lon="11.1767226"><ele>734.7142857142858</ele><time>2026-04-12T10:19:14.58Z</time></trkpt><trkpt lat="45.6545385" lon="11.1766486"><ele>734.5714285714286</ele><time>2026-04-12T10:19:20.619Z</time></trkpt><trkpt lat="45.6546004" lon="11.1766134"><ele>734.4285714285714</ele><time>2026-04-12T10:19:27.62Z</time></trkpt><trkpt lat="45.6546652" lon="11.1765802"><ele>734.2857142857143</ele><time>2026-04-12T10:19:33.575Z</time></trkpt><trkpt lat="45.6547102" lon="11.1765149"><ele>734.1428571428571</ele><time>2026-04-12T10:19:37.632Z</time></trkpt><trkpt lat="45.654753" lon="11.1764412"><ele>734.0</ele><time>2026-04-12T10:20:16.588Z</time></trkpt><trkpt lat="45.6547979" lon="11.1763756"><ele>737.1666666666666</ele><time>2026-04-12T10:20:22.65Z</time></trkpt><trkpt lat="45.654869" lon="11.176326"><ele>740.3333333333333</ele><time>2026-04-12T10:20:30.645Z</time></trkpt><trkpt lat="45.6549793" lon="11.1763187"><ele>743.5</ele><time>2026-04-12T10:20:46.575Z</time></trkpt><trkpt lat="45.6550406" lon="11.1762574"><ele>746.6666666666666</ele><time>2026-04-12T10:21:06.588Z</time></trkpt><trkpt lat="45.6551067" lon="11.1762286"><ele>749.8333333333334</ele><time>2026-04-12T10:21:11.59Z</time></trkpt><trkpt lat="45.6551758" lon="11.1762306"><ele>753.0</ele><time>2026-04-12T10:21:24.527Z</time></trkpt><trkpt lat="45.6551304" lon="11.1761618"><ele>753.0</ele><time>2026-04-12T10:22:40.57Z</time></trkpt><trkpt lat="45.6551648" lon="11.1762401"><ele>753.0</ele><time>2026-04-12T10:23:35.572Z</time></trkpt><trkpt lat="45.6552326" lon="11.1762796"><ele>753.0</ele><time>2026-04-12T10:23:59.568Z</time></trkpt><trkpt lat="45.6552698" lon="11.1763562"><ele>753.0</ele><time>2026-04-12T10:32:48.575Z</time></trkpt><trkpt lat="45.6551907" lon="11.1763608"><ele>753.0</ele><time>2026-04-12T10:39:52.576Z</time></trkpt><trkpt lat="45.6551485" lon="11.1764764"><ele>753.0</ele><time>2026-04-12T10:40:23.582Z</time></trkpt><trkpt lat="45.6551366" lon="11.1765717"><ele>753.0</ele><time>2026-04-12T10:40:28.59Z</time></trkpt><trkpt lat="45.655057" lon="11.1766349"><ele>749.8333333333334</ele><time>2026-04-12T10:40:31.581Z</time></trkpt><trkpt lat="45.6550214" lon="11.1767227"><ele>746.6666666666666</ele><time>2026-04-12T10:40:34.591Z</time></trkpt><trkpt lat="45.6549818" lon="11.1768198"><ele>743.5</ele><time>2026-04-12T10:40:36.603Z</time></trkpt><trkpt lat="45.6549376" lon="11.1769453"><ele>740.3333333333333</ele><time>2026-04-12T10:40:39.584Z</time></trkpt><trkpt lat="45.6549024" lon="11.1770556"><ele>737.1666666666666</ele><time>2026-04-12T10:40:41.583Z</time></trkpt><trkpt lat="45.6548615" lon="11.177138"><ele>734.0</ele><time>2026-04-12T10:40:43.584Z</time></trkpt><trkpt lat="45.6548136" lon="11.1772394"><ele>734.0</ele><time>2026-04-12T10:40:46.59Z</time></trkpt><trkpt lat="45.6547689" lon="11.1773234"><ele>734.0</ele><time>2026-04-12T10:40:49.582Z</time></trkpt><trkpt lat="45.6547155" lon="11.1773926"><ele>734.0</ele><time>2026-04-12T10:40:52.585Z</time></trkpt><trkpt lat="45.6546776" lon="11.1774894"><ele>734.0</ele><time>2026-04-12T10:40:55.583Z</time></trkpt><trkpt lat="45.6546357" lon="11.1775934"><ele>734.0</ele><time>2026-04-12T10:40:59.595Z</time></trkpt><trkpt lat="45.6546298" lon="11.1776982"><ele>734.0</ele><time>2026-04-12T10:41:02.593Z</time></trkpt><trkpt lat="45.6546015" lon="11.1777865"><ele>734.0</ele><time>2026-04-12T10:41:05.591Z</time></trkpt><trkpt lat="45.6545612" lon="11.1778777"><ele>734.5714285714286</ele><time>2026-04-12T10:41:10.579Z</time></trkpt><trkpt lat="45.6545269" lon="11.1779567"><ele>735.1428571428572</ele><time>2026-04-12T10:41:13.612Z</time></trkpt><trkpt lat="45.6544849" lon="11.1780362"><ele>735.7142857142858</ele><time>2026-04-12T10:41:17.576Z</time></trkpt><trkpt lat="45.6544765" lon="11.1781338"><ele>736.2857142857142</ele><time>2026-04-12T10:41:21.586Z</time></trkpt><trkpt lat="45.6544619" lon="11.1782286"><ele>736.8571428571429</ele><time>2026-04-12T10:41:25.579Z</time></trkpt><trkpt lat="45.654393" lon="11.1782981"><ele>737.4285714285714</ele><time>2026-04-12T10:41:29.577Z</time></trkpt><trkpt lat="45.6543294" lon="11.1783517"><ele>738.0</ele><time>2026-04-12T10:41:31.575Z</time></trkpt><trkpt lat="45.6542328" lon="11.1784742"><ele>738.1428571428571</ele><time>2026-04-12T10:41:33.589Z</time></trkpt><trkpt lat="45.6541759" lon="11.1785509"><ele>738.2857142857142</ele><time>2026-04-12T10:41:35.595Z</time></trkpt><trkpt lat="45.6541729" lon="11.1786615"><ele>738.4285714285714</ele><time>2026-04-12T10:41:38.58Z</time></trkpt><trkpt lat="45.6541369" lon="11.1787415"><ele>738.5714285714286</ele><time>2026-04-12T10:41:43.577Z</time></trkpt><trkpt lat="45.6540995" lon="11.1788169"><ele>738.7142857142858</ele><time>2026-04-12T10:41:51.579Z</time></trkpt><trkpt lat="45.6540718" lon="11.1789065"><ele>738.8571428571429</ele><time>2026-04-12T10:41:55.588Z</time></trkpt><trkpt lat="45.6540481" lon="11.1790007"><ele>739.0</ele><time>2026-04-12T10:42:00.58Z</time></trkpt><trkpt lat="45.6540223" lon="11.1790891"><ele>739.0</ele><time>2026-04-12T10:42:04.571Z</time></trkpt><trkpt lat="45.6540106" lon="11.1791812"><ele>739.0</ele><time>2026-04-12T10:42:12.583Z</time></trkpt><trkpt lat="45.6539569" lon="11.1792489"><ele>739.0</ele><time>2026-04-12T10:42:14.582Z</time></trkpt><trkpt lat="45.6539078" lon="11.1793226"><ele>739.0</ele><time>2026-04-12T10:42:17.591Z</time></trkpt><trkpt lat="45.6539309" lon="11.1794237"><ele>739.0</ele><time>2026-04-12T10:42:23.597Z</time></trkpt><trkpt lat="45.653943" lon="11.1795148"><ele>739.0</ele><time>2026-04-12T10:42:29.582Z</time></trkpt><trkpt lat="45.653979" lon="11.1796396"><ele>739.0</ele><time>2026-04-12T10:42:58.581Z</time></trkpt><trkpt lat="45.6540215" lon="11.1797106"><ele>739.0</ele><time>2026-04-12T10:43:06.59Z</time></trkpt><trkpt lat="45.6540283" lon="11.1798327"><ele>739.0</ele><time>2026-04-12T10:43:16.581Z</time></trkpt><trkpt lat="45.6540465" lon="11.1799399"><ele>739.0</ele><time>2026-04-12T10:43:20.591Z</time></trkpt><trkpt lat="45.6540378" lon="11.1800315"><ele>739.0</ele><time>2026-04-12T10:43:30.648Z</time></trkpt><trkpt lat="45.6541013" lon="11.1801145"><ele>739.0</ele><time>2026-04-12T10:43:35.586Z</time></trkpt><trkpt lat="45.654127" lon="11.1802022"><ele>739.0</ele><time>2026-04-12T10:43:40.639Z</time></trkpt><trkpt lat="45.6541272" lon="11.1802926"><ele>739.0</ele><time>2026-04-12T10:43:45.592Z</time></trkpt><trkpt lat="45.6541466" lon="11.1803994"><ele>740.2857142857143</ele><time>2026-04-12T10:43:55.583Z</time></trkpt><trkpt lat="45.6541413" lon="11.1804974"><ele>741.5714285714287</ele><time>2026-04-12T10:44:02.582Z</time></trkpt><trkpt lat="45.654159" lon="11.1805902"><ele>742.8571428571429</ele><time>2026-04-12T10:44:10.579Z</time></trkpt><trkpt lat="45.6541671" lon="11.1806819"><ele>744.1428571428571</ele><time>2026-04-12T10:44:13.591Z</time></trkpt><trkpt lat="45.654179" lon="11.1807869"><ele>745.4285714285714</ele><time>2026-04-12T10:44:17.59Z</time></trkpt><trkpt lat="45.6542062" lon="11.1808902"><ele>746.7142857142857</ele><time>2026-04-12T10:44:37.701Z</time></trkpt><trkpt lat="45.6541929" lon="11.1807944"><ele>748.0</ele><time>2026-04-12T10:46:38.591Z</time></trkpt><trkpt lat="45.654239" lon="11.1807237"><ele>748.0</ele><time>2026-04-12T10:46:41.592Z</time></trkpt><trkpt lat="45.6542856" lon="11.1806275"><ele>748.0</ele><time>2026-04-12T10:46:45.613Z</time></trkpt><trkpt lat="45.6543131" lon="11.1805341"><ele>748.0</ele><time>2026-04-12T10:46:48.581Z</time></trkpt><trkpt lat="45.6543236" lon="11.1804343"><ele>748.0</ele><time>2026-04-12T10:46:51.593Z</time></trkpt><trkpt lat="45.6543453" lon="11.1803431"><ele>748.0</ele><time>2026-04-12T10:46:54.581Z</time></trkpt><trkpt lat="45.6543668" lon="11.1802476"><ele>748.0</ele><time>2026-04-12T10:46:58.655Z</time></trkpt><trkpt lat="45.6544034" lon="11.1801519"><ele>748.0</ele><time>2026-04-12T10:47:03.59Z</time></trkpt><trkpt lat="45.6544114" lon="11.1800433"><ele>748.0</ele><time>2026-04-12T10:47:10.581Z</time></trkpt><trkpt lat="45.654408" lon="11.1799319"><ele>748.0</ele><time>2026-04-12T10:47:15.577Z</time></trkpt><trkpt lat="45.6544091" lon="11.1798415"><ele>748.0</ele><time>2026-04-12T10:47:18.581Z</time></trkpt><trkpt lat="45.6544293" lon="11.1797315"><ele>748.0</ele><time>2026-04-12T10:47:23.611Z</time></trkpt><trkpt lat="45.6544506" lon="11.1796268"><ele>748.0</ele><time>2026-04-12T10:47:29.589Z</time></trkpt><trkpt lat="45.6544857" lon="11.179526"><ele>748.0</ele><time>2026-04-12T10:47:35.591Z</time></trkpt><trkpt lat="45.6545212" lon="11.179449"><ele>748.0</ele><time>2026-04-12T10:47:39.591Z</time></trkpt><trkpt lat="45.6545736" lon="11.1793696"><ele>748.1428571428571</ele><time>2026-04-12T10:47:45.585Z</time></trkpt><trkpt lat="45.6546215" lon="11.179304"><ele>748.2857142857143</ele><time>2026-04-12T10:47:48.58Z</time></trkpt><trkpt lat="45.6546758" lon="11.1792349"><ele>748.4285714285714</ele><time>2026-04-12T10:47:52.633Z</time></trkpt><trkpt lat="45.6547452" lon="11.1791614"><ele>748.5714285714286</ele><time>2026-04-12T10:47:56.585Z</time></trkpt><trkpt lat="45.6548014" lon="11.1790937"><ele>748.7142857142858</ele><time>2026-04-12T10:48:01.586Z</time></trkpt><trkpt lat="45.6548285" lon="11.1790059"><ele>748.8571428571429</ele><time>2026-04-12T10:48:06.593Z</time></trkpt><trkpt lat="45.6548943" lon="11.178969"><ele>749.0</ele><time>2026-04-12T10:48:09.594Z</time></trkpt><trkpt lat="45.6549557" lon="11.1789175"><ele>749.0</ele><time>2026-04-12T10:48:13.644Z</time></trkpt><trkpt lat="45.6550162" lon="11.1788525"><ele>749.0</ele><time>2026-04-12T10:48:17.591Z</time></trkpt><trkpt lat="45.6550801" lon="11.1788039"><ele>749.0</ele><time>2026-04-12T10:48:22.577Z</time></trkpt><trkpt lat="45.6551523" lon="11.1787661"><ele>749.0</ele><time>2026-04-12T10:48:26.589Z</time></trkpt><trkpt lat="45.6552059" lon="11.1786921"><ele>749.0</ele><time>2026-04-12T10:48:30.583Z</time></trkpt><trkpt lat="45.6552522" lon="11.1786239"><ele>749.0</ele><time>2026-04-12T10:48:34.593Z</time></trkpt><trkpt lat="45.655312" lon="11.1785908"><ele>749.0</ele><time>2026-04-12T10:48:38.587Z</time></trkpt><trkpt lat="45.6553758" lon="11.1785554"><ele>753.2857142857143</ele><time>2026-04-12T10:48:42.586Z</time></trkpt><trkpt lat="45.6554298" lon="11.178483"><ele>757.5714285714286</ele><time>2026-04-12T10:48:49.688Z</time></trkpt><trkpt lat="45.6554839" lon="11.1784222"><ele>761.8571428571429</ele><time>2026-04-12T10:48:53.704Z</time></trkpt><trkpt lat="45.6555371" lon="11.1783624"><ele>766.1428571428571</ele><time>2026-04-12T10:48:57.589Z</time></trkpt><trkpt lat="45.6556085" lon="11.1783679"><ele>770.4285714285714</ele><time>2026-04-12T10:49:01.626Z</time></trkpt><trkpt lat="45.6556579" lon="11.178435"><ele>774.7142857142858</ele><time>2026-04-12T10:49:06.593Z</time></trkpt><trkpt lat="45.655642" lon="11.1785249"><ele>779.0</ele><time>2026-04-12T10:49:12.594Z</time></trkpt><trkpt lat="45.6556189" lon="11.1786244"><ele>779.0000000000001</ele><time>2026-04-12T10:49:18.587Z</time></trkpt><trkpt lat="45.655587" lon="11.1787126"><ele>779.0</ele><time>2026-04-12T10:49:23.59Z</time></trkpt><trkpt lat="45.6555304" lon="11.1787937"><ele>779.0</ele><time>2026-04-12T10:49:28.583Z</time></trkpt><trkpt lat="45.6554623" lon="11.1788243"><ele>779.0</ele><time>2026-04-12T10:49:33.61Z</time></trkpt><trkpt lat="45.6554162" lon="11.1788876"><ele>779.0</ele><time>2026-04-12T10:49:38.633Z</time></trkpt><trkpt lat="45.6553901" lon="11.17899"><ele>779.0000000000001</ele><time>2026-04-12T10:49:42.587Z</time></trkpt><trkpt lat="45.6553564" lon="11.179081"><ele>779.0</ele><time>2026-04-12T10:49:45.579Z</time></trkpt><trkpt lat="45.6553358" lon="11.1791838"><ele>776.6666666666667</ele><time>2026-04-12T10:49:50.586Z</time></trkpt><trkpt lat="45.6552941" lon="11.1792838"><ele>774.3333333333334</ele><time>2026-04-12T10:49:55.589Z</time></trkpt><trkpt lat="45.6552509" lon="11.1793684"><ele>772.0</ele><time>2026-04-12T10:49:59.617Z</time></trkpt><trkpt lat="45.655225" lon="11.1794708"><ele>769.6666666666667</ele><time>2026-04-12T10:50:04.59Z</time></trkpt><trkpt lat="45.6552056" lon="11.1795694"><ele>767.3333333333334</ele><time>2026-04-12T10:50:08.615Z</time></trkpt><trkpt lat="45.6552032" lon="11.1796688"><ele>765.0</ele><time>2026-04-12T10:50:12.596Z</time></trkpt><trkpt lat="45.6551647" lon="11.1797702"><ele>766.0000000000001</ele><time>2026-04-12T10:50:16.58Z</time></trkpt><trkpt lat="45.6551343" lon="11.1798593"><ele>767.0</ele><time>2026-04-12T10:50:21.623Z</time></trkpt><trkpt lat="45.6551463" lon="11.1799542"><ele>768.0</ele><time>2026-04-12T10:50:26.586Z</time></trkpt><trkpt lat="45.6551596" lon="11.1800432"><ele>769.0</ele><time>2026-04-12T10:50:30.59Z</time></trkpt><trkpt lat="45.6551406" lon="11.180144"><ele>770.0</ele><time>2026-04-12T10:50:34.585Z</time></trkpt><trkpt lat="45.6551086" lon="11.1802359"><ele>771.0000000000001</ele><time>2026-04-12T10:50:38.585Z</time></trkpt><trkpt lat="45.6551007" lon="11.1803272"><ele>772.0</ele><time>2026-04-12T10:50:42.686Z</time></trkpt><trkpt lat="45.6551205" lon="11.1804245"><ele>772.0000000000001</ele><time>2026-04-12T10:50:46.582Z</time></trkpt><trkpt lat="45.6551058" lon="11.1805254"><ele>772.0</ele><time>2026-04-12T10:50:50.616Z</time></trkpt><trkpt lat="45.6551036" lon="11.1806185"><ele>772.0</ele><time>2026-04-12T10:50:55.589Z</time></trkpt><trkpt lat="45.6551178" lon="11.1807095"><ele>772.0</ele><time>2026-04-12T10:50:59.583Z</time></trkpt><trkpt lat="45.6551226" lon="11.1808101"><ele>772.0</ele><time>2026-04-12T10:51:03.701Z</time></trkpt><trkpt lat="45.6551418" lon="11.1809122"><ele>772.0000000000001</ele><time>2026-04-12T10:51:08.583Z</time></trkpt><trkpt lat="45.6551568" lon="11.181032"><ele>772.0</ele><time>2026-04-12T10:51:12.613Z</time></trkpt><trkpt lat="45.6551801" lon="11.1811223"><ele>772.7142857142858</ele><time>2026-04-12T10:51:15.585Z</time></trkpt><trkpt lat="45.6552198" lon="11.1812116"><ele>773.4285714285714</ele><time>2026-04-12T10:51:21.583Z</time></trkpt><trkpt lat="45.6552551" lon="11.1813118"><ele>774.1428571428571</ele><time>2026-04-12T10:51:26.63Z</time></trkpt><trkpt lat="45.6552803" lon="11.1814073"><ele>774.8571428571429</ele><time>2026-04-12T10:51:30.596Z</time></trkpt><trkpt lat="45.6553025" lon="11.1815054"><ele>775.5714285714286</ele><time>2026-04-12T10:51:36.585Z</time></trkpt><trkpt lat="45.6553351" lon="11.1815936"><ele>776.2857142857143</ele><time>2026-04-12T10:51:39.581Z</time></trkpt><trkpt lat="45.655366" lon="11.1816902"><ele>777.0</ele><time>2026-04-12T10:51:43.588Z</time></trkpt><trkpt lat="45.655406" lon="11.1817743"><ele>781.2857142857143</ele><time>2026-04-12T10:51:47.582Z</time></trkpt><trkpt lat="45.6554632" lon="11.1818501"><ele>785.5714285714286</ele><time>2026-04-12T10:51:53.579Z</time></trkpt><trkpt lat="45.6555127" lon="11.1819289"><ele>789.8571428571429</ele><time>2026-04-12T10:51:57.577Z</time></trkpt><trkpt lat="45.6555471" lon="11.182025"><ele>794.1428571428571</ele><time>2026-04-12T10:52:02.595Z</time></trkpt><trkpt lat="45.6555811" lon="11.1821083"><ele>798.4285714285714</ele><time>2026-04-12T10:52:06.599Z</time></trkpt><trkpt lat="45.6556277" lon="11.1821704"><ele>802.7142857142858</ele><time>2026-04-12T10:52:11.578Z</time></trkpt><trkpt lat="45.6556669" lon="11.1822686"><ele>807.0</ele><time>2026-04-12T10:52:16.576Z</time></trkpt><trkpt lat="45.6556985" lon="11.1823491"><ele>807.0000000000001</ele><time>2026-04-12T10:52:19.584Z</time></trkpt><trkpt lat="45.6556969" lon="11.1824554"><ele>807.0</ele><time>2026-04-12T10:52:23.58Z</time></trkpt><trkpt lat="45.6557065" lon="11.1825586"><ele>807.0</ele><time>2026-04-12T10:52:27.593Z</time></trkpt><trkpt lat="45.6557118" lon="11.1826562"><ele>807.0</ele><time>2026-04-12T10:52:32.574Z</time></trkpt><trkpt lat="45.6557226" lon="11.1827483"><ele>807.0</ele><time>2026-04-12T10:52:35.584Z</time></trkpt><trkpt lat="45.655728" lon="11.1828646"><ele>807.0000000000001</ele><time>2026-04-12T10:52:39.578Z</time></trkpt><trkpt lat="45.6557173" lon="11.1829534"><ele>807.0</ele><time>2026-04-12T10:52:43.581Z</time></trkpt><trkpt lat="45.6557015" lon="11.1830495"><ele>807.0</ele><time>2026-04-12T10:52:46.597Z</time></trkpt><trkpt lat="45.6556849" lon="11.1831636"><ele>807.0</ele><time>2026-04-12T10:52:51.577Z</time></trkpt><trkpt lat="45.6556567" lon="11.1832668"><ele>807.0</ele><time>2026-04-12T10:52:56.583Z</time></trkpt><trkpt lat="45.6556353" lon="11.1833964"><ele>807.0</ele><time>2026-04-12T10:53:02.578Z</time></trkpt><trkpt lat="45.6556287" lon="11.1834924"><ele>807.0</ele><time>2026-04-12T10:53:08.586Z</time></trkpt><trkpt lat="45.6556333" lon="11.1836038"><ele>807.0</ele><time>2026-04-12T10:53:12.582Z</time></trkpt><trkpt lat="45.6556506" lon="11.1837002"><ele>807.0000000000001</ele><time>2026-04-12T10:53:16.677Z</time></trkpt><trkpt lat="45.6557233" lon="11.1837015"><ele>807.0</ele><time>2026-04-12T10:53:32.577Z</time></trkpt><trkpt lat="45.6557134" lon="11.1836076"><ele>807.0</ele><time>2026-04-12T10:53:36.581Z</time></trkpt><trkpt lat="45.655707" lon="11.1834936"><ele>807.0</ele><time>2026-04-12T10:53:41.648Z</time></trkpt><trkpt lat="45.6557035" lon="11.1834014"><ele>807.0</ele><time>2026-04-12T10:53:45.579Z</time></trkpt><trkpt lat="45.6557163" lon="11.1833081"><ele>807.0000000000001</ele><time>2026-04-12T10:53:49.632Z</time></trkpt><trkpt lat="45.6557364" lon="11.1832007"><ele>807.0</ele><time>2026-04-12T10:53:54.579Z</time></trkpt><trkpt lat="45.6557501" lon="11.1831124"><ele>807.0000000000001</ele><time>2026-04-12T10:53:57.58Z</time></trkpt><trkpt lat="45.6557838" lon="11.1830093"><ele>807.0</ele><time>2026-04-12T10:54:01.616Z</time></trkpt><trkpt lat="45.6558115" lon="11.1829215"><ele>807.0</ele><time>2026-04-12T10:54:04.582Z</time></trkpt><trkpt lat="45.6558394" lon="11.1828153"><ele>807.0</ele><time>2026-04-12T10:54:08.6Z</time></trkpt><trkpt lat="45.6558449" lon="11.1827105"><ele>807.0</ele><time>2026-04-12T10:54:12.61Z</time></trkpt><trkpt lat="45.6558503" lon="11.1826081"><ele>807.0000000000001</ele><time>2026-04-12T10:54:16.581Z</time></trkpt><trkpt lat="45.6558523" lon="11.1825152"><ele>807.0</ele><time>2026-04-12T10:54:19.586Z</time></trkpt><trkpt lat="45.6558597" lon="11.1824158"><ele>807.4285714285714</ele><time>2026-04-12T10:54:23.599Z</time></trkpt><trkpt lat="45.6558813" lon="11.1823268"><ele>807.8571428571429</ele><time>2026-04-12T10:54:27.583Z</time></trkpt><trkpt lat="45.6558996" lon="11.18223"><ele>808.2857142857142</ele><time>2026-04-12T10:54:31.583Z</time></trkpt><trkpt lat="45.655927" lon="11.1821327"><ele>808.7142857142858</ele><time>2026-04-12T10:54:34.622Z</time></trkpt><trkpt lat="45.6559582" lon="11.1820534"><ele>809.1428571428571</ele><time>2026-04-12T10:54:37.641Z</time></trkpt><trkpt lat="45.6559991" lon="11.1819644"><ele>809.5714285714286</ele><time>2026-04-12T10:54:43.589Z</time></trkpt><trkpt lat="45.6560354" lon="11.1818779"><ele>810.0</ele><time>2026-04-12T10:54:48.593Z</time></trkpt><trkpt lat="45.6560761" lon="11.1817979"><ele>810.0</ele><time>2026-04-12T10:54:52.577Z</time></trkpt><trkpt lat="45.6560849" lon="11.1817054"><ele>810.0</ele><time>2026-04-12T10:54:56.616Z</time></trkpt><trkpt lat="45.6561223" lon="11.1816141"><ele>810.0</ele><time>2026-04-12T10:55:01.574Z</time></trkpt><trkpt lat="45.6561513" lon="11.1814988"><ele>810.0</ele><time>2026-04-12T10:55:05.615Z</time></trkpt><trkpt lat="45.6561861" lon="11.1814051"><ele>810.0</ele><time>2026-04-12T10:55:09.628Z</time></trkpt><trkpt lat="45.6562208" lon="11.18129"><ele>810.0</ele><time>2026-04-12T10:55:14.621Z</time></trkpt><trkpt lat="45.6562484" lon="11.1811973"><ele>813.1428571428571</ele><time>2026-04-12T10:55:17.587Z</time></trkpt><trkpt lat="45.6562677" lon="11.1810984"><ele>816.2857142857142</ele><time>2026-04-12T10:55:21.596Z</time></trkpt><trkpt lat="45.6562706" lon="11.1809839"><ele>819.4285714285713</ele><time>2026-04-12T10:55:25.618Z</time></trkpt><trkpt lat="45.6562675" lon="11.1808899"><ele>822.5714285714286</ele><time>2026-04-12T10:55:30.575Z</time></trkpt><trkpt lat="45.6562534" lon="11.1807974"><ele>825.7142857142858</ele><time>2026-04-12T10:55:35.592Z</time></trkpt><trkpt lat="45.6562677" lon="11.1806795"><ele>828.8571428571428</ele><time>2026-04-12T10:55:39.588Z</time></trkpt><trkpt lat="45.6562922" lon="11.1805694"><ele>832.0</ele><time>2026-04-12T10:55:42.692Z</time></trkpt><trkpt lat="45.6563044" lon="11.1804616"><ele>832.0</ele><time>2026-04-12T10:55:45.579Z</time></trkpt><trkpt lat="45.656329" lon="11.1803588"><ele>832.0</ele><time>2026-04-12T10:55:48.67Z</time></trkpt><trkpt lat="45.6563475" lon="11.1802661"><ele>832.0</ele><time>2026-04-12T10:55:51.575Z</time></trkpt><trkpt lat="45.6563506" lon="11.1801588"><ele>832.0</ele><time>2026-04-12T10:55:57.583Z</time></trkpt><trkpt lat="45.6563553" lon="11.1800555"><ele>832.0</ele><time>2026-04-12T10:56:01.633Z</time></trkpt><trkpt lat="45.6563613" lon="11.1799539"><ele>832.0</ele><time>2026-04-12T10:56:05.582Z</time></trkpt><trkpt lat="45.6563677" lon="11.1798464"><ele>832.0</ele><time>2026-04-12T10:56:09.573Z</time></trkpt><trkpt lat="45.6563779" lon="11.179739"><ele>831.9999999999999</ele><time>2026-04-12T10:56:15.586Z</time></trkpt><trkpt lat="45.6564081" lon="11.1796573"><ele>832.0</ele><time>2026-04-12T10:56:19.579Z</time></trkpt><trkpt lat="45.6564741" lon="11.1796672"><ele>832.0</ele><time>2026-04-12T10:56:23.614Z</time></trkpt><trkpt lat="45.6565446" lon="11.1797328"><ele>832.0</ele><time>2026-04-12T10:56:27.58Z</time></trkpt><trkpt lat="45.6565214" lon="11.1798566"><ele>831.9999999999999</ele><time>2026-04-12T10:56:37.579Z</time></trkpt><trkpt lat="45.6565219" lon="11.1799835"><ele>832.0</ele><time>2026-04-12T10:56:41.617Z</time></trkpt><trkpt lat="45.6565095" lon="11.1800773"><ele>832.0</ele><time>2026-04-12T10:56:44.582Z</time></trkpt><trkpt lat="45.6564947" lon="11.1801728"><ele>832.0</ele><time>2026-04-12T10:56:48.586Z</time></trkpt><trkpt lat="45.6565021" lon="11.1802688"><ele>832.0</ele><time>2026-04-12T10:57:41.577Z</time></trkpt><trkpt lat="45.6564845" lon="11.180365"><ele>832.0</ele><time>2026-04-12T10:57:45.593Z</time></trkpt><trkpt lat="45.6564908" lon="11.1804654"><ele>832.0</ele><time>2026-04-12T10:57:49.581Z</time></trkpt><trkpt lat="45.6564899" lon="11.1805812"><ele>832.0</ele><time>2026-04-12T10:57:53.591Z</time></trkpt><trkpt lat="45.6564904" lon="11.1806978"><ele>832.0</ele><time>2026-04-12T10:57:57.584Z</time></trkpt><trkpt lat="45.6565078" lon="11.1807845"><ele>832.4999999999999</ele><time>2026-04-12T10:58:00.626Z</time></trkpt><trkpt lat="45.6565087" lon="11.18088"><ele>833.0</ele><time>2026-04-12T10:58:04.624Z</time></trkpt><trkpt lat="45.6565222" lon="11.1809935"><ele>833.5</ele><time>2026-04-12T10:58:08.592Z</time></trkpt><trkpt lat="45.6565343" lon="11.1811102"><ele>834.0</ele><time>2026-04-12T10:58:12.592Z</time></trkpt><trkpt lat="45.6565412" lon="11.1812145"><ele>834.4999999999999</ele><time>2026-04-12T10:58:15.586Z</time></trkpt><trkpt lat="45.6565625" lon="11.1813249"><ele>835.0</ele><time>2026-04-12T10:58:18.623Z</time></trkpt><trkpt lat="45.6566006" lon="11.1814145"><ele>835.0000000000001</ele><time>2026-04-12T10:58:23.58Z</time></trkpt><trkpt lat="45.6566328" lon="11.1814957"><ele>835.0</ele><time>2026-04-12T10:58:27.58Z</time></trkpt><trkpt lat="45.6566561" lon="11.1815923"><ele>835.0</ele><time>2026-04-12T10:58:31.6Z</time></trkpt><trkpt lat="45.6567004" lon="11.1816906"><ele>835.0</ele><time>2026-04-12T10:58:35.583Z</time></trkpt><trkpt lat="45.6567366" lon="11.1817876"><ele>835.0</ele><time>2026-04-12T10:58:40.619Z</time></trkpt><trkpt lat="45.6567456" lon="11.1818771"><ele>835.0000000000001</ele><time>2026-04-12T10:58:43.591Z</time></trkpt><trkpt lat="45.656747" lon="11.1819873"><ele>835.0</ele><time>2026-04-12T10:58:47.594Z</time></trkpt><trkpt lat="45.6567446" lon="11.1820948"><ele>835.5714285714287</ele><time>2026-04-12T10:58:51.593Z</time></trkpt><trkpt lat="45.6567535" lon="11.1821844"><ele>836.1428571428571</ele><time>2026-04-12T10:58:55.592Z</time></trkpt><trkpt lat="45.6567575" lon="11.1822873"><ele>836.7142857142858</ele><time>2026-04-12T10:58:59.59Z</time></trkpt><trkpt lat="45.656772" lon="11.1823928"><ele>837.2857142857143</ele><time>2026-04-12T10:59:03.589Z</time></trkpt><trkpt lat="45.6567914" lon="11.1824938"><ele>837.8571428571429</ele><time>2026-04-12T10:59:07.592Z</time></trkpt><trkpt lat="45.6568133" lon="11.1825922"><ele>838.4285714285714</ele><time>2026-04-12T10:59:10.586Z</time></trkpt><trkpt lat="45.6568493" lon="11.18267"><ele>839.0</ele><time>2026-04-12T10:59:15.583Z</time></trkpt><trkpt lat="45.6568657" lon="11.1827571"><ele>839.0</ele><time>2026-04-12T10:59:20.591Z</time></trkpt><trkpt lat="45.6568966" lon="11.1828529"><ele>839.0</ele><time>2026-04-12T10:59:23.645Z</time></trkpt><trkpt lat="45.6569307" lon="11.1829331"><ele>839.0</ele><time>2026-04-12T10:59:27.596Z</time></trkpt><trkpt lat="45.6569934" lon="11.1829953"><ele>839.0</ele><time>2026-04-12T10:59:31.621Z</time></trkpt><trkpt lat="45.6570481" lon="11.18304"><ele>839.0</ele><time>2026-04-12T10:59:34.626Z</time></trkpt><trkpt lat="45.6571032" lon="11.1830975"><ele>839.0</ele><time>2026-04-12T10:59:37.59Z</time></trkpt><trkpt lat="45.6571588" lon="11.1831604"><ele>839.0</ele><time>2026-04-12T10:59:41.594Z</time></trkpt><trkpt lat="45.6572097" lon="11.1832302"><ele>841.0000000000001</ele><time>2026-04-12T10:59:44.635Z</time></trkpt><trkpt lat="45.6572636" lon="11.1832985"><ele>843.0</ele><time>2026-04-12T10:59:47.578Z</time></trkpt><trkpt lat="45.6573241" lon="11.1833876"><ele>845.0</ele><time>2026-04-12T10:59:51.697Z</time></trkpt><trkpt lat="45.6573734" lon="11.1834664"><ele>847.0</ele><time>2026-04-12T10:59:54.598Z</time></trkpt><trkpt lat="45.6574292" lon="11.1835525"><ele>849.0000000000001</ele><time>2026-04-12T10:59:58.593Z</time></trkpt><trkpt lat="45.6574755" lon="11.1836291"><ele>851.0</ele><time>2026-04-12T11:00:02.602Z</time></trkpt><trkpt lat="45.657535" lon="11.1836817"><ele>851.0</ele><time>2026-04-12T11:00:07.615Z</time></trkpt><trkpt lat="45.6575958" lon="11.1837205"><ele>851.0</ele><time>2026-04-12T11:00:11.615Z</time></trkpt><trkpt lat="45.6576603" lon="11.1837559"><ele>851.0</ele><time>2026-04-12T11:00:16.631Z</time></trkpt><trkpt lat="45.6577006" lon="11.1838519"><ele>851.0</ele><time>2026-04-12T11:00:20.594Z</time></trkpt><trkpt lat="45.6577334" lon="11.1839307"><ele>851.0</ele><time>2026-04-12T11:00:23.629Z</time></trkpt><trkpt lat="45.6577646" lon="11.1840245"><ele>851.0</ele><time>2026-04-12T11:00:27.609Z</time></trkpt><trkpt lat="45.6578163" lon="11.1841118"><ele>851.0</ele><time>2026-04-12T11:00:32.589Z</time></trkpt><trkpt lat="45.6578617" lon="11.1841743"><ele>852.8571428571429</ele><time>2026-04-12T11:00:35.58Z</time></trkpt><trkpt lat="45.657922" lon="11.1842257"><ele>854.7142857142858</ele><time>2026-04-12T11:00:39.591Z</time></trkpt><trkpt lat="45.6579799" lon="11.1842774"><ele>856.5714285714286</ele><time>2026-04-12T11:00:43.595Z</time></trkpt><trkpt lat="45.6580354" lon="11.1843258"><ele>858.4285714285714</ele><time>2026-04-12T11:00:46.599Z</time></trkpt><trkpt lat="45.6581016" lon="11.1843739"><ele>860.2857142857142</ele><time>2026-04-12T11:00:49.587Z</time></trkpt><trkpt lat="45.6581622" lon="11.1844269"><ele>862.1428571428571</ele><time>2026-04-12T11:00:52.593Z</time></trkpt><trkpt lat="45.6582237" lon="11.1844909"><ele>864.0</ele><time>2026-04-12T11:00:57.601Z</time></trkpt><trkpt lat="45.6582763" lon="11.1845689"><ele>864.0</ele><time>2026-04-12T11:01:01.602Z</time></trkpt><trkpt lat="45.6582902" lon="11.1846828"><ele>864.0</ele><time>2026-04-12T11:01:05.586Z</time></trkpt><trkpt lat="45.6583047" lon="11.1847962"><ele>864.0</ele><time>2026-04-12T11:01:09.591Z</time></trkpt><trkpt lat="45.6583183" lon="11.1849088"><ele>864.0</ele><time>2026-04-12T11:01:13.598Z</time></trkpt><trkpt lat="45.6583407" lon="11.1850106"><ele>864.0</ele><time>2026-04-12T11:01:17.588Z</time></trkpt><trkpt lat="45.6583571" lon="11.1851173"><ele>864.0</ele><time>2026-04-12T11:01:20.593Z</time></trkpt><trkpt lat="45.6583762" lon="11.1852201"><ele>863.2857142857142</ele><time>2026-04-12T11:01:24.585Z</time></trkpt><trkpt lat="45.6584053" lon="11.1853131"><ele>862.5714285714286</ele><time>2026-04-12T11:01:28.597Z</time></trkpt><trkpt lat="45.6584397" lon="11.185398"><ele>861.8571428571429</ele><time>2026-04-12T11:01:32.586Z</time></trkpt><trkpt lat="45.6584689" lon="11.1854964"><ele>861.1428571428571</ele><time>2026-04-12T11:01:37.59Z</time></trkpt><trkpt lat="45.6585065" lon="11.1855881"><ele>860.4285714285714</ele><time>2026-04-12T11:01:41.586Z</time></trkpt><trkpt lat="45.6585352" lon="11.1856733"><ele>859.7142857142857</ele><time>2026-04-12T11:01:45.585Z</time></trkpt><trkpt lat="45.6585422" lon="11.185797"><ele>859.0</ele><time>2026-04-12T11:01:49.583Z</time></trkpt><trkpt lat="45.6585298" lon="11.1859012"><ele>858.7142857142857</ele><time>2026-04-12T11:01:53.592Z</time></trkpt><trkpt lat="45.6585119" lon="11.1859908"><ele>858.4285714285714</ele><time>2026-04-12T11:01:56.587Z</time></trkpt><trkpt lat="45.6585019" lon="11.1860799"><ele>858.1428571428571</ele><time>2026-04-12T11:01:59.588Z</time></trkpt><trkpt lat="45.6584932" lon="11.1861733"><ele>857.8571428571429</ele><time>2026-04-12T11:02:02.583Z</time></trkpt><trkpt lat="45.6585387" lon="11.1862585"><ele>857.5714285714286</ele><time>2026-04-12T11:02:06.598Z</time></trkpt><trkpt lat="45.6586034" lon="11.1862049"><ele>857.2857142857142</ele><time>2026-04-12T11:02:11.585Z</time></trkpt><trkpt lat="45.6586379" lon="11.1861251"><ele>857.0</ele><time>2026-04-12T11:02:15.59Z</time></trkpt><trkpt lat="45.6586276" lon="11.1860138"><ele>857.0</ele><time>2026-04-12T11:02:19.589Z</time></trkpt><trkpt lat="45.6586178" lon="11.1859096"><ele>857.0</ele><time>2026-04-12T11:02:23.593Z</time></trkpt><trkpt lat="45.6585851" lon="11.1858045"><ele>857.0</ele><time>2026-04-12T11:02:27.587Z</time></trkpt><trkpt lat="45.6586026" lon="11.1857175"><ele>857.0</ele><time>2026-04-12T11:02:30.589Z</time></trkpt><trkpt lat="45.6586079" lon="11.1856194"><ele>857.0</ele><time>2026-04-12T11:02:34.59Z</time></trkpt><trkpt lat="45.6586234" lon="11.1855236"><ele>857.0</ele><time>2026-04-12T11:02:38.586Z</time></trkpt><trkpt lat="45.6586084" lon="11.1854218"><ele>857.0</ele><time>2026-04-12T11:02:41.582Z</time></trkpt><trkpt lat="45.6586249" lon="11.1853058"><ele>857.2857142857142</ele><time>2026-04-12T11:02:45.588Z</time></trkpt><trkpt lat="45.6586232" lon="11.1852116"><ele>857.5714285714286</ele><time>2026-04-12T11:02:49.586Z</time></trkpt><trkpt lat="45.6586119" lon="11.1850999"><ele>857.8571428571429</ele><time>2026-04-12T11:02:54.584Z</time></trkpt><trkpt lat="45.6586073" lon="11.1849938"><ele>858.1428571428571</ele><time>2026-04-12T11:03:00.587Z</time></trkpt><trkpt lat="45.6586108" lon="11.1848935"><ele>858.4285714285714</ele><time>2026-04-12T11:03:04.596Z</time></trkpt><trkpt lat="45.6586361" lon="11.1847828"><ele>858.7142857142857</ele><time>2026-04-12T11:03:08.598Z</time></trkpt><trkpt lat="45.6586531" lon="11.1846909"><ele>859.0</ele><time>2026-04-12T11:03:11.597Z</time></trkpt><trkpt lat="45.6586693" lon="11.1846028"><ele>859.8333333333333</ele><time>2026-04-12T11:03:14.588Z</time></trkpt><trkpt lat="45.6586803" lon="11.1844905"><ele>860.6666666666666</ele><time>2026-04-12T11:03:18.587Z</time></trkpt><trkpt lat="45.6586835" lon="11.1843784"><ele>861.5</ele><time>2026-04-12T11:03:22.622Z</time></trkpt><trkpt lat="45.6586742" lon="11.1842661"><ele>862.3333333333333</ele><time>2026-04-12T11:03:26.583Z</time></trkpt><trkpt lat="45.658639" lon="11.1841771"><ele>863.1666666666666</ele><time>2026-04-12T11:03:30.627Z</time></trkpt><trkpt lat="45.6586158" lon="11.1840633"><ele>864.0</ele><time>2026-04-12T11:03:34.592Z</time></trkpt><trkpt lat="45.6585774" lon="11.183968"><ele>865.0</ele><time>2026-04-12T11:03:38.589Z</time></trkpt><trkpt lat="45.6585392" lon="11.1838828"><ele>866.0</ele><time>2026-04-12T11:03:43.585Z</time></trkpt><trkpt lat="45.6585202" lon="11.1837856"><ele>867.0</ele><time>2026-04-12T11:03:47.593Z</time></trkpt><trkpt lat="45.6585026" lon="11.1836948"><ele>868.0</ele><time>2026-04-12T11:03:51.592Z</time></trkpt><trkpt lat="45.6584905" lon="11.1835934"><ele>869.0</ele><time>2026-04-12T11:03:55.595Z</time></trkpt><trkpt lat="45.6584939" lon="11.1834955"><ele>870.0</ele><time>2026-04-12T11:03:59.582Z</time></trkpt><trkpt lat="45.6585065" lon="11.1833988"><ele>871.0</ele><time>2026-04-12T11:04:03.64Z</time></trkpt><trkpt lat="45.6585201" lon="11.1833107"><ele>871.0</ele><time>2026-04-12T11:04:06.591Z</time></trkpt><trkpt lat="45.6585507" lon="11.1832287"><ele>871.0</ele><time>2026-04-12T11:04:10.587Z</time></trkpt><trkpt lat="45.6585992" lon="11.1831623"><ele>871.0</ele><time>2026-04-12T11:04:13.593Z</time></trkpt><trkpt lat="45.6586507" lon="11.1830794"><ele>871.0</ele><time>2026-04-12T11:04:17.599Z</time></trkpt><trkpt lat="45.6587033" lon="11.1829974"><ele>871.0</ele><time>2026-04-12T11:04:21.594Z</time></trkpt><trkpt lat="45.6587364" lon="11.1829022"><ele>871.0</ele><time>2026-04-12T11:04:25.591Z</time></trkpt><trkpt lat="45.6587603" lon="11.1827992"><ele>871.0</ele><time>2026-04-12T11:04:29.586Z</time></trkpt><trkpt lat="45.658765" lon="11.182696"><ele>873.8333333333333</ele><time>2026-04-12T11:04:33.593Z</time></trkpt><trkpt lat="45.6587439" lon="11.1826052"><ele>876.6666666666666</ele><time>2026-04-12T11:04:37.597Z</time></trkpt><trkpt lat="45.6586952" lon="11.1824827"><ele>879.5</ele><time>2026-04-12T11:04:42.588Z</time></trkpt><trkpt lat="45.6586532" lon="11.1823804"><ele>882.3333333333333</ele><time>2026-04-12T11:04:46.724Z</time></trkpt><trkpt lat="45.6586012" lon="11.1822955"><ele>885.1666666666666</ele><time>2026-04-12T11:04:50.603Z</time></trkpt><trkpt lat="45.6585335" lon="11.1822591"><ele>888.0</ele><time>2026-04-12T11:04:54.58Z</time></trkpt><trkpt lat="45.6584886" lon="11.1823316"><ele>888.0</ele><time>2026-04-12T11:04:56.648Z</time></trkpt><trkpt lat="45.6584142" lon="11.1823012"><ele>888.0</ele><time>2026-04-12T11:05:00.595Z</time></trkpt><trkpt lat="45.6583391" lon="11.18226"><ele>888.0</ele><time>2026-04-12T11:05:04.579Z</time></trkpt><trkpt lat="45.658243" lon="11.1822213"><ele>888.0</ele><time>2026-04-12T11:05:09.587Z</time></trkpt><trkpt lat="45.6581798" lon="11.1821526"><ele>888.0</ele><time>2026-04-12T11:05:13.599Z</time></trkpt><trkpt lat="45.6581554" lon="11.1820629"><ele>888.0</ele><time>2026-04-12T11:05:16.593Z</time></trkpt><trkpt lat="45.6581393" lon="11.1819552"><ele>888.0</ele><time>2026-04-12T11:05:20.593Z</time></trkpt><trkpt lat="45.6581534" lon="11.1818603"><ele>888.0</ele><time>2026-04-12T11:05:24.587Z</time></trkpt><trkpt lat="45.6581855" lon="11.181766"><ele>888.0</ele><time>2026-04-12T11:05:28.6Z</time></trkpt><trkpt lat="45.6582526" lon="11.1817137"><ele>888.0</ele><time>2026-04-12T11:05:32.59Z</time></trkpt><trkpt lat="45.6583246" lon="11.1816956"><ele>888.0</ele><time>2026-04-12T11:05:36.597Z</time></trkpt><trkpt lat="45.6583902" lon="11.1816895"><ele>888.0</ele><time>2026-04-12T11:05:40.594Z</time></trkpt><trkpt lat="45.6584574" lon="11.1816838"><ele>888.0</ele><time>2026-04-12T11:05:44.594Z</time></trkpt><trkpt lat="45.6585226" lon="11.1816574"><ele>888.0</ele><time>2026-04-12T11:05:48.598Z</time></trkpt><trkpt lat="45.6586002" lon="11.1816469"><ele>888.0</ele><time>2026-04-12T11:05:52.597Z</time></trkpt><trkpt lat="45.6586682" lon="11.1816079"><ele>888.0</ele><time>2026-04-12T11:05:56.593Z</time></trkpt><trkpt lat="45.6587371" lon="11.1815595"><ele>888.0</ele><time>2026-04-12T11:06:00.594Z</time></trkpt><trkpt lat="45.6588093" lon="11.1815213"><ele>888.0</ele><time>2026-04-12T11:06:04.593Z</time></trkpt><trkpt lat="45.6588711" lon="11.1814587"><ele>888.0</ele><time>2026-04-12T11:06:08.591Z</time></trkpt><trkpt lat="45.6589299" lon="11.181407"><ele>889.1666666666666</ele><time>2026-04-12T11:06:12.583Z</time></trkpt><trkpt lat="45.6589991" lon="11.1813254"><ele>890.3333333333333</ele><time>2026-04-12T11:06:17.609Z</time></trkpt><trkpt lat="45.6590608" lon="11.1812629"><ele>891.5</ele><time>2026-04-12T11:06:21.59Z</time></trkpt><trkpt lat="45.6591065" lon="11.1811899"><ele>892.6666666666666</ele><time>2026-04-12T11:06:25.596Z</time></trkpt><trkpt lat="45.6591567" lon="11.1811125"><ele>893.8333333333333</ele><time>2026-04-12T11:06:30.642Z</time></trkpt><trkpt lat="45.6592105" lon="11.1810528"><ele>895.0</ele><time>2026-04-12T11:06:34.582Z</time></trkpt><trkpt lat="45.6592705" lon="11.1809759"><ele>894.9999999999999</ele><time>2026-04-12T11:06:39.631Z</time></trkpt><trkpt lat="45.6593308" lon="11.1808884"><ele>895.0</ele><time>2026-04-12T11:06:44.619Z</time></trkpt><trkpt lat="45.6593911" lon="11.1808199"><ele>895.0</ele><time>2026-04-12T11:06:48.589Z</time></trkpt><trkpt lat="45.6594492" lon="11.1807474"><ele>895.0</ele><time>2026-04-12T11:06:52.597Z</time></trkpt><trkpt lat="45.6594968" lon="11.1806764"><ele>894.9999999999999</ele><time>2026-04-12T11:06:56.683Z</time></trkpt><trkpt lat="45.6595464" lon="11.1806101"><ele>895.0</ele><time>2026-04-12T11:07:00.595Z</time></trkpt><trkpt lat="45.6595977" lon="11.1805222"><ele>897.1428571428571</ele><time>2026-04-12T11:07:04.591Z</time></trkpt><trkpt lat="45.6596575" lon="11.180457"><ele>899.2857142857143</ele><time>2026-04-12T11:07:08.591Z</time></trkpt><trkpt lat="45.659696" lon="11.1803808"><ele>901.4285714285714</ele><time>2026-04-12T11:07:12.598Z</time></trkpt><trkpt lat="45.659737" lon="11.1802985"><ele>903.5714285714286</ele><time>2026-04-12T11:07:17.596Z</time></trkpt><trkpt lat="45.6597735" lon="11.1802135"><ele>905.7142857142858</ele><time>2026-04-12T11:07:22.593Z</time></trkpt><trkpt lat="45.6598471" lon="11.1801286"><ele>907.8571428571429</ele><time>2026-04-12T11:07:27.59Z</time></trkpt><trkpt lat="45.6598946" lon="11.1800559"><ele>910.0</ele><time>2026-04-12T11:07:31.596Z</time></trkpt><trkpt lat="45.6599364" lon="11.1799748"><ele>910.0</ele><time>2026-04-12T11:07:35.595Z</time></trkpt><trkpt lat="45.6599946" lon="11.1798951"><ele>910.0</ele><time>2026-04-12T11:07:40.599Z</time></trkpt><trkpt lat="45.6600401" lon="11.1798134"><ele>910.0</ele><time>2026-04-12T11:07:45.594Z</time></trkpt><trkpt lat="45.6600906" lon="11.179747"><ele>910.0</ele><time>2026-04-12T11:07:50.621Z</time></trkpt><trkpt lat="45.6601353" lon="11.1796792"><ele>910.0</ele><time>2026-04-12T11:07:55.619Z</time></trkpt><trkpt lat="45.6601733" lon="11.179593"><ele>910.0</ele><time>2026-04-12T11:08:00.626Z</time></trkpt><trkpt lat="45.6602119" lon="11.1795084"><ele>910.0</ele><time>2026-04-12T11:08:05.583Z</time></trkpt><trkpt lat="45.6602573" lon="11.179432"><ele>911.7142857142858</ele><time>2026-04-12T11:08:10.588Z</time></trkpt><trkpt lat="45.6603012" lon="11.1793557"><ele>913.4285714285714</ele><time>2026-04-12T11:08:14.593Z</time></trkpt><trkpt lat="45.6603575" lon="11.1792871"><ele>915.1428571428571</ele><time>2026-04-12T11:08:18.596Z</time></trkpt><trkpt lat="45.6603991" lon="11.1792078"><ele>916.8571428571429</ele><time>2026-04-12T11:08:23.598Z</time></trkpt><trkpt lat="45.6604374" lon="11.1791172"><ele>918.5714285714287</ele><time>2026-04-12T11:08:28.585Z</time></trkpt><trkpt lat="45.6604835" lon="11.1790321"><ele>920.2857142857143</ele><time>2026-04-12T11:08:32.593Z</time></trkpt><trkpt lat="45.6605338" lon="11.1789534"><ele>922.0</ele><time>2026-04-12T11:08:36.594Z</time></trkpt><trkpt lat="45.6605829" lon="11.1788813"><ele>922.0</ele><time>2026-04-12T11:08:40.587Z</time></trkpt><trkpt lat="45.6606268" lon="11.1787968"><ele>922.0000000000001</ele><time>2026-04-12T11:08:44.583Z</time></trkpt><trkpt lat="45.6606721" lon="11.1787145"><ele>922.0</ele><time>2026-04-12T11:08:49.618Z</time></trkpt><trkpt lat="45.6607218" lon="11.1786563"><ele>922.0</ele><time>2026-04-12T11:08:53.629Z</time></trkpt><trkpt lat="45.6607647" lon="11.1785664"><ele>922.0000000000001</ele><time>2026-04-12T11:08:58.591Z</time></trkpt><trkpt lat="45.6608051" lon="11.1784935"><ele>922.0</ele><time>2026-04-12T11:09:02.595Z</time></trkpt><trkpt lat="45.6608499" lon="11.1784185"><ele>922.0</ele><time>2026-04-12T11:09:06.596Z</time></trkpt><trkpt lat="45.6609084" lon="11.1783562"><ele>922.0</ele><time>2026-04-12T11:09:10.595Z</time></trkpt><trkpt lat="45.6609542" lon="11.178286"><ele>922.0000000000001</ele><time>2026-04-12T11:09:16.598Z</time></trkpt><trkpt lat="45.6609664" lon="11.1781927"><ele>922.0</ele><time>2026-04-12T11:09:22.595Z</time></trkpt><trkpt lat="45.6610236" lon="11.1781153"><ele>922.0</ele><time>2026-04-12T11:09:26.584Z</time></trkpt><trkpt lat="45.6610788" lon="11.1780379"><ele>922.0000000000001</ele><time>2026-04-12T11:09:30.602Z</time></trkpt><trkpt lat="45.6611345" lon="11.1779611"><ele>922.0</ele><time>2026-04-12T11:09:34.599Z</time></trkpt><trkpt lat="45.6611794" lon="11.1778826"><ele>922.0</ele><time>2026-04-12T11:09:38.595Z</time></trkpt><trkpt lat="45.6612326" lon="11.1777916"><ele>922.1428571428572</ele><time>2026-04-12T11:09:42.597Z</time></trkpt><trkpt lat="45.6612416" lon="11.1776966"><ele>922.2857142857144</ele><time>2026-04-12T11:09:46.603Z</time></trkpt><trkpt lat="45.6612138" lon="11.1776046"><ele>922.4285714285714</ele><time>2026-04-12T11:09:50.622Z</time></trkpt><trkpt lat="45.6611923" lon="11.1775166"><ele>922.5714285714287</ele><time>2026-04-12T11:09:54.601Z</time></trkpt><trkpt lat="45.661146" lon="11.1774331"><ele>922.7142857142858</ele><time>2026-04-12T11:09:58.598Z</time></trkpt><trkpt lat="45.6611" lon="11.177364"><ele>922.8571428571429</ele><time>2026-04-12T11:10:01.594Z</time></trkpt><trkpt lat="45.6610287" lon="11.1772855"><ele>923.0</ele><time>2026-04-12T11:10:05.597Z</time></trkpt><trkpt lat="45.660961" lon="11.1772313"><ele>925.2857142857142</ele><time>2026-04-12T11:10:09.586Z</time></trkpt><trkpt lat="45.660897" lon="11.177165"><ele>927.5714285714287</ele><time>2026-04-12T11:10:13.649Z</time></trkpt><trkpt lat="45.6608313" lon="11.1771142"><ele>929.8571428571429</ele><time>2026-04-12T11:10:17.695Z</time></trkpt><trkpt lat="45.660787" lon="11.1770494"><ele>932.1428571428571</ele><time>2026-04-12T11:10:20.586Z</time></trkpt><trkpt lat="45.6607513" lon="11.1769743"><ele>934.4285714285713</ele><time>2026-04-12T11:10:23.59Z</time></trkpt><trkpt lat="45.6607076" lon="11.176877"><ele>936.7142857142858</ele><time>2026-04-12T11:10:27.588Z</time></trkpt><trkpt lat="45.6606747" lon="11.1767784"><ele>939.0</ele><time>2026-04-12T11:10:31.611Z</time></trkpt><trkpt lat="45.6606485" lon="11.1766783"><ele>939.0</ele><time>2026-04-12T11:10:36.596Z</time></trkpt><trkpt lat="45.6606379" lon="11.1765781"><ele>939.0</ele><time>2026-04-12T11:10:40.592Z</time></trkpt><trkpt lat="45.6606605" lon="11.1764791"><ele>939.0</ele><time>2026-04-12T11:10:44.6Z</time></trkpt><trkpt lat="45.6607066" lon="11.1764124"><ele>939.0</ele><time>2026-04-12T11:10:48.599Z</time></trkpt><trkpt lat="45.6607717" lon="11.1763983"><ele>939.0</ele><time>2026-04-12T11:10:52.636Z</time></trkpt><trkpt lat="45.6608347" lon="11.1763731"><ele>939.0</ele><time>2026-04-12T11:10:56.586Z</time></trkpt><trkpt lat="45.6609076" lon="11.1763761"><ele>939.0</ele><time>2026-04-12T11:11:01.599Z</time></trkpt><trkpt lat="45.6609734" lon="11.1763589"><ele>940.4285714285714</ele><time>2026-04-12T11:11:05.607Z</time></trkpt><trkpt lat="45.6610439" lon="11.1763506"><ele>941.8571428571429</ele><time>2026-04-12T11:11:09.592Z</time></trkpt><trkpt lat="45.6611076" lon="11.1763547"><ele>943.2857142857143</ele><time>2026-04-12T11:11:13.639Z</time></trkpt><trkpt lat="45.6611812" lon="11.1763881"><ele>944.7142857142858</ele><time>2026-04-12T11:11:17.596Z</time></trkpt><trkpt lat="45.661246" lon="11.1764277"><ele>946.1428571428571</ele><time>2026-04-12T11:11:21.592Z</time></trkpt><trkpt lat="45.6612927" lon="11.1765074"><ele>947.5714285714287</ele><time>2026-04-12T11:11:25.591Z</time></trkpt><trkpt lat="45.6613217" lon="11.1766182"><ele>949.0000000000001</ele><time>2026-04-12T11:11:30.595Z</time></trkpt><trkpt lat="45.6613155" lon="11.1767127"><ele>950.1428571428573</ele><time>2026-04-12T11:11:34.63Z</time></trkpt><trkpt lat="45.6612781" lon="11.1768103"><ele>951.2857142857143</ele><time>2026-04-12T11:11:39.597Z</time></trkpt><trkpt lat="45.6612732" lon="11.1769192"><ele>952.4285714285716</ele><time>2026-04-12T11:11:44.617Z</time></trkpt><trkpt lat="45.6613149" lon="11.176996"><ele>953.5714285714287</ele><time>2026-04-12T11:11:48.596Z</time></trkpt><trkpt lat="45.6613788" lon="11.1770168"><ele>954.7142857142858</ele><time>2026-04-12T11:11:53.592Z</time></trkpt><trkpt lat="45.6614472" lon="11.1770428"><ele>955.8571428571429</ele><time>2026-04-12T11:11:58.59Z</time></trkpt><trkpt lat="45.6615124" lon="11.1770491"><ele>957.0</ele><time>2026-04-12T11:12:02.59Z</time></trkpt><trkpt lat="45.6615802" lon="11.1770716"><ele>957.0</ele><time>2026-04-12T11:12:06.594Z</time></trkpt><trkpt lat="45.661638" lon="11.1771513"><ele>957.0000000000001</ele><time>2026-04-12T11:12:11.592Z</time></trkpt><trkpt lat="45.6616722" lon="11.1772375"><ele>957.0</ele><time>2026-04-12T11:12:15.595Z</time></trkpt><trkpt lat="45.6617122" lon="11.177313"><ele>957.0</ele><time>2026-04-12T11:12:18.593Z</time></trkpt><trkpt lat="45.6617413" lon="11.1774086"><ele>957.0000000000001</ele><time>2026-04-12T11:12:22.592Z</time></trkpt><trkpt lat="45.6617619" lon="11.1774963"><ele>957.0</ele><time>2026-04-12T11:12:26.586Z</time></trkpt><trkpt lat="45.6617725" lon="11.1775941"><ele>957.0</ele><time>2026-04-12T11:12:30.594Z</time></trkpt><trkpt lat="45.6618154" lon="11.177675"><ele>956.0</ele><time>2026-04-12T11:12:35.597Z</time></trkpt><trkpt lat="45.661854" lon="11.1777683"><ele>955.0000000000001</ele><time>2026-04-12T11:12:40.596Z</time></trkpt><trkpt lat="45.6618953" lon="11.1778378"><ele>954.0</ele><time>2026-04-12T11:14:12.576Z</time></trkpt><trkpt lat="45.6619265" lon="11.1779186"><ele>953.0</ele><time>2026-04-12T11:14:17.591Z</time></trkpt><trkpt lat="45.6619637" lon="11.1780028"><ele>952.0000000000001</ele><time>2026-04-12T11:14:21.597Z</time></trkpt><trkpt lat="45.6619942" lon="11.1780889"><ele>951.0</ele><time>2026-04-12T11:14:26.598Z</time></trkpt><trkpt lat="45.6620282" lon="11.178177"><ele>950.0</ele><time>2026-04-12T11:14:32.594Z</time></trkpt><trkpt lat="45.6620475" lon="11.1782708"><ele>953.6666666666667</ele><time>2026-04-12T11:14:37.577Z</time></trkpt><trkpt lat="45.6620625" lon="11.1783758"><ele>957.3333333333334</ele><time>2026-04-12T11:14:42.613Z</time></trkpt><trkpt lat="45.6620679" lon="11.1784834"><ele>961.0</ele><time>2026-04-12T11:14:46.61Z</time></trkpt><trkpt lat="45.6620625" lon="11.1785978"><ele>964.6666666666667</ele><time>2026-04-12T11:14:50.589Z</time></trkpt><trkpt lat="45.6620502" lon="11.1786893"><ele>968.3333333333334</ele><time>2026-04-12T11:14:54.623Z</time></trkpt><trkpt lat="45.6620444" lon="11.1788002"><ele>972.0</ele><time>2026-04-12T11:14:59.6Z</time></trkpt><trkpt lat="45.6620541" lon="11.178918"><ele>972.7142857142857</ele><time>2026-04-12T11:15:06.593Z</time></trkpt><trkpt lat="45.6620531" lon="11.1790184"><ele>973.4285714285716</ele><time>2026-04-12T11:15:10.593Z</time></trkpt><trkpt lat="45.6620557" lon="11.1791213"><ele>974.1428571428572</ele><time>2026-04-12T11:15:13.586Z</time></trkpt><trkpt lat="45.6620603" lon="11.1792197"><ele>974.8571428571429</ele><time>2026-04-12T11:15:17.59Z</time></trkpt><trkpt lat="45.6620668" lon="11.1793235"><ele>975.5714285714287</ele><time>2026-04-12T11:15:22.57Z</time></trkpt><trkpt lat="45.6620603" lon="11.1794221"><ele>976.2857142857144</ele><time>2026-04-12T11:15:26.595Z</time></trkpt><trkpt lat="45.6620706" lon="11.1795178"><ele>977.0000000000001</ele><time>2026-04-12T11:15:30.595Z</time></trkpt><trkpt lat="45.6620806" lon="11.1796103"><ele>977.0000000000001</ele><time>2026-04-12T11:15:34.593Z</time></trkpt><trkpt lat="45.6621062" lon="11.1796977"><ele>977.0</ele><time>2026-04-12T11:15:38.6Z</time></trkpt><trkpt lat="45.6621334" lon="11.1797995"><ele>977.0000000000001</ele><time>2026-04-12T11:15:42.6Z</time></trkpt><trkpt lat="45.6621692" lon="11.1798919"><ele>977.0000000000001</ele><time>2026-04-12T11:15:46.597Z</time></trkpt><trkpt lat="45.6621996" lon="11.1799811"><ele>977.0</ele><time>2026-04-12T11:15:50.597Z</time></trkpt><trkpt lat="45.6622258" lon="11.1800695"><ele>977.0000000000001</ele><time>2026-04-12T11:15:54.596Z</time></trkpt><trkpt lat="45.662254" lon="11.1801502"><ele>977.0000000000001</ele><time>2026-04-12T11:15:58.592Z</time></trkpt><trkpt lat="45.6622788" lon="11.1802365"><ele>977.2857142857144</ele><time>2026-04-12T11:16:02.595Z</time></trkpt><trkpt lat="45.6622991" lon="11.1803418"><ele>977.5714285714287</ele><time>2026-04-12T11:16:07.592Z</time></trkpt><trkpt lat="45.6623146" lon="11.1804434"><ele>977.8571428571429</ele><time>2026-04-12T11:16:12.597Z</time></trkpt><trkpt lat="45.6623344" lon="11.1805443"><ele>978.1428571428572</ele><time>2026-04-12T11:16:17.599Z</time></trkpt><trkpt lat="45.6623545" lon="11.1806445"><ele>978.4285714285716</ele><time>2026-04-12T11:16:22.601Z</time></trkpt><trkpt lat="45.6623679" lon="11.1807487"><ele>978.7142857142857</ele><time>2026-04-12T11:16:27.594Z</time></trkpt><trkpt lat="45.6623877" lon="11.1808541"><ele>979.0</ele><time>2026-04-12T11:16:32.599Z</time></trkpt><trkpt lat="45.6624022" lon="11.1809521"><ele>979.0</ele><time>2026-04-12T11:16:37.6Z</time></trkpt><trkpt lat="45.6624239" lon="11.1810547"><ele>979.0</ele><time>2026-04-12T11:16:42.601Z</time></trkpt><trkpt lat="45.6624325" lon="11.181148"><ele>979.0</ele><time>2026-04-12T11:16:47.631Z</time></trkpt><trkpt lat="45.6624467" lon="11.1812502"><ele>979.0</ele><time>2026-04-12T11:16:52.595Z</time></trkpt><trkpt lat="45.6624442" lon="11.1813577"><ele>979.0</ele><time>2026-04-12T11:16:58.595Z</time></trkpt><trkpt lat="45.6624244" lon="11.1814451"><ele>979.0</ele><time>2026-04-12T11:17:02.634Z</time></trkpt><trkpt lat="45.6623946" lon="11.1815325"><ele>979.0</ele><time>2026-04-12T11:17:07.596Z</time></trkpt><trkpt lat="45.6623747" lon="11.1816184"><ele>980.1428571428571</ele><time>2026-04-12T11:17:11.601Z</time></trkpt><trkpt lat="45.6623467" lon="11.1817215"><ele>981.2857142857143</ele><time>2026-04-12T11:17:16.596Z</time></trkpt><trkpt lat="45.6623344" lon="11.1818304"><ele>982.4285714285714</ele><time>2026-04-12T11:17:21.632Z</time></trkpt><trkpt lat="45.6623136" lon="11.1819163"><ele>983.5714285714286</ele><time>2026-04-12T11:17:26.604Z</time></trkpt><trkpt lat="45.6623084" lon="11.1820135"><ele>984.7142857142858</ele><time>2026-04-12T11:17:31.632Z</time></trkpt><trkpt lat="45.6623068" lon="11.1821167"><ele>985.8571428571429</ele><time>2026-04-12T11:17:36.589Z</time></trkpt><trkpt lat="45.662282" lon="11.1822173"><ele>987.0</ele><time>2026-04-12T11:17:40.601Z</time></trkpt><trkpt lat="45.6622566" lon="11.1823213"><ele>989.8571428571429</ele><time>2026-04-12T11:17:44.597Z</time></trkpt><trkpt lat="45.6622416" lon="11.1824109"><ele>992.7142857142858</ele><time>2026-04-12T11:17:49.634Z</time></trkpt><trkpt lat="45.6622106" lon="11.182493"><ele>995.5714285714286</ele><time>2026-04-12T11:17:54.628Z</time></trkpt><trkpt lat="45.6621849" lon="11.1825895"><ele>998.4285714285714</ele><time>2026-04-12T11:17:58.594Z</time></trkpt><trkpt lat="45.6621665" lon="11.1826844"><ele>1001.2857142857143</ele><time>2026-04-12T11:18:02.591Z</time></trkpt><trkpt lat="45.6621534" lon="11.1827739"><ele>1004.1428571428571</ele><time>2026-04-12T11:18:06.592Z</time></trkpt><trkpt lat="45.6620999" lon="11.1828503"><ele>1007.0</ele><time>2026-04-12T11:18:11.591Z</time></trkpt><trkpt lat="45.6620659" lon="11.1829325"><ele>1007.0</ele><time>2026-04-12T11:18:15.591Z</time></trkpt><trkpt lat="45.6620302" lon="11.1830172"><ele>1007.0</ele><time>2026-04-12T11:18:19.596Z</time></trkpt><trkpt lat="45.6619958" lon="11.1830998"><ele>1007.0</ele><time>2026-04-12T11:18:23.624Z</time></trkpt><trkpt lat="45.661954" lon="11.183191"><ele>1007.0</ele><time>2026-04-12T11:18:28.588Z</time></trkpt><trkpt lat="45.6619267" lon="11.1832731"><ele>1007.0</ele><time>2026-04-12T11:18:32.592Z</time></trkpt><trkpt lat="45.6618996" lon="11.1833654"><ele>1007.0</ele><time>2026-04-12T11:18:36.594Z</time></trkpt><trkpt lat="45.6618692" lon="11.1834507"><ele>1007.0</ele><time>2026-04-12T11:18:39.592Z</time></trkpt><trkpt lat="45.6618434" lon="11.183544"><ele>1007.5714285714286</ele><time>2026-04-12T11:18:43.59Z</time></trkpt><trkpt lat="45.6618036" lon="11.1836187"><ele>1008.1428571428571</ele><time>2026-04-12T11:18:48.582Z</time></trkpt><trkpt lat="45.6617727" lon="11.1836993"><ele>1008.7142857142857</ele><time>2026-04-12T11:18:51.597Z</time></trkpt><trkpt lat="45.6617408" lon="11.1837988"><ele>1009.2857142857142</ele><time>2026-04-12T11:18:55.63Z</time></trkpt><trkpt lat="45.6617397" lon="11.1838928"><ele>1009.8571428571429</ele><time>2026-04-12T11:18:58.626Z</time></trkpt><trkpt lat="45.6616942" lon="11.1839652"><ele>1010.4285714285713</ele><time>2026-04-12T11:19:02.629Z</time></trkpt><trkpt lat="45.6616589" lon="11.1840508"><ele>1010.9999999999999</ele><time>2026-04-12T11:19:06.637Z</time></trkpt><trkpt lat="45.6616223" lon="11.1841303"><ele>1010.9999999999999</ele><time>2026-04-12T11:19:10.653Z</time></trkpt><trkpt lat="45.6615841" lon="11.1842246"><ele>1011.0</ele><time>2026-04-12T11:19:15.639Z</time></trkpt><trkpt lat="45.6615393" lon="11.184332"><ele>1010.9999999999999</ele><time>2026-04-12T11:19:21.594Z</time></trkpt><trkpt lat="45.661517" lon="11.1844301"><ele>1010.9999999999999</ele><time>2026-04-12T11:19:25.619Z</time></trkpt><trkpt lat="45.6614996" lon="11.1845201"><ele>1011.0</ele><time>2026-04-12T11:19:30.587Z</time></trkpt><trkpt lat="45.6614734" lon="11.1846052"><ele>1010.9999999999999</ele><time>2026-04-12T11:19:34.606Z</time></trkpt><trkpt lat="45.6614538" lon="11.1847032"><ele>1010.9999999999999</ele><time>2026-04-12T11:19:38.592Z</time></trkpt><trkpt lat="45.6614269" lon="11.1847931"><ele>1013.8571428571427</ele><time>2026-04-12T11:19:42.594Z</time></trkpt><trkpt lat="45.6613952" lon="11.184871"><ele>1016.7142857142857</ele><time>2026-04-12T11:19:46.595Z</time></trkpt><trkpt lat="45.6613714" lon="11.184957"><ele>1019.5714285714284</ele><time>2026-04-12T11:19:50.587Z</time></trkpt><trkpt lat="45.6613348" lon="11.1850471"><ele>1022.4285714285713</ele><time>2026-04-12T11:19:55.599Z</time></trkpt><trkpt lat="45.661303" lon="11.1851468"><ele>1025.2857142857142</ele><time>2026-04-12T11:20:00.591Z</time></trkpt><trkpt lat="45.661288" lon="11.1852435"><ele>1028.142857142857</ele><time>2026-04-12T11:20:04.627Z</time></trkpt><trkpt lat="45.6612567" lon="11.1853282"><ele>1031.0</ele><time>2026-04-12T11:20:08.629Z</time></trkpt><trkpt lat="45.6612179" lon="11.1854066"><ele>1031.0</ele><time>2026-04-12T11:20:12.586Z</time></trkpt><trkpt lat="45.6611806" lon="11.1854852"><ele>1031.0</ele><time>2026-04-12T11:20:16.604Z</time></trkpt><trkpt lat="45.6611264" lon="11.1855557"><ele>1031.0</ele><time>2026-04-12T11:20:20.623Z</time></trkpt><trkpt lat="45.661094" lon="11.1856381"><ele>1031.0</ele><time>2026-04-12T11:20:24.634Z</time></trkpt><trkpt lat="45.6610464" lon="11.1857197"><ele>1031.0</ele><time>2026-04-12T11:20:29.598Z</time></trkpt><trkpt lat="45.6610003" lon="11.1857873"><ele>1031.0</ele><time>2026-04-12T11:20:33.634Z</time></trkpt><trkpt lat="45.6609555" lon="11.1858729"><ele>1031.0</ele><time>2026-04-12T11:20:39.634Z</time></trkpt><trkpt lat="45.6609067" lon="11.1859511"><ele>1028.2857142857142</ele><time>2026-04-12T11:20:44.636Z</time></trkpt><trkpt lat="45.6608675" lon="11.1860286"><ele>1025.5714285714284</ele><time>2026-04-12T11:20:48.634Z</time></trkpt><trkpt lat="45.6608191" lon="11.1861096"><ele>1022.8571428571429</ele><time>2026-04-12T11:20:52.622Z</time></trkpt><trkpt lat="45.6607714" lon="11.1861891"><ele>1020.1428571428571</ele><time>2026-04-12T11:20:56.633Z</time></trkpt><trkpt lat="45.6607762" lon="11.1862934"><ele>1017.4285714285714</ele><time>2026-04-12T11:21:01.584Z</time></trkpt><trkpt lat="45.6608451" lon="11.1862793"><ele>1014.7142857142858</ele><time>2026-04-12T11:21:06.64Z</time></trkpt><trkpt lat="45.6608855" lon="11.1861871"><ele>1012.0000000000001</ele><time>2026-04-12T11:21:11.612Z</time></trkpt><trkpt lat="45.6609165" lon="11.1861061"><ele>1012.0000000000001</ele><time>2026-04-12T11:21:15.625Z</time></trkpt><trkpt lat="45.6609541" lon="11.1860266"><ele>1012.0</ele><time>2026-04-12T11:21:19.615Z</time></trkpt><trkpt lat="45.6609713" lon="11.1859388"><ele>1012.0000000000001</ele><time>2026-04-12T11:21:24.624Z</time></trkpt><trkpt lat="45.6610347" lon="11.1859144"><ele>1012.0000000000001</ele><time>2026-04-12T11:23:18.582Z</time></trkpt><trkpt lat="45.6610886" lon="11.1858625"><ele>1012.0</ele><time>2026-04-12T11:23:23.622Z</time></trkpt><trkpt lat="45.6611435" lon="11.1858027"><ele>1012.0000000000001</ele><time>2026-04-12T11:23:28.6Z</time></trkpt><trkpt lat="45.6611907" lon="11.1857326"><ele>1012.0000000000001</ele><time>2026-04-12T11:23:33.637Z</time></trkpt><trkpt lat="45.6612419" lon="11.1856601"><ele>1015.1666666666666</ele><time>2026-04-12T11:23:38.597Z</time></trkpt><trkpt lat="45.6612935" lon="11.1855768"><ele>1018.3333333333333</ele><time>2026-04-12T11:23:43.634Z</time></trkpt><trkpt lat="45.6613504" lon="11.1855093"><ele>1021.5</ele><time>2026-04-12T11:23:48.592Z</time></trkpt><trkpt lat="45.6613916" lon="11.185421"><ele>1024.6666666666667</ele><time>2026-04-12T11:23:53.606Z</time></trkpt><trkpt lat="45.6614493" lon="11.1853475"><ele>1027.8333333333335</ele><time>2026-04-12T11:23:58.638Z</time></trkpt><trkpt lat="45.6615104" lon="11.1852865"><ele>1031.0</ele><time>2026-04-12T11:24:03.637Z</time></trkpt><trkpt lat="45.6615642" lon="11.1852064"><ele>1031.0</ele><time>2026-04-12T11:24:08.631Z</time></trkpt><trkpt lat="45.6616173" lon="11.1851284"><ele>1031.0</ele><time>2026-04-12T11:24:13.632Z</time></trkpt><trkpt lat="45.6616655" lon="11.1850595"><ele>1031.0</ele><time>2026-04-12T11:24:17.636Z</time></trkpt><trkpt lat="45.6617227" lon="11.1849825"><ele>1031.0</ele><time>2026-04-12T11:24:22.644Z</time></trkpt><trkpt lat="45.6617717" lon="11.1849051"><ele>1031.0</ele><time>2026-04-12T11:24:26.625Z</time></trkpt><trkpt lat="45.6618269" lon="11.1848175"><ele>1031.0</ele><time>2026-04-12T11:24:31.643Z</time></trkpt><trkpt lat="45.6618847" lon="11.1847578"><ele>1031.0</ele><time>2026-04-12T11:24:36.645Z</time></trkpt><trkpt lat="45.6619279" lon="11.1846884"><ele>1033.5714285714284</ele><time>2026-04-12T11:24:40.6Z</time></trkpt><trkpt lat="45.6619828" lon="11.1846182"><ele>1036.142857142857</ele><time>2026-04-12T11:24:45.617Z</time></trkpt><trkpt lat="45.6620476" lon="11.1845589"><ele>1038.7142857142858</ele><time>2026-04-12T11:24:50.625Z</time></trkpt><trkpt lat="45.6620943" lon="11.1844914"><ele>1041.2857142857142</ele><time>2026-04-12T11:24:54.616Z</time></trkpt><trkpt lat="45.6621544" lon="11.184424"><ele>1043.857142857143</ele><time>2026-04-12T11:24:59.626Z</time></trkpt><trkpt lat="45.662208" lon="11.1843475"><ele>1046.4285714285713</ele><time>2026-04-12T11:25:04.603Z</time></trkpt><trkpt lat="45.6622597" lon="11.1842888"><ele>1049.0</ele><time>2026-04-12T11:25:08.594Z</time></trkpt><trkpt lat="45.6623026" lon="11.1842204"><ele>1049.0</ele><time>2026-04-12T11:25:12.63Z</time></trkpt><trkpt lat="45.6623518" lon="11.1841414"><ele>1049.0</ele><time>2026-04-12T11:25:17.623Z</time></trkpt><trkpt lat="45.6623914" lon="11.1840609"><ele>1049.0</ele><time>2026-04-12T11:25:22.636Z</time></trkpt><trkpt lat="45.6624278" lon="11.1839694"><ele>1049.0</ele><time>2026-04-12T11:25:26.625Z</time></trkpt><trkpt lat="45.6624673" lon="11.1838984"><ele>1049.0</ele><time>2026-04-12T11:25:30.608Z</time></trkpt><trkpt lat="45.6625209" lon="11.1838389"><ele>1049.0</ele><time>2026-04-12T11:25:34.638Z</time></trkpt><trkpt lat="45.6625832" lon="11.1837786"><ele>1049.0</ele><time>2026-04-12T11:25:39.639Z</time></trkpt><trkpt lat="45.6626458" lon="11.1837253"><ele>1051.142857142857</ele><time>2026-04-12T11:25:44.637Z</time></trkpt><trkpt lat="45.6627146" lon="11.1836809"><ele>1053.2857142857142</ele><time>2026-04-12T11:25:49.637Z</time></trkpt><trkpt lat="45.6627725" lon="11.1836085"><ele>1055.4285714285716</ele><time>2026-04-12T11:25:54.639Z</time></trkpt><trkpt lat="45.6628446" lon="11.1835709"><ele>1057.5714285714284</ele><time>2026-04-12T11:25:59.636Z</time></trkpt><trkpt lat="45.6629009" lon="11.1835304"><ele>1059.7142857142858</ele><time>2026-04-12T11:26:03.607Z</time></trkpt><trkpt lat="45.6629693" lon="11.1834846"><ele>1061.857142857143</ele><time>2026-04-12T11:26:08.624Z</time></trkpt><trkpt lat="45.663031" lon="11.1834283"><ele>1064.0</ele><time>2026-04-12T11:26:13.643Z</time></trkpt><trkpt lat="45.6630832" lon="11.1833756"><ele>1064.0</ele><time>2026-04-12T11:26:17.63Z</time></trkpt><trkpt lat="45.6631316" lon="11.1833169"><ele>1064.0</ele><time>2026-04-12T11:26:21.631Z</time></trkpt><trkpt lat="45.663181" lon="11.1832329"><ele>1064.0</ele><time>2026-04-12T11:26:26.619Z</time></trkpt><trkpt lat="45.6632314" lon="11.1831641"><ele>1064.0</ele><time>2026-04-12T11:26:31.626Z</time></trkpt><trkpt lat="45.6632837" lon="11.1830935"><ele>1064.0</ele><time>2026-04-12T11:26:36.644Z</time></trkpt><trkpt lat="45.663321" lon="11.183003"><ele>1064.0</ele><time>2026-04-12T11:26:41.634Z</time></trkpt><trkpt lat="45.6633802" lon="11.1829306"><ele>1064.0</ele><time>2026-04-12T11:26:46.625Z</time></trkpt><trkpt lat="45.663435" lon="11.1828612"><ele>1066.5714285714287</ele><time>2026-04-12T11:26:51.641Z</time></trkpt><trkpt lat="45.6634721" lon="11.1827857"><ele>1069.142857142857</ele><time>2026-04-12T11:26:56.635Z</time></trkpt><trkpt lat="45.6635233" lon="11.1827281"><ele>1071.7142857142858</ele><time>2026-04-12T11:27:00.617Z</time></trkpt><trkpt lat="45.663572" lon="11.1826386"><ele>1074.2857142857142</ele><time>2026-04-12T11:27:04.638Z</time></trkpt><trkpt lat="45.6636207" lon="11.1825802"><ele>1076.857142857143</ele><time>2026-04-12T11:27:07.645Z</time></trkpt><trkpt lat="45.6636803" lon="11.1825149"><ele>1079.4285714285716</ele><time>2026-04-12T11:27:11.637Z</time></trkpt><trkpt lat="45.6637384" lon="11.1824597"><ele>1082.0</ele><time>2026-04-12T11:27:15.635Z</time></trkpt><trkpt lat="45.6637982" lon="11.1824036"><ele>1079.4285714285716</ele><time>2026-04-12T11:27:19.668Z</time></trkpt><trkpt lat="45.6638483" lon="11.182329"><ele>1076.857142857143</ele><time>2026-04-12T11:27:24.631Z</time></trkpt><trkpt lat="45.6639017" lon="11.1822561"><ele>1074.2857142857142</ele><time>2026-04-12T11:27:30.641Z</time></trkpt><trkpt lat="45.663946" lon="11.1821751"><ele>1071.7142857142858</ele><time>2026-04-12T11:27:35.606Z</time></trkpt><trkpt lat="45.6639944" lon="11.1820976"><ele>1069.142857142857</ele><time>2026-04-12T11:27:40.628Z</time></trkpt><trkpt lat="45.6640472" lon="11.1820333"><ele>1066.5714285714287</ele><time>2026-04-12T11:27:45.599Z</time></trkpt><trkpt lat="45.6640924" lon="11.181945"><ele>1064.0</ele><time>2026-04-12T11:27:49.635Z</time></trkpt><trkpt lat="45.6641497" lon="11.181886"><ele>1064.0</ele><time>2026-04-12T11:27:53.588Z</time></trkpt><trkpt lat="45.6641987" lon="11.1818249"><ele>1064.0</ele><time>2026-04-12T11:27:57.646Z</time></trkpt><trkpt lat="45.6642562" lon="11.1817532"><ele>1064.0</ele><time>2026-04-12T11:28:02.655Z</time></trkpt><trkpt lat="45.6643064" lon="11.1816719"><ele>1064.0</ele><time>2026-04-12T11:28:08.622Z</time></trkpt><trkpt lat="45.6643422" lon="11.1815931"><ele>1064.0</ele><time>2026-04-12T11:28:12.642Z</time></trkpt><trkpt lat="45.6643995" lon="11.1815209"><ele>1064.0</ele><time>2026-04-12T11:28:18.63Z</time></trkpt><trkpt lat="45.6644394" lon="11.1814497"><ele>1064.0</ele><time>2026-04-12T11:28:22.635Z</time></trkpt><trkpt lat="45.6644812" lon="11.1813753"><ele>1067.5</ele><time>2026-04-12T11:28:26.641Z</time></trkpt><trkpt lat="45.664533" lon="11.1812826"><ele>1071.0</ele><time>2026-04-12T11:28:31.621Z</time></trkpt><trkpt lat="45.6645963" lon="11.1812092"><ele>1074.5</ele><time>2026-04-12T11:28:35.621Z</time></trkpt><trkpt lat="45.6646494" lon="11.1811298"><ele>1078.0</ele><time>2026-04-12T11:28:39.627Z</time></trkpt><trkpt lat="45.6647006" lon="11.181053"><ele>1081.5</ele><time>2026-04-12T11:28:43.638Z</time></trkpt><trkpt lat="45.664749" lon="11.180976"><ele>1085.0</ele><time>2026-04-12T11:28:47.63Z</time></trkpt><trkpt lat="45.6648117" lon="11.1809146"><ele>1085.0</ele><time>2026-04-12T11:28:51.628Z</time></trkpt><trkpt lat="45.6648712" lon="11.1808582"><ele>1085.0</ele><time>2026-04-12T11:28:55.632Z</time></trkpt><trkpt lat="45.6649364" lon="11.1808126"><ele>1085.0</ele><time>2026-04-12T11:28:59.63Z</time></trkpt><trkpt lat="45.6649958" lon="11.1807803"><ele>1085.0</ele><time>2026-04-12T11:29:03.595Z</time></trkpt><trkpt lat="45.6650288" lon="11.1806854"><ele>1085.0</ele><time>2026-04-12T11:29:07.625Z</time></trkpt><trkpt lat="45.6650617" lon="11.1805896"><ele>1085.0</ele><time>2026-04-12T11:29:11.625Z</time></trkpt><trkpt lat="45.665088" lon="11.1805036"><ele>1085.0</ele><time>2026-04-12T11:29:15.631Z</time></trkpt><trkpt lat="45.6651362" lon="11.1804183"><ele>1082.3333333333335</ele><time>2026-04-12T11:29:19.633Z</time></trkpt><trkpt lat="45.6652079" lon="11.1803683"><ele>1079.6666666666667</ele><time>2026-04-12T11:29:25.591Z</time></trkpt><trkpt lat="45.6652758" lon="11.1803713"><ele>1077.0</ele><time>2026-04-12T11:29:28.593Z</time></trkpt><trkpt lat="45.6653478" lon="11.1803376"><ele>1074.3333333333333</ele><time>2026-04-12T11:29:32.631Z</time></trkpt><trkpt lat="45.6653912" lon="11.1802459"><ele>1071.6666666666665</ele><time>2026-04-12T11:29:35.642Z</time></trkpt><trkpt lat="45.6654311" lon="11.1801329"><ele>1069.0</ele><time>2026-04-12T11:29:39.615Z</time></trkpt><trkpt lat="45.6654611" lon="11.1800282"><ele>1074.0</ele><time>2026-04-12T11:29:42.614Z</time></trkpt><trkpt lat="45.6654535" lon="11.1799257"><ele>1079.0</ele><time>2026-04-12T11:29:46.624Z</time></trkpt><trkpt lat="45.6654329" lon="11.1798224"><ele>1084.0</ele><time>2026-04-12T11:29:50.608Z</time></trkpt><trkpt lat="45.6654373" lon="11.1797245"><ele>1089.0</ele><time>2026-04-12T11:29:54.639Z</time></trkpt><trkpt lat="45.6654454" lon="11.1796204"><ele>1094.0</ele><time>2026-04-12T11:29:59.624Z</time></trkpt><trkpt lat="45.6654457" lon="11.179523"><ele>1099.0</ele><time>2026-04-12T11:30:03.612Z</time></trkpt><trkpt lat="45.6654475" lon="11.1794111"><ele>1104.0</ele><time>2026-04-12T11:30:07.579Z</time></trkpt><trkpt lat="45.6654952" lon="11.1793275"><ele>1104.0</ele><time>2026-04-12T11:30:12.592Z</time></trkpt><trkpt lat="45.6655241" lon="11.1792378"><ele>1104.0</ele><time>2026-04-12T11:30:16.593Z</time></trkpt><trkpt lat="45.6655464" lon="11.1791367"><ele>1104.0</ele><time>2026-04-12T11:30:21.706Z</time></trkpt><trkpt lat="45.6655466" lon="11.1790435"><ele>1104.0</ele><time>2026-04-12T11:30:25.634Z</time></trkpt><trkpt lat="45.6655679" lon="11.1789513"><ele>1104.0</ele><time>2026-04-12T11:30:29.606Z</time></trkpt><trkpt lat="45.6656164" lon="11.1788709"><ele>1104.0</ele><time>2026-04-12T11:30:34.637Z</time></trkpt><trkpt lat="45.6656076" lon="11.1787691"><ele>1104.0</ele><time>2026-04-12T11:30:38.696Z</time></trkpt><trkpt lat="45.6656215" lon="11.1786642"><ele>1103.7142857142858</ele><time>2026-04-12T11:30:42.654Z</time></trkpt><trkpt lat="45.6656232" lon="11.178569"><ele>1103.4285714285716</ele><time>2026-04-12T11:30:47.6Z</time></trkpt><trkpt lat="45.6656309" lon="11.1784685"><ele>1103.142857142857</ele><time>2026-04-12T11:30:51.672Z</time></trkpt><trkpt lat="45.6656484" lon="11.1783681"><ele>1102.857142857143</ele><time>2026-04-12T11:30:58.589Z</time></trkpt><trkpt lat="45.6656576" lon="11.1782591"><ele>1102.5714285714284</ele><time>2026-04-12T11:31:02.715Z</time></trkpt><trkpt lat="45.6656912" lon="11.1781766"><ele>1102.2857142857142</ele><time>2026-04-12T11:31:05.626Z</time></trkpt><trkpt lat="45.6657174" lon="11.1780931"><ele>1102.0</ele><time>2026-04-12T11:31:10.58Z</time></trkpt><trkpt lat="45.6657331" lon="11.1779999"><ele>1101.4285714285713</ele><time>2026-04-12T11:31:14.608Z</time></trkpt><trkpt lat="45.6657599" lon="11.1778934"><ele>1100.857142857143</ele><time>2026-04-12T11:31:19.602Z</time></trkpt><trkpt lat="45.6657961" lon="11.1778056"><ele>1100.2857142857142</ele><time>2026-04-12T11:31:24.623Z</time></trkpt><trkpt lat="45.6658322" lon="11.1777144"><ele>1099.7142857142858</ele><time>2026-04-12T11:31:30.591Z</time></trkpt><trkpt lat="45.6658697" lon="11.1776307"><ele>1099.142857142857</ele><time>2026-04-12T11:31:35.64Z</time></trkpt><trkpt lat="45.6659105" lon="11.1775295"><ele>1098.5714285714284</ele><time>2026-04-12T11:31:39.63Z</time></trkpt><trkpt lat="45.6659495" lon="11.1774462"><ele>1098.0</ele><time>2026-04-12T11:31:43.683Z</time></trkpt><trkpt lat="45.6660022" lon="11.1773568"><ele>1096.7142857142858</ele><time>2026-04-12T11:31:48.632Z</time></trkpt><trkpt lat="45.666014" lon="11.1772552"><ele>1095.4285714285716</ele><time>2026-04-12T11:31:52.632Z</time></trkpt><trkpt lat="45.6660063" lon="11.1771578"><ele>1094.1428571428573</ele><time>2026-04-12T11:31:57.616Z</time></trkpt><trkpt lat="45.6660586" lon="11.1770903"><ele>1092.857142857143</ele><time>2026-04-12T11:32:03.586Z</time></trkpt><trkpt lat="45.6661065" lon="11.1770199"><ele>1091.5714285714287</ele><time>2026-04-12T11:32:07.593Z</time></trkpt><trkpt lat="45.6661347" lon="11.1769388"><ele>1090.2857142857144</ele><time>2026-04-12T11:32:11.589Z</time></trkpt><trkpt lat="45.6661704" lon="11.1768476"><ele>1089.0</ele><time>2026-04-12T11:32:16.594Z</time></trkpt><trkpt lat="45.6661842" lon="11.1767481"><ele>1094.1428571428573</ele><time>2026-04-12T11:32:19.597Z</time></trkpt><trkpt lat="45.6662156" lon="11.1766668"><ele>1099.2857142857142</ele><time>2026-04-12T11:32:22.586Z</time></trkpt><trkpt lat="45.6662519" lon="11.1765744"><ele>1104.4285714285716</ele><time>2026-04-12T11:32:26.597Z</time></trkpt><trkpt lat="45.6662808" lon="11.1764871"><ele>1109.5714285714287</ele><time>2026-04-12T11:32:31.579Z</time></trkpt><trkpt lat="45.6663087" lon="11.1763887"><ele>1114.7142857142858</ele><time>2026-04-12T11:32:35.632Z</time></trkpt><trkpt lat="45.6663389" lon="11.1762904"><ele>1119.857142857143</ele><time>2026-04-12T11:32:39.62Z</time></trkpt><trkpt lat="45.6663515" lon="11.1761952"><ele>1125.0</ele><time>2026-04-12T11:32:43.591Z</time></trkpt><trkpt lat="45.666356" lon="11.1760981"><ele>1125.0</ele><time>2026-04-12T11:32:48.588Z</time></trkpt><trkpt lat="45.6663634" lon="11.1759901"><ele>1125.0</ele><time>2026-04-12T11:32:52.619Z</time></trkpt><trkpt lat="45.6663764" lon="11.1758846"><ele>1125.0</ele><time>2026-04-12T11:32:59.627Z</time></trkpt><trkpt lat="45.666411" lon="11.1758026"><ele>1125.0</ele><time>2026-04-12T11:33:03.598Z</time></trkpt><trkpt lat="45.6664604" lon="11.1757302"><ele>1125.0</ele><time>2026-04-12T11:33:08.626Z</time></trkpt><trkpt lat="45.6665263" lon="11.1756681"><ele>1125.0</ele><time>2026-04-12T11:33:12.613Z</time></trkpt><trkpt lat="45.6665803" lon="11.1755984"><ele>1125.0</ele><time>2026-04-12T11:33:16.637Z</time></trkpt><trkpt lat="45.666616" lon="11.1755137"><ele>1126.0</ele><time>2026-04-12T11:33:20.714Z</time></trkpt><trkpt lat="45.6666193" lon="11.1754223"><ele>1127.0</ele><time>2026-04-12T11:33:27.693Z</time></trkpt><trkpt lat="45.6666011" lon="11.1753173"><ele>1128.0</ele><time>2026-04-12T11:33:33.588Z</time></trkpt><trkpt lat="45.6666003" lon="11.1752251"><ele>1129.0</ele><time>2026-04-12T11:33:36.621Z</time></trkpt><trkpt lat="45.6666115" lon="11.175123"><ele>1130.0</ele><time>2026-04-12T11:33:41.591Z</time></trkpt><trkpt lat="45.6666118" lon="11.1750169"><ele>1131.0</ele><time>2026-04-12T11:33:45.594Z</time></trkpt><trkpt lat="45.666602" lon="11.1749165"><ele>1132.0</ele><time>2026-04-12T11:33:48.602Z</time></trkpt><trkpt lat="45.6665839" lon="11.174795"><ele>1132.142857142857</ele><time>2026-04-12T11:33:54.591Z</time></trkpt><trkpt lat="45.666576" lon="11.1746972"><ele>1132.2857142857144</ele><time>2026-04-12T11:33:59.637Z</time></trkpt><trkpt lat="45.6665379" lon="11.1746149"><ele>1132.4285714285716</ele><time>2026-04-12T11:34:19.591Z</time></trkpt><trkpt lat="45.6665247" lon="11.1745109"><ele>1132.5714285714287</ele><time>2026-04-12T11:34:23.621Z</time></trkpt><trkpt lat="45.6665135" lon="11.1744214"><ele>1132.7142857142858</ele><time>2026-04-12T11:34:26.623Z</time></trkpt><trkpt lat="45.6664678" lon="11.1743532"><ele>1132.857142857143</ele><time>2026-04-12T11:34:30.606Z</time></trkpt><trkpt lat="45.6664044" lon="11.1743093"><ele>1133.0</ele><time>2026-04-12T11:34:35.668Z</time></trkpt><trkpt lat="45.6663313" lon="11.1743066"><ele>1133.0</ele><time>2026-04-12T11:34:39.599Z</time></trkpt><trkpt lat="45.6662921" lon="11.1742192"><ele>1133.0</ele><time>2026-04-12T11:34:45.598Z</time></trkpt><trkpt lat="45.6662737" lon="11.1741152"><ele>1133.0</ele><time>2026-04-12T11:34:50.615Z</time></trkpt><trkpt lat="45.6663004" lon="11.1740173"><ele>1133.0</ele><time>2026-04-12T11:34:54.596Z</time></trkpt><trkpt lat="45.666328" lon="11.1739246"><ele>1133.0</ele><time>2026-04-12T11:34:57.621Z</time></trkpt><trkpt lat="45.6663617" lon="11.1738427"><ele>1133.0</ele><time>2026-04-12T11:35:01.644Z</time></trkpt><trkpt lat="45.666427" lon="11.1738126"><ele>1133.0</ele><time>2026-04-12T11:35:05.592Z</time></trkpt><trkpt lat="45.6664926" lon="11.1737919"><ele>1128.6666666666667</ele><time>2026-04-12T11:35:10.595Z</time></trkpt><trkpt lat="45.6665393" lon="11.1737087"><ele>1124.3333333333335</ele><time>2026-04-12T11:35:16.595Z</time></trkpt><trkpt lat="45.6666065" lon="11.173676"><ele>1120.0</ele><time>2026-04-12T11:35:21.596Z</time></trkpt><trkpt lat="45.6666932" lon="11.1736853"><ele>1115.6666666666667</ele><time>2026-04-12T11:35:25.595Z</time></trkpt><trkpt lat="45.6667652" lon="11.1736576"><ele>1111.3333333333333</ele><time>2026-04-12T11:35:29.6Z</time></trkpt><trkpt lat="45.6668306" lon="11.1736045"><ele>1107.0</ele><time>2026-04-12T11:35:34.626Z</time></trkpt><trkpt lat="45.6669025" lon="11.1735932"><ele>1109.857142857143</ele><time>2026-04-12T11:35:38.604Z</time></trkpt><trkpt lat="45.66696" lon="11.1735537"><ele>1112.7142857142858</ele><time>2026-04-12T11:35:43.598Z</time></trkpt><trkpt lat="45.6670259" lon="11.1735082"><ele>1115.5714285714284</ele><time>2026-04-12T11:35:49.598Z</time></trkpt><trkpt lat="45.6670878" lon="11.1735357"><ele>1118.4285714285716</ele><time>2026-04-12T11:35:53.638Z</time></trkpt><trkpt lat="45.6671571" lon="11.1735674"><ele>1121.2857142857142</ele><time>2026-04-12T11:35:57.603Z</time></trkpt><trkpt lat="45.6672157" lon="11.1735311"><ele>1124.142857142857</ele><time>2026-04-12T11:36:01.598Z</time></trkpt><trkpt lat="45.6672832" lon="11.1735591"><ele>1127.0</ele><time>2026-04-12T11:36:07.596Z</time></trkpt><trkpt lat="45.6673373" lon="11.1736085"><ele>1127.0</ele><time>2026-04-12T11:36:11.598Z</time></trkpt><trkpt lat="45.6674013" lon="11.1736515"><ele>1127.0</ele><time>2026-04-12T11:36:16.624Z</time></trkpt><trkpt lat="45.6674696" lon="11.173692"><ele>1127.0</ele><time>2026-04-12T11:36:20.623Z</time></trkpt><trkpt lat="45.6675439" lon="11.173718"><ele>1127.0</ele><time>2026-04-12T11:36:25.586Z</time></trkpt><trkpt lat="45.667616" lon="11.1737271"><ele>1127.0</ele><time>2026-04-12T11:36:29.614Z</time></trkpt><trkpt lat="45.6677948" lon="11.1737168"><ele>1132.0</ele><time>2026-04-12T11:36:40.598Z</time></trkpt><trkpt lat="45.6678528" lon="11.1736597"><ele>1137.0</ele><time>2026-04-12T11:36:45.612Z</time></trkpt><trkpt lat="45.6679212" lon="11.1736645"><ele>1142.0</ele><time>2026-04-12T11:36:49.596Z</time></trkpt><trkpt lat="45.6679979" lon="11.1736768"><ele>1147.0</ele><time>2026-04-12T11:36:53.595Z</time></trkpt><trkpt lat="45.6680623" lon="11.1736886"><ele>1152.0</ele><time>2026-04-12T11:36:57.595Z</time></trkpt><trkpt lat="45.6681251" lon="11.1736967"><ele>1157.0</ele><time>2026-04-12T11:37:01.654Z</time></trkpt><trkpt lat="45.668198" lon="11.1736583"><ele>1162.0</ele><time>2026-04-12T11:37:06.606Z</time></trkpt><trkpt lat="45.6682362" lon="11.1735835"><ele>1162.0</ele><time>2026-04-12T11:37:11.651Z</time></trkpt><trkpt lat="45.6682061" lon="11.1734966"><ele>1162.0</ele><time>2026-04-12T11:37:16.599Z</time></trkpt><trkpt lat="45.6681629" lon="11.1734153"><ele>1162.0</ele><time>2026-04-12T11:37:22.642Z</time></trkpt><trkpt lat="45.6681469" lon="11.173328"><ele>1162.0</ele><time>2026-04-12T11:37:26.601Z</time></trkpt><trkpt lat="45.6681228" lon="11.1732399"><ele>1162.0</ele><time>2026-04-12T11:37:31.602Z</time></trkpt><trkpt lat="45.6681016" lon="11.173141"><ele>1162.0</ele><time>2026-04-12T11:37:36.59Z</time></trkpt><trkpt lat="45.6680818" lon="11.1730515"><ele>1162.0</ele><time>2026-04-12T11:37:42.601Z</time></trkpt><trkpt lat="45.6681011" lon="11.1729389"><ele>1159.8333333333333</ele><time>2026-04-12T11:37:48.602Z</time></trkpt><trkpt lat="45.6681321" lon="11.1728484"><ele>1157.6666666666665</ele><time>2026-04-12T11:37:52.595Z</time></trkpt><trkpt lat="45.6681412" lon="11.172754"><ele>1155.5</ele><time>2026-04-12T11:37:58.643Z</time></trkpt><trkpt lat="45.6682231" lon="11.1726678"><ele>1153.3333333333333</ele><time>2026-04-12T11:38:28.636Z</time></trkpt><trkpt lat="45.6682609" lon="11.1725879"><ele>1151.1666666666667</ele><time>2026-04-12T11:38:33.638Z</time></trkpt><trkpt lat="45.6683133" lon="11.1725211"><ele>1149.0</ele><time>2026-04-12T11:38:37.6Z</time></trkpt><trkpt lat="45.6683704" lon="11.1724417"><ele>1149.0</ele><time>2026-04-12T11:38:41.595Z</time></trkpt><trkpt lat="45.6684362" lon="11.1723777"><ele>1149.0</ele><time>2026-04-12T11:38:45.595Z</time></trkpt><trkpt lat="45.6684957" lon="11.1723296"><ele>1149.0</ele><time>2026-04-12T11:38:48.591Z</time></trkpt><trkpt lat="45.6685563" lon="11.1723043"><ele>1149.0</ele><time>2026-04-12T11:38:51.591Z</time></trkpt><trkpt lat="45.6685641" lon="11.1722036"><ele>1149.0</ele><time>2026-04-12T11:38:54.59Z</time></trkpt><trkpt lat="45.6686326" lon="11.1721254"><ele>1149.0</ele><time>2026-04-12T11:38:58.598Z</time></trkpt><trkpt lat="45.6686955" lon="11.1720591"><ele>1149.0</ele><time>2026-04-12T11:39:02.627Z</time></trkpt><trkpt lat="45.6687021" lon="11.171949"><ele>1150.3333333333333</ele><time>2026-04-12T11:39:06.596Z</time></trkpt><trkpt lat="45.6687438" lon="11.1718557"><ele>1151.6666666666667</ele><time>2026-04-12T11:39:11.7Z</time></trkpt><trkpt lat="45.6687796" lon="11.1717697"><ele>1153.0</ele><time>2026-04-12T11:39:14.644Z</time></trkpt><trkpt lat="45.6688197" lon="11.1716665"><ele>1154.3333333333335</ele><time>2026-04-12T11:39:18.596Z</time></trkpt><trkpt lat="45.6688656" lon="11.1715812"><ele>1155.6666666666667</ele><time>2026-04-12T11:39:22.627Z</time></trkpt><trkpt lat="45.6689103" lon="11.1715013"><ele>1157.0</ele><time>2026-04-12T11:39:27.598Z</time></trkpt><trkpt lat="45.6689802" lon="11.1714108"><ele>1157.0</ele><time>2026-04-12T11:39:30.616Z</time></trkpt><trkpt lat="45.669058" lon="11.1713509"><ele>1157.0</ele><time>2026-04-12T11:39:34.654Z</time></trkpt><trkpt lat="45.6691199" lon="11.1713074"><ele>1157.0</ele><time>2026-04-12T11:39:37.6Z</time></trkpt><trkpt lat="45.6691806" lon="11.1712529"><ele>1157.0</ele><time>2026-04-12T11:39:40.599Z</time></trkpt><trkpt lat="45.6692527" lon="11.1712031"><ele>1157.0</ele><time>2026-04-12T11:39:45.603Z</time></trkpt><trkpt lat="45.6693143" lon="11.1711547"><ele>1157.0</ele><time>2026-04-12T11:39:49.599Z</time></trkpt><trkpt lat="45.6693609" lon="11.1710851"><ele>1157.0</ele><time>2026-04-12T11:39:54.594Z</time></trkpt><trkpt lat="45.6693683" lon="11.1709922"><ele>1157.0</ele><time>2026-04-12T11:39:57.593Z</time></trkpt><trkpt lat="45.6693875" lon="11.1709021"><ele>1157.0</ele><time>2026-04-12T11:40:01.593Z</time></trkpt><trkpt lat="45.669413" lon="11.1708187"><ele>1157.0</ele><time>2026-04-12T11:40:05.647Z</time></trkpt><trkpt lat="45.6694662" lon="11.1707446"><ele>1157.0</ele><time>2026-04-12T11:40:10.603Z</time></trkpt><trkpt lat="45.6694754" lon="11.1706544"><ele>1157.0</ele><time>2026-04-12T11:40:14.597Z</time></trkpt><trkpt lat="45.6694958" lon="11.1705605"><ele>1157.0</ele><time>2026-04-12T11:40:19.598Z</time></trkpt><trkpt lat="45.6695336" lon="11.1704858"><ele>1157.0</ele><time>2026-04-12T11:40:24.593Z</time></trkpt><trkpt lat="45.6695852" lon="11.1704002"><ele>1160.5714285714284</ele><time>2026-04-12T11:40:29.638Z</time></trkpt><trkpt lat="45.6696131" lon="11.1703082"><ele>1164.142857142857</ele><time>2026-04-12T11:40:33.616Z</time></trkpt><trkpt lat="45.6696678" lon="11.1702479"><ele>1167.7142857142858</ele><time>2026-04-12T11:40:37.636Z</time></trkpt><trkpt lat="45.669734" lon="11.1701635"><ele>1171.2857142857142</ele><time>2026-04-12T11:40:41.639Z</time></trkpt><trkpt lat="45.6697777" lon="11.1700984"><ele>1174.857142857143</ele><time>2026-04-12T11:40:44.609Z</time></trkpt><trkpt lat="45.669803" lon="11.1700098"><ele>1178.4285714285713</ele><time>2026-04-12T11:40:48.621Z</time></trkpt><trkpt lat="45.6698438" lon="11.16993"><ele>1182.0</ele><time>2026-04-12T11:40:54.6Z</time></trkpt><trkpt lat="45.6699014" lon="11.1698772"><ele>1179.0</ele><time>2026-04-12T11:40:58.597Z</time></trkpt><trkpt lat="45.6699683" lon="11.1698357"><ele>1176.0</ele><time>2026-04-12T11:41:03.674Z</time></trkpt><trkpt lat="45.6700443" lon="11.1697815"><ele>1173.0</ele><time>2026-04-12T11:41:07.59Z</time></trkpt><trkpt lat="45.6700841" lon="11.169675"><ele>1170.0</ele><time>2026-04-12T11:41:13.611Z</time></trkpt><trkpt lat="45.6701476" lon="11.1696044"><ele>1167.0</ele><time>2026-04-12T11:41:18.591Z</time></trkpt><trkpt lat="45.6702002" lon="11.1695286"><ele>1164.0</ele><time>2026-04-12T11:41:22.594Z</time></trkpt><trkpt lat="45.670244" lon="11.1694632"><ele>1167.142857142857</ele><time>2026-04-12T11:41:26.613Z</time></trkpt><trkpt lat="45.6703002" lon="11.1693933"><ele>1170.2857142857142</ele><time>2026-04-12T11:41:30.598Z</time></trkpt><trkpt lat="45.6703486" lon="11.169331"><ele>1173.4285714285713</ele><time>2026-04-12T11:41:34.594Z</time></trkpt><trkpt lat="45.6704031" lon="11.1692618"><ele>1176.5714285714284</ele><time>2026-04-12T11:41:39.587Z</time></trkpt><trkpt lat="45.6704185" lon="11.1691739"><ele>1179.7142857142858</ele><time>2026-04-12T11:41:48.583Z</time></trkpt><trkpt lat="45.6704892" lon="11.1691242"><ele>1182.8571428571427</ele><time>2026-04-12T11:41:52.589Z</time></trkpt><trkpt lat="45.6705373" lon="11.1690359"><ele>1186.0</ele><time>2026-04-12T11:41:56.589Z</time></trkpt><trkpt lat="45.6705649" lon="11.168937"><ele>1185.9999999999998</ele><time>2026-04-12T11:42:01.584Z</time></trkpt><trkpt lat="45.6706053" lon="11.1688635"><ele>1186.0</ele><time>2026-04-12T11:42:05.59Z</time></trkpt><trkpt lat="45.6706475" lon="11.1687863"><ele>1186.0</ele><time>2026-04-12T11:42:08.587Z</time></trkpt><trkpt lat="45.6707154" lon="11.1687638"><ele>1186.0</ele><time>2026-04-12T11:42:13.59Z</time></trkpt><trkpt lat="45.6707689" lon="11.1687029"><ele>1186.0</ele><time>2026-04-12T11:42:19.598Z</time></trkpt><trkpt lat="45.670807" lon="11.1686199"><ele>1185.9999999999998</ele><time>2026-04-12T11:42:24.59Z</time></trkpt><trkpt lat="45.6708502" lon="11.1685432"><ele>1186.0</ele><time>2026-04-12T11:42:29.599Z</time></trkpt><trkpt lat="45.6708887" lon="11.1684715"><ele>1185.9999999999998</ele><time>2026-04-12T11:42:34.58Z</time></trkpt><trkpt lat="45.6709374" lon="11.168392"><ele>1186.0</ele><time>2026-04-12T11:42:39.592Z</time></trkpt><trkpt lat="45.6709788" lon="11.1683177"><ele>1186.0</ele><time>2026-04-12T11:42:43.636Z</time></trkpt><trkpt lat="45.6710145" lon="11.1682237"><ele>1186.0</ele><time>2026-04-12T11:42:48.588Z</time></trkpt><trkpt lat="45.6710691" lon="11.1681505"><ele>1186.0</ele><time>2026-04-12T11:42:54.587Z</time></trkpt><trkpt lat="45.671119" lon="11.1680798"><ele>1185.9999999999998</ele><time>2026-04-12T11:42:59.597Z</time></trkpt><trkpt lat="45.6711773" lon="11.1680072"><ele>1186.0</ele><time>2026-04-12T11:43:04.585Z</time></trkpt><trkpt lat="45.6712214" lon="11.1679043"><ele>1188.142857142857</ele><time>2026-04-12T11:43:09.59Z</time></trkpt><trkpt lat="45.671267" lon="11.1678278"><ele>1190.2857142857142</ele><time>2026-04-12T11:43:12.586Z</time></trkpt><trkpt lat="45.6713244" lon="11.167759"><ele>1192.4285714285716</ele><time>2026-04-12T11:43:17.589Z</time></trkpt><trkpt lat="45.67139" lon="11.1677248"><ele>1194.5714285714284</ele><time>2026-04-12T11:43:22.589Z</time></trkpt><trkpt lat="45.6714536" lon="11.167681"><ele>1196.7142857142858</ele><time>2026-04-12T11:43:27.591Z</time></trkpt><trkpt lat="45.6715203" lon="11.1676351"><ele>1198.857142857143</ele><time>2026-04-12T11:43:32.59Z</time></trkpt><trkpt lat="45.6715774" lon="11.167575"><ele>1201.0</ele><time>2026-04-12T11:43:37.593Z</time></trkpt><trkpt lat="45.6716358" lon="11.1675147"><ele>1201.0</ele><time>2026-04-12T11:43:41.597Z</time></trkpt><trkpt lat="45.6717097" lon="11.1674855"><ele>1201.0</ele><time>2026-04-12T11:43:45.589Z</time></trkpt><trkpt lat="45.6717644" lon="11.1674004"><ele>1201.0</ele><time>2026-04-12T11:43:49.584Z</time></trkpt><trkpt lat="45.6718303" lon="11.167354"><ele>1201.0</ele><time>2026-04-12T11:43:53.598Z</time></trkpt><trkpt lat="45.6719007" lon="11.1673189"><ele>1201.0</ele><time>2026-04-12T11:43:57.605Z</time></trkpt><trkpt lat="45.6719582" lon="11.1672519"><ele>1201.0</ele><time>2026-04-12T11:44:01.589Z</time></trkpt><trkpt lat="45.6720333" lon="11.1672152"><ele>1202.1428571428573</ele><time>2026-04-12T11:44:05.583Z</time></trkpt><trkpt lat="45.672117" lon="11.1672091"><ele>1203.2857142857142</ele><time>2026-04-12T11:44:09.592Z</time></trkpt><trkpt lat="45.6721883" lon="11.167202"><ele>1204.4285714285716</ele><time>2026-04-12T11:44:18.587Z</time></trkpt><trkpt lat="45.6722622" lon="11.1671855"><ele>1205.5714285714287</ele><time>2026-04-12T11:44:22.673Z</time></trkpt><trkpt lat="45.6723271" lon="11.1671788"><ele>1206.7142857142858</ele><time>2026-04-12T11:44:25.609Z</time></trkpt><trkpt lat="45.6723861" lon="11.1671326"><ele>1207.857142857143</ele><time>2026-04-12T11:44:29.594Z</time></trkpt><trkpt lat="45.6724465" lon="11.1670746"><ele>1209.0</ele><time>2026-04-12T11:44:33.583Z</time></trkpt><trkpt lat="45.6725152" lon="11.1670573"><ele>1209.0</ele><time>2026-04-12T11:44:39.587Z</time></trkpt><trkpt lat="45.6725801" lon="11.1670001"><ele>1209.0</ele><time>2026-04-12T11:44:46.594Z</time></trkpt><trkpt lat="45.6726455" lon="11.1670006"><ele>1209.0</ele><time>2026-04-12T11:44:50.584Z</time></trkpt><trkpt lat="45.672708" lon="11.1669852"><ele>1209.0</ele><time>2026-04-12T11:44:54.585Z</time></trkpt><trkpt lat="45.6727695" lon="11.1669625"><ele>1209.0</ele><time>2026-04-12T11:44:57.587Z</time></trkpt><trkpt lat="45.6728058" lon="11.1668666"><ele>1209.0</ele><time>2026-04-12T11:45:03.584Z</time></trkpt><trkpt lat="45.6727998" lon="11.166765"><ele>1209.0</ele><time>2026-04-12T11:45:07.589Z</time></trkpt><trkpt lat="45.6727799" lon="11.1666638"><ele>1209.857142857143</ele><time>2026-04-12T11:45:11.596Z</time></trkpt><trkpt lat="45.6727727" lon="11.1665715"><ele>1210.7142857142858</ele><time>2026-04-12T11:45:16.59Z</time></trkpt><trkpt lat="45.6727495" lon="11.1664759"><ele>1211.5714285714287</ele><time>2026-04-12T11:45:22.588Z</time></trkpt><trkpt lat="45.6726978" lon="11.166397"><ele>1212.4285714285716</ele><time>2026-04-12T11:45:29.593Z</time></trkpt><trkpt lat="45.6726541" lon="11.1663251"><ele>1213.2857142857142</ele><time>2026-04-12T11:45:33.593Z</time></trkpt><trkpt lat="45.672604" lon="11.166255"><ele>1214.1428571428573</ele><time>2026-04-12T11:45:37.583Z</time></trkpt><trkpt lat="45.6725541" lon="11.1661755"><ele>1215.0</ele><time>2026-04-12T11:45:42.614Z</time></trkpt><trkpt lat="45.6725404" lon="11.1660774"><ele>1215.0000000000002</ele><time>2026-04-12T11:45:46.588Z</time></trkpt><trkpt lat="45.6725719" lon="11.1659769"><ele>1215.0</ele><time>2026-04-12T11:45:51.59Z</time></trkpt><trkpt lat="45.6726281" lon="11.1659076"><ele>1215.0</ele><time>2026-04-12T11:45:55.59Z</time></trkpt><trkpt lat="45.6726864" lon="11.165843"><ele>1215.0</ele><time>2026-04-12T11:45:59.592Z</time></trkpt><trkpt lat="45.6727165" lon="11.1657631"><ele>1215.0</ele><time>2026-04-12T11:46:04.582Z</time></trkpt><trkpt lat="45.6727674" lon="11.1657008"><ele>1215.0000000000002</ele><time>2026-04-12T11:46:09.605Z</time></trkpt><trkpt lat="45.6728277" lon="11.165654"><ele>1215.0</ele><time>2026-04-12T11:46:14.597Z</time></trkpt><trkpt lat="45.6728676" lon="11.1655604"><ele>1214.5714285714287</ele><time>2026-04-12T11:46:19.597Z</time></trkpt><trkpt lat="45.6728629" lon="11.1654528"><ele>1214.142857142857</ele><time>2026-04-12T11:46:24.585Z</time></trkpt><trkpt lat="45.6728495" lon="11.165358"><ele>1213.7142857142858</ele><time>2026-04-12T11:46:29.635Z</time></trkpt><trkpt lat="45.6728141" lon="11.1652769"><ele>1213.2857142857142</ele><time>2026-04-12T11:46:33.592Z</time></trkpt><trkpt lat="45.6727627" lon="11.1652187"><ele>1212.857142857143</ele><time>2026-04-12T11:46:38.589Z</time></trkpt><trkpt lat="45.6727106" lon="11.1651599"><ele>1212.4285714285716</ele><time>2026-04-12T11:46:43.586Z</time></trkpt><trkpt lat="45.6726929" lon="11.1650704"><ele>1212.0</ele><time>2026-04-12T11:46:48.585Z</time></trkpt><trkpt lat="45.6727509" lon="11.16499"><ele>1216.4285714285716</ele><time>2026-04-12T11:46:53.591Z</time></trkpt><trkpt lat="45.6728147" lon="11.1650009"><ele>1220.857142857143</ele><time>2026-04-12T11:46:57.597Z</time></trkpt><trkpt lat="45.672882" lon="11.1649751"><ele>1225.2857142857142</ele><time>2026-04-12T11:47:02.591Z</time></trkpt><trkpt lat="45.6729489" lon="11.164952"><ele>1229.7142857142858</ele><time>2026-04-12T11:47:08.589Z</time></trkpt><trkpt lat="45.6730121" lon="11.1649618"><ele>1234.142857142857</ele><time>2026-04-12T11:47:15.588Z</time></trkpt><trkpt lat="45.6730629" lon="11.165038"><ele>1238.5714285714287</ele><time>2026-04-12T11:47:21.582Z</time></trkpt><trkpt lat="45.6730286" lon="11.1651365"><ele>1243.0</ele><time>2026-04-12T11:47:26.682Z</time></trkpt><trkpt lat="45.6730212" lon="11.1652346"><ele>1243.0000000000002</ele><time>2026-04-12T11:47:30.593Z</time></trkpt><trkpt lat="45.6730155" lon="11.1653346"><ele>1243.0</ele><time>2026-04-12T11:47:34.588Z</time></trkpt><trkpt lat="45.6730469" lon="11.1654145"><ele>1243.0</ele><time>2026-04-12T11:47:38.609Z</time></trkpt><trkpt lat="45.6731024" lon="11.1654849"><ele>1243.0</ele><time>2026-04-12T11:47:41.731Z</time></trkpt><trkpt lat="45.67317" lon="11.1654374"><ele>1243.0</ele><time>2026-04-12T11:47:46.624Z</time></trkpt><trkpt lat="45.6731973" lon="11.1653329"><ele>1243.0000000000002</ele><time>2026-04-12T11:47:52.59Z</time></trkpt><trkpt lat="45.6732116" lon="11.1652435"><ele>1243.0</ele><time>2026-04-12T11:48:02.588Z</time></trkpt><trkpt lat="45.6732334" lon="11.1651462"><ele>1243.0000000000002</ele><time>2026-04-12T11:48:11.601Z</time></trkpt><trkpt lat="45.6732723" lon="11.1650749"><ele>1243.0</ele><time>2026-04-12T11:48:18.609Z</time></trkpt><trkpt lat="45.6733216" lon="11.1650125"><ele>1243.0</ele><time>2026-04-12T11:48:26.595Z</time></trkpt><trkpt lat="45.6732644" lon="11.1650758"><ele>1243.0</ele><time>2026-04-12T11:49:08.595Z</time></trkpt><trkpt lat="45.6732563" lon="11.1651718"><ele>1243.0</ele><time>2026-04-12T11:49:14.596Z</time></trkpt><trkpt lat="45.6732877" lon="11.1650895"><ele>1243.0000000000002</ele><time>2026-04-12T11:49:24.594Z</time></trkpt><trkpt lat="45.6733538" lon="11.1651018"><ele>1243.0</ele><time>2026-04-12T11:49:33.586Z</time></trkpt><trkpt lat="45.6733145" lon="11.1652277"><ele>1243.0000000000002</ele><time>2026-04-12T11:58:18.792Z</time></trkpt><trkpt lat="45.6733268" lon="11.1651357"><ele>1243.0</ele><time>2026-04-12T12:19:26.595Z</time></trkpt><trkpt lat="45.6733032" lon="11.165051"><ele>1243.0</ele><time>2026-04-12T12:19:54.598Z</time></trkpt><trkpt lat="45.6732993" lon="11.1649594"><ele>1243.0</ele><time>2026-04-12T12:20:21.592Z</time></trkpt><trkpt lat="45.6732355" lon="11.1649558"><ele>1243.0</ele><time>2026-04-12T12:21:20.606Z</time></trkpt><trkpt lat="45.6732277" lon="11.165059"><ele>1243.0000000000002</ele><time>2026-04-12T12:21:24.6Z</time></trkpt><trkpt lat="45.6732467" lon="11.1651627"><ele>1243.0</ele><time>2026-04-12T12:21:29.599Z</time></trkpt><trkpt lat="45.6732904" lon="11.1652849"><ele>1243.0</ele><time>2026-04-12T12:25:13.601Z</time></trkpt><trkpt lat="45.6732269" lon="11.165281"><ele>1243.0</ele><time>2026-04-12T12:28:50.597Z</time></trkpt><trkpt lat="45.6731987" lon="11.1653797"><ele>1243.0</ele><time>2026-04-12T12:29:09.664Z</time></trkpt><trkpt lat="45.6731476" lon="11.1656078"><ele>1243.0</ele><time>2026-04-12T12:29:12.606Z</time></trkpt><trkpt lat="45.6731427" lon="11.165701"><ele>1243.0</ele><time>2026-04-12T12:29:18.592Z</time></trkpt><trkpt lat="45.6731446" lon="11.1658087"><ele>1243.0</ele><time>2026-04-12T12:29:24.593Z</time></trkpt><trkpt lat="45.6731552" lon="11.1659017"><ele>1244.4285714285716</ele><time>2026-04-12T12:29:29.671Z</time></trkpt><trkpt lat="45.6731765" lon="11.1659987"><ele>1245.857142857143</ele><time>2026-04-12T12:29:34.592Z</time></trkpt><trkpt lat="45.6731886" lon="11.1660937"><ele>1247.2857142857142</ele><time>2026-04-12T12:29:39.601Z</time></trkpt><trkpt lat="45.6732087" lon="11.1661796"><ele>1248.7142857142858</ele><time>2026-04-12T12:29:44.641Z</time></trkpt><trkpt lat="45.6732392" lon="11.1662736"><ele>1250.142857142857</ele><time>2026-04-12T12:29:50.641Z</time></trkpt><trkpt lat="45.6732617" lon="11.1663687"><ele>1251.5714285714287</ele><time>2026-04-12T12:29:55.598Z</time></trkpt><trkpt lat="45.6732889" lon="11.1664537"><ele>1253.0</ele><time>2026-04-12T12:30:02.586Z</time></trkpt><trkpt lat="45.6733412" lon="11.1665195"><ele>1253.4285714285713</ele><time>2026-04-12T12:30:07.653Z</time></trkpt><trkpt lat="45.673351" lon="11.1666128"><ele>1253.857142857143</ele><time>2026-04-12T12:30:12.597Z</time></trkpt><trkpt lat="45.6733573" lon="11.1667122"><ele>1254.2857142857142</ele><time>2026-04-12T12:30:18.589Z</time></trkpt><trkpt lat="45.6733844" lon="11.1667993"><ele>1254.7142857142858</ele><time>2026-04-12T12:30:24.596Z</time></trkpt><trkpt lat="45.6734027" lon="11.166886"><ele>1255.142857142857</ele><time>2026-04-12T12:30:28.595Z</time></trkpt><trkpt lat="45.6734187" lon="11.1669736"><ele>1255.5714285714284</ele><time>2026-04-12T12:30:35.603Z</time></trkpt><trkpt lat="45.6734143" lon="11.1670648"><ele>1256.0</ele><time>2026-04-12T12:30:41.665Z</time></trkpt><trkpt lat="45.6734186" lon="11.1671552"><ele>1255.9999999999998</ele><time>2026-04-12T12:30:45.598Z</time></trkpt><trkpt lat="45.6734238" lon="11.1672489"><ele>1256.0</ele><time>2026-04-12T12:30:48.626Z</time></trkpt><trkpt lat="45.673398" lon="11.1673539"><ele>1256.0</ele><time>2026-04-12T12:30:53.631Z</time></trkpt><trkpt lat="45.673356" lon="11.1674346"><ele>1256.0</ele><time>2026-04-12T12:30:57.634Z</time></trkpt><trkpt lat="45.6733158" lon="11.1675146"><ele>1256.0</ele><time>2026-04-12T12:31:01.603Z</time></trkpt><trkpt lat="45.6732449" lon="11.1675906"><ele>1255.9999999999998</ele><time>2026-04-12T12:31:05.594Z</time></trkpt><trkpt lat="45.6731891" lon="11.1676673"><ele>1256.0</ele><time>2026-04-12T12:31:10.601Z</time></trkpt><trkpt lat="45.673123" lon="11.1677134"><ele>1257.9999999999998</ele><time>2026-04-12T12:31:14.599Z</time></trkpt><trkpt lat="45.6730566" lon="11.1677678"><ele>1260.0</ele><time>2026-04-12T12:31:17.682Z</time></trkpt><trkpt lat="45.6730066" lon="11.1678227"><ele>1262.0</ele><time>2026-04-12T12:31:21.635Z</time></trkpt><trkpt lat="45.6729277" lon="11.1678593"><ele>1264.0</ele><time>2026-04-12T12:31:25.636Z</time></trkpt><trkpt lat="45.6728713" lon="11.167917"><ele>1266.0</ele><time>2026-04-12T12:31:29.605Z</time></trkpt><trkpt lat="45.6728275" lon="11.1679905"><ele>1267.9999999999998</ele><time>2026-04-12T12:31:35.65Z</time></trkpt><trkpt lat="45.6727757" lon="11.1680776"><ele>1270.0</ele><time>2026-04-12T12:31:41.645Z</time></trkpt><trkpt lat="45.6727343" lon="11.1681537"><ele>1270.2857142857142</ele><time>2026-04-12T12:31:45.608Z</time></trkpt><trkpt lat="45.6726862" lon="11.1682229"><ele>1270.5714285714284</ele><time>2026-04-12T12:31:50.656Z</time></trkpt><trkpt lat="45.6726243" lon="11.1682634"><ele>1270.8571428571427</ele><time>2026-04-12T12:31:55.596Z</time></trkpt><trkpt lat="45.672572" lon="11.1683195"><ele>1271.142857142857</ele><time>2026-04-12T12:32:00.6Z</time></trkpt><trkpt lat="45.6725199" lon="11.1683855"><ele>1271.4285714285716</ele><time>2026-04-12T12:32:05.625Z</time></trkpt><trkpt lat="45.6724636" lon="11.1684465"><ele>1271.7142857142856</ele><time>2026-04-12T12:32:10.603Z</time></trkpt><trkpt lat="45.6724283" lon="11.1685213"><ele>1272.0</ele><time>2026-04-12T12:32:14.639Z</time></trkpt><trkpt lat="45.6723775" lon="11.1685856"><ele>1272.0</ele><time>2026-04-12T12:32:19.62Z</time></trkpt><trkpt lat="45.6723145" lon="11.1686136"><ele>1272.0</ele><time>2026-04-12T12:32:23.597Z</time></trkpt><trkpt lat="45.6722452" lon="11.168662"><ele>1272.0</ele><time>2026-04-12T12:32:27.612Z</time></trkpt><trkpt lat="45.6721848" lon="11.1687116"><ele>1272.0</ele><time>2026-04-12T12:32:31.601Z</time></trkpt><trkpt lat="45.6721275" lon="11.1687651"><ele>1272.0</ele><time>2026-04-12T12:32:34.627Z</time></trkpt><trkpt lat="45.6721033" lon="11.1688734"><ele>1272.0</ele><time>2026-04-12T12:32:39.631Z</time></trkpt><trkpt lat="45.6720626" lon="11.1689773"><ele>1272.0</ele><time>2026-04-12T12:32:44.631Z</time></trkpt><trkpt lat="45.6720095" lon="11.1690577"><ele>1269.857142857143</ele><time>2026-04-12T12:32:48.605Z</time></trkpt><trkpt lat="45.6719657" lon="11.16915"><ele>1267.7142857142858</ele><time>2026-04-12T12:32:53.603Z</time></trkpt><trkpt lat="45.6719223" lon="11.1692182"><ele>1265.5714285714287</ele><time>2026-04-12T12:32:57.632Z</time></trkpt><trkpt lat="45.6718698" lon="11.1692887"><ele>1263.4285714285716</ele><time>2026-04-12T12:33:01.599Z</time></trkpt><trkpt lat="45.6718239" lon="11.1693509"><ele>1261.2857142857142</ele><time>2026-04-12T12:33:05.628Z</time></trkpt><trkpt lat="45.6717899" lon="11.1694273"><ele>1259.1428571428573</ele><time>2026-04-12T12:33:11.642Z</time></trkpt><trkpt lat="45.6717639" lon="11.1695262"><ele>1257.0</ele><time>2026-04-12T12:33:17.592Z</time></trkpt><trkpt lat="45.671744" lon="11.1696345"><ele>1257.0000000000002</ele><time>2026-04-12T12:33:22.618Z</time></trkpt><trkpt lat="45.67174" lon="11.169738"><ele>1257.0</ele><time>2026-04-12T12:33:26.582Z</time></trkpt><trkpt lat="45.6717208" lon="11.1698475"><ele>1257.0</ele><time>2026-04-12T12:33:31.605Z</time></trkpt><trkpt lat="45.6717055" lon="11.1699472"><ele>1257.0</ele><time>2026-04-12T12:33:35.602Z</time></trkpt><trkpt lat="45.6716931" lon="11.1700544"><ele>1257.0</ele><time>2026-04-12T12:33:39.607Z</time></trkpt><trkpt lat="45.6716707" lon="11.1701463"><ele>1257.0000000000002</ele><time>2026-04-12T12:33:42.6Z</time></trkpt><trkpt lat="45.6716374" lon="11.1702535"><ele>1257.0</ele><time>2026-04-12T12:33:46.637Z</time></trkpt><trkpt lat="45.6716072" lon="11.1703507"><ele>1279.0</ele><time>2026-04-12T12:33:50.599Z</time></trkpt></trkseg></trk></gpx>